<?xml version="1.0" encoding="UTF-8" standalone="no" ?>
<gpx xmlns="http://www.topografix.com/GPX/1/1" xmlns:xsi="http://www.w3.org/2001/XMLSchema-instance" xsi:schemaLocation="http://www.topografix.com/GPX/1/1 http://www.topografix.com/GPX/1/1/gpx.xsd" version="1.1" creator="VisuGPX - https://www.visugpx.com">
  <metadata>
    <name>VTT 13 décembre 2020 (Les Gressous, seul) </name>
    <desc><![CDATA[
Sans Chris, ni Jacky, je suis parti ce dimanche après-midi en suivant essentiellement des routes goudronnées pour éviter les chasseurs. Temps frais et très peu de soleil. Arrivé aux Gressous (km 14), j'ai eu une douleur à la rotule (ou au ménisque) et je suis rentré au plus vite, mais il restait 9 km. A l'arrivée c'était l'autre rotule qui s'est manifestée.
(Oserais-je dire que je suis arrivé sur les rotules ?)]]></desc>
  </metadata>
  <wpt lat="47.64449" lon="6.18302">
    <ele>230.9</ele>
    <name><![CDATA[0000136]]></name>
    <type><![CDATA[Point de départ]]></type>
  </wpt>
  <wpt lat="47.64449" lon="6.18302">
    <ele>230.9</ele>
    <name><![CDATA[0000136]]></name>
    <type><![CDATA[Point de départ]]></type>
  </wpt>
  <wpt lat="47.6444" lon="6.18322">
    <ele>231.5</ele>
    <name><![CDATA[0000138]]></name>
    <type><![CDATA[Point d'arrivée]]></type>
  </wpt>
  <trk>
    <name><![CDATA[2020-12-13 14:38]]></name>
    <desc><![CDATA[<p>Heure de départ: 12/13/2020 14:38<br/>Heure d'arrivée: 12/13/2020 16:22<br/>Distance: 23,5 km (01:44)<br/>Temps déplacement: 01:40<br/>Vitesse moyenne: 13,52 km/h<br/>Vitesse moyenne mouv.: 14,04 km/h<br/>Vitesse Max.: 39,37 km/h<br/>Altitude minimale: 163 m<br/>Altitude maximale: 300 m<br/>Vitesse de montée: 253 m/h<br/>Vitesse de descente: -343,2 m/h<br/>Gain d'altitude: 224 m<br/>Perte d'altitude: -212 m<br/>Temps de montée: 00:53<br/>Temps de descente: 00:37<br/></p><hr align="center" width="480" style="height: 2px; width: 517px"/>]]></desc>
    <trkseg>
      <trkpt lat="47.64449" lon="6.18302">
        <ele>230.9</ele>
        <time>2020-12-13T13:38:36Z</time>
      </trkpt>
      <trkpt lat="47.64457" lon="6.18315">
        <ele>233.8</ele>
        <time>2020-12-13T13:38:38Z</time>
      </trkpt>
      <trkpt lat="47.64464" lon="6.18321">
        <ele>235.5</ele>
        <time>2020-12-13T13:38:39Z</time>
      </trkpt>
      <trkpt lat="47.64468" lon="6.18325">
        <ele>236.7</ele>
        <time>2020-12-13T13:38:40Z</time>
      </trkpt>
      <trkpt lat="47.64463" lon="6.18318">
        <ele>235.1</ele>
        <time>2020-12-13T13:38:45Z</time>
      </trkpt>
      <trkpt lat="47.6446" lon="6.18313">
        <ele>233.9</ele>
        <time>2020-12-13T13:38:49Z</time>
      </trkpt>
      <trkpt lat="47.64455" lon="6.1831">
        <ele>232.9</ele>
        <time>2020-12-13T13:38:51Z</time>
      </trkpt>
      <trkpt lat="47.64452" lon="6.18306">
        <ele>231.8</ele>
        <time>2020-12-13T13:38:53Z</time>
      </trkpt>
      <trkpt lat="47.64455" lon="6.18299">
        <ele>231.6</ele>
        <time>2020-12-13T13:38:56Z</time>
      </trkpt>
      <trkpt lat="47.64458" lon="6.18292">
        <ele>231.3</ele>
        <time>2020-12-13T13:38:59Z</time>
      </trkpt>
      <trkpt lat="47.6446" lon="6.18285">
        <ele>230.8</ele>
        <time>2020-12-13T13:39:02Z</time>
      </trkpt>
      <trkpt lat="47.64462" lon="6.18277">
        <ele>230.1</ele>
        <time>2020-12-13T13:39:04Z</time>
      </trkpt>
      <trkpt lat="47.64465" lon="6.18271">
        <ele>229.7</ele>
        <time>2020-12-13T13:39:06Z</time>
      </trkpt>
      <trkpt lat="47.64468" lon="6.18265">
        <ele>229.5</ele>
        <time>2020-12-13T13:39:08Z</time>
      </trkpt>
      <trkpt lat="47.64472" lon="6.18259">
        <ele>229.2</ele>
        <time>2020-12-13T13:39:10Z</time>
      </trkpt>
      <trkpt lat="47.64477" lon="6.18252">
        <ele>228.7</ele>
        <time>2020-12-13T13:39:12Z</time>
      </trkpt>
      <trkpt lat="47.64482" lon="6.18243">
        <ele>228.6</ele>
        <time>2020-12-13T13:39:14Z</time>
      </trkpt>
      <trkpt lat="47.64486" lon="6.18234">
        <ele>228.6</ele>
        <time>2020-12-13T13:39:17Z</time>
      </trkpt>
      <trkpt lat="47.6449" lon="6.18226">
        <ele>228.4</ele>
        <time>2020-12-13T13:39:19Z</time>
      </trkpt>
      <trkpt lat="47.64493" lon="6.1822">
        <ele>228.3</ele>
        <time>2020-12-13T13:39:20Z</time>
      </trkpt>
      <trkpt lat="47.64496" lon="6.18212">
        <ele>228</ele>
        <time>2020-12-13T13:39:21Z</time>
      </trkpt>
      <trkpt lat="47.64498" lon="6.18204">
        <ele>227.6</ele>
        <time>2020-12-13T13:39:24Z</time>
      </trkpt>
      <trkpt lat="47.64501" lon="6.18193">
        <ele>227</ele>
        <time>2020-12-13T13:39:25Z</time>
      </trkpt>
      <trkpt lat="47.64501" lon="6.18183">
        <ele>226.3</ele>
        <time>2020-12-13T13:39:27Z</time>
      </trkpt>
      <trkpt lat="47.645" lon="6.18175">
        <ele>225.6</ele>
        <time>2020-12-13T13:39:29Z</time>
      </trkpt>
      <trkpt lat="47.64498" lon="6.18168">
        <ele>225</ele>
        <time>2020-12-13T13:39:30Z</time>
      </trkpt>
      <trkpt lat="47.64496" lon="6.1816">
        <ele>224.8</ele>
        <time>2020-12-13T13:39:30Z</time>
      </trkpt>
      <trkpt lat="47.64495" lon="6.18153">
        <ele>224.6</ele>
        <time>2020-12-13T13:39:32Z</time>
      </trkpt>
      <trkpt lat="47.64493" lon="6.18141">
        <ele>224.3</ele>
        <time>2020-12-13T13:39:33Z</time>
      </trkpt>
      <trkpt lat="47.64493" lon="6.18132">
        <ele>224.1</ele>
        <time>2020-12-13T13:39:35Z</time>
      </trkpt>
      <trkpt lat="47.64494" lon="6.18122">
        <ele>223.9</ele>
        <time>2020-12-13T13:39:36Z</time>
      </trkpt>
      <trkpt lat="47.64495" lon="6.18114">
        <ele>223.7</ele>
        <time>2020-12-13T13:39:37Z</time>
      </trkpt>
      <trkpt lat="47.64497" lon="6.18105">
        <ele>223.5</ele>
        <time>2020-12-13T13:39:39Z</time>
      </trkpt>
      <trkpt lat="47.64499" lon="6.18097">
        <ele>223.3</ele>
        <time>2020-12-13T13:39:40Z</time>
      </trkpt>
      <trkpt lat="47.64501" lon="6.18088">
        <ele>223.2</ele>
        <time>2020-12-13T13:39:42Z</time>
      </trkpt>
      <trkpt lat="47.64502" lon="6.18081">
        <ele>223.5</ele>
        <time>2020-12-13T13:39:42Z</time>
      </trkpt>
      <trkpt lat="47.64505" lon="6.18071">
        <ele>224</ele>
        <time>2020-12-13T13:39:44Z</time>
      </trkpt>
      <trkpt lat="47.64507" lon="6.18063">
        <ele>224.4</ele>
        <time>2020-12-13T13:39:46Z</time>
      </trkpt>
      <trkpt lat="47.64509" lon="6.18057">
        <ele>224.6</ele>
        <time>2020-12-13T13:39:48Z</time>
      </trkpt>
      <trkpt lat="47.64511" lon="6.18047">
        <ele>224.8</ele>
        <time>2020-12-13T13:39:51Z</time>
      </trkpt>
      <trkpt lat="47.64507" lon="6.18042">
        <ele>224.2</ele>
        <time>2020-12-13T13:39:53Z</time>
      </trkpt>
      <trkpt lat="47.64501" lon="6.1804">
        <ele>223.2</ele>
        <time>2020-12-13T13:39:55Z</time>
      </trkpt>
      <trkpt lat="47.64496" lon="6.18038">
        <ele>223</ele>
        <time>2020-12-13T13:39:56Z</time>
      </trkpt>
      <trkpt lat="47.6449" lon="6.18036">
        <ele>222.9</ele>
        <time>2020-12-13T13:39:57Z</time>
      </trkpt>
      <trkpt lat="47.64486" lon="6.18034">
        <ele>222.9</ele>
        <time>2020-12-13T13:39:59Z</time>
      </trkpt>
      <trkpt lat="47.64481" lon="6.1803">
        <ele>222.9</ele>
        <time>2020-12-13T13:40:00Z</time>
      </trkpt>
      <trkpt lat="47.64472" lon="6.18024">
        <ele>222.8</ele>
        <time>2020-12-13T13:40:02Z</time>
      </trkpt>
      <trkpt lat="47.64468" lon="6.18021">
        <ele>222.7</ele>
        <time>2020-12-13T13:40:03Z</time>
      </trkpt>
      <trkpt lat="47.64464" lon="6.18015">
        <ele>222.6</ele>
        <time>2020-12-13T13:40:04Z</time>
      </trkpt>
      <trkpt lat="47.64459" lon="6.18008">
        <ele>222.6</ele>
        <time>2020-12-13T13:40:05Z</time>
      </trkpt>
      <trkpt lat="47.64454" lon="6.18001">
        <ele>222.5</ele>
        <time>2020-12-13T13:40:07Z</time>
      </trkpt>
      <trkpt lat="47.6445" lon="6.17995">
        <ele>222.3</ele>
        <time>2020-12-13T13:40:08Z</time>
      </trkpt>
      <trkpt lat="47.64445" lon="6.17986">
        <ele>222.2</ele>
        <time>2020-12-13T13:40:10Z</time>
      </trkpt>
      <trkpt lat="47.64441" lon="6.17978">
        <ele>222</ele>
        <time>2020-12-13T13:40:11Z</time>
      </trkpt>
      <trkpt lat="47.64437" lon="6.17968">
        <ele>221.9</ele>
        <time>2020-12-13T13:40:13Z</time>
      </trkpt>
      <trkpt lat="47.64433" lon="6.17962">
        <ele>221.7</ele>
        <time>2020-12-13T13:40:15Z</time>
      </trkpt>
      <trkpt lat="47.6443" lon="6.17957">
        <ele>221.6</ele>
        <time>2020-12-13T13:40:16Z</time>
      </trkpt>
      <trkpt lat="47.64425" lon="6.1795">
        <ele>221.5</ele>
        <time>2020-12-13T13:40:19Z</time>
      </trkpt>
      <trkpt lat="47.64422" lon="6.17943">
        <ele>221.4</ele>
        <time>2020-12-13T13:40:21Z</time>
      </trkpt>
      <trkpt lat="47.64418" lon="6.17937">
        <ele>221.3</ele>
        <time>2020-12-13T13:40:23Z</time>
      </trkpt>
      <trkpt lat="47.64414" lon="6.17928">
        <ele>221.1</ele>
        <time>2020-12-13T13:40:27Z</time>
      </trkpt>
      <trkpt lat="47.64411" lon="6.17921">
        <ele>221</ele>
        <time>2020-12-13T13:40:29Z</time>
      </trkpt>
      <trkpt lat="47.64408" lon="6.17915">
        <ele>220.9</ele>
        <time>2020-12-13T13:40:31Z</time>
      </trkpt>
      <trkpt lat="47.64405" lon="6.17907">
        <ele>220.8</ele>
        <time>2020-12-13T13:40:33Z</time>
      </trkpt>
      <trkpt lat="47.64401" lon="6.179">
        <ele>220.8</ele>
        <time>2020-12-13T13:40:35Z</time>
      </trkpt>
      <trkpt lat="47.64397" lon="6.17894">
        <ele>220.7</ele>
        <time>2020-12-13T13:40:37Z</time>
      </trkpt>
      <trkpt lat="47.64392" lon="6.17886">
        <ele>220.6</ele>
        <time>2020-12-13T13:40:39Z</time>
      </trkpt>
      <trkpt lat="47.64388" lon="6.1788">
        <ele>220.5</ele>
        <time>2020-12-13T13:40:41Z</time>
      </trkpt>
      <trkpt lat="47.64385" lon="6.17875">
        <ele>220.4</ele>
        <time>2020-12-13T13:40:42Z</time>
      </trkpt>
      <trkpt lat="47.64382" lon="6.17869">
        <ele>220.3</ele>
        <time>2020-12-13T13:40:44Z</time>
      </trkpt>
      <trkpt lat="47.64377" lon="6.17862">
        <ele>220.2</ele>
        <time>2020-12-13T13:40:46Z</time>
      </trkpt>
      <trkpt lat="47.64372" lon="6.17855">
        <ele>220.1</ele>
        <time>2020-12-13T13:40:48Z</time>
      </trkpt>
      <trkpt lat="47.64367" lon="6.17849">
        <ele>219.9</ele>
        <time>2020-12-13T13:40:49Z</time>
      </trkpt>
      <trkpt lat="47.6436" lon="6.17841">
        <ele>219.7</ele>
        <time>2020-12-13T13:40:52Z</time>
      </trkpt>
      <trkpt lat="47.64355" lon="6.17835">
        <ele>219.5</ele>
        <time>2020-12-13T13:40:53Z</time>
      </trkpt>
      <trkpt lat="47.64352" lon="6.17831">
        <ele>219.5</ele>
        <time>2020-12-13T13:40:54Z</time>
      </trkpt>
      <trkpt lat="47.64344" lon="6.17822">
        <ele>219.5</ele>
        <time>2020-12-13T13:40:57Z</time>
      </trkpt>
      <trkpt lat="47.64342" lon="6.17813">
        <ele>219.6</ele>
        <time>2020-12-13T13:40:58Z</time>
      </trkpt>
      <trkpt lat="47.64339" lon="6.17807">
        <ele>219.7</ele>
        <time>2020-12-13T13:41:00Z</time>
      </trkpt>
      <trkpt lat="47.64332" lon="6.17803">
        <ele>219.7</ele>
        <time>2020-12-13T13:41:02Z</time>
      </trkpt>
      <trkpt lat="47.64326" lon="6.17799">
        <ele>219.6</ele>
        <time>2020-12-13T13:41:03Z</time>
      </trkpt>
      <trkpt lat="47.64322" lon="6.17796">
        <ele>219.6</ele>
        <time>2020-12-13T13:41:04Z</time>
      </trkpt>
      <trkpt lat="47.64315" lon="6.17791">
        <ele>219.5</ele>
        <time>2020-12-13T13:41:06Z</time>
      </trkpt>
      <trkpt lat="47.64306" lon="6.17786">
        <ele>219.3</ele>
        <time>2020-12-13T13:41:08Z</time>
      </trkpt>
      <trkpt lat="47.64299" lon="6.17782">
        <ele>219.1</ele>
        <time>2020-12-13T13:41:09Z</time>
      </trkpt>
      <trkpt lat="47.64293" lon="6.17779">
        <ele>218.9</ele>
        <time>2020-12-13T13:41:11Z</time>
      </trkpt>
      <trkpt lat="47.64286" lon="6.17775">
        <ele>218.6</ele>
        <time>2020-12-13T13:41:13Z</time>
      </trkpt>
      <trkpt lat="47.64277" lon="6.17771">
        <ele>218.3</ele>
        <time>2020-12-13T13:41:15Z</time>
      </trkpt>
      <trkpt lat="47.64269" lon="6.17766">
        <ele>218</ele>
        <time>2020-12-13T13:41:17Z</time>
      </trkpt>
      <trkpt lat="47.64262" lon="6.17762">
        <ele>217.7</ele>
        <time>2020-12-13T13:41:18Z</time>
      </trkpt>
      <trkpt lat="47.64256" lon="6.17758">
        <ele>217.4</ele>
        <time>2020-12-13T13:41:20Z</time>
      </trkpt>
      <trkpt lat="47.64252" lon="6.17755">
        <ele>217.1</ele>
        <time>2020-12-13T13:41:21Z</time>
      </trkpt>
      <trkpt lat="47.64244" lon="6.1775">
        <ele>216.9</ele>
        <time>2020-12-13T13:41:23Z</time>
      </trkpt>
      <trkpt lat="47.64238" lon="6.17744">
        <ele>216.9</ele>
        <time>2020-12-13T13:41:24Z</time>
      </trkpt>
      <trkpt lat="47.64232" lon="6.1774">
        <ele>216.9</ele>
        <time>2020-12-13T13:41:26Z</time>
      </trkpt>
      <trkpt lat="47.64225" lon="6.17732">
        <ele>217</ele>
        <time>2020-12-13T13:41:28Z</time>
      </trkpt>
      <trkpt lat="47.64217" lon="6.17724">
        <ele>217.2</ele>
        <time>2020-12-13T13:41:30Z</time>
      </trkpt>
      <trkpt lat="47.6421" lon="6.17715">
        <ele>217.3</ele>
        <time>2020-12-13T13:41:32Z</time>
      </trkpt>
      <trkpt lat="47.64206" lon="6.17711">
        <ele>217.4</ele>
        <time>2020-12-13T13:41:33Z</time>
      </trkpt>
      <trkpt lat="47.642" lon="6.17701">
        <ele>217.5</ele>
        <time>2020-12-13T13:41:35Z</time>
      </trkpt>
      <trkpt lat="47.64196" lon="6.17695">
        <ele>217.7</ele>
        <time>2020-12-13T13:41:36Z</time>
      </trkpt>
      <trkpt lat="47.64192" lon="6.1769">
        <ele>217.8</ele>
        <time>2020-12-13T13:41:37Z</time>
      </trkpt>
      <trkpt lat="47.64189" lon="6.17686">
        <ele>217.8</ele>
        <time>2020-12-13T13:41:38Z</time>
      </trkpt>
      <trkpt lat="47.64185" lon="6.17681">
        <ele>217.9</ele>
        <time>2020-12-13T13:41:39Z</time>
      </trkpt>
      <trkpt lat="47.64182" lon="6.17676">
        <ele>218</ele>
        <time>2020-12-13T13:41:40Z</time>
      </trkpt>
      <trkpt lat="47.64179" lon="6.17672">
        <ele>218.1</ele>
        <time>2020-12-13T13:41:41Z</time>
      </trkpt>
      <trkpt lat="47.64172" lon="6.17662">
        <ele>218.2</ele>
        <time>2020-12-13T13:41:43Z</time>
      </trkpt>
      <trkpt lat="47.64169" lon="6.17658">
        <ele>218.2</ele>
        <time>2020-12-13T13:41:44Z</time>
      </trkpt>
      <trkpt lat="47.64165" lon="6.17653">
        <ele>218.1</ele>
        <time>2020-12-13T13:41:45Z</time>
      </trkpt>
      <trkpt lat="47.64162" lon="6.17649">
        <ele>218.1</ele>
        <time>2020-12-13T13:41:46Z</time>
      </trkpt>
      <trkpt lat="47.64159" lon="6.17644">
        <ele>218.1</ele>
        <time>2020-12-13T13:41:47Z</time>
      </trkpt>
      <trkpt lat="47.64155" lon="6.17639">
        <ele>218</ele>
        <time>2020-12-13T13:41:48Z</time>
      </trkpt>
      <trkpt lat="47.64152" lon="6.17634">
        <ele>218</ele>
        <time>2020-12-13T13:41:49Z</time>
      </trkpt>
      <trkpt lat="47.64148" lon="6.1763">
        <ele>217.9</ele>
        <time>2020-12-13T13:41:50Z</time>
      </trkpt>
      <trkpt lat="47.64145" lon="6.17625">
        <ele>217.8</ele>
        <time>2020-12-13T13:41:51Z</time>
      </trkpt>
      <trkpt lat="47.64141" lon="6.17621">
        <ele>217.8</ele>
        <time>2020-12-13T13:41:52Z</time>
      </trkpt>
      <trkpt lat="47.64137" lon="6.17616">
        <ele>217.7</ele>
        <time>2020-12-13T13:41:53Z</time>
      </trkpt>
      <trkpt lat="47.64134" lon="6.17612">
        <ele>217.6</ele>
        <time>2020-12-13T13:41:54Z</time>
      </trkpt>
      <trkpt lat="47.64131" lon="6.17607">
        <ele>217.5</ele>
        <time>2020-12-13T13:41:55Z</time>
      </trkpt>
      <trkpt lat="47.64127" lon="6.17602">
        <ele>217.5</ele>
        <time>2020-12-13T13:41:56Z</time>
      </trkpt>
      <trkpt lat="47.64121" lon="6.17593">
        <ele>217.3</ele>
        <time>2020-12-13T13:41:58Z</time>
      </trkpt>
      <trkpt lat="47.64115" lon="6.17584">
        <ele>217.1</ele>
        <time>2020-12-13T13:42:00Z</time>
      </trkpt>
      <trkpt lat="47.64109" lon="6.17575">
        <ele>216.9</ele>
        <time>2020-12-13T13:42:02Z</time>
      </trkpt>
      <trkpt lat="47.64103" lon="6.17565">
        <ele>216.8</ele>
        <time>2020-12-13T13:42:04Z</time>
      </trkpt>
      <trkpt lat="47.64097" lon="6.17557">
        <ele>216.7</ele>
        <time>2020-12-13T13:42:06Z</time>
      </trkpt>
      <trkpt lat="47.64094" lon="6.17552">
        <ele>216.6</ele>
        <time>2020-12-13T13:42:07Z</time>
      </trkpt>
      <trkpt lat="47.64091" lon="6.17547">
        <ele>216.6</ele>
        <time>2020-12-13T13:42:08Z</time>
      </trkpt>
      <trkpt lat="47.64087" lon="6.17542">
        <ele>216.6</ele>
        <time>2020-12-13T13:42:09Z</time>
      </trkpt>
      <trkpt lat="47.6409" lon="6.17537">
        <ele>216.7</ele>
        <time>2020-12-13T13:42:11Z</time>
      </trkpt>
      <trkpt lat="47.64083" lon="6.17527">
        <ele>216.7</ele>
        <time>2020-12-13T13:42:13Z</time>
      </trkpt>
      <trkpt lat="47.64077" lon="6.17522">
        <ele>216.9</ele>
        <time>2020-12-13T13:42:14Z</time>
      </trkpt>
      <trkpt lat="47.64073" lon="6.17518">
        <ele>217</ele>
        <time>2020-12-13T13:42:15Z</time>
      </trkpt>
      <trkpt lat="47.64069" lon="6.17513">
        <ele>217.2</ele>
        <time>2020-12-13T13:42:16Z</time>
      </trkpt>
      <trkpt lat="47.64061" lon="6.17504">
        <ele>217.5</ele>
        <time>2020-12-13T13:42:18Z</time>
      </trkpt>
      <trkpt lat="47.64054" lon="6.17496">
        <ele>217.7</ele>
        <time>2020-12-13T13:42:20Z</time>
      </trkpt>
      <trkpt lat="47.64048" lon="6.17489">
        <ele>217.8</ele>
        <time>2020-12-13T13:42:22Z</time>
      </trkpt>
      <trkpt lat="47.64043" lon="6.17482">
        <ele>218</ele>
        <time>2020-12-13T13:42:24Z</time>
      </trkpt>
      <trkpt lat="47.64038" lon="6.17475">
        <ele>218.1</ele>
        <time>2020-12-13T13:42:26Z</time>
      </trkpt>
      <trkpt lat="47.64034" lon="6.17469">
        <ele>218.2</ele>
        <time>2020-12-13T13:42:28Z</time>
      </trkpt>
      <trkpt lat="47.6403" lon="6.17463">
        <ele>218.3</ele>
        <time>2020-12-13T13:42:30Z</time>
      </trkpt>
      <trkpt lat="47.64027" lon="6.17457">
        <ele>218.4</ele>
        <time>2020-12-13T13:42:32Z</time>
      </trkpt>
      <trkpt lat="47.64023" lon="6.17452">
        <ele>218.4</ele>
        <time>2020-12-13T13:42:34Z</time>
      </trkpt>
      <trkpt lat="47.64019" lon="6.17445">
        <ele>218.6</ele>
        <time>2020-12-13T13:42:37Z</time>
      </trkpt>
      <trkpt lat="47.64015" lon="6.1744">
        <ele>218.6</ele>
        <time>2020-12-13T13:42:39Z</time>
      </trkpt>
      <trkpt lat="47.64011" lon="6.17434">
        <ele>218.7</ele>
        <time>2020-12-13T13:42:42Z</time>
      </trkpt>
      <trkpt lat="47.64005" lon="6.17428">
        <ele>218.9</ele>
        <time>2020-12-13T13:42:45Z</time>
      </trkpt>
      <trkpt lat="47.64" lon="6.17428">
        <ele>219</ele>
        <time>2020-12-13T13:42:47Z</time>
      </trkpt>
      <trkpt lat="47.63999" lon="6.17435">
        <ele>219</ele>
        <time>2020-12-13T13:42:49Z</time>
      </trkpt>
      <trkpt lat="47.64002" lon="6.1744">
        <ele>218.9</ele>
        <time>2020-12-13T13:42:50Z</time>
      </trkpt>
      <trkpt lat="47.64007" lon="6.17449">
        <ele>218.8</ele>
        <time>2020-12-13T13:42:53Z</time>
      </trkpt>
      <trkpt lat="47.64011" lon="6.17456">
        <ele>218.7</ele>
        <time>2020-12-13T13:42:54Z</time>
      </trkpt>
      <trkpt lat="47.64016" lon="6.17465">
        <ele>218.6</ele>
        <time>2020-12-13T13:42:57Z</time>
      </trkpt>
      <trkpt lat="47.64022" lon="6.17473">
        <ele>218.5</ele>
        <time>2020-12-13T13:42:59Z</time>
      </trkpt>
      <trkpt lat="47.64027" lon="6.1748">
        <ele>218.4</ele>
        <time>2020-12-13T13:43:01Z</time>
      </trkpt>
      <trkpt lat="47.64033" lon="6.17488">
        <ele>218.2</ele>
        <time>2020-12-13T13:43:03Z</time>
      </trkpt>
      <trkpt lat="47.64037" lon="6.17493">
        <ele>218.1</ele>
        <time>2020-12-13T13:43:04Z</time>
      </trkpt>
      <trkpt lat="47.64042" lon="6.175">
        <ele>218</ele>
        <time>2020-12-13T13:43:06Z</time>
      </trkpt>
      <trkpt lat="47.64048" lon="6.17508">
        <ele>217.8</ele>
        <time>2020-12-13T13:43:08Z</time>
      </trkpt>
      <trkpt lat="47.64054" lon="6.17517">
        <ele>217.5</ele>
        <time>2020-12-13T13:43:10Z</time>
      </trkpt>
      <trkpt lat="47.64057" lon="6.17522">
        <ele>217.4</ele>
        <time>2020-12-13T13:43:11Z</time>
      </trkpt>
      <trkpt lat="47.64062" lon="6.17528">
        <ele>217.2</ele>
        <time>2020-12-13T13:43:12Z</time>
      </trkpt>
      <trkpt lat="47.64066" lon="6.17533">
        <ele>217</ele>
        <time>2020-12-13T13:43:13Z</time>
      </trkpt>
      <trkpt lat="47.64071" lon="6.17539">
        <ele>216.8</ele>
        <time>2020-12-13T13:43:15Z</time>
      </trkpt>
      <trkpt lat="47.64077" lon="6.17548">
        <ele>216.6</ele>
        <time>2020-12-13T13:43:17Z</time>
      </trkpt>
      <trkpt lat="47.64081" lon="6.17554">
        <ele>216.4</ele>
        <time>2020-12-13T13:43:18Z</time>
      </trkpt>
      <trkpt lat="47.64085" lon="6.1756">
        <ele>216.3</ele>
        <time>2020-12-13T13:43:19Z</time>
      </trkpt>
      <trkpt lat="47.6409" lon="6.17567">
        <ele>216.4</ele>
        <time>2020-12-13T13:43:21Z</time>
      </trkpt>
      <trkpt lat="47.64094" lon="6.17572">
        <ele>216.5</ele>
        <time>2020-12-13T13:43:22Z</time>
      </trkpt>
      <trkpt lat="47.64097" lon="6.17577">
        <ele>216.5</ele>
        <time>2020-12-13T13:43:23Z</time>
      </trkpt>
      <trkpt lat="47.64102" lon="6.17583">
        <ele>216.7</ele>
        <time>2020-12-13T13:43:25Z</time>
      </trkpt>
      <trkpt lat="47.64106" lon="6.17589">
        <ele>216.8</ele>
        <time>2020-12-13T13:43:26Z</time>
      </trkpt>
      <trkpt lat="47.6411" lon="6.17594">
        <ele>216.9</ele>
        <time>2020-12-13T13:43:27Z</time>
      </trkpt>
      <trkpt lat="47.64114" lon="6.176">
        <ele>217</ele>
        <time>2020-12-13T13:43:29Z</time>
      </trkpt>
      <trkpt lat="47.64118" lon="6.17605">
        <ele>217.1</ele>
        <time>2020-12-13T13:43:30Z</time>
      </trkpt>
      <trkpt lat="47.64122" lon="6.1761">
        <ele>217.2</ele>
        <time>2020-12-13T13:43:31Z</time>
      </trkpt>
      <trkpt lat="47.64126" lon="6.17617">
        <ele>217.3</ele>
        <time>2020-12-13T13:43:33Z</time>
      </trkpt>
      <trkpt lat="47.6413" lon="6.17622">
        <ele>217.4</ele>
        <time>2020-12-13T13:43:34Z</time>
      </trkpt>
      <trkpt lat="47.64135" lon="6.17629">
        <ele>217.5</ele>
        <time>2020-12-13T13:43:35Z</time>
      </trkpt>
      <trkpt lat="47.64139" lon="6.17634">
        <ele>217.6</ele>
        <time>2020-12-13T13:43:37Z</time>
      </trkpt>
      <trkpt lat="47.64144" lon="6.1764">
        <ele>217.7</ele>
        <time>2020-12-13T13:43:38Z</time>
      </trkpt>
      <trkpt lat="47.6415" lon="6.1765">
        <ele>217.8</ele>
        <time>2020-12-13T13:43:41Z</time>
      </trkpt>
      <trkpt lat="47.64155" lon="6.17657">
        <ele>217.8</ele>
        <time>2020-12-13T13:43:43Z</time>
      </trkpt>
      <trkpt lat="47.64161" lon="6.17665">
        <ele>217.9</ele>
        <time>2020-12-13T13:43:45Z</time>
      </trkpt>
      <trkpt lat="47.64166" lon="6.17671">
        <ele>217.8</ele>
        <time>2020-12-13T13:43:46Z</time>
      </trkpt>
      <trkpt lat="47.6417" lon="6.17678">
        <ele>217.7</ele>
        <time>2020-12-13T13:43:48Z</time>
      </trkpt>
      <trkpt lat="47.64176" lon="6.17686">
        <ele>217.5</ele>
        <time>2020-12-13T13:43:50Z</time>
      </trkpt>
      <trkpt lat="47.64182" lon="6.17694">
        <ele>217.4</ele>
        <time>2020-12-13T13:43:52Z</time>
      </trkpt>
      <trkpt lat="47.64186" lon="6.17699">
        <ele>217.3</ele>
        <time>2020-12-13T13:43:53Z</time>
      </trkpt>
      <trkpt lat="47.6419" lon="6.17704">
        <ele>217.2</ele>
        <time>2020-12-13T13:43:54Z</time>
      </trkpt>
      <trkpt lat="47.64194" lon="6.17709">
        <ele>217.1</ele>
        <time>2020-12-13T13:43:56Z</time>
      </trkpt>
      <trkpt lat="47.64197" lon="6.17714">
        <ele>217</ele>
        <time>2020-12-13T13:43:57Z</time>
      </trkpt>
      <trkpt lat="47.64204" lon="6.17722">
        <ele>216.9</ele>
        <time>2020-12-13T13:43:59Z</time>
      </trkpt>
      <trkpt lat="47.6421" lon="6.1773">
        <ele>216.8</ele>
        <time>2020-12-13T13:44:01Z</time>
      </trkpt>
      <trkpt lat="47.64216" lon="6.17737">
        <ele>216.6</ele>
        <time>2020-12-13T13:44:03Z</time>
      </trkpt>
      <trkpt lat="47.64223" lon="6.17745">
        <ele>216.5</ele>
        <time>2020-12-13T13:44:05Z</time>
      </trkpt>
      <trkpt lat="47.64229" lon="6.17751">
        <ele>216.5</ele>
        <time>2020-12-13T13:44:07Z</time>
      </trkpt>
      <trkpt lat="47.64235" lon="6.17757">
        <ele>216.7</ele>
        <time>2020-12-13T13:44:08Z</time>
      </trkpt>
      <trkpt lat="47.64242" lon="6.17762">
        <ele>217</ele>
        <time>2020-12-13T13:44:10Z</time>
      </trkpt>
      <trkpt lat="47.64247" lon="6.17766">
        <ele>217.1</ele>
        <time>2020-12-13T13:44:12Z</time>
      </trkpt>
      <trkpt lat="47.64253" lon="6.1777">
        <ele>217.3</ele>
        <time>2020-12-13T13:44:13Z</time>
      </trkpt>
      <trkpt lat="47.64259" lon="6.17775">
        <ele>217.7</ele>
        <time>2020-12-13T13:44:15Z</time>
      </trkpt>
      <trkpt lat="47.64265" lon="6.17778">
        <ele>217.9</ele>
        <time>2020-12-13T13:44:17Z</time>
      </trkpt>
      <trkpt lat="47.64271" lon="6.17782">
        <ele>218.1</ele>
        <time>2020-12-13T13:44:18Z</time>
      </trkpt>
      <trkpt lat="47.64276" lon="6.17785">
        <ele>218.3</ele>
        <time>2020-12-13T13:44:20Z</time>
      </trkpt>
      <trkpt lat="47.64284" lon="6.17789">
        <ele>218.5</ele>
        <time>2020-12-13T13:44:22Z</time>
      </trkpt>
      <trkpt lat="47.64291" lon="6.17794">
        <ele>218.7</ele>
        <time>2020-12-13T13:44:24Z</time>
      </trkpt>
      <trkpt lat="47.64296" lon="6.17797">
        <ele>218.8</ele>
        <time>2020-12-13T13:44:25Z</time>
      </trkpt>
      <trkpt lat="47.64303" lon="6.17801">
        <ele>219</ele>
        <time>2020-12-13T13:44:27Z</time>
      </trkpt>
      <trkpt lat="47.64309" lon="6.17804">
        <ele>219.1</ele>
        <time>2020-12-13T13:44:28Z</time>
      </trkpt>
      <trkpt lat="47.64313" lon="6.17807">
        <ele>219.2</ele>
        <time>2020-12-13T13:44:29Z</time>
      </trkpt>
      <trkpt lat="47.64319" lon="6.17811">
        <ele>219.2</ele>
        <time>2020-12-13T13:44:31Z</time>
      </trkpt>
      <trkpt lat="47.64324" lon="6.17814">
        <ele>219.3</ele>
        <time>2020-12-13T13:44:32Z</time>
      </trkpt>
      <trkpt lat="47.64328" lon="6.17817">
        <ele>219.3</ele>
        <time>2020-12-13T13:44:33Z</time>
      </trkpt>
      <trkpt lat="47.64335" lon="6.17822">
        <ele>219.3</ele>
        <time>2020-12-13T13:44:35Z</time>
      </trkpt>
      <trkpt lat="47.6434" lon="6.17826">
        <ele>219.3</ele>
        <time>2020-12-13T13:44:37Z</time>
      </trkpt>
      <trkpt lat="47.64345" lon="6.1783">
        <ele>219.3</ele>
        <time>2020-12-13T13:44:38Z</time>
      </trkpt>
      <trkpt lat="47.64351" lon="6.17835">
        <ele>219.4</ele>
        <time>2020-12-13T13:44:40Z</time>
      </trkpt>
      <trkpt lat="47.64357" lon="6.17841">
        <ele>219.6</ele>
        <time>2020-12-13T13:44:42Z</time>
      </trkpt>
      <trkpt lat="47.64361" lon="6.17846">
        <ele>219.8</ele>
        <time>2020-12-13T13:44:44Z</time>
      </trkpt>
      <trkpt lat="47.64365" lon="6.17851">
        <ele>219.9</ele>
        <time>2020-12-13T13:44:45Z</time>
      </trkpt>
      <trkpt lat="47.64369" lon="6.17855">
        <ele>220</ele>
        <time>2020-12-13T13:44:47Z</time>
      </trkpt>
      <trkpt lat="47.64374" lon="6.17862">
        <ele>220.2</ele>
        <time>2020-12-13T13:44:49Z</time>
      </trkpt>
      <trkpt lat="47.64379" lon="6.17868">
        <ele>220.3</ele>
        <time>2020-12-13T13:44:51Z</time>
      </trkpt>
      <trkpt lat="47.64384" lon="6.17876">
        <ele>220.4</ele>
        <time>2020-12-13T13:44:53Z</time>
      </trkpt>
      <trkpt lat="47.64388" lon="6.17883">
        <ele>220.5</ele>
        <time>2020-12-13T13:44:55Z</time>
      </trkpt>
      <trkpt lat="47.64393" lon="6.17891">
        <ele>220.6</ele>
        <time>2020-12-13T13:44:57Z</time>
      </trkpt>
      <trkpt lat="47.64397" lon="6.17898">
        <ele>220.7</ele>
        <time>2020-12-13T13:44:59Z</time>
      </trkpt>
      <trkpt lat="47.64402" lon="6.17907">
        <ele>220.8</ele>
        <time>2020-12-13T13:45:01Z</time>
      </trkpt>
      <trkpt lat="47.64404" lon="6.17912">
        <ele>220.8</ele>
        <time>2020-12-13T13:45:02Z</time>
      </trkpt>
      <trkpt lat="47.64408" lon="6.17919">
        <ele>220.9</ele>
        <time>2020-12-13T13:45:03Z</time>
      </trkpt>
      <trkpt lat="47.64411" lon="6.17924">
        <ele>221</ele>
        <time>2020-12-13T13:45:04Z</time>
      </trkpt>
      <trkpt lat="47.64414" lon="6.1793">
        <ele>221.1</ele>
        <time>2020-12-13T13:45:06Z</time>
      </trkpt>
      <trkpt lat="47.64418" lon="6.17937">
        <ele>221.3</ele>
        <time>2020-12-13T13:45:07Z</time>
      </trkpt>
      <trkpt lat="47.64421" lon="6.17943">
        <ele>221.4</ele>
        <time>2020-12-13T13:45:09Z</time>
      </trkpt>
      <trkpt lat="47.64427" lon="6.17952">
        <ele>221.5</ele>
        <time>2020-12-13T13:45:11Z</time>
      </trkpt>
      <trkpt lat="47.64432" lon="6.1796">
        <ele>221.7</ele>
        <time>2020-12-13T13:45:13Z</time>
      </trkpt>
      <trkpt lat="47.64436" lon="6.17967">
        <ele>221.8</ele>
        <time>2020-12-13T13:45:14Z</time>
      </trkpt>
      <trkpt lat="47.64442" lon="6.17977">
        <ele>222</ele>
        <time>2020-12-13T13:45:16Z</time>
      </trkpt>
      <trkpt lat="47.64446" lon="6.17986">
        <ele>222.2</ele>
        <time>2020-12-13T13:45:18Z</time>
      </trkpt>
      <trkpt lat="47.64451" lon="6.17998">
        <ele>222.4</ele>
        <time>2020-12-13T13:45:20Z</time>
      </trkpt>
      <trkpt lat="47.64454" lon="6.18003">
        <ele>222.5</ele>
        <time>2020-12-13T13:45:21Z</time>
      </trkpt>
      <trkpt lat="47.64461" lon="6.18015">
        <ele>222.6</ele>
        <time>2020-12-13T13:45:23Z</time>
      </trkpt>
      <trkpt lat="47.64467" lon="6.18024">
        <ele>222.7</ele>
        <time>2020-12-13T13:45:24Z</time>
      </trkpt>
      <trkpt lat="47.64472" lon="6.18029">
        <ele>222.8</ele>
        <time>2020-12-13T13:45:26Z</time>
      </trkpt>
      <trkpt lat="47.64477" lon="6.18033">
        <ele>222.8</ele>
        <time>2020-12-13T13:45:27Z</time>
      </trkpt>
      <trkpt lat="47.64482" lon="6.18037">
        <ele>222.9</ele>
        <time>2020-12-13T13:45:28Z</time>
      </trkpt>
      <trkpt lat="47.64486" lon="6.1804">
        <ele>222.9</ele>
        <time>2020-12-13T13:45:29Z</time>
      </trkpt>
      <trkpt lat="47.64491" lon="6.18043">
        <ele>222.9</ele>
        <time>2020-12-13T13:45:31Z</time>
      </trkpt>
      <trkpt lat="47.64497" lon="6.18047">
        <ele>223</ele>
        <time>2020-12-13T13:45:33Z</time>
      </trkpt>
      <trkpt lat="47.64502" lon="6.18049">
        <ele>223.3</ele>
        <time>2020-12-13T13:45:34Z</time>
      </trkpt>
      <trkpt lat="47.64507" lon="6.18051">
        <ele>224.2</ele>
        <time>2020-12-13T13:45:36Z</time>
      </trkpt>
      <trkpt lat="47.64511" lon="6.18056">
        <ele>225</ele>
        <time>2020-12-13T13:45:37Z</time>
      </trkpt>
      <trkpt lat="47.64511" lon="6.18064">
        <ele>225</ele>
        <time>2020-12-13T13:45:39Z</time>
      </trkpt>
      <trkpt lat="47.64509" lon="6.18075">
        <ele>224.7</ele>
        <time>2020-12-13T13:45:42Z</time>
      </trkpt>
      <trkpt lat="47.64507" lon="6.18082">
        <ele>224.3</ele>
        <time>2020-12-13T13:45:44Z</time>
      </trkpt>
      <trkpt lat="47.64504" lon="6.1809">
        <ele>223.9</ele>
        <time>2020-12-13T13:45:45Z</time>
      </trkpt>
      <trkpt lat="47.645" lon="6.18099">
        <ele>223.4</ele>
        <time>2020-12-13T13:45:47Z</time>
      </trkpt>
      <trkpt lat="47.64497" lon="6.18107">
        <ele>223.5</ele>
        <time>2020-12-13T13:45:49Z</time>
      </trkpt>
      <trkpt lat="47.64495" lon="6.18118">
        <ele>223.8</ele>
        <time>2020-12-13T13:45:51Z</time>
      </trkpt>
      <trkpt lat="47.64493" lon="6.18125">
        <ele>223.9</ele>
        <time>2020-12-13T13:45:52Z</time>
      </trkpt>
      <trkpt lat="47.64492" lon="6.18133">
        <ele>224.1</ele>
        <time>2020-12-13T13:45:53Z</time>
      </trkpt>
      <trkpt lat="47.64492" lon="6.18145">
        <ele>224.3</ele>
        <time>2020-12-13T13:45:54Z</time>
      </trkpt>
      <trkpt lat="47.64492" lon="6.18153">
        <ele>224.5</ele>
        <time>2020-12-13T13:45:56Z</time>
      </trkpt>
      <trkpt lat="47.64495" lon="6.18164">
        <ele>224.8</ele>
        <time>2020-12-13T13:45:58Z</time>
      </trkpt>
      <trkpt lat="47.64498" lon="6.18176">
        <ele>225.6</ele>
        <time>2020-12-13T13:46:00Z</time>
      </trkpt>
      <trkpt lat="47.64498" lon="6.18188">
        <ele>226.5</ele>
        <time>2020-12-13T13:46:02Z</time>
      </trkpt>
      <trkpt lat="47.64495" lon="6.18198">
        <ele>227</ele>
        <time>2020-12-13T13:46:04Z</time>
      </trkpt>
      <trkpt lat="47.64493" lon="6.18207">
        <ele>227.5</ele>
        <time>2020-12-13T13:46:06Z</time>
      </trkpt>
      <trkpt lat="47.64491" lon="6.18214">
        <ele>227.8</ele>
        <time>2020-12-13T13:46:07Z</time>
      </trkpt>
      <trkpt lat="47.64489" lon="6.18222">
        <ele>228.1</ele>
        <time>2020-12-13T13:46:10Z</time>
      </trkpt>
      <trkpt lat="47.64485" lon="6.18232">
        <ele>228.4</ele>
        <time>2020-12-13T13:46:13Z</time>
      </trkpt>
      <trkpt lat="47.6448" lon="6.18241">
        <ele>228.4</ele>
        <time>2020-12-13T13:46:15Z</time>
      </trkpt>
      <trkpt lat="47.64477" lon="6.18246">
        <ele>228.3</ele>
        <time>2020-12-13T13:46:16Z</time>
      </trkpt>
      <trkpt lat="47.64473" lon="6.18254">
        <ele>228.6</ele>
        <time>2020-12-13T13:46:18Z</time>
      </trkpt>
      <trkpt lat="47.64469" lon="6.1826">
        <ele>228.9</ele>
        <time>2020-12-13T13:46:19Z</time>
      </trkpt>
      <trkpt lat="47.64466" lon="6.18265">
        <ele>229.1</ele>
        <time>2020-12-13T13:46:20Z</time>
      </trkpt>
      <trkpt lat="47.6446" lon="6.1827">
        <ele>229.1</ele>
        <time>2020-12-13T13:46:22Z</time>
      </trkpt>
      <trkpt lat="47.64456" lon="6.18275">
        <ele>229</ele>
        <time>2020-12-13T13:46:23Z</time>
      </trkpt>
      <trkpt lat="47.64452" lon="6.1828">
        <ele>229</ele>
        <time>2020-12-13T13:46:25Z</time>
      </trkpt>
      <trkpt lat="47.64448" lon="6.18285">
        <ele>229</ele>
        <time>2020-12-13T13:46:27Z</time>
      </trkpt>
      <trkpt lat="47.64444" lon="6.1829">
        <ele>228.9</ele>
        <time>2020-12-13T13:46:28Z</time>
      </trkpt>
      <trkpt lat="47.64439" lon="6.18296">
        <ele>228.8</ele>
        <time>2020-12-13T13:46:30Z</time>
      </trkpt>
      <trkpt lat="47.64437" lon="6.18302">
        <ele>229</ele>
        <time>2020-12-13T13:46:32Z</time>
      </trkpt>
      <trkpt lat="47.64437" lon="6.18311">
        <ele>229.9</ele>
        <time>2020-12-13T13:46:34Z</time>
      </trkpt>
      <trkpt lat="47.64436" lon="6.1832">
        <ele>230.4</ele>
        <time>2020-12-13T13:46:35Z</time>
      </trkpt>
      <trkpt lat="47.64432" lon="6.18326">
        <ele>230.3</ele>
        <time>2020-12-13T13:46:38Z</time>
      </trkpt>
      <trkpt lat="47.64434" lon="6.1832">
        <ele>230.2</ele>
        <time>2020-12-13T13:46:42Z</time>
      </trkpt>
      <trkpt lat="47.6443" lon="6.1832">
        <ele>229.3</ele>
        <time>2020-12-13T13:47:00Z</time>
      </trkpt>
      <trkpt lat="47.64425" lon="6.18322">
        <ele>228.8</ele>
        <time>2020-12-13T13:47:35Z</time>
      </trkpt>
      <trkpt lat="47.64429" lon="6.18317">
        <ele>229</ele>
        <time>2020-12-13T13:49:07Z</time>
      </trkpt>
      <trkpt lat="47.6443" lon="6.18308">
        <ele>228.4</ele>
        <time>2020-12-13T13:50:18Z</time>
      </trkpt>
      <trkpt lat="47.64435" lon="6.18301">
        <ele>228.6</ele>
        <time>2020-12-13T13:50:21Z</time>
      </trkpt>
      <trkpt lat="47.64439" lon="6.18295">
        <ele>228.7</ele>
        <time>2020-12-13T13:50:23Z</time>
      </trkpt>
      <trkpt lat="47.64444" lon="6.1829">
        <ele>228.9</ele>
        <time>2020-12-13T13:50:25Z</time>
      </trkpt>
      <trkpt lat="47.64449" lon="6.18285">
        <ele>229.1</ele>
        <time>2020-12-13T13:50:27Z</time>
      </trkpt>
      <trkpt lat="47.64454" lon="6.18279">
        <ele>229.2</ele>
        <time>2020-12-13T13:50:28Z</time>
      </trkpt>
      <trkpt lat="47.6446" lon="6.18272">
        <ele>229.3</ele>
        <time>2020-12-13T13:50:31Z</time>
      </trkpt>
      <trkpt lat="47.64468" lon="6.18263">
        <ele>229.1</ele>
        <time>2020-12-13T13:50:33Z</time>
      </trkpt>
      <trkpt lat="47.64472" lon="6.18258">
        <ele>229</ele>
        <time>2020-12-13T13:50:34Z</time>
      </trkpt>
      <trkpt lat="47.6448" lon="6.18249">
        <ele>228.8</ele>
        <time>2020-12-13T13:50:35Z</time>
      </trkpt>
      <trkpt lat="47.64484" lon="6.18242">
        <ele>228.9</ele>
        <time>2020-12-13T13:50:36Z</time>
      </trkpt>
      <trkpt lat="47.64488" lon="6.18235">
        <ele>228.8</ele>
        <time>2020-12-13T13:50:37Z</time>
      </trkpt>
      <trkpt lat="47.64491" lon="6.18228">
        <ele>228.7</ele>
        <time>2020-12-13T13:50:38Z</time>
      </trkpt>
      <trkpt lat="47.64494" lon="6.18222">
        <ele>228.5</ele>
        <time>2020-12-13T13:50:39Z</time>
      </trkpt>
      <trkpt lat="47.64497" lon="6.18216">
        <ele>228.3</ele>
        <time>2020-12-13T13:50:40Z</time>
      </trkpt>
      <trkpt lat="47.64499" lon="6.1821">
        <ele>228.1</ele>
        <time>2020-12-13T13:50:41Z</time>
      </trkpt>
      <trkpt lat="47.64501" lon="6.18204">
        <ele>227.9</ele>
        <time>2020-12-13T13:50:42Z</time>
      </trkpt>
      <trkpt lat="47.64503" lon="6.18197">
        <ele>227.8</ele>
        <time>2020-12-13T13:50:43Z</time>
      </trkpt>
      <trkpt lat="47.64505" lon="6.18189">
        <ele>227.5</ele>
        <time>2020-12-13T13:50:44Z</time>
      </trkpt>
      <trkpt lat="47.64505" lon="6.1818">
        <ele>226.9</ele>
        <time>2020-12-13T13:50:45Z</time>
      </trkpt>
      <trkpt lat="47.64504" lon="6.18172">
        <ele>226.1</ele>
        <time>2020-12-13T13:50:46Z</time>
      </trkpt>
      <trkpt lat="47.64502" lon="6.18164">
        <ele>225.3</ele>
        <time>2020-12-13T13:50:47Z</time>
      </trkpt>
      <trkpt lat="47.64499" lon="6.18157">
        <ele>224.7</ele>
        <time>2020-12-13T13:50:48Z</time>
      </trkpt>
      <trkpt lat="47.64498" lon="6.18149">
        <ele>224.5</ele>
        <time>2020-12-13T13:50:49Z</time>
      </trkpt>
      <trkpt lat="47.64497" lon="6.18141">
        <ele>224.3</ele>
        <time>2020-12-13T13:50:50Z</time>
      </trkpt>
      <trkpt lat="47.64497" lon="6.18134">
        <ele>224.2</ele>
        <time>2020-12-13T13:50:51Z</time>
      </trkpt>
      <trkpt lat="47.64498" lon="6.18127">
        <ele>224</ele>
        <time>2020-12-13T13:50:52Z</time>
      </trkpt>
      <trkpt lat="47.645" lon="6.18119">
        <ele>223.9</ele>
        <time>2020-12-13T13:50:53Z</time>
      </trkpt>
      <trkpt lat="47.64501" lon="6.18112">
        <ele>223.9</ele>
        <time>2020-12-13T13:50:54Z</time>
      </trkpt>
      <trkpt lat="47.64502" lon="6.18105">
        <ele>224</ele>
        <time>2020-12-13T13:50:55Z</time>
      </trkpt>
      <trkpt lat="47.64504" lon="6.18099">
        <ele>224.1</ele>
        <time>2020-12-13T13:50:56Z</time>
      </trkpt>
      <trkpt lat="47.64506" lon="6.18089">
        <ele>224.3</ele>
        <time>2020-12-13T13:50:58Z</time>
      </trkpt>
      <trkpt lat="47.64509" lon="6.18076">
        <ele>224.7</ele>
        <time>2020-12-13T13:51:00Z</time>
      </trkpt>
      <trkpt lat="47.64511" lon="6.18066">
        <ele>225.1</ele>
        <time>2020-12-13T13:51:02Z</time>
      </trkpt>
      <trkpt lat="47.64513" lon="6.18059">
        <ele>225.3</ele>
        <time>2020-12-13T13:51:04Z</time>
      </trkpt>
      <trkpt lat="47.64513" lon="6.18051">
        <ele>225.2</ele>
        <time>2020-12-13T13:51:06Z</time>
      </trkpt>
      <trkpt lat="47.64517" lon="6.18047">
        <ele>225.8</ele>
        <time>2020-12-13T13:51:07Z</time>
      </trkpt>
      <trkpt lat="47.64523" lon="6.18041">
        <ele>226.6</ele>
        <time>2020-12-13T13:51:09Z</time>
      </trkpt>
      <trkpt lat="47.64527" lon="6.18037">
        <ele>227.2</ele>
        <time>2020-12-13T13:51:11Z</time>
      </trkpt>
      <trkpt lat="47.64531" lon="6.18032">
        <ele>227.8</ele>
        <time>2020-12-13T13:51:14Z</time>
      </trkpt>
      <trkpt lat="47.64535" lon="6.18027">
        <ele>228.2</ele>
        <time>2020-12-13T13:51:16Z</time>
      </trkpt>
      <trkpt lat="47.6454" lon="6.18022">
        <ele>228.6</ele>
        <time>2020-12-13T13:51:20Z</time>
      </trkpt>
      <trkpt lat="47.64543" lon="6.18016">
        <ele>228.8</ele>
        <time>2020-12-13T13:51:23Z</time>
      </trkpt>
      <trkpt lat="47.64546" lon="6.18009">
        <ele>228.9</ele>
        <time>2020-12-13T13:51:25Z</time>
      </trkpt>
      <trkpt lat="47.64548" lon="6.18002">
        <ele>228.9</ele>
        <time>2020-12-13T13:51:27Z</time>
      </trkpt>
      <trkpt lat="47.64551" lon="6.17994">
        <ele>228.7</ele>
        <time>2020-12-13T13:51:29Z</time>
      </trkpt>
      <trkpt lat="47.64553" lon="6.17985">
        <ele>228.3</ele>
        <time>2020-12-13T13:51:31Z</time>
      </trkpt>
      <trkpt lat="47.64556" lon="6.17976">
        <ele>227.8</ele>
        <time>2020-12-13T13:51:34Z</time>
      </trkpt>
      <trkpt lat="47.64559" lon="6.17964">
        <ele>227.2</ele>
        <time>2020-12-13T13:51:36Z</time>
      </trkpt>
      <trkpt lat="47.6456" lon="6.17957">
        <ele>226.8</ele>
        <time>2020-12-13T13:51:37Z</time>
      </trkpt>
      <trkpt lat="47.64562" lon="6.1795">
        <ele>226.3</ele>
        <time>2020-12-13T13:51:38Z</time>
      </trkpt>
      <trkpt lat="47.64565" lon="6.17941">
        <ele>225.7</ele>
        <time>2020-12-13T13:51:38Z</time>
      </trkpt>
      <trkpt lat="47.64571" lon="6.17929">
        <ele>224.8</ele>
        <time>2020-12-13T13:51:40Z</time>
      </trkpt>
      <trkpt lat="47.64576" lon="6.17921">
        <ele>224.3</ele>
        <time>2020-12-13T13:51:41Z</time>
      </trkpt>
      <trkpt lat="47.64585" lon="6.17908">
        <ele>224.1</ele>
        <time>2020-12-13T13:51:42Z</time>
      </trkpt>
      <trkpt lat="47.64591" lon="6.17901">
        <ele>224</ele>
        <time>2020-12-13T13:51:43Z</time>
      </trkpt>
      <trkpt lat="47.64597" lon="6.17894">
        <ele>223.9</ele>
        <time>2020-12-13T13:51:44Z</time>
      </trkpt>
      <trkpt lat="47.64602" lon="6.17889">
        <ele>223.7</ele>
        <time>2020-12-13T13:51:45Z</time>
      </trkpt>
      <trkpt lat="47.64608" lon="6.17885">
        <ele>223.6</ele>
        <time>2020-12-13T13:51:46Z</time>
      </trkpt>
      <trkpt lat="47.64613" lon="6.17881">
        <ele>223.4</ele>
        <time>2020-12-13T13:51:47Z</time>
      </trkpt>
      <trkpt lat="47.64618" lon="6.1788">
        <ele>223.2</ele>
        <time>2020-12-13T13:51:48Z</time>
      </trkpt>
      <trkpt lat="47.64623" lon="6.1788">
        <ele>223.1</ele>
        <time>2020-12-13T13:51:49Z</time>
      </trkpt>
      <trkpt lat="47.64628" lon="6.17882">
        <ele>222.9</ele>
        <time>2020-12-13T13:51:50Z</time>
      </trkpt>
      <trkpt lat="47.64633" lon="6.17884">
        <ele>222.7</ele>
        <time>2020-12-13T13:51:51Z</time>
      </trkpt>
      <trkpt lat="47.64638" lon="6.17887">
        <ele>222.6</ele>
        <time>2020-12-13T13:51:52Z</time>
      </trkpt>
      <trkpt lat="47.64642" lon="6.1789">
        <ele>222.5</ele>
        <time>2020-12-13T13:51:53Z</time>
      </trkpt>
      <trkpt lat="47.64647" lon="6.17892">
        <ele>222.3</ele>
        <time>2020-12-13T13:51:54Z</time>
      </trkpt>
      <trkpt lat="47.64654" lon="6.17897">
        <ele>222.2</ele>
        <time>2020-12-13T13:51:56Z</time>
      </trkpt>
      <trkpt lat="47.64661" lon="6.17902">
        <ele>222</ele>
        <time>2020-12-13T13:51:58Z</time>
      </trkpt>
      <trkpt lat="47.64668" lon="6.17906">
        <ele>221.8</ele>
        <time>2020-12-13T13:52:00Z</time>
      </trkpt>
      <trkpt lat="47.64672" lon="6.17901">
        <ele>221.7</ele>
        <time>2020-12-13T13:52:02Z</time>
      </trkpt>
      <trkpt lat="47.6468" lon="6.17907">
        <ele>221.5</ele>
        <time>2020-12-13T13:52:04Z</time>
      </trkpt>
      <trkpt lat="47.64684" lon="6.17913">
        <ele>221.3</ele>
        <time>2020-12-13T13:52:06Z</time>
      </trkpt>
      <trkpt lat="47.64688" lon="6.17919">
        <ele>221.5</ele>
        <time>2020-12-13T13:52:06Z</time>
      </trkpt>
      <trkpt lat="47.64694" lon="6.17927">
        <ele>222.2</ele>
        <time>2020-12-13T13:52:09Z</time>
      </trkpt>
      <trkpt lat="47.64699" lon="6.17934">
        <ele>222.7</ele>
        <time>2020-12-13T13:52:10Z</time>
      </trkpt>
      <trkpt lat="47.64703" lon="6.17943">
        <ele>223.3</ele>
        <time>2020-12-13T13:52:11Z</time>
      </trkpt>
      <trkpt lat="47.64708" lon="6.17951">
        <ele>223.6</ele>
        <time>2020-12-13T13:52:14Z</time>
      </trkpt>
      <trkpt lat="47.64712" lon="6.17957">
        <ele>223.8</ele>
        <time>2020-12-13T13:52:15Z</time>
      </trkpt>
      <trkpt lat="47.64716" lon="6.17963">
        <ele>223.8</ele>
        <time>2020-12-13T13:52:17Z</time>
      </trkpt>
      <trkpt lat="47.64719" lon="6.17968">
        <ele>223.9</ele>
        <time>2020-12-13T13:52:17Z</time>
      </trkpt>
      <trkpt lat="47.64724" lon="6.17976">
        <ele>223.8</ele>
        <time>2020-12-13T13:52:20Z</time>
      </trkpt>
      <trkpt lat="47.64729" lon="6.17985">
        <ele>223.7</ele>
        <time>2020-12-13T13:52:22Z</time>
      </trkpt>
      <trkpt lat="47.64733" lon="6.17992">
        <ele>223.5</ele>
        <time>2020-12-13T13:52:24Z</time>
      </trkpt>
      <trkpt lat="47.64737" lon="6.17999">
        <ele>223.2</ele>
        <time>2020-12-13T13:52:25Z</time>
      </trkpt>
      <trkpt lat="47.64742" lon="6.18007">
        <ele>223.7</ele>
        <time>2020-12-13T13:52:28Z</time>
      </trkpt>
      <trkpt lat="47.64745" lon="6.18013">
        <ele>224.1</ele>
        <time>2020-12-13T13:52:29Z</time>
      </trkpt>
      <trkpt lat="47.64749" lon="6.1802">
        <ele>224.6</ele>
        <time>2020-12-13T13:52:31Z</time>
      </trkpt>
      <trkpt lat="47.64754" lon="6.18027">
        <ele>225.8</ele>
        <time>2020-12-13T13:52:33Z</time>
      </trkpt>
      <trkpt lat="47.64759" lon="6.18036">
        <ele>227</ele>
        <time>2020-12-13T13:52:34Z</time>
      </trkpt>
      <trkpt lat="47.64763" lon="6.18042">
        <ele>227.8</ele>
        <time>2020-12-13T13:52:36Z</time>
      </trkpt>
      <trkpt lat="47.64767" lon="6.18047">
        <ele>228.3</ele>
        <time>2020-12-13T13:52:37Z</time>
      </trkpt>
      <trkpt lat="47.64771" lon="6.18051">
        <ele>228.7</ele>
        <time>2020-12-13T13:52:39Z</time>
      </trkpt>
      <trkpt lat="47.64776" lon="6.18055">
        <ele>228.8</ele>
        <time>2020-12-13T13:52:41Z</time>
      </trkpt>
      <trkpt lat="47.6478" lon="6.18058">
        <ele>228.9</ele>
        <time>2020-12-13T13:52:41Z</time>
      </trkpt>
      <trkpt lat="47.64786" lon="6.18061">
        <ele>228.8</ele>
        <time>2020-12-13T13:52:44Z</time>
      </trkpt>
      <trkpt lat="47.64792" lon="6.18064">
        <ele>228.5</ele>
        <time>2020-12-13T13:52:45Z</time>
      </trkpt>
      <trkpt lat="47.64797" lon="6.18066">
        <ele>228.1</ele>
        <time>2020-12-13T13:52:46Z</time>
      </trkpt>
      <trkpt lat="47.64805" lon="6.18068">
        <ele>227.6</ele>
        <time>2020-12-13T13:52:49Z</time>
      </trkpt>
      <trkpt lat="47.64809" lon="6.18069">
        <ele>227.2</ele>
        <time>2020-12-13T13:52:50Z</time>
      </trkpt>
      <trkpt lat="47.64815" lon="6.1807">
        <ele>226.7</ele>
        <time>2020-12-13T13:52:52Z</time>
      </trkpt>
      <trkpt lat="47.64821" lon="6.18071">
        <ele>226</ele>
        <time>2020-12-13T13:52:53Z</time>
      </trkpt>
      <trkpt lat="47.64826" lon="6.18072">
        <ele>225.5</ele>
        <time>2020-12-13T13:52:56Z</time>
      </trkpt>
      <trkpt lat="47.64832" lon="6.18073">
        <ele>224.9</ele>
        <time>2020-12-13T13:52:57Z</time>
      </trkpt>
      <trkpt lat="47.64838" lon="6.18074">
        <ele>224.9</ele>
        <time>2020-12-13T13:53:00Z</time>
      </trkpt>
      <trkpt lat="47.64843" lon="6.18075">
        <ele>225.1</ele>
        <time>2020-12-13T13:53:01Z</time>
      </trkpt>
      <trkpt lat="47.64849" lon="6.18075">
        <ele>225.2</ele>
        <time>2020-12-13T13:53:03Z</time>
      </trkpt>
      <trkpt lat="47.64854" lon="6.18076">
        <ele>225.4</ele>
        <time>2020-12-13T13:53:06Z</time>
      </trkpt>
      <trkpt lat="47.6486" lon="6.18077">
        <ele>225.5</ele>
        <time>2020-12-13T13:53:08Z</time>
      </trkpt>
      <trkpt lat="47.64864" lon="6.18078">
        <ele>225.7</ele>
        <time>2020-12-13T13:53:08Z</time>
      </trkpt>
      <trkpt lat="47.64869" lon="6.18079">
        <ele>225.8</ele>
        <time>2020-12-13T13:53:10Z</time>
      </trkpt>
      <trkpt lat="47.64874" lon="6.18081">
        <ele>226</ele>
        <time>2020-12-13T13:53:12Z</time>
      </trkpt>
      <trkpt lat="47.64883" lon="6.18083">
        <ele>226.2</ele>
        <time>2020-12-13T13:53:13Z</time>
      </trkpt>
      <trkpt lat="47.6489" lon="6.18084">
        <ele>226.5</ele>
        <time>2020-12-13T13:53:16Z</time>
      </trkpt>
      <trkpt lat="47.64898" lon="6.18087">
        <ele>226.9</ele>
        <time>2020-12-13T13:53:18Z</time>
      </trkpt>
      <trkpt lat="47.64904" lon="6.18089">
        <ele>227.3</ele>
        <time>2020-12-13T13:53:19Z</time>
      </trkpt>
      <trkpt lat="47.6491" lon="6.1809">
        <ele>227.6</ele>
        <time>2020-12-13T13:53:20Z</time>
      </trkpt>
      <trkpt lat="47.64916" lon="6.18091">
        <ele>227.8</ele>
        <time>2020-12-13T13:53:22Z</time>
      </trkpt>
      <trkpt lat="47.64921" lon="6.18092">
        <ele>228.1</ele>
        <time>2020-12-13T13:53:23Z</time>
      </trkpt>
      <trkpt lat="47.64926" lon="6.18093">
        <ele>228.4</ele>
        <time>2020-12-13T13:53:25Z</time>
      </trkpt>
      <trkpt lat="47.64934" lon="6.18095">
        <ele>229</ele>
        <time>2020-12-13T13:53:28Z</time>
      </trkpt>
      <trkpt lat="47.64942" lon="6.18097">
        <ele>229.5</ele>
        <time>2020-12-13T13:53:30Z</time>
      </trkpt>
      <trkpt lat="47.64947" lon="6.18098">
        <ele>229.9</ele>
        <time>2020-12-13T13:53:31Z</time>
      </trkpt>
      <trkpt lat="47.64955" lon="6.181">
        <ele>230.4</ele>
        <time>2020-12-13T13:53:34Z</time>
      </trkpt>
      <trkpt lat="47.64962" lon="6.181">
        <ele>230.8</ele>
        <time>2020-12-13T13:53:35Z</time>
      </trkpt>
      <trkpt lat="47.64969" lon="6.18098">
        <ele>230.8</ele>
        <time>2020-12-13T13:53:37Z</time>
      </trkpt>
      <trkpt lat="47.64976" lon="6.18097">
        <ele>230.9</ele>
        <time>2020-12-13T13:53:39Z</time>
      </trkpt>
      <trkpt lat="47.64983" lon="6.18096">
        <ele>231.1</ele>
        <time>2020-12-13T13:53:42Z</time>
      </trkpt>
      <trkpt lat="47.64989" lon="6.18095">
        <ele>231.3</ele>
        <time>2020-12-13T13:53:43Z</time>
      </trkpt>
      <trkpt lat="47.64994" lon="6.18095">
        <ele>231.4</ele>
        <time>2020-12-13T13:53:44Z</time>
      </trkpt>
      <trkpt lat="47.64999" lon="6.18094">
        <ele>231.5</ele>
        <time>2020-12-13T13:53:45Z</time>
      </trkpt>
      <trkpt lat="47.65005" lon="6.18094">
        <ele>231.6</ele>
        <time>2020-12-13T13:53:47Z</time>
      </trkpt>
      <trkpt lat="47.65011" lon="6.18094">
        <ele>231.7</ele>
        <time>2020-12-13T13:53:48Z</time>
      </trkpt>
      <trkpt lat="47.65018" lon="6.18094">
        <ele>231.9</ele>
        <time>2020-12-13T13:53:50Z</time>
      </trkpt>
      <trkpt lat="47.65024" lon="6.18095">
        <ele>232.1</ele>
        <time>2020-12-13T13:53:52Z</time>
      </trkpt>
      <trkpt lat="47.6503" lon="6.18095">
        <ele>232.3</ele>
        <time>2020-12-13T13:53:53Z</time>
      </trkpt>
      <trkpt lat="47.65036" lon="6.18096">
        <ele>232.6</ele>
        <time>2020-12-13T13:53:56Z</time>
      </trkpt>
      <trkpt lat="47.65042" lon="6.18097">
        <ele>232.8</ele>
        <time>2020-12-13T13:53:57Z</time>
      </trkpt>
      <trkpt lat="47.65049" lon="6.18097">
        <ele>233</ele>
        <time>2020-12-13T13:54:00Z</time>
      </trkpt>
      <trkpt lat="47.65056" lon="6.18098">
        <ele>233.2</ele>
        <time>2020-12-13T13:54:02Z</time>
      </trkpt>
      <trkpt lat="47.65062" lon="6.18098">
        <ele>233.4</ele>
        <time>2020-12-13T13:54:04Z</time>
      </trkpt>
      <trkpt lat="47.65069" lon="6.181">
        <ele>233.9</ele>
        <time>2020-12-13T13:54:05Z</time>
      </trkpt>
      <trkpt lat="47.65077" lon="6.18101">
        <ele>234.2</ele>
        <time>2020-12-13T13:54:07Z</time>
      </trkpt>
      <trkpt lat="47.65085" lon="6.18102">
        <ele>234.6</ele>
        <time>2020-12-13T13:54:09Z</time>
      </trkpt>
      <trkpt lat="47.65092" lon="6.18102">
        <ele>234.9</ele>
        <time>2020-12-13T13:54:12Z</time>
      </trkpt>
      <trkpt lat="47.65099" lon="6.18101">
        <ele>235</ele>
        <time>2020-12-13T13:54:13Z</time>
      </trkpt>
      <trkpt lat="47.65108" lon="6.18099">
        <ele>234.9</ele>
        <time>2020-12-13T13:54:16Z</time>
      </trkpt>
      <trkpt lat="47.65116" lon="6.18097">
        <ele>234.7</ele>
        <time>2020-12-13T13:54:18Z</time>
      </trkpt>
      <trkpt lat="47.65122" lon="6.18094">
        <ele>234.5</ele>
        <time>2020-12-13T13:54:19Z</time>
      </trkpt>
      <trkpt lat="47.65127" lon="6.18092">
        <ele>234.1</ele>
        <time>2020-12-13T13:54:21Z</time>
      </trkpt>
      <trkpt lat="47.65133" lon="6.18088">
        <ele>233.6</ele>
        <time>2020-12-13T13:54:22Z</time>
      </trkpt>
      <trkpt lat="47.65138" lon="6.18084">
        <ele>233.1</ele>
        <time>2020-12-13T13:54:23Z</time>
      </trkpt>
      <trkpt lat="47.65144" lon="6.18079">
        <ele>232.9</ele>
        <time>2020-12-13T13:54:25Z</time>
      </trkpt>
      <trkpt lat="47.65151" lon="6.18072">
        <ele>232.3</ele>
        <time>2020-12-13T13:54:27Z</time>
      </trkpt>
      <trkpt lat="47.65155" lon="6.18067">
        <ele>232</ele>
        <time>2020-12-13T13:54:29Z</time>
      </trkpt>
      <trkpt lat="47.65161" lon="6.1806">
        <ele>231.2</ele>
        <time>2020-12-13T13:54:31Z</time>
      </trkpt>
      <trkpt lat="47.65167" lon="6.18053">
        <ele>230.3</ele>
        <time>2020-12-13T13:54:33Z</time>
      </trkpt>
      <trkpt lat="47.65172" lon="6.18044">
        <ele>229.7</ele>
        <time>2020-12-13T13:54:34Z</time>
      </trkpt>
      <trkpt lat="47.65177" lon="6.18036">
        <ele>229.1</ele>
        <time>2020-12-13T13:54:37Z</time>
      </trkpt>
      <trkpt lat="47.65181" lon="6.18029">
        <ele>228.5</ele>
        <time>2020-12-13T13:54:38Z</time>
      </trkpt>
      <trkpt lat="47.65185" lon="6.18021">
        <ele>227.8</ele>
        <time>2020-12-13T13:54:41Z</time>
      </trkpt>
      <trkpt lat="47.65188" lon="6.18015">
        <ele>227.3</ele>
        <time>2020-12-13T13:54:42Z</time>
      </trkpt>
      <trkpt lat="47.65193" lon="6.18007">
        <ele>226.6</ele>
        <time>2020-12-13T13:54:45Z</time>
      </trkpt>
      <trkpt lat="47.65197" lon="6.18002">
        <ele>226.1</ele>
        <time>2020-12-13T13:54:47Z</time>
      </trkpt>
      <trkpt lat="47.65203" lon="6.17995">
        <ele>226.1</ele>
        <time>2020-12-13T13:54:50Z</time>
      </trkpt>
      <trkpt lat="47.65207" lon="6.17991">
        <ele>226.3</ele>
        <time>2020-12-13T13:54:52Z</time>
      </trkpt>
      <trkpt lat="47.65212" lon="6.17987">
        <ele>226.5</ele>
        <time>2020-12-13T13:54:54Z</time>
      </trkpt>
      <trkpt lat="47.65216" lon="6.17984">
        <ele>226.7</ele>
        <time>2020-12-13T13:54:57Z</time>
      </trkpt>
      <trkpt lat="47.65221" lon="6.1798">
        <ele>226.8</ele>
        <time>2020-12-13T13:54:58Z</time>
      </trkpt>
      <trkpt lat="47.65225" lon="6.17978">
        <ele>226.9</ele>
        <time>2020-12-13T13:55:00Z</time>
      </trkpt>
      <trkpt lat="47.65232" lon="6.17975">
        <ele>227.1</ele>
        <time>2020-12-13T13:55:03Z</time>
      </trkpt>
      <trkpt lat="47.65237" lon="6.17974">
        <ele>227.3</ele>
        <time>2020-12-13T13:55:05Z</time>
      </trkpt>
      <trkpt lat="47.65242" lon="6.17973">
        <ele>227.4</ele>
        <time>2020-12-13T13:55:06Z</time>
      </trkpt>
      <trkpt lat="47.6525" lon="6.17974">
        <ele>227.7</ele>
        <time>2020-12-13T13:55:08Z</time>
      </trkpt>
      <trkpt lat="47.65255" lon="6.17976">
        <ele>227.6</ele>
        <time>2020-12-13T13:55:11Z</time>
      </trkpt>
      <trkpt lat="47.6526" lon="6.17979">
        <ele>227.5</ele>
        <time>2020-12-13T13:55:12Z</time>
      </trkpt>
      <trkpt lat="47.65265" lon="6.17983">
        <ele>227.5</ele>
        <time>2020-12-13T13:55:14Z</time>
      </trkpt>
      <trkpt lat="47.65269" lon="6.17988">
        <ele>227.5</ele>
        <time>2020-12-13T13:55:14Z</time>
      </trkpt>
      <trkpt lat="47.65273" lon="6.17994">
        <ele>227.4</ele>
        <time>2020-12-13T13:55:16Z</time>
      </trkpt>
      <trkpt lat="47.65276" lon="6.18">
        <ele>227.4</ele>
        <time>2020-12-13T13:55:17Z</time>
      </trkpt>
      <trkpt lat="47.65282" lon="6.18011">
        <ele>228.3</ele>
        <time>2020-12-13T13:55:19Z</time>
      </trkpt>
      <trkpt lat="47.65285" lon="6.18018">
        <ele>228.7</ele>
        <time>2020-12-13T13:55:20Z</time>
      </trkpt>
      <trkpt lat="47.65289" lon="6.18026">
        <ele>229.1</ele>
        <time>2020-12-13T13:55:21Z</time>
      </trkpt>
      <trkpt lat="47.65292" lon="6.18034">
        <ele>229.5</ele>
        <time>2020-12-13T13:55:23Z</time>
      </trkpt>
      <trkpt lat="47.65294" lon="6.18043">
        <ele>230.1</ele>
        <time>2020-12-13T13:55:24Z</time>
      </trkpt>
      <trkpt lat="47.65297" lon="6.18058">
        <ele>230.8</ele>
        <time>2020-12-13T13:55:25Z</time>
      </trkpt>
      <trkpt lat="47.65299" lon="6.18066">
        <ele>231.1</ele>
        <time>2020-12-13T13:55:26Z</time>
      </trkpt>
      <trkpt lat="47.65301" lon="6.18074">
        <ele>231.5</ele>
        <time>2020-12-13T13:55:27Z</time>
      </trkpt>
      <trkpt lat="47.65303" lon="6.18082">
        <ele>231.7</ele>
        <time>2020-12-13T13:55:28Z</time>
      </trkpt>
      <trkpt lat="47.65305" lon="6.1809">
        <ele>231.9</ele>
        <time>2020-12-13T13:55:29Z</time>
      </trkpt>
      <trkpt lat="47.65306" lon="6.18097">
        <ele>232.1</ele>
        <time>2020-12-13T13:55:30Z</time>
      </trkpt>
      <trkpt lat="47.65308" lon="6.18104">
        <ele>232.2</ele>
        <time>2020-12-13T13:55:31Z</time>
      </trkpt>
      <trkpt lat="47.6531" lon="6.18111">
        <ele>232.3</ele>
        <time>2020-12-13T13:55:32Z</time>
      </trkpt>
      <trkpt lat="47.65311" lon="6.18119">
        <ele>232.5</ele>
        <time>2020-12-13T13:55:33Z</time>
      </trkpt>
      <trkpt lat="47.65313" lon="6.18127">
        <ele>232.6</ele>
        <time>2020-12-13T13:55:34Z</time>
      </trkpt>
      <trkpt lat="47.65315" lon="6.18134">
        <ele>232.6</ele>
        <time>2020-12-13T13:55:35Z</time>
      </trkpt>
      <trkpt lat="47.65317" lon="6.18141">
        <ele>232.5</ele>
        <time>2020-12-13T13:55:36Z</time>
      </trkpt>
      <trkpt lat="47.6532" lon="6.18147">
        <ele>232.2</ele>
        <time>2020-12-13T13:55:37Z</time>
      </trkpt>
      <trkpt lat="47.65323" lon="6.18154">
        <ele>231.9</ele>
        <time>2020-12-13T13:55:38Z</time>
      </trkpt>
      <trkpt lat="47.65326" lon="6.1816">
        <ele>231.5</ele>
        <time>2020-12-13T13:55:39Z</time>
      </trkpt>
      <trkpt lat="47.65329" lon="6.18165">
        <ele>231.1</ele>
        <time>2020-12-13T13:55:40Z</time>
      </trkpt>
      <trkpt lat="47.65332" lon="6.18171">
        <ele>231</ele>
        <time>2020-12-13T13:55:41Z</time>
      </trkpt>
      <trkpt lat="47.65335" lon="6.18176">
        <ele>231.3</ele>
        <time>2020-12-13T13:55:42Z</time>
      </trkpt>
      <trkpt lat="47.6534" lon="6.18185">
        <ele>232.1</ele>
        <time>2020-12-13T13:55:44Z</time>
      </trkpt>
      <trkpt lat="47.65346" lon="6.18192">
        <ele>232.6</ele>
        <time>2020-12-13T13:55:46Z</time>
      </trkpt>
      <trkpt lat="47.65353" lon="6.182">
        <ele>232.8</ele>
        <time>2020-12-13T13:55:48Z</time>
      </trkpt>
      <trkpt lat="47.6536" lon="6.18202">
        <ele>232.4</ele>
        <time>2020-12-13T13:55:50Z</time>
      </trkpt>
      <trkpt lat="47.6537" lon="6.18202">
        <ele>231.3</ele>
        <time>2020-12-13T13:55:51Z</time>
      </trkpt>
      <trkpt lat="47.65374" lon="6.18213">
        <ele>232</ele>
        <time>2020-12-13T13:55:53Z</time>
      </trkpt>
      <trkpt lat="47.65379" lon="6.18221">
        <ele>232.1</ele>
        <time>2020-12-13T13:55:56Z</time>
      </trkpt>
      <trkpt lat="47.65385" lon="6.18228">
        <ele>232</ele>
        <time>2020-12-13T13:55:58Z</time>
      </trkpt>
      <trkpt lat="47.65391" lon="6.18233">
        <ele>231.7</ele>
        <time>2020-12-13T13:55:59Z</time>
      </trkpt>
      <trkpt lat="47.65394" lon="6.18236">
        <ele>231.5</ele>
        <time>2020-12-13T13:56:01Z</time>
      </trkpt>
      <trkpt lat="47.65401" lon="6.18242">
        <ele>230.9</ele>
        <time>2020-12-13T13:56:03Z</time>
      </trkpt>
      <trkpt lat="47.65406" lon="6.18246">
        <ele>230.4</ele>
        <time>2020-12-13T13:56:04Z</time>
      </trkpt>
      <trkpt lat="47.65411" lon="6.18249">
        <ele>229.8</ele>
        <time>2020-12-13T13:56:05Z</time>
      </trkpt>
      <trkpt lat="47.65417" lon="6.18252">
        <ele>229.4</ele>
        <time>2020-12-13T13:56:07Z</time>
      </trkpt>
      <trkpt lat="47.65421" lon="6.18255">
        <ele>230.3</ele>
        <time>2020-12-13T13:56:09Z</time>
      </trkpt>
      <trkpt lat="47.65428" lon="6.18259">
        <ele>231.4</ele>
        <time>2020-12-13T13:56:12Z</time>
      </trkpt>
      <trkpt lat="47.65434" lon="6.18261">
        <ele>232</ele>
        <time>2020-12-13T13:56:13Z</time>
      </trkpt>
      <trkpt lat="47.65442" lon="6.18262">
        <ele>232.7</ele>
        <time>2020-12-13T13:56:17Z</time>
      </trkpt>
      <trkpt lat="47.65447" lon="6.18264">
        <ele>233.2</ele>
        <time>2020-12-13T13:56:18Z</time>
      </trkpt>
      <trkpt lat="47.65452" lon="6.18265">
        <ele>233.6</ele>
        <time>2020-12-13T13:56:21Z</time>
      </trkpt>
      <trkpt lat="47.65457" lon="6.18266">
        <ele>234</ele>
        <time>2020-12-13T13:56:23Z</time>
      </trkpt>
      <trkpt lat="47.65462" lon="6.18265">
        <ele>234.1</ele>
        <time>2020-12-13T13:56:24Z</time>
      </trkpt>
      <trkpt lat="47.65468" lon="6.18265">
        <ele>234.3</ele>
        <time>2020-12-13T13:56:27Z</time>
      </trkpt>
      <trkpt lat="47.65474" lon="6.18265">
        <ele>234.5</ele>
        <time>2020-12-13T13:56:29Z</time>
      </trkpt>
      <trkpt lat="47.65479" lon="6.18265">
        <ele>234.7</ele>
        <time>2020-12-13T13:56:33Z</time>
      </trkpt>
      <trkpt lat="47.65486" lon="6.18263">
        <ele>234.5</ele>
        <time>2020-12-13T13:56:35Z</time>
      </trkpt>
      <trkpt lat="47.65492" lon="6.1826">
        <ele>234</ele>
        <time>2020-12-13T13:56:38Z</time>
      </trkpt>
      <trkpt lat="47.65497" lon="6.18259">
        <ele>234</ele>
        <time>2020-12-13T13:56:42Z</time>
      </trkpt>
      <trkpt lat="47.65502" lon="6.18257">
        <ele>233.9</ele>
        <time>2020-12-13T13:56:43Z</time>
      </trkpt>
      <trkpt lat="47.65508" lon="6.18255">
        <ele>234</ele>
        <time>2020-12-13T13:56:46Z</time>
      </trkpt>
      <trkpt lat="47.65515" lon="6.18252">
        <ele>234</ele>
        <time>2020-12-13T13:56:49Z</time>
      </trkpt>
      <trkpt lat="47.6552" lon="6.18249">
        <ele>234.1</ele>
        <time>2020-12-13T13:56:52Z</time>
      </trkpt>
      <trkpt lat="47.65525" lon="6.18247">
        <ele>234.4</ele>
        <time>2020-12-13T13:56:55Z</time>
      </trkpt>
      <trkpt lat="47.6553" lon="6.18245">
        <ele>234.8</ele>
        <time>2020-12-13T13:56:57Z</time>
      </trkpt>
      <trkpt lat="47.65536" lon="6.18242">
        <ele>235</ele>
        <time>2020-12-13T13:57:00Z</time>
      </trkpt>
      <trkpt lat="47.6554" lon="6.1824">
        <ele>235.2</ele>
        <time>2020-12-13T13:57:01Z</time>
      </trkpt>
      <trkpt lat="47.65546" lon="6.18237">
        <ele>235.4</ele>
        <time>2020-12-13T13:57:04Z</time>
      </trkpt>
      <trkpt lat="47.65552" lon="6.18235">
        <ele>235.7</ele>
        <time>2020-12-13T13:57:08Z</time>
      </trkpt>
      <trkpt lat="47.65558" lon="6.18232">
        <ele>235.8</ele>
        <time>2020-12-13T13:57:11Z</time>
      </trkpt>
      <trkpt lat="47.65562" lon="6.18228">
        <ele>235.7</ele>
        <time>2020-12-13T13:57:13Z</time>
      </trkpt>
      <trkpt lat="47.65566" lon="6.18223">
        <ele>235.5</ele>
        <time>2020-12-13T13:57:15Z</time>
      </trkpt>
      <trkpt lat="47.65572" lon="6.18218">
        <ele>235.1</ele>
        <time>2020-12-13T13:57:19Z</time>
      </trkpt>
      <trkpt lat="47.65576" lon="6.18213">
        <ele>234.7</ele>
        <time>2020-12-13T13:57:20Z</time>
      </trkpt>
      <trkpt lat="47.6558" lon="6.18209">
        <ele>234.4</ele>
        <time>2020-12-13T13:57:22Z</time>
      </trkpt>
      <trkpt lat="47.65585" lon="6.18202">
        <ele>233.8</ele>
        <time>2020-12-13T13:57:25Z</time>
      </trkpt>
      <trkpt lat="47.6559" lon="6.18195">
        <ele>233.1</ele>
        <time>2020-12-13T13:57:27Z</time>
      </trkpt>
      <trkpt lat="47.65595" lon="6.18187">
        <ele>232.5</ele>
        <time>2020-12-13T13:57:29Z</time>
      </trkpt>
      <trkpt lat="47.65599" lon="6.18182">
        <ele>232.1</ele>
        <time>2020-12-13T13:57:30Z</time>
      </trkpt>
      <trkpt lat="47.65605" lon="6.18175">
        <ele>231.7</ele>
        <time>2020-12-13T13:57:31Z</time>
      </trkpt>
      <trkpt lat="47.65609" lon="6.18171">
        <ele>231.6</ele>
        <time>2020-12-13T13:57:32Z</time>
      </trkpt>
      <trkpt lat="47.65615" lon="6.18168">
        <ele>231.7</ele>
        <time>2020-12-13T13:57:33Z</time>
      </trkpt>
      <trkpt lat="47.65622" lon="6.18168">
        <ele>232.3</ele>
        <time>2020-12-13T13:57:35Z</time>
      </trkpt>
      <trkpt lat="47.65629" lon="6.18168">
        <ele>233.1</ele>
        <time>2020-12-13T13:57:36Z</time>
      </trkpt>
      <trkpt lat="47.65637" lon="6.18167">
        <ele>233.9</ele>
        <time>2020-12-13T13:57:38Z</time>
      </trkpt>
      <trkpt lat="47.65642" lon="6.18165">
        <ele>234.2</ele>
        <time>2020-12-13T13:57:39Z</time>
      </trkpt>
      <trkpt lat="47.65649" lon="6.1816">
        <ele>234.5</ele>
        <time>2020-12-13T13:57:40Z</time>
      </trkpt>
      <trkpt lat="47.65655" lon="6.18156">
        <ele>234.8</ele>
        <time>2020-12-13T13:57:42Z</time>
      </trkpt>
      <trkpt lat="47.65661" lon="6.18152">
        <ele>235.1</ele>
        <time>2020-12-13T13:57:44Z</time>
      </trkpt>
      <trkpt lat="47.65666" lon="6.18149">
        <ele>235.2</ele>
        <time>2020-12-13T13:57:46Z</time>
      </trkpt>
      <trkpt lat="47.65671" lon="6.18144">
        <ele>235.5</ele>
        <time>2020-12-13T13:57:49Z</time>
      </trkpt>
      <trkpt lat="47.65675" lon="6.18139">
        <ele>235.6</ele>
        <time>2020-12-13T13:57:51Z</time>
      </trkpt>
      <trkpt lat="47.65679" lon="6.18137">
        <ele>236.1</ele>
        <time>2020-12-13T13:57:54Z</time>
      </trkpt>
      <trkpt lat="47.65683" lon="6.18132">
        <ele>236.2</ele>
        <time>2020-12-13T13:57:56Z</time>
      </trkpt>
      <trkpt lat="47.65687" lon="6.18125">
        <ele>236.1</ele>
        <time>2020-12-13T13:57:58Z</time>
      </trkpt>
      <trkpt lat="47.65691" lon="6.18117">
        <ele>235.8</ele>
        <time>2020-12-13T13:58:00Z</time>
      </trkpt>
      <trkpt lat="47.65695" lon="6.18108">
        <ele>235.4</ele>
        <time>2020-12-13T13:58:02Z</time>
      </trkpt>
      <trkpt lat="47.65699" lon="6.18099">
        <ele>235.1</ele>
        <time>2020-12-13T13:58:04Z</time>
      </trkpt>
      <trkpt lat="47.65703" lon="6.18091">
        <ele>234.7</ele>
        <time>2020-12-13T13:58:06Z</time>
      </trkpt>
      <trkpt lat="47.65708" lon="6.18083">
        <ele>234.4</ele>
        <time>2020-12-13T13:58:08Z</time>
      </trkpt>
      <trkpt lat="47.65713" lon="6.18074">
        <ele>234.4</ele>
        <time>2020-12-13T13:58:10Z</time>
      </trkpt>
      <trkpt lat="47.65717" lon="6.18068">
        <ele>234.6</ele>
        <time>2020-12-13T13:58:12Z</time>
      </trkpt>
      <trkpt lat="47.65723" lon="6.18062">
        <ele>234.8</ele>
        <time>2020-12-13T13:58:14Z</time>
      </trkpt>
      <trkpt lat="47.65728" lon="6.18057">
        <ele>235</ele>
        <time>2020-12-13T13:58:16Z</time>
      </trkpt>
      <trkpt lat="47.65734" lon="6.18053">
        <ele>235.3</ele>
        <time>2020-12-13T13:58:18Z</time>
      </trkpt>
      <trkpt lat="47.65738" lon="6.1805">
        <ele>235.5</ele>
        <time>2020-12-13T13:58:20Z</time>
      </trkpt>
      <trkpt lat="47.65744" lon="6.18046">
        <ele>235.9</ele>
        <time>2020-12-13T13:58:23Z</time>
      </trkpt>
      <trkpt lat="47.65749" lon="6.18042">
        <ele>235.9</ele>
        <time>2020-12-13T13:58:25Z</time>
      </trkpt>
      <trkpt lat="47.65754" lon="6.18039">
        <ele>236.3</ele>
        <time>2020-12-13T13:58:28Z</time>
      </trkpt>
      <trkpt lat="47.65759" lon="6.18036">
        <ele>236.4</ele>
        <time>2020-12-13T13:58:31Z</time>
      </trkpt>
      <trkpt lat="47.65764" lon="6.18033">
        <ele>236.7</ele>
        <time>2020-12-13T13:58:35Z</time>
      </trkpt>
      <trkpt lat="47.65769" lon="6.18032">
        <ele>237</ele>
        <time>2020-12-13T13:58:38Z</time>
      </trkpt>
      <trkpt lat="47.65775" lon="6.18029">
        <ele>237.3</ele>
        <time>2020-12-13T13:58:42Z</time>
      </trkpt>
      <trkpt lat="47.6578" lon="6.18025">
        <ele>237.3</ele>
        <time>2020-12-13T13:58:44Z</time>
      </trkpt>
      <trkpt lat="47.65785" lon="6.18021">
        <ele>237.3</ele>
        <time>2020-12-13T13:58:47Z</time>
      </trkpt>
      <trkpt lat="47.65788" lon="6.18017">
        <ele>237.3</ele>
        <time>2020-12-13T13:58:49Z</time>
      </trkpt>
      <trkpt lat="47.65793" lon="6.18013">
        <ele>237.2</ele>
        <time>2020-12-13T13:58:52Z</time>
      </trkpt>
      <trkpt lat="47.65798" lon="6.18008">
        <ele>237</ele>
        <time>2020-12-13T13:58:56Z</time>
      </trkpt>
      <trkpt lat="47.65802" lon="6.18004">
        <ele>236.9</ele>
        <time>2020-12-13T13:58:57Z</time>
      </trkpt>
      <trkpt lat="47.65806" lon="6.18001">
        <ele>236.9</ele>
        <time>2020-12-13T13:58:59Z</time>
      </trkpt>
      <trkpt lat="47.65811" lon="6.17996">
        <ele>236.7</ele>
        <time>2020-12-13T13:59:01Z</time>
      </trkpt>
      <trkpt lat="47.65817" lon="6.17992">
        <ele>236.7</ele>
        <time>2020-12-13T13:59:04Z</time>
      </trkpt>
      <trkpt lat="47.65824" lon="6.17986">
        <ele>236.6</ele>
        <time>2020-12-13T13:59:05Z</time>
      </trkpt>
      <trkpt lat="47.6583" lon="6.17981">
        <ele>236.5</ele>
        <time>2020-12-13T13:59:07Z</time>
      </trkpt>
      <trkpt lat="47.65836" lon="6.17976">
        <ele>236.1</ele>
        <time>2020-12-13T13:59:08Z</time>
      </trkpt>
      <trkpt lat="47.6584" lon="6.17972">
        <ele>235.6</ele>
        <time>2020-12-13T13:59:10Z</time>
      </trkpt>
      <trkpt lat="47.65849" lon="6.17966">
        <ele>234.7</ele>
        <time>2020-12-13T13:59:11Z</time>
      </trkpt>
      <trkpt lat="47.65854" lon="6.17962">
        <ele>234.2</ele>
        <time>2020-12-13T13:59:13Z</time>
      </trkpt>
      <trkpt lat="47.65864" lon="6.17958">
        <ele>233.6</ele>
        <time>2020-12-13T13:59:14Z</time>
      </trkpt>
      <trkpt lat="47.65876" lon="6.17953">
        <ele>232.8</ele>
        <time>2020-12-13T13:59:15Z</time>
      </trkpt>
      <trkpt lat="47.65882" lon="6.17951">
        <ele>232.6</ele>
        <time>2020-12-13T13:59:16Z</time>
      </trkpt>
      <trkpt lat="47.65888" lon="6.17951">
        <ele>232.4</ele>
        <time>2020-12-13T13:59:17Z</time>
      </trkpt>
      <trkpt lat="47.65894" lon="6.1795">
        <ele>232.2</ele>
        <time>2020-12-13T13:59:18Z</time>
      </trkpt>
      <trkpt lat="47.659" lon="6.17949">
        <ele>232.1</ele>
        <time>2020-12-13T13:59:19Z</time>
      </trkpt>
      <trkpt lat="47.65906" lon="6.17948">
        <ele>231.9</ele>
        <time>2020-12-13T13:59:20Z</time>
      </trkpt>
      <trkpt lat="47.65911" lon="6.17948">
        <ele>231.8</ele>
        <time>2020-12-13T13:59:21Z</time>
      </trkpt>
      <trkpt lat="47.65917" lon="6.17947">
        <ele>231.7</ele>
        <time>2020-12-13T13:59:22Z</time>
      </trkpt>
      <trkpt lat="47.65923" lon="6.17947">
        <ele>231.5</ele>
        <time>2020-12-13T13:59:23Z</time>
      </trkpt>
      <trkpt lat="47.65929" lon="6.17946">
        <ele>231.4</ele>
        <time>2020-12-13T13:59:24Z</time>
      </trkpt>
      <trkpt lat="47.65936" lon="6.17946">
        <ele>231.2</ele>
        <time>2020-12-13T13:59:25Z</time>
      </trkpt>
      <trkpt lat="47.65943" lon="6.17945">
        <ele>231.1</ele>
        <time>2020-12-13T13:59:26Z</time>
      </trkpt>
      <trkpt lat="47.6595" lon="6.17945">
        <ele>231</ele>
        <time>2020-12-13T13:59:27Z</time>
      </trkpt>
      <trkpt lat="47.65957" lon="6.17945">
        <ele>230.9</ele>
        <time>2020-12-13T13:59:28Z</time>
      </trkpt>
      <trkpt lat="47.65963" lon="6.17946">
        <ele>230.9</ele>
        <time>2020-12-13T13:59:29Z</time>
      </trkpt>
      <trkpt lat="47.6597" lon="6.17946">
        <ele>230.9</ele>
        <time>2020-12-13T13:59:30Z</time>
      </trkpt>
      <trkpt lat="47.65977" lon="6.17947">
        <ele>230.8</ele>
        <time>2020-12-13T13:59:31Z</time>
      </trkpt>
      <trkpt lat="47.65983" lon="6.17947">
        <ele>230.8</ele>
        <time>2020-12-13T13:59:32Z</time>
      </trkpt>
      <trkpt lat="47.6599" lon="6.17948">
        <ele>230.8</ele>
        <time>2020-12-13T13:59:33Z</time>
      </trkpt>
      <trkpt lat="47.65997" lon="6.17949">
        <ele>230.8</ele>
        <time>2020-12-13T13:59:34Z</time>
      </trkpt>
      <trkpt lat="47.66003" lon="6.1795">
        <ele>230.8</ele>
        <time>2020-12-13T13:59:35Z</time>
      </trkpt>
      <trkpt lat="47.6601" lon="6.1795">
        <ele>230.8</ele>
        <time>2020-12-13T13:59:36Z</time>
      </trkpt>
      <trkpt lat="47.66016" lon="6.17951">
        <ele>230.8</ele>
        <time>2020-12-13T13:59:37Z</time>
      </trkpt>
      <trkpt lat="47.66022" lon="6.17951">
        <ele>230.9</ele>
        <time>2020-12-13T13:59:38Z</time>
      </trkpt>
      <trkpt lat="47.66028" lon="6.17951">
        <ele>230.9</ele>
        <time>2020-12-13T13:59:39Z</time>
      </trkpt>
      <trkpt lat="47.66034" lon="6.17951">
        <ele>230.9</ele>
        <time>2020-12-13T13:59:40Z</time>
      </trkpt>
      <trkpt lat="47.6604" lon="6.17951">
        <ele>230.9</ele>
        <time>2020-12-13T13:59:41Z</time>
      </trkpt>
      <trkpt lat="47.66045" lon="6.17951">
        <ele>230.9</ele>
        <time>2020-12-13T13:59:42Z</time>
      </trkpt>
      <trkpt lat="47.6605" lon="6.17951">
        <ele>230.9</ele>
        <time>2020-12-13T13:59:43Z</time>
      </trkpt>
      <trkpt lat="47.66055" lon="6.17951">
        <ele>230.9</ele>
        <time>2020-12-13T13:59:44Z</time>
      </trkpt>
      <trkpt lat="47.6606" lon="6.17951">
        <ele>230.9</ele>
        <time>2020-12-13T13:59:45Z</time>
      </trkpt>
      <trkpt lat="47.66069" lon="6.17951">
        <ele>230.9</ele>
        <time>2020-12-13T13:59:47Z</time>
      </trkpt>
      <trkpt lat="47.66074" lon="6.17951">
        <ele>230.9</ele>
        <time>2020-12-13T13:59:48Z</time>
      </trkpt>
      <trkpt lat="47.66078" lon="6.17951">
        <ele>230.9</ele>
        <time>2020-12-13T13:59:49Z</time>
      </trkpt>
      <trkpt lat="47.66083" lon="6.17951">
        <ele>230.9</ele>
        <time>2020-12-13T13:59:50Z</time>
      </trkpt>
      <trkpt lat="47.66091" lon="6.17951">
        <ele>230.8</ele>
        <time>2020-12-13T13:59:52Z</time>
      </trkpt>
      <trkpt lat="47.66098" lon="6.17951">
        <ele>230.7</ele>
        <time>2020-12-13T13:59:54Z</time>
      </trkpt>
      <trkpt lat="47.66106" lon="6.17951">
        <ele>230.7</ele>
        <time>2020-12-13T13:59:56Z</time>
      </trkpt>
      <trkpt lat="47.66118" lon="6.17951">
        <ele>230.5</ele>
        <time>2020-12-13T13:59:58Z</time>
      </trkpt>
      <trkpt lat="47.66123" lon="6.17951">
        <ele>230.5</ele>
        <time>2020-12-13T14:00:00Z</time>
      </trkpt>
      <trkpt lat="47.6613" lon="6.17951">
        <ele>230.4</ele>
        <time>2020-12-13T14:00:02Z</time>
      </trkpt>
      <trkpt lat="47.66138" lon="6.17951">
        <ele>230.3</ele>
        <time>2020-12-13T14:00:04Z</time>
      </trkpt>
      <trkpt lat="47.66146" lon="6.17951">
        <ele>230.2</ele>
        <time>2020-12-13T14:00:06Z</time>
      </trkpt>
      <trkpt lat="47.66153" lon="6.17951">
        <ele>230.2</ele>
        <time>2020-12-13T14:00:08Z</time>
      </trkpt>
      <trkpt lat="47.6616" lon="6.17951">
        <ele>230.1</ele>
        <time>2020-12-13T14:00:10Z</time>
      </trkpt>
      <trkpt lat="47.66167" lon="6.17951">
        <ele>230.1</ele>
        <time>2020-12-13T14:00:12Z</time>
      </trkpt>
      <trkpt lat="47.66175" lon="6.17952">
        <ele>229.9</ele>
        <time>2020-12-13T14:00:14Z</time>
      </trkpt>
      <trkpt lat="47.66183" lon="6.17953">
        <ele>229.8</ele>
        <time>2020-12-13T14:00:16Z</time>
      </trkpt>
      <trkpt lat="47.66191" lon="6.17954">
        <ele>229.7</ele>
        <time>2020-12-13T14:00:18Z</time>
      </trkpt>
      <trkpt lat="47.66199" lon="6.17956">
        <ele>229.6</ele>
        <time>2020-12-13T14:00:20Z</time>
      </trkpt>
      <trkpt lat="47.66207" lon="6.17958">
        <ele>229.5</ele>
        <time>2020-12-13T14:00:22Z</time>
      </trkpt>
      <trkpt lat="47.66215" lon="6.1796">
        <ele>229.4</ele>
        <time>2020-12-13T14:00:24Z</time>
      </trkpt>
      <trkpt lat="47.66223" lon="6.17962">
        <ele>229.3</ele>
        <time>2020-12-13T14:00:26Z</time>
      </trkpt>
      <trkpt lat="47.66229" lon="6.17964">
        <ele>229.2</ele>
        <time>2020-12-13T14:00:28Z</time>
      </trkpt>
      <trkpt lat="47.66235" lon="6.17965">
        <ele>229.1</ele>
        <time>2020-12-13T14:00:30Z</time>
      </trkpt>
      <trkpt lat="47.66241" lon="6.17966">
        <ele>229</ele>
        <time>2020-12-13T14:00:30Z</time>
      </trkpt>
      <trkpt lat="47.66246" lon="6.17968">
        <ele>228.9</ele>
        <time>2020-12-13T14:00:31Z</time>
      </trkpt>
      <trkpt lat="47.66251" lon="6.17969">
        <ele>228.9</ele>
        <time>2020-12-13T14:00:32Z</time>
      </trkpt>
      <trkpt lat="47.66256" lon="6.17969">
        <ele>228.8</ele>
        <time>2020-12-13T14:00:33Z</time>
      </trkpt>
      <trkpt lat="47.66261" lon="6.1797">
        <ele>228.7</ele>
        <time>2020-12-13T14:00:34Z</time>
      </trkpt>
      <trkpt lat="47.66266" lon="6.1797">
        <ele>228.6</ele>
        <time>2020-12-13T14:00:35Z</time>
      </trkpt>
      <trkpt lat="47.66271" lon="6.17971">
        <ele>228.5</ele>
        <time>2020-12-13T14:00:36Z</time>
      </trkpt>
      <trkpt lat="47.66277" lon="6.17971">
        <ele>228.3</ele>
        <time>2020-12-13T14:00:37Z</time>
      </trkpt>
      <trkpt lat="47.66283" lon="6.17972">
        <ele>228.2</ele>
        <time>2020-12-13T14:00:38Z</time>
      </trkpt>
      <trkpt lat="47.66288" lon="6.17972">
        <ele>228.1</ele>
        <time>2020-12-13T14:00:39Z</time>
      </trkpt>
      <trkpt lat="47.66294" lon="6.17973">
        <ele>227.9</ele>
        <time>2020-12-13T14:00:40Z</time>
      </trkpt>
      <trkpt lat="47.663" lon="6.17973">
        <ele>227.8</ele>
        <time>2020-12-13T14:00:41Z</time>
      </trkpt>
      <trkpt lat="47.66306" lon="6.17973">
        <ele>227.7</ele>
        <time>2020-12-13T14:00:42Z</time>
      </trkpt>
      <trkpt lat="47.66311" lon="6.17974">
        <ele>227.5</ele>
        <time>2020-12-13T14:00:43Z</time>
      </trkpt>
      <trkpt lat="47.66317" lon="6.17973">
        <ele>227.4</ele>
        <time>2020-12-13T14:00:44Z</time>
      </trkpt>
      <trkpt lat="47.66322" lon="6.17971">
        <ele>227.3</ele>
        <time>2020-12-13T14:00:45Z</time>
      </trkpt>
      <trkpt lat="47.66326" lon="6.17968">
        <ele>227.2</ele>
        <time>2020-12-13T14:00:46Z</time>
      </trkpt>
      <trkpt lat="47.6633" lon="6.17963">
        <ele>227.1</ele>
        <time>2020-12-13T14:00:47Z</time>
      </trkpt>
      <trkpt lat="47.66332" lon="6.17956">
        <ele>227</ele>
        <time>2020-12-13T14:00:48Z</time>
      </trkpt>
      <trkpt lat="47.66334" lon="6.17949">
        <ele>227</ele>
        <time>2020-12-13T14:00:49Z</time>
      </trkpt>
      <trkpt lat="47.66335" lon="6.17941">
        <ele>227.1</ele>
        <time>2020-12-13T14:00:50Z</time>
      </trkpt>
      <trkpt lat="47.66335" lon="6.17934">
        <ele>227.1</ele>
        <time>2020-12-13T14:00:51Z</time>
      </trkpt>
      <trkpt lat="47.66335" lon="6.17926">
        <ele>227.1</ele>
        <time>2020-12-13T14:00:52Z</time>
      </trkpt>
      <trkpt lat="47.66335" lon="6.17919">
        <ele>227.1</ele>
        <time>2020-12-13T14:00:53Z</time>
      </trkpt>
      <trkpt lat="47.66335" lon="6.17911">
        <ele>227.1</ele>
        <time>2020-12-13T14:00:54Z</time>
      </trkpt>
      <trkpt lat="47.66336" lon="6.17904">
        <ele>227.1</ele>
        <time>2020-12-13T14:00:55Z</time>
      </trkpt>
      <trkpt lat="47.66336" lon="6.17896">
        <ele>227.2</ele>
        <time>2020-12-13T14:00:56Z</time>
      </trkpt>
      <trkpt lat="47.66336" lon="6.17889">
        <ele>227.2</ele>
        <time>2020-12-13T14:00:57Z</time>
      </trkpt>
      <trkpt lat="47.66337" lon="6.17882">
        <ele>227.2</ele>
        <time>2020-12-13T14:00:58Z</time>
      </trkpt>
      <trkpt lat="47.66337" lon="6.17875">
        <ele>227.2</ele>
        <time>2020-12-13T14:00:59Z</time>
      </trkpt>
      <trkpt lat="47.66337" lon="6.17868">
        <ele>227.2</ele>
        <time>2020-12-13T14:01:00Z</time>
      </trkpt>
      <trkpt lat="47.66337" lon="6.17861">
        <ele>227.2</ele>
        <time>2020-12-13T14:01:01Z</time>
      </trkpt>
      <trkpt lat="47.66338" lon="6.17854">
        <ele>227.3</ele>
        <time>2020-12-13T14:01:02Z</time>
      </trkpt>
      <trkpt lat="47.66338" lon="6.17846">
        <ele>227.3</ele>
        <time>2020-12-13T14:01:03Z</time>
      </trkpt>
      <trkpt lat="47.66338" lon="6.17839">
        <ele>227.3</ele>
        <time>2020-12-13T14:01:04Z</time>
      </trkpt>
      <trkpt lat="47.66339" lon="6.17832">
        <ele>227.3</ele>
        <time>2020-12-13T14:01:05Z</time>
      </trkpt>
      <trkpt lat="47.66339" lon="6.17825">
        <ele>227.1</ele>
        <time>2020-12-13T14:01:06Z</time>
      </trkpt>
      <trkpt lat="47.6634" lon="6.17818">
        <ele>227</ele>
        <time>2020-12-13T14:01:07Z</time>
      </trkpt>
      <trkpt lat="47.6634" lon="6.17811">
        <ele>226.8</ele>
        <time>2020-12-13T14:01:08Z</time>
      </trkpt>
      <trkpt lat="47.66341" lon="6.17804">
        <ele>226.7</ele>
        <time>2020-12-13T14:01:09Z</time>
      </trkpt>
      <trkpt lat="47.66341" lon="6.17797">
        <ele>226.5</ele>
        <time>2020-12-13T14:01:10Z</time>
      </trkpt>
      <trkpt lat="47.66342" lon="6.1779">
        <ele>226.4</ele>
        <time>2020-12-13T14:01:11Z</time>
      </trkpt>
      <trkpt lat="47.66343" lon="6.17783">
        <ele>226.2</ele>
        <time>2020-12-13T14:01:12Z</time>
      </trkpt>
      <trkpt lat="47.66344" lon="6.17776">
        <ele>226.1</ele>
        <time>2020-12-13T14:01:13Z</time>
      </trkpt>
      <trkpt lat="47.66344" lon="6.17769">
        <ele>225.9</ele>
        <time>2020-12-13T14:01:14Z</time>
      </trkpt>
      <trkpt lat="47.66346" lon="6.17756">
        <ele>225.6</ele>
        <time>2020-12-13T14:01:16Z</time>
      </trkpt>
      <trkpt lat="47.66347" lon="6.17747">
        <ele>225.5</ele>
        <time>2020-12-13T14:01:18Z</time>
      </trkpt>
      <trkpt lat="47.66349" lon="6.17734">
        <ele>225.4</ele>
        <time>2020-12-13T14:01:20Z</time>
      </trkpt>
      <trkpt lat="47.66351" lon="6.17727">
        <ele>225.3</ele>
        <time>2020-12-13T14:01:21Z</time>
      </trkpt>
      <trkpt lat="47.66354" lon="6.17715">
        <ele>225.3</ele>
        <time>2020-12-13T14:01:23Z</time>
      </trkpt>
      <trkpt lat="47.66363" lon="6.17708">
        <ele>225.6</ele>
        <time>2020-12-13T14:01:25Z</time>
      </trkpt>
      <trkpt lat="47.66364" lon="6.17701">
        <ele>225.5</ele>
        <time>2020-12-13T14:01:26Z</time>
      </trkpt>
      <trkpt lat="47.66365" lon="6.17693">
        <ele>225.5</ele>
        <time>2020-12-13T14:01:27Z</time>
      </trkpt>
      <trkpt lat="47.66367" lon="6.17685">
        <ele>225.4</ele>
        <time>2020-12-13T14:01:28Z</time>
      </trkpt>
      <trkpt lat="47.66369" lon="6.17676">
        <ele>225.4</ele>
        <time>2020-12-13T14:01:30Z</time>
      </trkpt>
      <trkpt lat="47.66372" lon="6.17669">
        <ele>225.4</ele>
        <time>2020-12-13T14:01:32Z</time>
      </trkpt>
      <trkpt lat="47.66374" lon="6.17663">
        <ele>225.5</ele>
        <time>2020-12-13T14:01:32Z</time>
      </trkpt>
      <trkpt lat="47.66378" lon="6.17653">
        <ele>225.6</ele>
        <time>2020-12-13T14:01:35Z</time>
      </trkpt>
      <trkpt lat="47.66382" lon="6.17648">
        <ele>225.7</ele>
        <time>2020-12-13T14:01:36Z</time>
      </trkpt>
      <trkpt lat="47.66385" lon="6.17642">
        <ele>225.8</ele>
        <time>2020-12-13T14:01:36Z</time>
      </trkpt>
      <trkpt lat="47.66392" lon="6.17633">
        <ele>225.9</ele>
        <time>2020-12-13T14:01:38Z</time>
      </trkpt>
      <trkpt lat="47.66399" lon="6.17622">
        <ele>226.1</ele>
        <time>2020-12-13T14:01:40Z</time>
      </trkpt>
      <trkpt lat="47.66402" lon="6.17617">
        <ele>226.1</ele>
        <time>2020-12-13T14:01:41Z</time>
      </trkpt>
      <trkpt lat="47.66406" lon="6.17613">
        <ele>226.1</ele>
        <time>2020-12-13T14:01:42Z</time>
      </trkpt>
      <trkpt lat="47.6641" lon="6.17609">
        <ele>226.2</ele>
        <time>2020-12-13T14:01:44Z</time>
      </trkpt>
      <trkpt lat="47.66415" lon="6.17604">
        <ele>226.2</ele>
        <time>2020-12-13T14:01:45Z</time>
      </trkpt>
      <trkpt lat="47.6642" lon="6.17597">
        <ele>226.2</ele>
        <time>2020-12-13T14:01:46Z</time>
      </trkpt>
      <trkpt lat="47.66424" lon="6.17593">
        <ele>226.2</ele>
        <time>2020-12-13T14:01:47Z</time>
      </trkpt>
      <trkpt lat="47.66429" lon="6.17589">
        <ele>226.2</ele>
        <time>2020-12-13T14:01:48Z</time>
      </trkpt>
      <trkpt lat="47.66433" lon="6.17586">
        <ele>226.2</ele>
        <time>2020-12-13T14:01:49Z</time>
      </trkpt>
      <trkpt lat="47.66437" lon="6.17583">
        <ele>226.2</ele>
        <time>2020-12-13T14:01:50Z</time>
      </trkpt>
      <trkpt lat="47.66441" lon="6.1758">
        <ele>226.3</ele>
        <time>2020-12-13T14:01:51Z</time>
      </trkpt>
      <trkpt lat="47.66445" lon="6.17577">
        <ele>226.3</ele>
        <time>2020-12-13T14:01:52Z</time>
      </trkpt>
      <trkpt lat="47.6645" lon="6.17574">
        <ele>226.4</ele>
        <time>2020-12-13T14:01:54Z</time>
      </trkpt>
      <trkpt lat="47.66457" lon="6.1757">
        <ele>226.4</ele>
        <time>2020-12-13T14:01:55Z</time>
      </trkpt>
      <trkpt lat="47.66463" lon="6.17566">
        <ele>226.4</ele>
        <time>2020-12-13T14:01:57Z</time>
      </trkpt>
      <trkpt lat="47.66468" lon="6.17563">
        <ele>226.5</ele>
        <time>2020-12-13T14:01:58Z</time>
      </trkpt>
      <trkpt lat="47.66475" lon="6.1756">
        <ele>226.5</ele>
        <time>2020-12-13T14:02:00Z</time>
      </trkpt>
      <trkpt lat="47.66481" lon="6.17556">
        <ele>226.5</ele>
        <time>2020-12-13T14:02:01Z</time>
      </trkpt>
      <trkpt lat="47.66489" lon="6.17552">
        <ele>226.5</ele>
        <time>2020-12-13T14:02:04Z</time>
      </trkpt>
      <trkpt lat="47.66494" lon="6.17549">
        <ele>226.5</ele>
        <time>2020-12-13T14:02:05Z</time>
      </trkpt>
      <trkpt lat="47.665" lon="6.17545">
        <ele>226.5</ele>
        <time>2020-12-13T14:02:07Z</time>
      </trkpt>
      <trkpt lat="47.66507" lon="6.1754">
        <ele>226.5</ele>
        <time>2020-12-13T14:02:08Z</time>
      </trkpt>
      <trkpt lat="47.66514" lon="6.17535">
        <ele>226.5</ele>
        <time>2020-12-13T14:02:11Z</time>
      </trkpt>
      <trkpt lat="47.6652" lon="6.17531">
        <ele>226.5</ele>
        <time>2020-12-13T14:02:12Z</time>
      </trkpt>
      <trkpt lat="47.66525" lon="6.17528">
        <ele>226.5</ele>
        <time>2020-12-13T14:02:13Z</time>
      </trkpt>
      <trkpt lat="47.6653" lon="6.17524">
        <ele>226.5</ele>
        <time>2020-12-13T14:02:15Z</time>
      </trkpt>
      <trkpt lat="47.66534" lon="6.17521">
        <ele>226.6</ele>
        <time>2020-12-13T14:02:15Z</time>
      </trkpt>
      <trkpt lat="47.66541" lon="6.17516">
        <ele>226.6</ele>
        <time>2020-12-13T14:02:18Z</time>
      </trkpt>
      <trkpt lat="47.66548" lon="6.17511">
        <ele>226.6</ele>
        <time>2020-12-13T14:02:19Z</time>
      </trkpt>
      <trkpt lat="47.66555" lon="6.17507">
        <ele>226.7</ele>
        <time>2020-12-13T14:02:22Z</time>
      </trkpt>
      <trkpt lat="47.66559" lon="6.17505">
        <ele>226.7</ele>
        <time>2020-12-13T14:02:23Z</time>
      </trkpt>
      <trkpt lat="47.66565" lon="6.17501">
        <ele>226.8</ele>
        <time>2020-12-13T14:02:24Z</time>
      </trkpt>
      <trkpt lat="47.66573" lon="6.17496">
        <ele>226.8</ele>
        <time>2020-12-13T14:02:26Z</time>
      </trkpt>
      <trkpt lat="47.66578" lon="6.17494">
        <ele>226.9</ele>
        <time>2020-12-13T14:02:28Z</time>
      </trkpt>
      <trkpt lat="47.66585" lon="6.17491">
        <ele>226.9</ele>
        <time>2020-12-13T14:02:29Z</time>
      </trkpt>
      <trkpt lat="47.6659" lon="6.17489">
        <ele>227</ele>
        <time>2020-12-13T14:02:31Z</time>
      </trkpt>
      <trkpt lat="47.66595" lon="6.17487">
        <ele>227.1</ele>
        <time>2020-12-13T14:02:33Z</time>
      </trkpt>
      <trkpt lat="47.66603" lon="6.17484">
        <ele>227.2</ele>
        <time>2020-12-13T14:02:35Z</time>
      </trkpt>
      <trkpt lat="47.66609" lon="6.17481">
        <ele>227.3</ele>
        <time>2020-12-13T14:02:37Z</time>
      </trkpt>
      <trkpt lat="47.66615" lon="6.17478">
        <ele>227.4</ele>
        <time>2020-12-13T14:02:38Z</time>
      </trkpt>
      <trkpt lat="47.66624" lon="6.17473">
        <ele>227.5</ele>
        <time>2020-12-13T14:02:41Z</time>
      </trkpt>
      <trkpt lat="47.66629" lon="6.17471">
        <ele>227.6</ele>
        <time>2020-12-13T14:02:42Z</time>
      </trkpt>
      <trkpt lat="47.66636" lon="6.17468">
        <ele>227.6</ele>
        <time>2020-12-13T14:02:44Z</time>
      </trkpt>
      <trkpt lat="47.66642" lon="6.17465">
        <ele>227.7</ele>
        <time>2020-12-13T14:02:46Z</time>
      </trkpt>
      <trkpt lat="47.6665" lon="6.1746">
        <ele>227.7</ele>
        <time>2020-12-13T14:02:49Z</time>
      </trkpt>
      <trkpt lat="47.66655" lon="6.17458">
        <ele>227.8</ele>
        <time>2020-12-13T14:02:50Z</time>
      </trkpt>
      <trkpt lat="47.66661" lon="6.17456">
        <ele>227.8</ele>
        <time>2020-12-13T14:02:52Z</time>
      </trkpt>
      <trkpt lat="47.66666" lon="6.17454">
        <ele>227.9</ele>
        <time>2020-12-13T14:02:54Z</time>
      </trkpt>
      <trkpt lat="47.66673" lon="6.17452">
        <ele>227.9</ele>
        <time>2020-12-13T14:02:56Z</time>
      </trkpt>
      <trkpt lat="47.6668" lon="6.17449">
        <ele>227.8</ele>
        <time>2020-12-13T14:02:58Z</time>
      </trkpt>
      <trkpt lat="47.66686" lon="6.17447">
        <ele>227.8</ele>
        <time>2020-12-13T14:03:00Z</time>
      </trkpt>
      <trkpt lat="47.66691" lon="6.17446">
        <ele>227.8</ele>
        <time>2020-12-13T14:03:02Z</time>
      </trkpt>
      <trkpt lat="47.66697" lon="6.17444">
        <ele>227.8</ele>
        <time>2020-12-13T14:03:04Z</time>
      </trkpt>
      <trkpt lat="47.66703" lon="6.17444">
        <ele>227.8</ele>
        <time>2020-12-13T14:03:05Z</time>
      </trkpt>
      <trkpt lat="47.66708" lon="6.17443">
        <ele>227.8</ele>
        <time>2020-12-13T14:03:07Z</time>
      </trkpt>
      <trkpt lat="47.66714" lon="6.17441">
        <ele>227.8</ele>
        <time>2020-12-13T14:03:09Z</time>
      </trkpt>
      <trkpt lat="47.66721" lon="6.1744">
        <ele>227.7</ele>
        <time>2020-12-13T14:03:11Z</time>
      </trkpt>
      <trkpt lat="47.66728" lon="6.17438">
        <ele>227.7</ele>
        <time>2020-12-13T14:03:13Z</time>
      </trkpt>
      <trkpt lat="47.66735" lon="6.17437">
        <ele>227.7</ele>
        <time>2020-12-13T14:03:15Z</time>
      </trkpt>
      <trkpt lat="47.6674" lon="6.17436">
        <ele>227.7</ele>
        <time>2020-12-13T14:03:16Z</time>
      </trkpt>
      <trkpt lat="47.66745" lon="6.17436">
        <ele>227.7</ele>
        <time>2020-12-13T14:03:18Z</time>
      </trkpt>
      <trkpt lat="47.66751" lon="6.17435">
        <ele>227.6</ele>
        <time>2020-12-13T14:03:19Z</time>
      </trkpt>
      <trkpt lat="47.66758" lon="6.17434">
        <ele>227.6</ele>
        <time>2020-12-13T14:03:21Z</time>
      </trkpt>
      <trkpt lat="47.66764" lon="6.17433">
        <ele>227.6</ele>
        <time>2020-12-13T14:03:23Z</time>
      </trkpt>
      <trkpt lat="47.66773" lon="6.17432">
        <ele>227.5</ele>
        <time>2020-12-13T14:03:25Z</time>
      </trkpt>
      <trkpt lat="47.66778" lon="6.17432">
        <ele>227.5</ele>
        <time>2020-12-13T14:03:27Z</time>
      </trkpt>
      <trkpt lat="47.66784" lon="6.17431">
        <ele>227.4</ele>
        <time>2020-12-13T14:03:29Z</time>
      </trkpt>
      <trkpt lat="47.6679" lon="6.1743">
        <ele>227.4</ele>
        <time>2020-12-13T14:03:31Z</time>
      </trkpt>
      <trkpt lat="47.66795" lon="6.1743">
        <ele>227.4</ele>
        <time>2020-12-13T14:03:32Z</time>
      </trkpt>
      <trkpt lat="47.66802" lon="6.1743">
        <ele>227.4</ele>
        <time>2020-12-13T14:03:34Z</time>
      </trkpt>
      <trkpt lat="47.66809" lon="6.17429">
        <ele>227.3</ele>
        <time>2020-12-13T14:03:36Z</time>
      </trkpt>
      <trkpt lat="47.66815" lon="6.17429">
        <ele>227.3</ele>
        <time>2020-12-13T14:03:37Z</time>
      </trkpt>
      <trkpt lat="47.66823" lon="6.17429">
        <ele>227.3</ele>
        <time>2020-12-13T14:03:40Z</time>
      </trkpt>
      <trkpt lat="47.66828" lon="6.17429">
        <ele>227.3</ele>
        <time>2020-12-13T14:03:41Z</time>
      </trkpt>
      <trkpt lat="47.66834" lon="6.17429">
        <ele>227.3</ele>
        <time>2020-12-13T14:03:43Z</time>
      </trkpt>
      <trkpt lat="47.66839" lon="6.17429">
        <ele>227.5</ele>
        <time>2020-12-13T14:03:44Z</time>
      </trkpt>
      <trkpt lat="47.66844" lon="6.1743">
        <ele>227.6</ele>
        <time>2020-12-13T14:03:45Z</time>
      </trkpt>
      <trkpt lat="47.6685" lon="6.1743">
        <ele>227.7</ele>
        <time>2020-12-13T14:03:47Z</time>
      </trkpt>
      <trkpt lat="47.66856" lon="6.1743">
        <ele>227.9</ele>
        <time>2020-12-13T14:03:49Z</time>
      </trkpt>
      <trkpt lat="47.66861" lon="6.1743">
        <ele>228</ele>
        <time>2020-12-13T14:03:50Z</time>
      </trkpt>
      <trkpt lat="47.66866" lon="6.1743">
        <ele>228.1</ele>
        <time>2020-12-13T14:03:51Z</time>
      </trkpt>
      <trkpt lat="47.66874" lon="6.17429">
        <ele>228.3</ele>
        <time>2020-12-13T14:03:54Z</time>
      </trkpt>
      <trkpt lat="47.66881" lon="6.17427">
        <ele>228.4</ele>
        <time>2020-12-13T14:03:56Z</time>
      </trkpt>
      <trkpt lat="47.66888" lon="6.17424">
        <ele>228.5</ele>
        <time>2020-12-13T14:03:58Z</time>
      </trkpt>
      <trkpt lat="47.66895" lon="6.17422">
        <ele>228.6</ele>
        <time>2020-12-13T14:04:00Z</time>
      </trkpt>
      <trkpt lat="47.66902" lon="6.17418">
        <ele>228.7</ele>
        <time>2020-12-13T14:04:02Z</time>
      </trkpt>
      <trkpt lat="47.66907" lon="6.17414">
        <ele>228.7</ele>
        <time>2020-12-13T14:04:03Z</time>
      </trkpt>
      <trkpt lat="47.66912" lon="6.17412">
        <ele>228.8</ele>
        <time>2020-12-13T14:04:05Z</time>
      </trkpt>
      <trkpt lat="47.66919" lon="6.17407">
        <ele>229</ele>
        <time>2020-12-13T14:04:07Z</time>
      </trkpt>
      <trkpt lat="47.66924" lon="6.17404">
        <ele>229.3</ele>
        <time>2020-12-13T14:04:08Z</time>
      </trkpt>
      <trkpt lat="47.6693" lon="6.174">
        <ele>229.7</ele>
        <time>2020-12-13T14:04:09Z</time>
      </trkpt>
      <trkpt lat="47.66936" lon="6.17397">
        <ele>230.1</ele>
        <time>2020-12-13T14:04:11Z</time>
      </trkpt>
      <trkpt lat="47.6694" lon="6.17394">
        <ele>230.4</ele>
        <time>2020-12-13T14:04:12Z</time>
      </trkpt>
      <trkpt lat="47.66947" lon="6.1739">
        <ele>230.8</ele>
        <time>2020-12-13T14:04:13Z</time>
      </trkpt>
      <trkpt lat="47.66951" lon="6.17387">
        <ele>231.1</ele>
        <time>2020-12-13T14:04:14Z</time>
      </trkpt>
      <trkpt lat="47.66956" lon="6.17384">
        <ele>231.3</ele>
        <time>2020-12-13T14:04:15Z</time>
      </trkpt>
      <trkpt lat="47.66962" lon="6.17381">
        <ele>231.7</ele>
        <time>2020-12-13T14:04:17Z</time>
      </trkpt>
      <trkpt lat="47.6697" lon="6.17375">
        <ele>232.2</ele>
        <time>2020-12-13T14:04:19Z</time>
      </trkpt>
      <trkpt lat="47.66975" lon="6.17379">
        <ele>232.6</ele>
        <time>2020-12-13T14:04:20Z</time>
      </trkpt>
      <trkpt lat="47.66981" lon="6.17377">
        <ele>233.1</ele>
        <time>2020-12-13T14:04:22Z</time>
      </trkpt>
      <trkpt lat="47.66986" lon="6.17372">
        <ele>233.3</ele>
        <time>2020-12-13T14:04:23Z</time>
      </trkpt>
      <trkpt lat="47.66993" lon="6.17364">
        <ele>233.6</ele>
        <time>2020-12-13T14:04:24Z</time>
      </trkpt>
      <trkpt lat="47.66997" lon="6.1736">
        <ele>233.7</ele>
        <time>2020-12-13T14:04:25Z</time>
      </trkpt>
      <trkpt lat="47.67003" lon="6.17353">
        <ele>234.2</ele>
        <time>2020-12-13T14:04:27Z</time>
      </trkpt>
      <trkpt lat="47.67007" lon="6.1735">
        <ele>234.8</ele>
        <time>2020-12-13T14:04:28Z</time>
      </trkpt>
      <trkpt lat="47.67012" lon="6.17347">
        <ele>235.4</ele>
        <time>2020-12-13T14:04:29Z</time>
      </trkpt>
      <trkpt lat="47.67017" lon="6.17343">
        <ele>236.2</ele>
        <time>2020-12-13T14:04:30Z</time>
      </trkpt>
      <trkpt lat="47.67022" lon="6.17338">
        <ele>236.9</ele>
        <time>2020-12-13T14:04:32Z</time>
      </trkpt>
      <trkpt lat="47.67028" lon="6.17332">
        <ele>237.5</ele>
        <time>2020-12-13T14:04:33Z</time>
      </trkpt>
      <trkpt lat="47.67033" lon="6.17323">
        <ele>237.7</ele>
        <time>2020-12-13T14:04:36Z</time>
      </trkpt>
      <trkpt lat="47.67037" lon="6.17315">
        <ele>237.6</ele>
        <time>2020-12-13T14:04:38Z</time>
      </trkpt>
      <trkpt lat="47.67041" lon="6.17306">
        <ele>237.3</ele>
        <time>2020-12-13T14:04:39Z</time>
      </trkpt>
      <trkpt lat="47.67044" lon="6.17299">
        <ele>237</ele>
        <time>2020-12-13T14:04:41Z</time>
      </trkpt>
      <trkpt lat="47.67048" lon="6.17288">
        <ele>236.4</ele>
        <time>2020-12-13T14:04:43Z</time>
      </trkpt>
      <trkpt lat="47.67053" lon="6.17275">
        <ele>235.6</ele>
        <time>2020-12-13T14:04:44Z</time>
      </trkpt>
      <trkpt lat="47.67056" lon="6.17267">
        <ele>235</ele>
        <time>2020-12-13T14:04:46Z</time>
      </trkpt>
      <trkpt lat="47.67064" lon="6.17247">
        <ele>233.3</ele>
        <time>2020-12-13T14:04:48Z</time>
      </trkpt>
      <trkpt lat="47.67066" lon="6.17239">
        <ele>232.7</ele>
        <time>2020-12-13T14:04:49Z</time>
      </trkpt>
      <trkpt lat="47.67067" lon="6.17231">
        <ele>232</ele>
        <time>2020-12-13T14:04:50Z</time>
      </trkpt>
      <trkpt lat="47.67067" lon="6.17223">
        <ele>231.3</ele>
        <time>2020-12-13T14:04:51Z</time>
      </trkpt>
      <trkpt lat="47.67067" lon="6.17216">
        <ele>230.6</ele>
        <time>2020-12-13T14:04:52Z</time>
      </trkpt>
      <trkpt lat="47.67067" lon="6.17208">
        <ele>229.9</ele>
        <time>2020-12-13T14:04:53Z</time>
      </trkpt>
      <trkpt lat="47.67067" lon="6.172">
        <ele>229.1</ele>
        <time>2020-12-13T14:04:54Z</time>
      </trkpt>
      <trkpt lat="47.67066" lon="6.17193">
        <ele>228.4</ele>
        <time>2020-12-13T14:04:55Z</time>
      </trkpt>
      <trkpt lat="47.67066" lon="6.17185">
        <ele>227.7</ele>
        <time>2020-12-13T14:04:56Z</time>
      </trkpt>
      <trkpt lat="47.67066" lon="6.17177">
        <ele>227</ele>
        <time>2020-12-13T14:04:57Z</time>
      </trkpt>
      <trkpt lat="47.67065" lon="6.1717">
        <ele>226.3</ele>
        <time>2020-12-13T14:04:58Z</time>
      </trkpt>
      <trkpt lat="47.67065" lon="6.17162">
        <ele>226</ele>
        <time>2020-12-13T14:04:59Z</time>
      </trkpt>
      <trkpt lat="47.67065" lon="6.17155">
        <ele>226</ele>
        <time>2020-12-13T14:05:00Z</time>
      </trkpt>
      <trkpt lat="47.67064" lon="6.17147">
        <ele>226</ele>
        <time>2020-12-13T14:05:01Z</time>
      </trkpt>
      <trkpt lat="47.67064" lon="6.1714">
        <ele>226</ele>
        <time>2020-12-13T14:05:02Z</time>
      </trkpt>
      <trkpt lat="47.67063" lon="6.17133">
        <ele>226</ele>
        <time>2020-12-13T14:05:03Z</time>
      </trkpt>
      <trkpt lat="47.67063" lon="6.17126">
        <ele>226</ele>
        <time>2020-12-13T14:05:04Z</time>
      </trkpt>
      <trkpt lat="47.67062" lon="6.17119">
        <ele>226</ele>
        <time>2020-12-13T14:05:05Z</time>
      </trkpt>
      <trkpt lat="47.67062" lon="6.17107">
        <ele>226</ele>
        <time>2020-12-13T14:05:07Z</time>
      </trkpt>
      <trkpt lat="47.67061" lon="6.17094">
        <ele>226</ele>
        <time>2020-12-13T14:05:09Z</time>
      </trkpt>
      <trkpt lat="47.6706" lon="6.17083">
        <ele>226</ele>
        <time>2020-12-13T14:05:11Z</time>
      </trkpt>
      <trkpt lat="47.6706" lon="6.17072">
        <ele>226.1</ele>
        <time>2020-12-13T14:05:13Z</time>
      </trkpt>
      <trkpt lat="47.67059" lon="6.17059">
        <ele>226.2</ele>
        <time>2020-12-13T14:05:15Z</time>
      </trkpt>
      <trkpt lat="47.67059" lon="6.17049">
        <ele>226.2</ele>
        <time>2020-12-13T14:05:17Z</time>
      </trkpt>
      <trkpt lat="47.67066" lon="6.17037">
        <ele>226.2</ele>
        <time>2020-12-13T14:05:17Z</time>
      </trkpt>
      <trkpt lat="47.67066" lon="6.17028">
        <ele>226.3</ele>
        <time>2020-12-13T14:05:20Z</time>
      </trkpt>
      <trkpt lat="47.67065" lon="6.1702">
        <ele>226.3</ele>
        <time>2020-12-13T14:05:21Z</time>
      </trkpt>
      <trkpt lat="47.67066" lon="6.17012">
        <ele>226.4</ele>
        <time>2020-12-13T14:05:23Z</time>
      </trkpt>
      <trkpt lat="47.67066" lon="6.17003">
        <ele>226.4</ele>
        <time>2020-12-13T14:05:24Z</time>
      </trkpt>
      <trkpt lat="47.67067" lon="6.16996">
        <ele>226.4</ele>
        <time>2020-12-13T14:05:26Z</time>
      </trkpt>
      <trkpt lat="47.67068" lon="6.16986">
        <ele>226.5</ele>
        <time>2020-12-13T14:05:27Z</time>
      </trkpt>
      <trkpt lat="47.6707" lon="6.16978">
        <ele>226.5</ele>
        <time>2020-12-13T14:05:29Z</time>
      </trkpt>
      <trkpt lat="47.67071" lon="6.16971">
        <ele>226.5</ele>
        <time>2020-12-13T14:05:30Z</time>
      </trkpt>
      <trkpt lat="47.67072" lon="6.16962">
        <ele>226.5</ele>
        <time>2020-12-13T14:05:32Z</time>
      </trkpt>
      <trkpt lat="47.67073" lon="6.16953">
        <ele>226.5</ele>
        <time>2020-12-13T14:05:33Z</time>
      </trkpt>
      <trkpt lat="47.67074" lon="6.16944">
        <ele>226.5</ele>
        <time>2020-12-13T14:05:35Z</time>
      </trkpt>
      <trkpt lat="47.67075" lon="6.16936">
        <ele>226.5</ele>
        <time>2020-12-13T14:05:37Z</time>
      </trkpt>
      <trkpt lat="47.67075" lon="6.16929">
        <ele>226.5</ele>
        <time>2020-12-13T14:05:38Z</time>
      </trkpt>
      <trkpt lat="47.67074" lon="6.1692">
        <ele>226.7</ele>
        <time>2020-12-13T14:05:39Z</time>
      </trkpt>
      <trkpt lat="47.67072" lon="6.16913">
        <ele>226.8</ele>
        <time>2020-12-13T14:05:41Z</time>
      </trkpt>
      <trkpt lat="47.67069" lon="6.16903">
        <ele>227.2</ele>
        <time>2020-12-13T14:05:43Z</time>
      </trkpt>
      <trkpt lat="47.67065" lon="6.16896">
        <ele>227.5</ele>
        <time>2020-12-13T14:05:44Z</time>
      </trkpt>
      <trkpt lat="47.67062" lon="6.1689">
        <ele>227.7</ele>
        <time>2020-12-13T14:05:46Z</time>
      </trkpt>
      <trkpt lat="47.67058" lon="6.16884">
        <ele>228</ele>
        <time>2020-12-13T14:05:47Z</time>
      </trkpt>
      <trkpt lat="47.67052" lon="6.16879">
        <ele>228.4</ele>
        <time>2020-12-13T14:05:50Z</time>
      </trkpt>
      <trkpt lat="47.67048" lon="6.16873">
        <ele>228.6</ele>
        <time>2020-12-13T14:05:51Z</time>
      </trkpt>
      <trkpt lat="47.67045" lon="6.16864">
        <ele>228.8</ele>
        <time>2020-12-13T14:05:54Z</time>
      </trkpt>
      <trkpt lat="47.67042" lon="6.16858">
        <ele>229</ele>
        <time>2020-12-13T14:05:56Z</time>
      </trkpt>
      <trkpt lat="47.67035" lon="6.16855">
        <ele>229.3</ele>
        <time>2020-12-13T14:05:59Z</time>
      </trkpt>
      <trkpt lat="47.67031" lon="6.16851">
        <ele>229.6</ele>
        <time>2020-12-13T14:06:01Z</time>
      </trkpt>
      <trkpt lat="47.67027" lon="6.16845">
        <ele>229.7</ele>
        <time>2020-12-13T14:06:03Z</time>
      </trkpt>
      <trkpt lat="47.67023" lon="6.16838">
        <ele>229.9</ele>
        <time>2020-12-13T14:06:06Z</time>
      </trkpt>
      <trkpt lat="47.67018" lon="6.16833">
        <ele>230.1</ele>
        <time>2020-12-13T14:06:08Z</time>
      </trkpt>
      <trkpt lat="47.67011" lon="6.16827">
        <ele>230.3</ele>
        <time>2020-12-13T14:06:11Z</time>
      </trkpt>
      <trkpt lat="47.67008" lon="6.16824">
        <ele>230.4</ele>
        <time>2020-12-13T14:06:12Z</time>
      </trkpt>
      <trkpt lat="47.67002" lon="6.16819">
        <ele>230.6</ele>
        <time>2020-12-13T14:06:14Z</time>
      </trkpt>
      <trkpt lat="47.66998" lon="6.16815">
        <ele>230.6</ele>
        <time>2020-12-13T14:06:16Z</time>
      </trkpt>
      <trkpt lat="47.66992" lon="6.16809">
        <ele>230.7</ele>
        <time>2020-12-13T14:06:19Z</time>
      </trkpt>
      <trkpt lat="47.66986" lon="6.16804">
        <ele>230.9</ele>
        <time>2020-12-13T14:06:21Z</time>
      </trkpt>
      <trkpt lat="47.66981" lon="6.16801">
        <ele>231</ele>
        <time>2020-12-13T14:06:23Z</time>
      </trkpt>
      <trkpt lat="47.66977" lon="6.16796">
        <ele>231.1</ele>
        <time>2020-12-13T14:06:25Z</time>
      </trkpt>
      <trkpt lat="47.66973" lon="6.16792">
        <ele>231.2</ele>
        <time>2020-12-13T14:06:27Z</time>
      </trkpt>
      <trkpt lat="47.66968" lon="6.16788">
        <ele>231.3</ele>
        <time>2020-12-13T14:06:29Z</time>
      </trkpt>
      <trkpt lat="47.66963" lon="6.16783">
        <ele>231.4</ele>
        <time>2020-12-13T14:06:31Z</time>
      </trkpt>
      <trkpt lat="47.6696" lon="6.16778">
        <ele>231.4</ele>
        <time>2020-12-13T14:06:32Z</time>
      </trkpt>
      <trkpt lat="47.66956" lon="6.16774">
        <ele>231.5</ele>
        <time>2020-12-13T14:06:34Z</time>
      </trkpt>
      <trkpt lat="47.66952" lon="6.16769">
        <ele>231.6</ele>
        <time>2020-12-13T14:06:36Z</time>
      </trkpt>
      <trkpt lat="47.66947" lon="6.16763">
        <ele>231.7</ele>
        <time>2020-12-13T14:06:38Z</time>
      </trkpt>
      <trkpt lat="47.66944" lon="6.16756">
        <ele>231.8</ele>
        <time>2020-12-13T14:06:40Z</time>
      </trkpt>
      <trkpt lat="47.66941" lon="6.1675">
        <ele>231.8</ele>
        <time>2020-12-13T14:06:41Z</time>
      </trkpt>
      <trkpt lat="47.66938" lon="6.16742">
        <ele>231.9</ele>
        <time>2020-12-13T14:06:43Z</time>
      </trkpt>
      <trkpt lat="47.66936" lon="6.16734">
        <ele>232</ele>
        <time>2020-12-13T14:06:45Z</time>
      </trkpt>
      <trkpt lat="47.66934" lon="6.16727">
        <ele>232</ele>
        <time>2020-12-13T14:06:47Z</time>
      </trkpt>
      <trkpt lat="47.66933" lon="6.16719">
        <ele>232</ele>
        <time>2020-12-13T14:06:49Z</time>
      </trkpt>
      <trkpt lat="47.66932" lon="6.16711">
        <ele>232</ele>
        <time>2020-12-13T14:06:51Z</time>
      </trkpt>
      <trkpt lat="47.66931" lon="6.16704">
        <ele>232</ele>
        <time>2020-12-13T14:06:52Z</time>
      </trkpt>
      <trkpt lat="47.6693" lon="6.16694">
        <ele>231.9</ele>
        <time>2020-12-13T14:06:55Z</time>
      </trkpt>
      <trkpt lat="47.66931" lon="6.16685">
        <ele>231.8</ele>
        <time>2020-12-13T14:06:57Z</time>
      </trkpt>
      <trkpt lat="47.66931" lon="6.16676">
        <ele>231.7</ele>
        <time>2020-12-13T14:06:59Z</time>
      </trkpt>
      <trkpt lat="47.66933" lon="6.16667">
        <ele>231.6</ele>
        <time>2020-12-13T14:07:01Z</time>
      </trkpt>
      <trkpt lat="47.66934" lon="6.16659">
        <ele>231.4</ele>
        <time>2020-12-13T14:07:02Z</time>
      </trkpt>
      <trkpt lat="47.66937" lon="6.16648">
        <ele>231.2</ele>
        <time>2020-12-13T14:07:05Z</time>
      </trkpt>
      <trkpt lat="47.66939" lon="6.16639">
        <ele>231</ele>
        <time>2020-12-13T14:07:07Z</time>
      </trkpt>
      <trkpt lat="47.6694" lon="6.16631">
        <ele>230.8</ele>
        <time>2020-12-13T14:07:08Z</time>
      </trkpt>
      <trkpt lat="47.66942" lon="6.16622">
        <ele>230.6</ele>
        <time>2020-12-13T14:07:11Z</time>
      </trkpt>
      <trkpt lat="47.66944" lon="6.16612">
        <ele>230.5</ele>
        <time>2020-12-13T14:07:13Z</time>
      </trkpt>
      <trkpt lat="47.66945" lon="6.16602">
        <ele>230.3</ele>
        <time>2020-12-13T14:07:15Z</time>
      </trkpt>
      <trkpt lat="47.66946" lon="6.16591">
        <ele>230.1</ele>
        <time>2020-12-13T14:07:17Z</time>
      </trkpt>
      <trkpt lat="47.66948" lon="6.16579">
        <ele>230.1</ele>
        <time>2020-12-13T14:07:19Z</time>
      </trkpt>
      <trkpt lat="47.66951" lon="6.16568">
        <ele>230.5</ele>
        <time>2020-12-13T14:07:21Z</time>
      </trkpt>
      <trkpt lat="47.66954" lon="6.16557">
        <ele>231</ele>
        <time>2020-12-13T14:07:23Z</time>
      </trkpt>
      <trkpt lat="47.66955" lon="6.16548">
        <ele>231.3</ele>
        <time>2020-12-13T14:07:24Z</time>
      </trkpt>
      <trkpt lat="47.66956" lon="6.1654">
        <ele>231.5</ele>
        <time>2020-12-13T14:07:26Z</time>
      </trkpt>
      <trkpt lat="47.66957" lon="6.16532">
        <ele>231.9</ele>
        <time>2020-12-13T14:07:27Z</time>
      </trkpt>
      <trkpt lat="47.66958" lon="6.16525">
        <ele>232.1</ele>
        <time>2020-12-13T14:07:29Z</time>
      </trkpt>
      <trkpt lat="47.66958" lon="6.16514">
        <ele>232.5</ele>
        <time>2020-12-13T14:07:31Z</time>
      </trkpt>
      <trkpt lat="47.66958" lon="6.16504">
        <ele>232.8</ele>
        <time>2020-12-13T14:07:33Z</time>
      </trkpt>
      <trkpt lat="47.66959" lon="6.16495">
        <ele>233.2</ele>
        <time>2020-12-13T14:07:35Z</time>
      </trkpt>
      <trkpt lat="47.66959" lon="6.16485">
        <ele>233.5</ele>
        <time>2020-12-13T14:07:37Z</time>
      </trkpt>
      <trkpt lat="47.66959" lon="6.16476">
        <ele>233.8</ele>
        <time>2020-12-13T14:07:39Z</time>
      </trkpt>
      <trkpt lat="47.6696" lon="6.16468">
        <ele>234.1</ele>
        <time>2020-12-13T14:07:41Z</time>
      </trkpt>
      <trkpt lat="47.66961" lon="6.16459">
        <ele>234.5</ele>
        <time>2020-12-13T14:07:44Z</time>
      </trkpt>
      <trkpt lat="47.66962" lon="6.16452">
        <ele>234.7</ele>
        <time>2020-12-13T14:07:48Z</time>
      </trkpt>
      <trkpt lat="47.66962" lon="6.16445">
        <ele>234.9</ele>
        <time>2020-12-13T14:07:51Z</time>
      </trkpt>
      <trkpt lat="47.66965" lon="6.16437">
        <ele>235.2</ele>
        <time>2020-12-13T14:07:54Z</time>
      </trkpt>
      <trkpt lat="47.66968" lon="6.16429">
        <ele>235.4</ele>
        <time>2020-12-13T14:07:57Z</time>
      </trkpt>
      <trkpt lat="47.66969" lon="6.16423">
        <ele>235.5</ele>
        <time>2020-12-13T14:07:58Z</time>
      </trkpt>
      <trkpt lat="47.66972" lon="6.16415">
        <ele>235.7</ele>
        <time>2020-12-13T14:08:01Z</time>
      </trkpt>
      <trkpt lat="47.66973" lon="6.16409">
        <ele>236</ele>
        <time>2020-12-13T14:08:03Z</time>
      </trkpt>
      <trkpt lat="47.66974" lon="6.16401">
        <ele>236.4</ele>
        <time>2020-12-13T14:08:06Z</time>
      </trkpt>
      <trkpt lat="47.66976" lon="6.16395">
        <ele>236.6</ele>
        <time>2020-12-13T14:08:09Z</time>
      </trkpt>
      <trkpt lat="47.66978" lon="6.16389">
        <ele>236.9</ele>
        <time>2020-12-13T14:08:12Z</time>
      </trkpt>
      <trkpt lat="47.6698" lon="6.16381">
        <ele>237.2</ele>
        <time>2020-12-13T14:08:15Z</time>
      </trkpt>
      <trkpt lat="47.66981" lon="6.16374">
        <ele>237.4</ele>
        <time>2020-12-13T14:08:18Z</time>
      </trkpt>
      <trkpt lat="47.66983" lon="6.16366">
        <ele>237.7</ele>
        <time>2020-12-13T14:08:21Z</time>
      </trkpt>
      <trkpt lat="47.66984" lon="6.16358">
        <ele>238</ele>
        <time>2020-12-13T14:08:25Z</time>
      </trkpt>
      <trkpt lat="47.66985" lon="6.16349">
        <ele>238.4</ele>
        <time>2020-12-13T14:08:29Z</time>
      </trkpt>
      <trkpt lat="47.66986" lon="6.16342">
        <ele>238.7</ele>
        <time>2020-12-13T14:08:33Z</time>
      </trkpt>
      <trkpt lat="47.66985" lon="6.16333">
        <ele>239.1</ele>
        <time>2020-12-13T14:08:37Z</time>
      </trkpt>
      <trkpt lat="47.66984" lon="6.16325">
        <ele>239.4</ele>
        <time>2020-12-13T14:08:41Z</time>
      </trkpt>
      <trkpt lat="47.66981" lon="6.1632">
        <ele>239.8</ele>
        <time>2020-12-13T14:08:43Z</time>
      </trkpt>
      <trkpt lat="47.6698" lon="6.16312">
        <ele>240.1</ele>
        <time>2020-12-13T14:08:46Z</time>
      </trkpt>
      <trkpt lat="47.66979" lon="6.16304">
        <ele>240.5</ele>
        <time>2020-12-13T14:08:51Z</time>
      </trkpt>
      <trkpt lat="47.66978" lon="6.16296">
        <ele>240.8</ele>
        <time>2020-12-13T14:08:55Z</time>
      </trkpt>
      <trkpt lat="47.66977" lon="6.1629">
        <ele>241</ele>
        <time>2020-12-13T14:08:58Z</time>
      </trkpt>
      <trkpt lat="47.66975" lon="6.16284">
        <ele>241.3</ele>
        <time>2020-12-13T14:09:01Z</time>
      </trkpt>
      <trkpt lat="47.66974" lon="6.16277">
        <ele>241.5</ele>
        <time>2020-12-13T14:09:04Z</time>
      </trkpt>
      <trkpt lat="47.66972" lon="6.16269">
        <ele>241.8</ele>
        <time>2020-12-13T14:09:08Z</time>
      </trkpt>
      <trkpt lat="47.66971" lon="6.16263">
        <ele>242</ele>
        <time>2020-12-13T14:09:11Z</time>
      </trkpt>
      <trkpt lat="47.66969" lon="6.16256">
        <ele>242.2</ele>
        <time>2020-12-13T14:09:15Z</time>
      </trkpt>
      <trkpt lat="47.66969" lon="6.16249">
        <ele>242.4</ele>
        <time>2020-12-13T14:09:19Z</time>
      </trkpt>
      <trkpt lat="47.66969" lon="6.1624">
        <ele>242.8</ele>
        <time>2020-12-13T14:09:23Z</time>
      </trkpt>
      <trkpt lat="47.66969" lon="6.16232">
        <ele>243.2</ele>
        <time>2020-12-13T14:09:27Z</time>
      </trkpt>
      <trkpt lat="47.66968" lon="6.16224">
        <ele>243.5</ele>
        <time>2020-12-13T14:09:31Z</time>
      </trkpt>
      <trkpt lat="47.66972" lon="6.16217">
        <ele>243.8</ele>
        <time>2020-12-13T14:09:35Z</time>
      </trkpt>
      <trkpt lat="47.66974" lon="6.1621">
        <ele>244.1</ele>
        <time>2020-12-13T14:09:39Z</time>
      </trkpt>
      <trkpt lat="47.66976" lon="6.16202">
        <ele>244.4</ele>
        <time>2020-12-13T14:09:43Z</time>
      </trkpt>
      <trkpt lat="47.66978" lon="6.16197">
        <ele>244.7</ele>
        <time>2020-12-13T14:09:47Z</time>
      </trkpt>
      <trkpt lat="47.66981" lon="6.1619">
        <ele>244.9</ele>
        <time>2020-12-13T14:09:51Z</time>
      </trkpt>
      <trkpt lat="47.66982" lon="6.16182">
        <ele>245.3</ele>
        <time>2020-12-13T14:09:56Z</time>
      </trkpt>
      <trkpt lat="47.66984" lon="6.16175">
        <ele>245.6</ele>
        <time>2020-12-13T14:10:00Z</time>
      </trkpt>
      <trkpt lat="47.66984" lon="6.16167">
        <ele>246</ele>
        <time>2020-12-13T14:10:03Z</time>
      </trkpt>
      <trkpt lat="47.66984" lon="6.16159">
        <ele>246.5</ele>
        <time>2020-12-13T14:10:08Z</time>
      </trkpt>
      <trkpt lat="47.66984" lon="6.16151">
        <ele>247.1</ele>
        <time>2020-12-13T14:10:12Z</time>
      </trkpt>
      <trkpt lat="47.66987" lon="6.16144">
        <ele>247.6</ele>
        <time>2020-12-13T14:10:16Z</time>
      </trkpt>
      <trkpt lat="47.66989" lon="6.16137">
        <ele>248.1</ele>
        <time>2020-12-13T14:10:20Z</time>
      </trkpt>
      <trkpt lat="47.66989" lon="6.16131">
        <ele>248.5</ele>
        <time>2020-12-13T14:10:24Z</time>
      </trkpt>
      <trkpt lat="47.66991" lon="6.16123">
        <ele>249.1</ele>
        <time>2020-12-13T14:10:30Z</time>
      </trkpt>
      <trkpt lat="47.66994" lon="6.16117">
        <ele>249.6</ele>
        <time>2020-12-13T14:10:34Z</time>
      </trkpt>
      <trkpt lat="47.66997" lon="6.1611">
        <ele>250</ele>
        <time>2020-12-13T14:10:38Z</time>
      </trkpt>
      <trkpt lat="47.66997" lon="6.16104">
        <ele>250.5</ele>
        <time>2020-12-13T14:10:42Z</time>
      </trkpt>
      <trkpt lat="47.66999" lon="6.16097">
        <ele>251</ele>
        <time>2020-12-13T14:10:46Z</time>
      </trkpt>
      <trkpt lat="47.67" lon="6.1609">
        <ele>251.5</ele>
        <time>2020-12-13T14:10:50Z</time>
      </trkpt>
      <trkpt lat="47.67" lon="6.16082">
        <ele>252</ele>
        <time>2020-12-13T14:10:54Z</time>
      </trkpt>
      <trkpt lat="47.67001" lon="6.16075">
        <ele>252.3</ele>
        <time>2020-12-13T14:10:58Z</time>
      </trkpt>
      <trkpt lat="47.67" lon="6.16068">
        <ele>252.5</ele>
        <time>2020-12-13T14:11:02Z</time>
      </trkpt>
      <trkpt lat="47.67" lon="6.16061">
        <ele>252.8</ele>
        <time>2020-12-13T14:11:06Z</time>
      </trkpt>
      <trkpt lat="47.67001" lon="6.16053">
        <ele>253</ele>
        <time>2020-12-13T14:11:10Z</time>
      </trkpt>
      <trkpt lat="47.67" lon="6.16044">
        <ele>253.4</ele>
        <time>2020-12-13T14:11:14Z</time>
      </trkpt>
      <trkpt lat="47.67" lon="6.16036">
        <ele>253.7</ele>
        <time>2020-12-13T14:11:18Z</time>
      </trkpt>
      <trkpt lat="47.66999" lon="6.16028">
        <ele>254</ele>
        <time>2020-12-13T14:11:22Z</time>
      </trkpt>
      <trkpt lat="47.66998" lon="6.1602">
        <ele>254.2</ele>
        <time>2020-12-13T14:11:26Z</time>
      </trkpt>
      <trkpt lat="47.66998" lon="6.16013">
        <ele>254.5</ele>
        <time>2020-12-13T14:11:30Z</time>
      </trkpt>
      <trkpt lat="47.66998" lon="6.16005">
        <ele>254.8</ele>
        <time>2020-12-13T14:11:34Z</time>
      </trkpt>
      <trkpt lat="47.66997" lon="6.15997">
        <ele>254.9</ele>
        <time>2020-12-13T14:11:38Z</time>
      </trkpt>
      <trkpt lat="47.66997" lon="6.15989">
        <ele>254.9</ele>
        <time>2020-12-13T14:11:42Z</time>
      </trkpt>
      <trkpt lat="47.66996" lon="6.15981">
        <ele>254.9</ele>
        <time>2020-12-13T14:11:46Z</time>
      </trkpt>
      <trkpt lat="47.66996" lon="6.15973">
        <ele>255</ele>
        <time>2020-12-13T14:11:50Z</time>
      </trkpt>
      <trkpt lat="47.66996" lon="6.15966">
        <ele>255</ele>
        <time>2020-12-13T14:11:54Z</time>
      </trkpt>
      <trkpt lat="47.66995" lon="6.15958">
        <ele>255</ele>
        <time>2020-12-13T14:11:58Z</time>
      </trkpt>
      <trkpt lat="47.66995" lon="6.15951">
        <ele>255</ele>
        <time>2020-12-13T14:12:01Z</time>
      </trkpt>
      <trkpt lat="47.66994" lon="6.15942">
        <ele>255.1</ele>
        <time>2020-12-13T14:12:05Z</time>
      </trkpt>
      <trkpt lat="47.66993" lon="6.15935">
        <ele>255.1</ele>
        <time>2020-12-13T14:12:08Z</time>
      </trkpt>
      <trkpt lat="47.66992" lon="6.15928">
        <ele>255.1</ele>
        <time>2020-12-13T14:12:11Z</time>
      </trkpt>
      <trkpt lat="47.66991" lon="6.1592">
        <ele>255.2</ele>
        <time>2020-12-13T14:12:15Z</time>
      </trkpt>
      <trkpt lat="47.6699" lon="6.15912">
        <ele>255.4</ele>
        <time>2020-12-13T14:12:19Z</time>
      </trkpt>
      <trkpt lat="47.66991" lon="6.15904">
        <ele>255.7</ele>
        <time>2020-12-13T14:12:23Z</time>
      </trkpt>
      <trkpt lat="47.66991" lon="6.15897">
        <ele>256</ele>
        <time>2020-12-13T14:12:27Z</time>
      </trkpt>
      <trkpt lat="47.6699" lon="6.15889">
        <ele>256.3</ele>
        <time>2020-12-13T14:12:31Z</time>
      </trkpt>
      <trkpt lat="47.66989" lon="6.15881">
        <ele>256.6</ele>
        <time>2020-12-13T14:12:35Z</time>
      </trkpt>
      <trkpt lat="47.6699" lon="6.15873">
        <ele>256.9</ele>
        <time>2020-12-13T14:12:39Z</time>
      </trkpt>
      <trkpt lat="47.66991" lon="6.15865">
        <ele>257.2</ele>
        <time>2020-12-13T14:12:43Z</time>
      </trkpt>
      <trkpt lat="47.6699" lon="6.15857">
        <ele>257.5</ele>
        <time>2020-12-13T14:12:47Z</time>
      </trkpt>
      <trkpt lat="47.6699" lon="6.1585">
        <ele>257.8</ele>
        <time>2020-12-13T14:12:51Z</time>
      </trkpt>
      <trkpt lat="47.66989" lon="6.15841">
        <ele>258.1</ele>
        <time>2020-12-13T14:12:55Z</time>
      </trkpt>
      <trkpt lat="47.66988" lon="6.15833">
        <ele>258.4</ele>
        <time>2020-12-13T14:12:59Z</time>
      </trkpt>
      <trkpt lat="47.66987" lon="6.15825">
        <ele>258.6</ele>
        <time>2020-12-13T14:13:03Z</time>
      </trkpt>
      <trkpt lat="47.66987" lon="6.15817">
        <ele>258.8</ele>
        <time>2020-12-13T14:13:06Z</time>
      </trkpt>
      <trkpt lat="47.66985" lon="6.1581">
        <ele>259</ele>
        <time>2020-12-13T14:13:09Z</time>
      </trkpt>
      <trkpt lat="47.66984" lon="6.15801">
        <ele>259.2</ele>
        <time>2020-12-13T14:13:13Z</time>
      </trkpt>
      <trkpt lat="47.66984" lon="6.15793">
        <ele>259.4</ele>
        <time>2020-12-13T14:13:17Z</time>
      </trkpt>
      <trkpt lat="47.66983" lon="6.15784">
        <ele>259.5</ele>
        <time>2020-12-13T14:13:21Z</time>
      </trkpt>
      <trkpt lat="47.66983" lon="6.15776">
        <ele>259.7</ele>
        <time>2020-12-13T14:13:24Z</time>
      </trkpt>
      <trkpt lat="47.66981" lon="6.15769">
        <ele>259.9</ele>
        <time>2020-12-13T14:13:27Z</time>
      </trkpt>
      <trkpt lat="47.66981" lon="6.15761">
        <ele>260</ele>
        <time>2020-12-13T14:13:29Z</time>
      </trkpt>
      <trkpt lat="47.6698" lon="6.15751">
        <ele>260.2</ele>
        <time>2020-12-13T14:13:33Z</time>
      </trkpt>
      <trkpt lat="47.66979" lon="6.15743">
        <ele>260.2</ele>
        <time>2020-12-13T14:13:36Z</time>
      </trkpt>
      <trkpt lat="47.66979" lon="6.15735">
        <ele>260.1</ele>
        <time>2020-12-13T14:13:39Z</time>
      </trkpt>
      <trkpt lat="47.66979" lon="6.15727">
        <ele>260</ele>
        <time>2020-12-13T14:13:42Z</time>
      </trkpt>
      <trkpt lat="47.66979" lon="6.15719">
        <ele>260</ele>
        <time>2020-12-13T14:13:45Z</time>
      </trkpt>
      <trkpt lat="47.66978" lon="6.15711">
        <ele>259.9</ele>
        <time>2020-12-13T14:13:48Z</time>
      </trkpt>
      <trkpt lat="47.66979" lon="6.15703">
        <ele>259.8</ele>
        <time>2020-12-13T14:13:51Z</time>
      </trkpt>
      <trkpt lat="47.66979" lon="6.15694">
        <ele>259.7</ele>
        <time>2020-12-13T14:13:54Z</time>
      </trkpt>
      <trkpt lat="47.66978" lon="6.15686">
        <ele>259.7</ele>
        <time>2020-12-13T14:13:56Z</time>
      </trkpt>
      <trkpt lat="47.66978" lon="6.15679">
        <ele>259.6</ele>
        <time>2020-12-13T14:13:58Z</time>
      </trkpt>
      <trkpt lat="47.66977" lon="6.1567">
        <ele>259.6</ele>
        <time>2020-12-13T14:14:01Z</time>
      </trkpt>
      <trkpt lat="47.66976" lon="6.15661">
        <ele>259.6</ele>
        <time>2020-12-13T14:14:04Z</time>
      </trkpt>
      <trkpt lat="47.66976" lon="6.15652">
        <ele>259.6</ele>
        <time>2020-12-13T14:14:08Z</time>
      </trkpt>
      <trkpt lat="47.66975" lon="6.15644">
        <ele>259.7</ele>
        <time>2020-12-13T14:14:09Z</time>
      </trkpt>
      <trkpt lat="47.66975" lon="6.15635">
        <ele>259.8</ele>
        <time>2020-12-13T14:14:12Z</time>
      </trkpt>
      <trkpt lat="47.66974" lon="6.15625">
        <ele>259.8</ele>
        <time>2020-12-13T14:14:13Z</time>
      </trkpt>
      <trkpt lat="47.66973" lon="6.15617">
        <ele>259.9</ele>
        <time>2020-12-13T14:14:16Z</time>
      </trkpt>
      <trkpt lat="47.66972" lon="6.15604">
        <ele>259.9</ele>
        <time>2020-12-13T14:14:17Z</time>
      </trkpt>
      <trkpt lat="47.6697" lon="6.15592">
        <ele>260</ele>
        <time>2020-12-13T14:14:19Z</time>
      </trkpt>
      <trkpt lat="47.6697" lon="6.15585">
        <ele>260</ele>
        <time>2020-12-13T14:14:20Z</time>
      </trkpt>
      <trkpt lat="47.66969" lon="6.15571">
        <ele>260</ele>
        <time>2020-12-13T14:14:23Z</time>
      </trkpt>
      <trkpt lat="47.66969" lon="6.15563">
        <ele>260</ele>
        <time>2020-12-13T14:14:24Z</time>
      </trkpt>
      <trkpt lat="47.66968" lon="6.15544">
        <ele>260</ele>
        <time>2020-12-13T14:14:24Z</time>
      </trkpt>
      <trkpt lat="47.66967" lon="6.15535">
        <ele>260</ele>
        <time>2020-12-13T14:14:25Z</time>
      </trkpt>
      <trkpt lat="47.66966" lon="6.15525">
        <ele>260</ele>
        <time>2020-12-13T14:14:26Z</time>
      </trkpt>
      <trkpt lat="47.66966" lon="6.15512">
        <ele>259.9</ele>
        <time>2020-12-13T14:14:27Z</time>
      </trkpt>
      <trkpt lat="47.66965" lon="6.155">
        <ele>259.9</ele>
        <time>2020-12-13T14:14:28Z</time>
      </trkpt>
      <trkpt lat="47.66964" lon="6.15487">
        <ele>259.6</ele>
        <time>2020-12-13T14:14:29Z</time>
      </trkpt>
      <trkpt lat="47.66964" lon="6.15475">
        <ele>259.3</ele>
        <time>2020-12-13T14:14:30Z</time>
      </trkpt>
      <trkpt lat="47.66963" lon="6.15463">
        <ele>259.1</ele>
        <time>2020-12-13T14:14:31Z</time>
      </trkpt>
      <trkpt lat="47.66963" lon="6.15451">
        <ele>258.9</ele>
        <time>2020-12-13T14:14:32Z</time>
      </trkpt>
      <trkpt lat="47.66962" lon="6.1544">
        <ele>258.6</ele>
        <time>2020-12-13T14:14:33Z</time>
      </trkpt>
      <trkpt lat="47.66962" lon="6.15429">
        <ele>258.4</ele>
        <time>2020-12-13T14:14:34Z</time>
      </trkpt>
      <trkpt lat="47.66962" lon="6.15419">
        <ele>258.2</ele>
        <time>2020-12-13T14:14:35Z</time>
      </trkpt>
      <trkpt lat="47.66961" lon="6.15409">
        <ele>258.3</ele>
        <time>2020-12-13T14:14:36Z</time>
      </trkpt>
      <trkpt lat="47.66961" lon="6.15401">
        <ele>258.5</ele>
        <time>2020-12-13T14:14:37Z</time>
      </trkpt>
      <trkpt lat="47.6696" lon="6.15392">
        <ele>258.7</ele>
        <time>2020-12-13T14:14:38Z</time>
      </trkpt>
      <trkpt lat="47.6696" lon="6.15384">
        <ele>258.8</ele>
        <time>2020-12-13T14:14:39Z</time>
      </trkpt>
      <trkpt lat="47.6696" lon="6.15376">
        <ele>259</ele>
        <time>2020-12-13T14:14:40Z</time>
      </trkpt>
      <trkpt lat="47.66959" lon="6.15369">
        <ele>259.2</ele>
        <time>2020-12-13T14:14:41Z</time>
      </trkpt>
      <trkpt lat="47.66959" lon="6.15359">
        <ele>259.4</ele>
        <time>2020-12-13T14:14:43Z</time>
      </trkpt>
      <trkpt lat="47.66958" lon="6.15349">
        <ele>259.6</ele>
        <time>2020-12-13T14:14:45Z</time>
      </trkpt>
      <trkpt lat="47.66958" lon="6.15341">
        <ele>259.8</ele>
        <time>2020-12-13T14:14:47Z</time>
      </trkpt>
      <trkpt lat="47.66957" lon="6.15333">
        <ele>260</ele>
        <time>2020-12-13T14:14:53Z</time>
      </trkpt>
      <trkpt lat="47.66956" lon="6.15326">
        <ele>260.1</ele>
        <time>2020-12-13T14:14:55Z</time>
      </trkpt>
      <trkpt lat="47.66954" lon="6.15319">
        <ele>260.3</ele>
        <time>2020-12-13T14:14:56Z</time>
      </trkpt>
      <trkpt lat="47.66952" lon="6.15311">
        <ele>260.5</ele>
        <time>2020-12-13T14:14:58Z</time>
      </trkpt>
      <trkpt lat="47.66951" lon="6.15304">
        <ele>260.7</ele>
        <time>2020-12-13T14:15:00Z</time>
      </trkpt>
      <trkpt lat="47.66947" lon="6.15292">
        <ele>261.1</ele>
        <time>2020-12-13T14:15:01Z</time>
      </trkpt>
      <trkpt lat="47.66945" lon="6.15282">
        <ele>261.4</ele>
        <time>2020-12-13T14:15:03Z</time>
      </trkpt>
      <trkpt lat="47.66942" lon="6.15272">
        <ele>261.8</ele>
        <time>2020-12-13T14:15:05Z</time>
      </trkpt>
      <trkpt lat="47.66939" lon="6.15261">
        <ele>262.3</ele>
        <time>2020-12-13T14:15:07Z</time>
      </trkpt>
      <trkpt lat="47.66936" lon="6.15252">
        <ele>262.8</ele>
        <time>2020-12-13T14:15:09Z</time>
      </trkpt>
      <trkpt lat="47.66933" lon="6.15242">
        <ele>263.2</ele>
        <time>2020-12-13T14:15:11Z</time>
      </trkpt>
      <trkpt lat="47.6693" lon="6.15234">
        <ele>263.5</ele>
        <time>2020-12-13T14:15:13Z</time>
      </trkpt>
      <trkpt lat="47.66927" lon="6.15227">
        <ele>263.7</ele>
        <time>2020-12-13T14:15:15Z</time>
      </trkpt>
      <trkpt lat="47.66926" lon="6.15219">
        <ele>263.9</ele>
        <time>2020-12-13T14:15:18Z</time>
      </trkpt>
      <trkpt lat="47.66927" lon="6.1521">
        <ele>264</ele>
        <time>2020-12-13T14:15:19Z</time>
      </trkpt>
      <trkpt lat="47.6693" lon="6.15202">
        <ele>264</ele>
        <time>2020-12-13T14:15:21Z</time>
      </trkpt>
      <trkpt lat="47.66934" lon="6.15195">
        <ele>264</ele>
        <time>2020-12-13T14:15:23Z</time>
      </trkpt>
      <trkpt lat="47.66937" lon="6.15188">
        <ele>264.1</ele>
        <time>2020-12-13T14:15:26Z</time>
      </trkpt>
      <trkpt lat="47.66939" lon="6.15181">
        <ele>264.2</ele>
        <time>2020-12-13T14:15:27Z</time>
      </trkpt>
      <trkpt lat="47.66942" lon="6.15173">
        <ele>264.2</ele>
        <time>2020-12-13T14:15:30Z</time>
      </trkpt>
      <trkpt lat="47.66945" lon="6.15165">
        <ele>264.3</ele>
        <time>2020-12-13T14:15:32Z</time>
      </trkpt>
      <trkpt lat="47.66948" lon="6.15157">
        <ele>264.2</ele>
        <time>2020-12-13T14:15:33Z</time>
      </trkpt>
      <trkpt lat="47.66952" lon="6.15148">
        <ele>264.1</ele>
        <time>2020-12-13T14:15:36Z</time>
      </trkpt>
      <trkpt lat="47.66957" lon="6.15144">
        <ele>264</ele>
        <time>2020-12-13T14:15:38Z</time>
      </trkpt>
      <trkpt lat="47.66961" lon="6.15143">
        <ele>264</ele>
        <time>2020-12-13T14:15:40Z</time>
      </trkpt>
      <trkpt lat="47.66967" lon="6.15143">
        <ele>264</ele>
        <time>2020-12-13T14:15:43Z</time>
      </trkpt>
      <trkpt lat="47.66972" lon="6.15147">
        <ele>263.9</ele>
        <time>2020-12-13T14:15:44Z</time>
      </trkpt>
      <trkpt lat="47.66979" lon="6.15151">
        <ele>263.8</ele>
        <time>2020-12-13T14:15:48Z</time>
      </trkpt>
      <trkpt lat="47.66983" lon="6.15155">
        <ele>263.7</ele>
        <time>2020-12-13T14:15:50Z</time>
      </trkpt>
      <trkpt lat="47.66988" lon="6.15157">
        <ele>263.5</ele>
        <time>2020-12-13T14:15:52Z</time>
      </trkpt>
      <trkpt lat="47.66992" lon="6.15159">
        <ele>263.4</ele>
        <time>2020-12-13T14:15:54Z</time>
      </trkpt>
      <trkpt lat="47.67" lon="6.1516">
        <ele>263.2</ele>
        <time>2020-12-13T14:15:56Z</time>
      </trkpt>
      <trkpt lat="47.67006" lon="6.15161">
        <ele>263.1</ele>
        <time>2020-12-13T14:15:57Z</time>
      </trkpt>
      <trkpt lat="47.67011" lon="6.15162">
        <ele>262.9</ele>
        <time>2020-12-13T14:15:58Z</time>
      </trkpt>
      <trkpt lat="47.67017" lon="6.15161">
        <ele>262.8</ele>
        <time>2020-12-13T14:16:00Z</time>
      </trkpt>
      <trkpt lat="47.67026" lon="6.15159">
        <ele>262.7</ele>
        <time>2020-12-13T14:16:01Z</time>
      </trkpt>
      <trkpt lat="47.67036" lon="6.15156">
        <ele>262.6</ele>
        <time>2020-12-13T14:16:04Z</time>
      </trkpt>
      <trkpt lat="47.67041" lon="6.15155">
        <ele>262.6</ele>
        <time>2020-12-13T14:16:05Z</time>
      </trkpt>
      <trkpt lat="47.67049" lon="6.15152">
        <ele>262.6</ele>
        <time>2020-12-13T14:16:06Z</time>
      </trkpt>
      <trkpt lat="47.67053" lon="6.15151">
        <ele>262.5</ele>
        <time>2020-12-13T14:16:07Z</time>
      </trkpt>
      <trkpt lat="47.67059" lon="6.15149">
        <ele>262.5</ele>
        <time>2020-12-13T14:16:09Z</time>
      </trkpt>
      <trkpt lat="47.67067" lon="6.15146">
        <ele>262.5</ele>
        <time>2020-12-13T14:16:10Z</time>
      </trkpt>
      <trkpt lat="47.67075" lon="6.15144">
        <ele>262.5</ele>
        <time>2020-12-13T14:16:12Z</time>
      </trkpt>
      <trkpt lat="47.67081" lon="6.15141">
        <ele>262.6</ele>
        <time>2020-12-13T14:16:14Z</time>
      </trkpt>
      <trkpt lat="47.67088" lon="6.15138">
        <ele>262.6</ele>
        <time>2020-12-13T14:16:16Z</time>
      </trkpt>
      <trkpt lat="47.67094" lon="6.15136">
        <ele>262.7</ele>
        <time>2020-12-13T14:16:18Z</time>
      </trkpt>
      <trkpt lat="47.67099" lon="6.15134">
        <ele>262.8</ele>
        <time>2020-12-13T14:16:20Z</time>
      </trkpt>
      <trkpt lat="47.67104" lon="6.15132">
        <ele>262.8</ele>
        <time>2020-12-13T14:16:21Z</time>
      </trkpt>
      <trkpt lat="47.6711" lon="6.15131">
        <ele>262.8</ele>
        <time>2020-12-13T14:16:24Z</time>
      </trkpt>
      <trkpt lat="47.67118" lon="6.15128">
        <ele>262.9</ele>
        <time>2020-12-13T14:16:25Z</time>
      </trkpt>
      <trkpt lat="47.67124" lon="6.15125">
        <ele>263</ele>
        <time>2020-12-13T14:16:27Z</time>
      </trkpt>
      <trkpt lat="47.6713" lon="6.15123">
        <ele>263.1</ele>
        <time>2020-12-13T14:16:29Z</time>
      </trkpt>
      <trkpt lat="47.67136" lon="6.15121">
        <ele>263.1</ele>
        <time>2020-12-13T14:16:30Z</time>
      </trkpt>
      <trkpt lat="47.6714" lon="6.15118">
        <ele>263.2</ele>
        <time>2020-12-13T14:16:31Z</time>
      </trkpt>
      <trkpt lat="47.67144" lon="6.15116">
        <ele>263.3</ele>
        <time>2020-12-13T14:16:32Z</time>
      </trkpt>
      <trkpt lat="47.67151" lon="6.15113">
        <ele>263.4</ele>
        <time>2020-12-13T14:16:34Z</time>
      </trkpt>
      <trkpt lat="47.67159" lon="6.15108">
        <ele>263.6</ele>
        <time>2020-12-13T14:16:37Z</time>
      </trkpt>
      <trkpt lat="47.67163" lon="6.15104">
        <ele>263.8</ele>
        <time>2020-12-13T14:16:38Z</time>
      </trkpt>
      <trkpt lat="47.67167" lon="6.151">
        <ele>264</ele>
        <time>2020-12-13T14:16:39Z</time>
      </trkpt>
      <trkpt lat="47.67171" lon="6.15096">
        <ele>264.1</ele>
        <time>2020-12-13T14:16:41Z</time>
      </trkpt>
      <trkpt lat="47.67176" lon="6.15091">
        <ele>264.1</ele>
        <time>2020-12-13T14:16:43Z</time>
      </trkpt>
      <trkpt lat="47.67183" lon="6.15085">
        <ele>264.1</ele>
        <time>2020-12-13T14:16:46Z</time>
      </trkpt>
      <trkpt lat="47.67188" lon="6.1508">
        <ele>264</ele>
        <time>2020-12-13T14:16:47Z</time>
      </trkpt>
      <trkpt lat="47.67192" lon="6.15076">
        <ele>263.8</ele>
        <time>2020-12-13T14:16:48Z</time>
      </trkpt>
      <trkpt lat="47.67198" lon="6.15072">
        <ele>263.5</ele>
        <time>2020-12-13T14:16:51Z</time>
      </trkpt>
      <trkpt lat="47.67202" lon="6.15068">
        <ele>263.3</ele>
        <time>2020-12-13T14:16:51Z</time>
      </trkpt>
      <trkpt lat="47.67208" lon="6.15063">
        <ele>263</ele>
        <time>2020-12-13T14:16:54Z</time>
      </trkpt>
      <trkpt lat="47.67212" lon="6.15059">
        <ele>262.8</ele>
        <time>2020-12-13T14:16:55Z</time>
      </trkpt>
      <trkpt lat="47.67219" lon="6.15054">
        <ele>262.4</ele>
        <time>2020-12-13T14:16:56Z</time>
      </trkpt>
      <trkpt lat="47.67224" lon="6.1505">
        <ele>262.1</ele>
        <time>2020-12-13T14:16:58Z</time>
      </trkpt>
      <trkpt lat="47.67228" lon="6.15046">
        <ele>261.9</ele>
        <time>2020-12-13T14:16:59Z</time>
      </trkpt>
      <trkpt lat="47.67233" lon="6.15041">
        <ele>261.5</ele>
        <time>2020-12-13T14:17:00Z</time>
      </trkpt>
      <trkpt lat="47.6724" lon="6.15035">
        <ele>261.1</ele>
        <time>2020-12-13T14:17:01Z</time>
      </trkpt>
      <trkpt lat="47.67247" lon="6.15029">
        <ele>260.6</ele>
        <time>2020-12-13T14:17:02Z</time>
      </trkpt>
      <trkpt lat="47.67259" lon="6.15019">
        <ele>260.3</ele>
        <time>2020-12-13T14:17:04Z</time>
      </trkpt>
      <trkpt lat="47.67264" lon="6.15015">
        <ele>260.3</ele>
        <time>2020-12-13T14:17:05Z</time>
      </trkpt>
      <trkpt lat="47.67269" lon="6.15011">
        <ele>260.3</ele>
        <time>2020-12-13T14:17:06Z</time>
      </trkpt>
      <trkpt lat="47.67274" lon="6.15006">
        <ele>260.3</ele>
        <time>2020-12-13T14:17:07Z</time>
      </trkpt>
      <trkpt lat="47.67279" lon="6.15002">
        <ele>260.3</ele>
        <time>2020-12-13T14:17:08Z</time>
      </trkpt>
      <trkpt lat="47.67283" lon="6.14998">
        <ele>260.5</ele>
        <time>2020-12-13T14:17:09Z</time>
      </trkpt>
      <trkpt lat="47.67288" lon="6.14993">
        <ele>260.7</ele>
        <time>2020-12-13T14:17:10Z</time>
      </trkpt>
      <trkpt lat="47.67292" lon="6.14989">
        <ele>260.9</ele>
        <time>2020-12-13T14:17:11Z</time>
      </trkpt>
      <trkpt lat="47.67297" lon="6.14985">
        <ele>261.2</ele>
        <time>2020-12-13T14:17:12Z</time>
      </trkpt>
      <trkpt lat="47.67301" lon="6.14982">
        <ele>261.4</ele>
        <time>2020-12-13T14:17:13Z</time>
      </trkpt>
      <trkpt lat="47.67305" lon="6.14978">
        <ele>261.7</ele>
        <time>2020-12-13T14:17:14Z</time>
      </trkpt>
      <trkpt lat="47.67309" lon="6.14974">
        <ele>262</ele>
        <time>2020-12-13T14:17:15Z</time>
      </trkpt>
      <trkpt lat="47.67317" lon="6.14968">
        <ele>262.6</ele>
        <time>2020-12-13T14:17:17Z</time>
      </trkpt>
      <trkpt lat="47.67324" lon="6.14965">
        <ele>263.1</ele>
        <time>2020-12-13T14:17:19Z</time>
      </trkpt>
      <trkpt lat="47.67331" lon="6.14968">
        <ele>263.2</ele>
        <time>2020-12-13T14:17:21Z</time>
      </trkpt>
      <trkpt lat="47.67336" lon="6.14976">
        <ele>262.6</ele>
        <time>2020-12-13T14:17:23Z</time>
      </trkpt>
      <trkpt lat="47.67339" lon="6.14986">
        <ele>261.7</ele>
        <time>2020-12-13T14:17:25Z</time>
      </trkpt>
      <trkpt lat="47.67339" lon="6.14995">
        <ele>261.1</ele>
        <time>2020-12-13T14:17:28Z</time>
      </trkpt>
      <trkpt lat="47.67333" lon="6.15002">
        <ele>260.9</ele>
        <time>2020-12-13T14:17:28Z</time>
      </trkpt>
      <trkpt lat="47.67338" lon="6.15005">
        <ele>260.6</ele>
        <time>2020-12-13T14:17:29Z</time>
      </trkpt>
      <trkpt lat="47.67344" lon="6.15012">
        <ele>260.1</ele>
        <time>2020-12-13T14:17:31Z</time>
      </trkpt>
      <trkpt lat="47.6735" lon="6.15018">
        <ele>259.7</ele>
        <time>2020-12-13T14:17:32Z</time>
      </trkpt>
      <trkpt lat="47.67353" lon="6.15022">
        <ele>259.3</ele>
        <time>2020-12-13T14:17:34Z</time>
      </trkpt>
      <trkpt lat="47.67357" lon="6.15034">
        <ele>258.7</ele>
        <time>2020-12-13T14:17:36Z</time>
      </trkpt>
      <trkpt lat="47.67358" lon="6.15042">
        <ele>258.3</ele>
        <time>2020-12-13T14:17:38Z</time>
      </trkpt>
      <trkpt lat="47.67359" lon="6.15053">
        <ele>257.9</ele>
        <time>2020-12-13T14:17:41Z</time>
      </trkpt>
      <trkpt lat="47.67361" lon="6.15064">
        <ele>257.3</ele>
        <time>2020-12-13T14:17:43Z</time>
      </trkpt>
      <trkpt lat="47.67364" lon="6.1507">
        <ele>256.9</ele>
        <time>2020-12-13T14:17:45Z</time>
      </trkpt>
      <trkpt lat="47.67367" lon="6.15076">
        <ele>256.4</ele>
        <time>2020-12-13T14:17:48Z</time>
      </trkpt>
      <trkpt lat="47.6737" lon="6.15083">
        <ele>255.9</ele>
        <time>2020-12-13T14:17:51Z</time>
      </trkpt>
      <trkpt lat="47.67374" lon="6.15089">
        <ele>255.3</ele>
        <time>2020-12-13T14:17:53Z</time>
      </trkpt>
      <trkpt lat="47.67379" lon="6.15094">
        <ele>254.7</ele>
        <time>2020-12-13T14:17:55Z</time>
      </trkpt>
      <trkpt lat="47.67385" lon="6.15095">
        <ele>254.2</ele>
        <time>2020-12-13T14:17:57Z</time>
      </trkpt>
      <trkpt lat="47.6739" lon="6.151">
        <ele>253.6</ele>
        <time>2020-12-13T14:17:59Z</time>
      </trkpt>
      <trkpt lat="47.67392" lon="6.15106">
        <ele>253.2</ele>
        <time>2020-12-13T14:18:00Z</time>
      </trkpt>
      <trkpt lat="47.67394" lon="6.15117">
        <ele>252.8</ele>
        <time>2020-12-13T14:18:02Z</time>
      </trkpt>
      <trkpt lat="47.67391" lon="6.15128">
        <ele>252.6</ele>
        <time>2020-12-13T14:18:03Z</time>
      </trkpt>
      <trkpt lat="47.67388" lon="6.15134">
        <ele>252.6</ele>
        <time>2020-12-13T14:18:05Z</time>
      </trkpt>
      <trkpt lat="47.67387" lon="6.1514">
        <ele>252.4</ele>
        <time>2020-12-13T14:18:06Z</time>
      </trkpt>
      <trkpt lat="47.67388" lon="6.15148">
        <ele>252.1</ele>
        <time>2020-12-13T14:18:08Z</time>
      </trkpt>
      <trkpt lat="47.67392" lon="6.15155">
        <ele>251.6</ele>
        <time>2020-12-13T14:18:10Z</time>
      </trkpt>
      <trkpt lat="47.67395" lon="6.15162">
        <ele>251.2</ele>
        <time>2020-12-13T14:18:11Z</time>
      </trkpt>
      <trkpt lat="47.67398" lon="6.15171">
        <ele>250.7</ele>
        <time>2020-12-13T14:18:14Z</time>
      </trkpt>
      <trkpt lat="47.67402" lon="6.15182">
        <ele>250.1</ele>
        <time>2020-12-13T14:18:16Z</time>
      </trkpt>
      <trkpt lat="47.67405" lon="6.15192">
        <ele>249.6</ele>
        <time>2020-12-13T14:18:19Z</time>
      </trkpt>
      <trkpt lat="47.67408" lon="6.15197">
        <ele>249.3</ele>
        <time>2020-12-13T14:18:21Z</time>
      </trkpt>
      <trkpt lat="47.67415" lon="6.15197">
        <ele>249</ele>
        <time>2020-12-13T14:18:24Z</time>
      </trkpt>
      <trkpt lat="47.6742" lon="6.15193">
        <ele>249</ele>
        <time>2020-12-13T14:18:26Z</time>
      </trkpt>
      <trkpt lat="47.67424" lon="6.1519">
        <ele>249.1</ele>
        <time>2020-12-13T14:18:27Z</time>
      </trkpt>
      <trkpt lat="47.6743" lon="6.15184">
        <ele>249.3</ele>
        <time>2020-12-13T14:18:30Z</time>
      </trkpt>
      <trkpt lat="47.67435" lon="6.15179">
        <ele>249.4</ele>
        <time>2020-12-13T14:18:31Z</time>
      </trkpt>
      <trkpt lat="47.6744" lon="6.15173">
        <ele>249.5</ele>
        <time>2020-12-13T14:18:33Z</time>
      </trkpt>
      <trkpt lat="47.67444" lon="6.15168">
        <ele>249.6</ele>
        <time>2020-12-13T14:18:35Z</time>
      </trkpt>
      <trkpt lat="47.67449" lon="6.15162">
        <ele>249.7</ele>
        <time>2020-12-13T14:18:38Z</time>
      </trkpt>
      <trkpt lat="47.67455" lon="6.15155">
        <ele>249.8</ele>
        <time>2020-12-13T14:18:40Z</time>
      </trkpt>
      <trkpt lat="47.67459" lon="6.1515">
        <ele>249.8</ele>
        <time>2020-12-13T14:18:41Z</time>
      </trkpt>
      <trkpt lat="47.67465" lon="6.15144">
        <ele>249.8</ele>
        <time>2020-12-13T14:18:43Z</time>
      </trkpt>
      <trkpt lat="47.67472" lon="6.15137">
        <ele>249.8</ele>
        <time>2020-12-13T14:18:45Z</time>
      </trkpt>
      <trkpt lat="47.67477" lon="6.15132">
        <ele>249.8</ele>
        <time>2020-12-13T14:18:47Z</time>
      </trkpt>
      <trkpt lat="47.67481" lon="6.15126">
        <ele>249.8</ele>
        <time>2020-12-13T14:18:49Z</time>
      </trkpt>
      <trkpt lat="47.67485" lon="6.15121">
        <ele>249.8</ele>
        <time>2020-12-13T14:18:50Z</time>
      </trkpt>
      <trkpt lat="47.67486" lon="6.15111">
        <ele>250</ele>
        <time>2020-12-13T14:18:52Z</time>
      </trkpt>
      <trkpt lat="47.67483" lon="6.15105">
        <ele>250.1</ele>
        <time>2020-12-13T14:18:54Z</time>
      </trkpt>
      <trkpt lat="47.67479" lon="6.15099">
        <ele>250.3</ele>
        <time>2020-12-13T14:18:55Z</time>
      </trkpt>
      <trkpt lat="47.67474" lon="6.15091">
        <ele>250.5</ele>
        <time>2020-12-13T14:18:58Z</time>
      </trkpt>
      <trkpt lat="47.67471" lon="6.15086">
        <ele>250.6</ele>
        <time>2020-12-13T14:18:59Z</time>
      </trkpt>
      <trkpt lat="47.67468" lon="6.15081">
        <ele>250.9</ele>
        <time>2020-12-13T14:19:00Z</time>
      </trkpt>
      <trkpt lat="47.67464" lon="6.15075">
        <ele>251.2</ele>
        <time>2020-12-13T14:19:01Z</time>
      </trkpt>
      <trkpt lat="47.67461" lon="6.1507">
        <ele>251.5</ele>
        <time>2020-12-13T14:19:03Z</time>
      </trkpt>
      <trkpt lat="47.67456" lon="6.15063">
        <ele>252.1</ele>
        <time>2020-12-13T14:19:06Z</time>
      </trkpt>
      <trkpt lat="47.67453" lon="6.15058">
        <ele>252.4</ele>
        <time>2020-12-13T14:19:07Z</time>
      </trkpt>
      <trkpt lat="47.67449" lon="6.15053">
        <ele>252.8</ele>
        <time>2020-12-13T14:19:09Z</time>
      </trkpt>
      <trkpt lat="47.67444" lon="6.15051">
        <ele>253</ele>
        <time>2020-12-13T14:19:11Z</time>
      </trkpt>
      <trkpt lat="47.6744" lon="6.15052">
        <ele>253.1</ele>
        <time>2020-12-13T14:19:13Z</time>
      </trkpt>
      <trkpt lat="47.67436" lon="6.15058">
        <ele>252.9</ele>
        <time>2020-12-13T14:19:16Z</time>
      </trkpt>
      <trkpt lat="47.67433" lon="6.15063">
        <ele>252.7</ele>
        <time>2020-12-13T14:19:17Z</time>
      </trkpt>
      <trkpt lat="47.67429" lon="6.15069">
        <ele>252.5</ele>
        <time>2020-12-13T14:19:20Z</time>
      </trkpt>
      <trkpt lat="47.67426" lon="6.15074">
        <ele>252.3</ele>
        <time>2020-12-13T14:19:21Z</time>
      </trkpt>
      <trkpt lat="47.67423" lon="6.15081">
        <ele>252</ele>
        <time>2020-12-13T14:19:24Z</time>
      </trkpt>
      <trkpt lat="47.67422" lon="6.15089">
        <ele>251.7</ele>
        <time>2020-12-13T14:19:26Z</time>
      </trkpt>
      <trkpt lat="47.67419" lon="6.15096">
        <ele>251.6</ele>
        <time>2020-12-13T14:19:28Z</time>
      </trkpt>
      <trkpt lat="47.67413" lon="6.15101">
        <ele>251.8</ele>
        <time>2020-12-13T14:19:31Z</time>
      </trkpt>
      <trkpt lat="47.67409" lon="6.15099">
        <ele>252.3</ele>
        <time>2020-12-13T14:19:34Z</time>
      </trkpt>
      <trkpt lat="47.67407" lon="6.15092">
        <ele>252.6</ele>
        <time>2020-12-13T14:19:36Z</time>
      </trkpt>
      <trkpt lat="47.67407" lon="6.15084">
        <ele>252.8</ele>
        <time>2020-12-13T14:19:39Z</time>
      </trkpt>
      <trkpt lat="47.67407" lon="6.15075">
        <ele>253.3</ele>
        <time>2020-12-13T14:19:41Z</time>
      </trkpt>
      <trkpt lat="47.67407" lon="6.15068">
        <ele>253.6</ele>
        <time>2020-12-13T14:19:44Z</time>
      </trkpt>
      <trkpt lat="47.67411" lon="6.15063">
        <ele>253.7</ele>
        <time>2020-12-13T14:19:48Z</time>
      </trkpt>
      <trkpt lat="47.67414" lon="6.15056">
        <ele>253.9</ele>
        <time>2020-12-13T14:19:50Z</time>
      </trkpt>
      <trkpt lat="47.67415" lon="6.15048">
        <ele>254.2</ele>
        <time>2020-12-13T14:19:52Z</time>
      </trkpt>
      <trkpt lat="47.67417" lon="6.1504">
        <ele>254.6</ele>
        <time>2020-12-13T14:19:55Z</time>
      </trkpt>
      <trkpt lat="47.67416" lon="6.15032">
        <ele>255.1</ele>
        <time>2020-12-13T14:20:00Z</time>
      </trkpt>
      <trkpt lat="47.67412" lon="6.15028">
        <ele>255.6</ele>
        <time>2020-12-13T14:20:03Z</time>
      </trkpt>
      <trkpt lat="47.67407" lon="6.15029">
        <ele>255.9</ele>
        <time>2020-12-13T14:20:08Z</time>
      </trkpt>
      <trkpt lat="47.67401" lon="6.15031">
        <ele>256.1</ele>
        <time>2020-12-13T14:20:11Z</time>
      </trkpt>
      <trkpt lat="47.67395" lon="6.15033">
        <ele>256.4</ele>
        <time>2020-12-13T14:20:16Z</time>
      </trkpt>
      <trkpt lat="47.6739" lon="6.15032">
        <ele>256.7</ele>
        <time>2020-12-13T14:20:18Z</time>
      </trkpt>
      <trkpt lat="47.67387" lon="6.15026">
        <ele>257.2</ele>
        <time>2020-12-13T14:20:22Z</time>
      </trkpt>
      <trkpt lat="47.67388" lon="6.15017">
        <ele>257.5</ele>
        <time>2020-12-13T14:20:26Z</time>
      </trkpt>
      <trkpt lat="47.67387" lon="6.15009">
        <ele>258</ele>
        <time>2020-12-13T14:20:32Z</time>
      </trkpt>
      <trkpt lat="47.67386" lon="6.15002">
        <ele>258.4</ele>
        <time>2020-12-13T14:20:35Z</time>
      </trkpt>
      <trkpt lat="47.67385" lon="6.14995">
        <ele>258.9</ele>
        <time>2020-12-13T14:20:37Z</time>
      </trkpt>
      <trkpt lat="47.67383" lon="6.14989">
        <ele>259.4</ele>
        <time>2020-12-13T14:20:40Z</time>
      </trkpt>
      <trkpt lat="47.67379" lon="6.14983">
        <ele>260</ele>
        <time>2020-12-13T14:20:45Z</time>
      </trkpt>
      <trkpt lat="47.67374" lon="6.14981">
        <ele>260.4</ele>
        <time>2020-12-13T14:20:49Z</time>
      </trkpt>
      <trkpt lat="47.67369" lon="6.14979">
        <ele>260.8</ele>
        <time>2020-12-13T14:20:53Z</time>
      </trkpt>
      <trkpt lat="47.67363" lon="6.14976">
        <ele>261.3</ele>
        <time>2020-12-13T14:20:56Z</time>
      </trkpt>
      <trkpt lat="47.67363" lon="6.14969">
        <ele>261.8</ele>
        <time>2020-12-13T14:21:01Z</time>
      </trkpt>
      <trkpt lat="47.6736" lon="6.14963">
        <ele>262.4</ele>
        <time>2020-12-13T14:21:05Z</time>
      </trkpt>
      <trkpt lat="47.67354" lon="6.14961">
        <ele>262.8</ele>
        <time>2020-12-13T14:21:10Z</time>
      </trkpt>
      <trkpt lat="47.67349" lon="6.14962">
        <ele>263</ele>
        <time>2020-12-13T14:21:14Z</time>
      </trkpt>
      <trkpt lat="47.67345" lon="6.14966">
        <ele>262.9</ele>
        <time>2020-12-13T14:21:16Z</time>
      </trkpt>
      <trkpt lat="47.67341" lon="6.14969">
        <ele>262.9</ele>
        <time>2020-12-13T14:21:19Z</time>
      </trkpt>
      <trkpt lat="47.67335" lon="6.14973">
        <ele>262.9</ele>
        <time>2020-12-13T14:21:23Z</time>
      </trkpt>
      <trkpt lat="47.67339" lon="6.14979">
        <ele>262.3</ele>
        <time>2020-12-13T14:21:27Z</time>
      </trkpt>
      <trkpt lat="47.67343" lon="6.14972">
        <ele>262.6</ele>
        <time>2020-12-13T14:21:31Z</time>
      </trkpt>
      <trkpt lat="47.67338" lon="6.14972">
        <ele>262.8</ele>
        <time>2020-12-13T14:21:35Z</time>
      </trkpt>
      <trkpt lat="47.67334" lon="6.14966">
        <ele>263.4</ele>
        <time>2020-12-13T14:21:38Z</time>
      </trkpt>
      <trkpt lat="47.67339" lon="6.14959">
        <ele>263.7</ele>
        <time>2020-12-13T14:21:42Z</time>
      </trkpt>
      <trkpt lat="47.67343" lon="6.14953">
        <ele>263.9</ele>
        <time>2020-12-13T14:21:44Z</time>
      </trkpt>
      <trkpt lat="47.67348" lon="6.14949">
        <ele>264</ele>
        <time>2020-12-13T14:21:46Z</time>
      </trkpt>
      <trkpt lat="47.67352" lon="6.14946">
        <ele>264</ele>
        <time>2020-12-13T14:21:49Z</time>
      </trkpt>
      <trkpt lat="47.67357" lon="6.14942">
        <ele>264.1</ele>
        <time>2020-12-13T14:21:51Z</time>
      </trkpt>
      <trkpt lat="47.67362" lon="6.14937">
        <ele>264.2</ele>
        <time>2020-12-13T14:21:53Z</time>
      </trkpt>
      <trkpt lat="47.67368" lon="6.1493">
        <ele>264.4</ele>
        <time>2020-12-13T14:21:56Z</time>
      </trkpt>
      <trkpt lat="47.67372" lon="6.14926">
        <ele>264.5</ele>
        <time>2020-12-13T14:21:58Z</time>
      </trkpt>
      <trkpt lat="47.67376" lon="6.14922">
        <ele>264.6</ele>
        <time>2020-12-13T14:22:00Z</time>
      </trkpt>
      <trkpt lat="47.67382" lon="6.14916">
        <ele>264.7</ele>
        <time>2020-12-13T14:22:03Z</time>
      </trkpt>
      <trkpt lat="47.67386" lon="6.14912">
        <ele>265.1</ele>
        <time>2020-12-13T14:22:04Z</time>
      </trkpt>
      <trkpt lat="47.6739" lon="6.14908">
        <ele>265.5</ele>
        <time>2020-12-13T14:22:06Z</time>
      </trkpt>
      <trkpt lat="47.67394" lon="6.14903">
        <ele>266.1</ele>
        <time>2020-12-13T14:22:09Z</time>
      </trkpt>
      <trkpt lat="47.67398" lon="6.149">
        <ele>266.4</ele>
        <time>2020-12-13T14:22:10Z</time>
      </trkpt>
      <trkpt lat="47.67404" lon="6.14894">
        <ele>267</ele>
        <time>2020-12-13T14:22:12Z</time>
      </trkpt>
      <trkpt lat="47.67409" lon="6.14889">
        <ele>267.4</ele>
        <time>2020-12-13T14:22:14Z</time>
      </trkpt>
      <trkpt lat="47.67414" lon="6.14884">
        <ele>267.8</ele>
        <time>2020-12-13T14:22:17Z</time>
      </trkpt>
      <trkpt lat="47.67418" lon="6.1488">
        <ele>268.2</ele>
        <time>2020-12-13T14:22:18Z</time>
      </trkpt>
      <trkpt lat="47.67422" lon="6.14875">
        <ele>268.4</ele>
        <time>2020-12-13T14:22:20Z</time>
      </trkpt>
      <trkpt lat="47.67427" lon="6.1487">
        <ele>268.5</ele>
        <time>2020-12-13T14:22:23Z</time>
      </trkpt>
      <trkpt lat="47.67432" lon="6.14865">
        <ele>268.6</ele>
        <time>2020-12-13T14:22:26Z</time>
      </trkpt>
      <trkpt lat="47.67437" lon="6.14861">
        <ele>268.6</ele>
        <time>2020-12-13T14:22:27Z</time>
      </trkpt>
      <trkpt lat="47.67441" lon="6.14857">
        <ele>268.5</ele>
        <time>2020-12-13T14:22:29Z</time>
      </trkpt>
      <trkpt lat="47.67446" lon="6.14852">
        <ele>268.6</ele>
        <time>2020-12-13T14:22:32Z</time>
      </trkpt>
      <trkpt lat="47.67449" lon="6.14848">
        <ele>268.5</ele>
        <time>2020-12-13T14:22:33Z</time>
      </trkpt>
      <trkpt lat="47.67453" lon="6.14844">
        <ele>268.5</ele>
        <time>2020-12-13T14:22:35Z</time>
      </trkpt>
      <trkpt lat="47.67457" lon="6.1484">
        <ele>268.4</ele>
        <time>2020-12-13T14:22:37Z</time>
      </trkpt>
      <trkpt lat="47.67462" lon="6.14834">
        <ele>268.3</ele>
        <time>2020-12-13T14:22:39Z</time>
      </trkpt>
      <trkpt lat="47.67467" lon="6.1483">
        <ele>268.2</ele>
        <time>2020-12-13T14:22:41Z</time>
      </trkpt>
      <trkpt lat="47.67472" lon="6.14826">
        <ele>268</ele>
        <time>2020-12-13T14:22:43Z</time>
      </trkpt>
      <trkpt lat="47.67477" lon="6.14821">
        <ele>267.9</ele>
        <time>2020-12-13T14:22:46Z</time>
      </trkpt>
      <trkpt lat="47.67483" lon="6.14816">
        <ele>267.7</ele>
        <time>2020-12-13T14:22:48Z</time>
      </trkpt>
      <trkpt lat="47.67489" lon="6.14811">
        <ele>267.7</ele>
        <time>2020-12-13T14:22:50Z</time>
      </trkpt>
      <trkpt lat="47.67494" lon="6.14806">
        <ele>267.6</ele>
        <time>2020-12-13T14:22:51Z</time>
      </trkpt>
      <trkpt lat="47.67499" lon="6.14801">
        <ele>267.7</ele>
        <time>2020-12-13T14:22:52Z</time>
      </trkpt>
      <trkpt lat="47.67505" lon="6.14795">
        <ele>268</ele>
        <time>2020-12-13T14:22:55Z</time>
      </trkpt>
      <trkpt lat="47.67511" lon="6.1479">
        <ele>268.2</ele>
        <time>2020-12-13T14:22:56Z</time>
      </trkpt>
      <trkpt lat="47.67515" lon="6.14786">
        <ele>268.4</ele>
        <time>2020-12-13T14:22:57Z</time>
      </trkpt>
      <trkpt lat="47.6752" lon="6.14782">
        <ele>268.5</ele>
        <time>2020-12-13T14:22:59Z</time>
      </trkpt>
      <trkpt lat="47.67525" lon="6.14777">
        <ele>268.5</ele>
        <time>2020-12-13T14:22:59Z</time>
      </trkpt>
      <trkpt lat="47.67532" lon="6.14771">
        <ele>268.6</ele>
        <time>2020-12-13T14:23:02Z</time>
      </trkpt>
      <trkpt lat="47.67538" lon="6.14766">
        <ele>268.6</ele>
        <time>2020-12-13T14:23:02Z</time>
      </trkpt>
      <trkpt lat="47.67542" lon="6.14762">
        <ele>268.6</ele>
        <time>2020-12-13T14:23:03Z</time>
      </trkpt>
      <trkpt lat="47.67547" lon="6.14758">
        <ele>268.5</ele>
        <time>2020-12-13T14:23:05Z</time>
      </trkpt>
      <trkpt lat="47.67556" lon="6.14751">
        <ele>268.3</ele>
        <time>2020-12-13T14:23:06Z</time>
      </trkpt>
      <trkpt lat="47.67561" lon="6.14746">
        <ele>268</ele>
        <time>2020-12-13T14:23:07Z</time>
      </trkpt>
      <trkpt lat="47.6757" lon="6.14738">
        <ele>267.7</ele>
        <time>2020-12-13T14:23:08Z</time>
      </trkpt>
      <trkpt lat="47.67575" lon="6.14733">
        <ele>267.7</ele>
        <time>2020-12-13T14:23:09Z</time>
      </trkpt>
      <trkpt lat="47.6758" lon="6.14729">
        <ele>267.6</ele>
        <time>2020-12-13T14:23:10Z</time>
      </trkpt>
      <trkpt lat="47.67586" lon="6.14724">
        <ele>267.5</ele>
        <time>2020-12-13T14:23:11Z</time>
      </trkpt>
      <trkpt lat="47.67591" lon="6.1472">
        <ele>267.3</ele>
        <time>2020-12-13T14:23:12Z</time>
      </trkpt>
      <trkpt lat="47.67596" lon="6.14716">
        <ele>267</ele>
        <time>2020-12-13T14:23:13Z</time>
      </trkpt>
      <trkpt lat="47.67601" lon="6.14711">
        <ele>266.7</ele>
        <time>2020-12-13T14:23:14Z</time>
      </trkpt>
      <trkpt lat="47.67607" lon="6.14707">
        <ele>266.3</ele>
        <time>2020-12-13T14:23:15Z</time>
      </trkpt>
      <trkpt lat="47.67612" lon="6.14702">
        <ele>265.9</ele>
        <time>2020-12-13T14:23:16Z</time>
      </trkpt>
      <trkpt lat="47.67617" lon="6.14698">
        <ele>265.4</ele>
        <time>2020-12-13T14:23:17Z</time>
      </trkpt>
      <trkpt lat="47.67622" lon="6.14694">
        <ele>264.8</ele>
        <time>2020-12-13T14:23:18Z</time>
      </trkpt>
      <trkpt lat="47.67627" lon="6.14691">
        <ele>264.2</ele>
        <time>2020-12-13T14:23:19Z</time>
      </trkpt>
      <trkpt lat="47.67632" lon="6.14687">
        <ele>263.5</ele>
        <time>2020-12-13T14:23:20Z</time>
      </trkpt>
      <trkpt lat="47.67637" lon="6.14684">
        <ele>262.8</ele>
        <time>2020-12-13T14:23:21Z</time>
      </trkpt>
      <trkpt lat="47.67642" lon="6.14681">
        <ele>262.1</ele>
        <time>2020-12-13T14:23:22Z</time>
      </trkpt>
      <trkpt lat="47.67647" lon="6.14678">
        <ele>261.4</ele>
        <time>2020-12-13T14:23:23Z</time>
      </trkpt>
      <trkpt lat="47.67652" lon="6.14675">
        <ele>260.7</ele>
        <time>2020-12-13T14:23:24Z</time>
      </trkpt>
      <trkpt lat="47.67656" lon="6.14672">
        <ele>259.9</ele>
        <time>2020-12-13T14:23:25Z</time>
      </trkpt>
      <trkpt lat="47.67661" lon="6.14669">
        <ele>259.1</ele>
        <time>2020-12-13T14:23:26Z</time>
      </trkpt>
      <trkpt lat="47.67665" lon="6.14667">
        <ele>258.3</ele>
        <time>2020-12-13T14:23:27Z</time>
      </trkpt>
      <trkpt lat="47.6767" lon="6.14664">
        <ele>258.1</ele>
        <time>2020-12-13T14:23:28Z</time>
      </trkpt>
      <trkpt lat="47.67674" lon="6.14662">
        <ele>258.2</ele>
        <time>2020-12-13T14:23:29Z</time>
      </trkpt>
      <trkpt lat="47.67683" lon="6.14657">
        <ele>258.4</ele>
        <time>2020-12-13T14:23:31Z</time>
      </trkpt>
      <trkpt lat="47.67687" lon="6.14654">
        <ele>258.5</ele>
        <time>2020-12-13T14:23:32Z</time>
      </trkpt>
      <trkpt lat="47.67695" lon="6.14649">
        <ele>258.7</ele>
        <time>2020-12-13T14:23:34Z</time>
      </trkpt>
      <trkpt lat="47.67703" lon="6.14645">
        <ele>258.8</ele>
        <time>2020-12-13T14:23:36Z</time>
      </trkpt>
      <trkpt lat="47.6771" lon="6.1464">
        <ele>259</ele>
        <time>2020-12-13T14:23:38Z</time>
      </trkpt>
      <trkpt lat="47.67718" lon="6.14636">
        <ele>259.1</ele>
        <time>2020-12-13T14:23:40Z</time>
      </trkpt>
      <trkpt lat="47.67725" lon="6.14632">
        <ele>259.2</ele>
        <time>2020-12-13T14:23:42Z</time>
      </trkpt>
      <trkpt lat="47.67732" lon="6.14628">
        <ele>259.3</ele>
        <time>2020-12-13T14:23:44Z</time>
      </trkpt>
      <trkpt lat="47.67737" lon="6.14626">
        <ele>259.4</ele>
        <time>2020-12-13T14:23:48Z</time>
      </trkpt>
      <trkpt lat="47.67744" lon="6.14622">
        <ele>259.5</ele>
        <time>2020-12-13T14:23:49Z</time>
      </trkpt>
      <trkpt lat="47.67748" lon="6.14619">
        <ele>259.6</ele>
        <time>2020-12-13T14:23:50Z</time>
      </trkpt>
      <trkpt lat="47.67754" lon="6.14616">
        <ele>259.6</ele>
        <time>2020-12-13T14:23:52Z</time>
      </trkpt>
      <trkpt lat="47.67761" lon="6.14612">
        <ele>259.7</ele>
        <time>2020-12-13T14:23:53Z</time>
      </trkpt>
      <trkpt lat="47.67766" lon="6.14609">
        <ele>259.8</ele>
        <time>2020-12-13T14:23:54Z</time>
      </trkpt>
      <trkpt lat="47.67772" lon="6.14606">
        <ele>259.9</ele>
        <time>2020-12-13T14:23:55Z</time>
      </trkpt>
      <trkpt lat="47.67778" lon="6.14602">
        <ele>260</ele>
        <time>2020-12-13T14:23:57Z</time>
      </trkpt>
      <trkpt lat="47.67784" lon="6.14598">
        <ele>260.2</ele>
        <time>2020-12-13T14:23:59Z</time>
      </trkpt>
      <trkpt lat="47.6779" lon="6.14595">
        <ele>260.3</ele>
        <time>2020-12-13T14:24:00Z</time>
      </trkpt>
      <trkpt lat="47.67797" lon="6.14591">
        <ele>260.4</ele>
        <time>2020-12-13T14:24:03Z</time>
      </trkpt>
      <trkpt lat="47.67803" lon="6.14588">
        <ele>260.6</ele>
        <time>2020-12-13T14:24:04Z</time>
      </trkpt>
      <trkpt lat="47.67807" lon="6.14584">
        <ele>260.7</ele>
        <time>2020-12-13T14:24:05Z</time>
      </trkpt>
      <trkpt lat="47.67814" lon="6.14581">
        <ele>260.8</ele>
        <time>2020-12-13T14:24:08Z</time>
      </trkpt>
      <trkpt lat="47.67822" lon="6.14576">
        <ele>261</ele>
        <time>2020-12-13T14:24:09Z</time>
      </trkpt>
      <trkpt lat="47.67828" lon="6.14572">
        <ele>261.1</ele>
        <time>2020-12-13T14:24:12Z</time>
      </trkpt>
      <trkpt lat="47.67835" lon="6.14568">
        <ele>261.2</ele>
        <time>2020-12-13T14:24:14Z</time>
      </trkpt>
      <trkpt lat="47.67839" lon="6.14564">
        <ele>261.3</ele>
        <time>2020-12-13T14:24:14Z</time>
      </trkpt>
      <trkpt lat="47.67846" lon="6.14559">
        <ele>261.4</ele>
        <time>2020-12-13T14:24:16Z</time>
      </trkpt>
      <trkpt lat="47.67852" lon="6.14555">
        <ele>261.5</ele>
        <time>2020-12-13T14:24:19Z</time>
      </trkpt>
      <trkpt lat="47.67859" lon="6.14551">
        <ele>261.6</ele>
        <time>2020-12-13T14:24:21Z</time>
      </trkpt>
      <trkpt lat="47.67866" lon="6.14548">
        <ele>261.8</ele>
        <time>2020-12-13T14:24:23Z</time>
      </trkpt>
      <trkpt lat="47.67871" lon="6.14546">
        <ele>261.9</ele>
        <time>2020-12-13T14:24:24Z</time>
      </trkpt>
      <trkpt lat="47.67875" lon="6.14543">
        <ele>262</ele>
        <time>2020-12-13T14:24:25Z</time>
      </trkpt>
      <trkpt lat="47.67882" lon="6.14537">
        <ele>262.2</ele>
        <time>2020-12-13T14:24:28Z</time>
      </trkpt>
      <trkpt lat="47.67888" lon="6.14531">
        <ele>262.4</ele>
        <time>2020-12-13T14:24:29Z</time>
      </trkpt>
      <trkpt lat="47.67893" lon="6.14526">
        <ele>262.7</ele>
        <time>2020-12-13T14:24:31Z</time>
      </trkpt>
      <trkpt lat="47.67898" lon="6.14521">
        <ele>262.9</ele>
        <time>2020-12-13T14:24:33Z</time>
      </trkpt>
      <trkpt lat="47.67902" lon="6.14517">
        <ele>263.1</ele>
        <time>2020-12-13T14:24:34Z</time>
      </trkpt>
      <trkpt lat="47.67907" lon="6.14512">
        <ele>263.4</ele>
        <time>2020-12-13T14:24:36Z</time>
      </trkpt>
      <trkpt lat="47.67913" lon="6.14506">
        <ele>263.7</ele>
        <time>2020-12-13T14:24:38Z</time>
      </trkpt>
      <trkpt lat="47.67917" lon="6.145">
        <ele>264</ele>
        <time>2020-12-13T14:24:40Z</time>
      </trkpt>
      <trkpt lat="47.67921" lon="6.14496">
        <ele>264.1</ele>
        <time>2020-12-13T14:24:41Z</time>
      </trkpt>
      <trkpt lat="47.67927" lon="6.1449">
        <ele>264.2</ele>
        <time>2020-12-13T14:24:43Z</time>
      </trkpt>
      <trkpt lat="47.67931" lon="6.14485">
        <ele>264.3</ele>
        <time>2020-12-13T14:24:45Z</time>
      </trkpt>
      <trkpt lat="47.67935" lon="6.1448">
        <ele>264.4</ele>
        <time>2020-12-13T14:24:46Z</time>
      </trkpt>
      <trkpt lat="47.67938" lon="6.14475">
        <ele>264.5</ele>
        <time>2020-12-13T14:24:48Z</time>
      </trkpt>
      <trkpt lat="47.67942" lon="6.1447">
        <ele>264.5</ele>
        <time>2020-12-13T14:24:50Z</time>
      </trkpt>
      <trkpt lat="47.67945" lon="6.14466">
        <ele>264.6</ele>
        <time>2020-12-13T14:24:51Z</time>
      </trkpt>
      <trkpt lat="47.67949" lon="6.14461">
        <ele>264.7</ele>
        <time>2020-12-13T14:24:52Z</time>
      </trkpt>
      <trkpt lat="47.67953" lon="6.14456">
        <ele>264.7</ele>
        <time>2020-12-13T14:24:54Z</time>
      </trkpt>
      <trkpt lat="47.67957" lon="6.14451">
        <ele>264.8</ele>
        <time>2020-12-13T14:24:55Z</time>
      </trkpt>
      <trkpt lat="47.6796" lon="6.14446">
        <ele>264.8</ele>
        <time>2020-12-13T14:24:57Z</time>
      </trkpt>
      <trkpt lat="47.67965" lon="6.1444">
        <ele>264.9</ele>
        <time>2020-12-13T14:24:59Z</time>
      </trkpt>
      <trkpt lat="47.67969" lon="6.14434">
        <ele>264.9</ele>
        <time>2020-12-13T14:25:01Z</time>
      </trkpt>
      <trkpt lat="47.67973" lon="6.14428">
        <ele>265</ele>
        <time>2020-12-13T14:25:03Z</time>
      </trkpt>
      <trkpt lat="47.67978" lon="6.1442">
        <ele>265</ele>
        <time>2020-12-13T14:25:05Z</time>
      </trkpt>
      <trkpt lat="47.67982" lon="6.14414">
        <ele>265</ele>
        <time>2020-12-13T14:25:07Z</time>
      </trkpt>
      <trkpt lat="47.67987" lon="6.14407">
        <ele>265.2</ele>
        <time>2020-12-13T14:25:09Z</time>
      </trkpt>
      <trkpt lat="47.67991" lon="6.14401">
        <ele>265.3</ele>
        <time>2020-12-13T14:25:12Z</time>
      </trkpt>
      <trkpt lat="47.67996" lon="6.14394">
        <ele>265.5</ele>
        <time>2020-12-13T14:25:15Z</time>
      </trkpt>
      <trkpt lat="47.68001" lon="6.14386">
        <ele>265.8</ele>
        <time>2020-12-13T14:25:17Z</time>
      </trkpt>
      <trkpt lat="47.68006" lon="6.1438">
        <ele>266</ele>
        <time>2020-12-13T14:25:20Z</time>
      </trkpt>
      <trkpt lat="47.6801" lon="6.14373">
        <ele>266.2</ele>
        <time>2020-12-13T14:25:22Z</time>
      </trkpt>
      <trkpt lat="47.68015" lon="6.14367">
        <ele>266.4</ele>
        <time>2020-12-13T14:25:25Z</time>
      </trkpt>
      <trkpt lat="47.68019" lon="6.14361">
        <ele>266.6</ele>
        <time>2020-12-13T14:25:27Z</time>
      </trkpt>
      <trkpt lat="47.68024" lon="6.14356">
        <ele>266.8</ele>
        <time>2020-12-13T14:25:29Z</time>
      </trkpt>
      <trkpt lat="47.68028" lon="6.1435">
        <ele>267</ele>
        <time>2020-12-13T14:25:31Z</time>
      </trkpt>
      <trkpt lat="47.68032" lon="6.14344">
        <ele>267.2</ele>
        <time>2020-12-13T14:25:34Z</time>
      </trkpt>
      <trkpt lat="47.68036" lon="6.1434">
        <ele>267.3</ele>
        <time>2020-12-13T14:25:36Z</time>
      </trkpt>
      <trkpt lat="47.6804" lon="6.14334">
        <ele>267.5</ele>
        <time>2020-12-13T14:25:38Z</time>
      </trkpt>
      <trkpt lat="47.68045" lon="6.14328">
        <ele>267.6</ele>
        <time>2020-12-13T14:25:41Z</time>
      </trkpt>
      <trkpt lat="47.6805" lon="6.14323">
        <ele>267.8</ele>
        <time>2020-12-13T14:25:43Z</time>
      </trkpt>
      <trkpt lat="47.68054" lon="6.14315">
        <ele>267.9</ele>
        <time>2020-12-13T14:25:46Z</time>
      </trkpt>
      <trkpt lat="47.68058" lon="6.14311">
        <ele>268.1</ele>
        <time>2020-12-13T14:25:48Z</time>
      </trkpt>
      <trkpt lat="47.68063" lon="6.14306">
        <ele>268.2</ele>
        <time>2020-12-13T14:25:51Z</time>
      </trkpt>
      <trkpt lat="47.68067" lon="6.14302">
        <ele>268.4</ele>
        <time>2020-12-13T14:25:53Z</time>
      </trkpt>
      <trkpt lat="47.68072" lon="6.14296">
        <ele>268.6</ele>
        <time>2020-12-13T14:25:56Z</time>
      </trkpt>
      <trkpt lat="47.68076" lon="6.14292">
        <ele>268.8</ele>
        <time>2020-12-13T14:25:58Z</time>
      </trkpt>
      <trkpt lat="47.68081" lon="6.14287">
        <ele>269.1</ele>
        <time>2020-12-13T14:26:01Z</time>
      </trkpt>
      <trkpt lat="47.68086" lon="6.14281">
        <ele>269.4</ele>
        <time>2020-12-13T14:26:04Z</time>
      </trkpt>
      <trkpt lat="47.6809" lon="6.14277">
        <ele>269.6</ele>
        <time>2020-12-13T14:26:06Z</time>
      </trkpt>
      <trkpt lat="47.68094" lon="6.14272">
        <ele>269.9</ele>
        <time>2020-12-13T14:26:08Z</time>
      </trkpt>
      <trkpt lat="47.68099" lon="6.14266">
        <ele>270.2</ele>
        <time>2020-12-13T14:26:11Z</time>
      </trkpt>
      <trkpt lat="47.68103" lon="6.14262">
        <ele>270.4</ele>
        <time>2020-12-13T14:26:13Z</time>
      </trkpt>
      <trkpt lat="47.68108" lon="6.14257">
        <ele>270.7</ele>
        <time>2020-12-13T14:26:15Z</time>
      </trkpt>
      <trkpt lat="47.68111" lon="6.14252">
        <ele>271</ele>
        <time>2020-12-13T14:26:18Z</time>
      </trkpt>
      <trkpt lat="47.68116" lon="6.14246">
        <ele>271.2</ele>
        <time>2020-12-13T14:26:20Z</time>
      </trkpt>
      <trkpt lat="47.68121" lon="6.1424">
        <ele>271.6</ele>
        <time>2020-12-13T14:26:24Z</time>
      </trkpt>
      <trkpt lat="47.68125" lon="6.14234">
        <ele>271.9</ele>
        <time>2020-12-13T14:26:27Z</time>
      </trkpt>
      <trkpt lat="47.6813" lon="6.14229">
        <ele>272.2</ele>
        <time>2020-12-13T14:26:29Z</time>
      </trkpt>
      <trkpt lat="47.68135" lon="6.14227">
        <ele>272.4</ele>
        <time>2020-12-13T14:26:32Z</time>
      </trkpt>
      <trkpt lat="47.6814" lon="6.14233">
        <ele>272.5</ele>
        <time>2020-12-13T14:26:35Z</time>
      </trkpt>
      <trkpt lat="47.68143" lon="6.14239">
        <ele>272.4</ele>
        <time>2020-12-13T14:26:37Z</time>
      </trkpt>
      <trkpt lat="47.68147" lon="6.14246">
        <ele>272.4</ele>
        <time>2020-12-13T14:26:40Z</time>
      </trkpt>
      <trkpt lat="47.68149" lon="6.14252">
        <ele>272.3</ele>
        <time>2020-12-13T14:26:42Z</time>
      </trkpt>
      <trkpt lat="47.68152" lon="6.14258">
        <ele>272.4</ele>
        <time>2020-12-13T14:26:44Z</time>
      </trkpt>
      <trkpt lat="47.68154" lon="6.14263">
        <ele>272.4</ele>
        <time>2020-12-13T14:26:46Z</time>
      </trkpt>
      <trkpt lat="47.68157" lon="6.1427">
        <ele>272.4</ele>
        <time>2020-12-13T14:26:48Z</time>
      </trkpt>
      <trkpt lat="47.68159" lon="6.14276">
        <ele>272.4</ele>
        <time>2020-12-13T14:26:50Z</time>
      </trkpt>
      <trkpt lat="47.68162" lon="6.14283">
        <ele>272.4</ele>
        <time>2020-12-13T14:26:53Z</time>
      </trkpt>
      <trkpt lat="47.68165" lon="6.1429">
        <ele>272.4</ele>
        <time>2020-12-13T14:26:54Z</time>
      </trkpt>
      <trkpt lat="47.68167" lon="6.14296">
        <ele>272.5</ele>
        <time>2020-12-13T14:26:56Z</time>
      </trkpt>
      <trkpt lat="47.6817" lon="6.14304">
        <ele>272.4</ele>
        <time>2020-12-13T14:26:58Z</time>
      </trkpt>
      <trkpt lat="47.68174" lon="6.14313">
        <ele>272.4</ele>
        <time>2020-12-13T14:27:00Z</time>
      </trkpt>
      <trkpt lat="47.68177" lon="6.14321">
        <ele>272.3</ele>
        <time>2020-12-13T14:27:02Z</time>
      </trkpt>
      <trkpt lat="47.68181" lon="6.14331">
        <ele>272.2</ele>
        <time>2020-12-13T14:27:04Z</time>
      </trkpt>
      <trkpt lat="47.68185" lon="6.14341">
        <ele>272</ele>
        <time>2020-12-13T14:27:06Z</time>
      </trkpt>
      <trkpt lat="47.68189" lon="6.14349">
        <ele>271.8</ele>
        <time>2020-12-13T14:27:09Z</time>
      </trkpt>
      <trkpt lat="47.68193" lon="6.14355">
        <ele>271.7</ele>
        <time>2020-12-13T14:27:10Z</time>
      </trkpt>
      <trkpt lat="47.68196" lon="6.1436">
        <ele>271.6</ele>
        <time>2020-12-13T14:27:12Z</time>
      </trkpt>
      <trkpt lat="47.68199" lon="6.14366">
        <ele>271.5</ele>
        <time>2020-12-13T14:27:13Z</time>
      </trkpt>
      <trkpt lat="47.68203" lon="6.14376">
        <ele>271.3</ele>
        <time>2020-12-13T14:27:15Z</time>
      </trkpt>
      <trkpt lat="47.68206" lon="6.14384">
        <ele>271.2</ele>
        <time>2020-12-13T14:27:17Z</time>
      </trkpt>
      <trkpt lat="47.68208" lon="6.14391">
        <ele>271.1</ele>
        <time>2020-12-13T14:27:19Z</time>
      </trkpt>
      <trkpt lat="47.6821" lon="6.14398">
        <ele>271</ele>
        <time>2020-12-13T14:27:22Z</time>
      </trkpt>
      <trkpt lat="47.68213" lon="6.14407">
        <ele>270.9</ele>
        <time>2020-12-13T14:27:25Z</time>
      </trkpt>
      <trkpt lat="47.68216" lon="6.14414">
        <ele>270.8</ele>
        <time>2020-12-13T14:27:27Z</time>
      </trkpt>
      <trkpt lat="47.68218" lon="6.14421">
        <ele>270.7</ele>
        <time>2020-12-13T14:27:29Z</time>
      </trkpt>
      <trkpt lat="47.68221" lon="6.14427">
        <ele>270.6</ele>
        <time>2020-12-13T14:27:31Z</time>
      </trkpt>
      <trkpt lat="47.68224" lon="6.14433">
        <ele>270.5</ele>
        <time>2020-12-13T14:27:33Z</time>
      </trkpt>
      <trkpt lat="47.68227" lon="6.14442">
        <ele>270.3</ele>
        <time>2020-12-13T14:27:36Z</time>
      </trkpt>
      <trkpt lat="47.6823" lon="6.14449">
        <ele>270.1</ele>
        <time>2020-12-13T14:27:37Z</time>
      </trkpt>
      <trkpt lat="47.68234" lon="6.14457">
        <ele>270</ele>
        <time>2020-12-13T14:27:39Z</time>
      </trkpt>
      <trkpt lat="47.68239" lon="6.14466">
        <ele>269.8</ele>
        <time>2020-12-13T14:27:41Z</time>
      </trkpt>
      <trkpt lat="47.68243" lon="6.14476">
        <ele>269.6</ele>
        <time>2020-12-13T14:27:44Z</time>
      </trkpt>
      <trkpt lat="47.68247" lon="6.14483">
        <ele>269.5</ele>
        <time>2020-12-13T14:27:45Z</time>
      </trkpt>
      <trkpt lat="47.68251" lon="6.14493">
        <ele>269.3</ele>
        <time>2020-12-13T14:27:47Z</time>
      </trkpt>
      <trkpt lat="47.68254" lon="6.14499">
        <ele>269.1</ele>
        <time>2020-12-13T14:27:49Z</time>
      </trkpt>
      <trkpt lat="47.68257" lon="6.14504">
        <ele>269</ele>
        <time>2020-12-13T14:27:50Z</time>
      </trkpt>
      <trkpt lat="47.6826" lon="6.14512">
        <ele>269</ele>
        <time>2020-12-13T14:27:51Z</time>
      </trkpt>
      <trkpt lat="47.68265" lon="6.14522">
        <ele>268.9</ele>
        <time>2020-12-13T14:27:53Z</time>
      </trkpt>
      <trkpt lat="47.68268" lon="6.14527">
        <ele>268.9</ele>
        <time>2020-12-13T14:27:55Z</time>
      </trkpt>
      <trkpt lat="47.68272" lon="6.14535">
        <ele>268.8</ele>
        <time>2020-12-13T14:27:56Z</time>
      </trkpt>
      <trkpt lat="47.68275" lon="6.14541">
        <ele>268.8</ele>
        <time>2020-12-13T14:27:57Z</time>
      </trkpt>
      <trkpt lat="47.68278" lon="6.14548">
        <ele>268.8</ele>
        <time>2020-12-13T14:27:59Z</time>
      </trkpt>
      <trkpt lat="47.68282" lon="6.14555">
        <ele>268.7</ele>
        <time>2020-12-13T14:28:00Z</time>
      </trkpt>
      <trkpt lat="47.68285" lon="6.14562">
        <ele>268.7</ele>
        <time>2020-12-13T14:28:01Z</time>
      </trkpt>
      <trkpt lat="47.68289" lon="6.14569">
        <ele>268.6</ele>
        <time>2020-12-13T14:28:02Z</time>
      </trkpt>
      <trkpt lat="47.68292" lon="6.14577">
        <ele>268.6</ele>
        <time>2020-12-13T14:28:03Z</time>
      </trkpt>
      <trkpt lat="47.68296" lon="6.14585">
        <ele>268.5</ele>
        <time>2020-12-13T14:28:05Z</time>
      </trkpt>
      <trkpt lat="47.68301" lon="6.14597">
        <ele>268.4</ele>
        <time>2020-12-13T14:28:06Z</time>
      </trkpt>
      <trkpt lat="47.68306" lon="6.14607">
        <ele>268.2</ele>
        <time>2020-12-13T14:28:08Z</time>
      </trkpt>
      <trkpt lat="47.68309" lon="6.14613">
        <ele>268.1</ele>
        <time>2020-12-13T14:28:09Z</time>
      </trkpt>
      <trkpt lat="47.68312" lon="6.14618">
        <ele>267.9</ele>
        <time>2020-12-13T14:28:10Z</time>
      </trkpt>
      <trkpt lat="47.68315" lon="6.14624">
        <ele>267.8</ele>
        <time>2020-12-13T14:28:11Z</time>
      </trkpt>
      <trkpt lat="47.68318" lon="6.14629">
        <ele>267.6</ele>
        <time>2020-12-13T14:28:12Z</time>
      </trkpt>
      <trkpt lat="47.68321" lon="6.14635">
        <ele>267.4</ele>
        <time>2020-12-13T14:28:13Z</time>
      </trkpt>
      <trkpt lat="47.68323" lon="6.14641">
        <ele>267.1</ele>
        <time>2020-12-13T14:28:14Z</time>
      </trkpt>
      <trkpt lat="47.68326" lon="6.14647">
        <ele>266.9</ele>
        <time>2020-12-13T14:28:15Z</time>
      </trkpt>
      <trkpt lat="47.68329" lon="6.14653">
        <ele>266.6</ele>
        <time>2020-12-13T14:28:16Z</time>
      </trkpt>
      <trkpt lat="47.68332" lon="6.14659">
        <ele>266.3</ele>
        <time>2020-12-13T14:28:17Z</time>
      </trkpt>
      <trkpt lat="47.68335" lon="6.14666">
        <ele>266</ele>
        <time>2020-12-13T14:28:18Z</time>
      </trkpt>
      <trkpt lat="47.68338" lon="6.14673">
        <ele>265.9</ele>
        <time>2020-12-13T14:28:19Z</time>
      </trkpt>
      <trkpt lat="47.6834" lon="6.14679">
        <ele>265.8</ele>
        <time>2020-12-13T14:28:20Z</time>
      </trkpt>
      <trkpt lat="47.68343" lon="6.14685">
        <ele>265.7</ele>
        <time>2020-12-13T14:28:21Z</time>
      </trkpt>
      <trkpt lat="47.68345" lon="6.14692">
        <ele>265.7</ele>
        <time>2020-12-13T14:28:22Z</time>
      </trkpt>
      <trkpt lat="47.68348" lon="6.14699">
        <ele>265.6</ele>
        <time>2020-12-13T14:28:23Z</time>
      </trkpt>
      <trkpt lat="47.6835" lon="6.14705">
        <ele>265.5</ele>
        <time>2020-12-13T14:28:24Z</time>
      </trkpt>
      <trkpt lat="47.68352" lon="6.14712">
        <ele>265.4</ele>
        <time>2020-12-13T14:28:25Z</time>
      </trkpt>
      <trkpt lat="47.68354" lon="6.14718">
        <ele>265.3</ele>
        <time>2020-12-13T14:28:26Z</time>
      </trkpt>
      <trkpt lat="47.68356" lon="6.14725">
        <ele>265.3</ele>
        <time>2020-12-13T14:28:27Z</time>
      </trkpt>
      <trkpt lat="47.68358" lon="6.14732">
        <ele>265.2</ele>
        <time>2020-12-13T14:28:28Z</time>
      </trkpt>
      <trkpt lat="47.6836" lon="6.14739">
        <ele>265.1</ele>
        <time>2020-12-13T14:28:29Z</time>
      </trkpt>
      <trkpt lat="47.68361" lon="6.14746">
        <ele>265</ele>
        <time>2020-12-13T14:28:30Z</time>
      </trkpt>
      <trkpt lat="47.68362" lon="6.14752">
        <ele>265</ele>
        <time>2020-12-13T14:28:31Z</time>
      </trkpt>
      <trkpt lat="47.68363" lon="6.14759">
        <ele>264.9</ele>
        <time>2020-12-13T14:28:32Z</time>
      </trkpt>
      <trkpt lat="47.68364" lon="6.14766">
        <ele>264.8</ele>
        <time>2020-12-13T14:28:33Z</time>
      </trkpt>
      <trkpt lat="47.68365" lon="6.14778">
        <ele>264.7</ele>
        <time>2020-12-13T14:28:35Z</time>
      </trkpt>
      <trkpt lat="47.68364" lon="6.1479">
        <ele>264.7</ele>
        <time>2020-12-13T14:28:37Z</time>
      </trkpt>
      <trkpt lat="47.68364" lon="6.14802">
        <ele>264.7</ele>
        <time>2020-12-13T14:28:39Z</time>
      </trkpt>
      <trkpt lat="47.68364" lon="6.14813">
        <ele>264.6</ele>
        <time>2020-12-13T14:28:41Z</time>
      </trkpt>
      <trkpt lat="47.68363" lon="6.14824">
        <ele>264.6</ele>
        <time>2020-12-13T14:28:43Z</time>
      </trkpt>
      <trkpt lat="47.68363" lon="6.14838">
        <ele>264.5</ele>
        <time>2020-12-13T14:28:45Z</time>
      </trkpt>
      <trkpt lat="47.68357" lon="6.14845">
        <ele>264.7</ele>
        <time>2020-12-13T14:28:47Z</time>
      </trkpt>
      <trkpt lat="47.68358" lon="6.14854">
        <ele>264.7</ele>
        <time>2020-12-13T14:28:48Z</time>
      </trkpt>
      <trkpt lat="47.68359" lon="6.14867">
        <ele>264.5</ele>
        <time>2020-12-13T14:28:50Z</time>
      </trkpt>
      <trkpt lat="47.6836" lon="6.14875">
        <ele>264.4</ele>
        <time>2020-12-13T14:28:51Z</time>
      </trkpt>
      <trkpt lat="47.68361" lon="6.14888">
        <ele>264.2</ele>
        <time>2020-12-13T14:28:52Z</time>
      </trkpt>
      <trkpt lat="47.68362" lon="6.149">
        <ele>264.1</ele>
        <time>2020-12-13T14:28:54Z</time>
      </trkpt>
      <trkpt lat="47.68362" lon="6.14908">
        <ele>264</ele>
        <time>2020-12-13T14:28:55Z</time>
      </trkpt>
      <trkpt lat="47.68362" lon="6.14915">
        <ele>264</ele>
        <time>2020-12-13T14:28:56Z</time>
      </trkpt>
      <trkpt lat="47.68362" lon="6.14922">
        <ele>263.9</ele>
        <time>2020-12-13T14:28:57Z</time>
      </trkpt>
      <trkpt lat="47.68362" lon="6.14928">
        <ele>263.8</ele>
        <time>2020-12-13T14:28:58Z</time>
      </trkpt>
      <trkpt lat="47.68362" lon="6.14941">
        <ele>263.7</ele>
        <time>2020-12-13T14:29:00Z</time>
      </trkpt>
      <trkpt lat="47.68361" lon="6.14954">
        <ele>263.5</ele>
        <time>2020-12-13T14:29:02Z</time>
      </trkpt>
      <trkpt lat="47.68361" lon="6.14967">
        <ele>263.4</ele>
        <time>2020-12-13T14:29:04Z</time>
      </trkpt>
      <trkpt lat="47.68361" lon="6.14976">
        <ele>263.3</ele>
        <time>2020-12-13T14:29:05Z</time>
      </trkpt>
      <trkpt lat="47.68361" lon="6.14985">
        <ele>263.2</ele>
        <time>2020-12-13T14:29:07Z</time>
      </trkpt>
      <trkpt lat="47.68361" lon="6.14998">
        <ele>263</ele>
        <time>2020-12-13T14:29:09Z</time>
      </trkpt>
      <trkpt lat="47.68361" lon="6.15008">
        <ele>262.9</ele>
        <time>2020-12-13T14:29:10Z</time>
      </trkpt>
      <trkpt lat="47.68361" lon="6.15016">
        <ele>262.9</ele>
        <time>2020-12-13T14:29:12Z</time>
      </trkpt>
      <trkpt lat="47.68361" lon="6.15023">
        <ele>262.8</ele>
        <time>2020-12-13T14:29:13Z</time>
      </trkpt>
      <trkpt lat="47.68361" lon="6.1503">
        <ele>262.8</ele>
        <time>2020-12-13T14:29:14Z</time>
      </trkpt>
      <trkpt lat="47.68362" lon="6.15041">
        <ele>262.7</ele>
        <time>2020-12-13T14:29:15Z</time>
      </trkpt>
      <trkpt lat="47.68361" lon="6.15049">
        <ele>262.6</ele>
        <time>2020-12-13T14:29:17Z</time>
      </trkpt>
      <trkpt lat="47.68361" lon="6.15065">
        <ele>262.5</ele>
        <time>2020-12-13T14:29:19Z</time>
      </trkpt>
      <trkpt lat="47.68361" lon="6.15072">
        <ele>262.4</ele>
        <time>2020-12-13T14:29:20Z</time>
      </trkpt>
      <trkpt lat="47.68361" lon="6.15086">
        <ele>262.3</ele>
        <time>2020-12-13T14:29:22Z</time>
      </trkpt>
      <trkpt lat="47.68361" lon="6.15099">
        <ele>262.2</ele>
        <time>2020-12-13T14:29:24Z</time>
      </trkpt>
      <trkpt lat="47.6836" lon="6.15106">
        <ele>262.2</ele>
        <time>2020-12-13T14:29:25Z</time>
      </trkpt>
      <trkpt lat="47.6836" lon="6.15119">
        <ele>262.1</ele>
        <time>2020-12-13T14:29:27Z</time>
      </trkpt>
      <trkpt lat="47.68361" lon="6.15129">
        <ele>262</ele>
        <time>2020-12-13T14:29:29Z</time>
      </trkpt>
      <trkpt lat="47.68361" lon="6.15139">
        <ele>261.9</ele>
        <time>2020-12-13T14:29:30Z</time>
      </trkpt>
      <trkpt lat="47.68361" lon="6.15149">
        <ele>261.8</ele>
        <time>2020-12-13T14:29:32Z</time>
      </trkpt>
      <trkpt lat="47.6836" lon="6.15159">
        <ele>261.8</ele>
        <time>2020-12-13T14:29:33Z</time>
      </trkpt>
      <trkpt lat="47.68357" lon="6.15171">
        <ele>261.8</ele>
        <time>2020-12-13T14:29:35Z</time>
      </trkpt>
      <trkpt lat="47.68353" lon="6.15176">
        <ele>261.8</ele>
        <time>2020-12-13T14:29:36Z</time>
      </trkpt>
      <trkpt lat="47.68348" lon="6.15181">
        <ele>261.9</ele>
        <time>2020-12-13T14:29:37Z</time>
      </trkpt>
      <trkpt lat="47.68343" lon="6.15185">
        <ele>262.1</ele>
        <time>2020-12-13T14:29:38Z</time>
      </trkpt>
      <trkpt lat="47.68338" lon="6.15188">
        <ele>262.3</ele>
        <time>2020-12-13T14:29:39Z</time>
      </trkpt>
      <trkpt lat="47.68333" lon="6.1519">
        <ele>262.4</ele>
        <time>2020-12-13T14:29:40Z</time>
      </trkpt>
      <trkpt lat="47.68328" lon="6.15193">
        <ele>262</ele>
        <time>2020-12-13T14:29:41Z</time>
      </trkpt>
      <trkpt lat="47.68322" lon="6.15196">
        <ele>261.7</ele>
        <time>2020-12-13T14:29:42Z</time>
      </trkpt>
      <trkpt lat="47.68317" lon="6.15199">
        <ele>261.3</ele>
        <time>2020-12-13T14:29:43Z</time>
      </trkpt>
      <trkpt lat="47.68311" lon="6.15202">
        <ele>261</ele>
        <time>2020-12-13T14:29:44Z</time>
      </trkpt>
      <trkpt lat="47.68306" lon="6.15205">
        <ele>260.6</ele>
        <time>2020-12-13T14:29:45Z</time>
      </trkpt>
      <trkpt lat="47.68301" lon="6.15208">
        <ele>260.2</ele>
        <time>2020-12-13T14:29:46Z</time>
      </trkpt>
      <trkpt lat="47.68295" lon="6.15211">
        <ele>259.9</ele>
        <time>2020-12-13T14:29:47Z</time>
      </trkpt>
      <trkpt lat="47.68289" lon="6.15214">
        <ele>259.5</ele>
        <time>2020-12-13T14:29:48Z</time>
      </trkpt>
      <trkpt lat="47.68284" lon="6.15217">
        <ele>259.2</ele>
        <time>2020-12-13T14:29:49Z</time>
      </trkpt>
      <trkpt lat="47.68278" lon="6.1522">
        <ele>258.8</ele>
        <time>2020-12-13T14:29:50Z</time>
      </trkpt>
      <trkpt lat="47.68272" lon="6.15223">
        <ele>258.5</ele>
        <time>2020-12-13T14:29:51Z</time>
      </trkpt>
      <trkpt lat="47.68266" lon="6.15227">
        <ele>258.1</ele>
        <time>2020-12-13T14:29:52Z</time>
      </trkpt>
      <trkpt lat="47.68259" lon="6.15231">
        <ele>257.7</ele>
        <time>2020-12-13T14:29:53Z</time>
      </trkpt>
      <trkpt lat="47.68253" lon="6.15234">
        <ele>257.3</ele>
        <time>2020-12-13T14:29:54Z</time>
      </trkpt>
      <trkpt lat="47.68246" lon="6.15237">
        <ele>257</ele>
        <time>2020-12-13T14:29:55Z</time>
      </trkpt>
      <trkpt lat="47.6824" lon="6.1524">
        <ele>256.8</ele>
        <time>2020-12-13T14:29:56Z</time>
      </trkpt>
      <trkpt lat="47.68234" lon="6.15244">
        <ele>256.5</ele>
        <time>2020-12-13T14:29:57Z</time>
      </trkpt>
      <trkpt lat="47.6823" lon="6.15247">
        <ele>256.3</ele>
        <time>2020-12-13T14:29:58Z</time>
      </trkpt>
      <trkpt lat="47.68224" lon="6.1525">
        <ele>256.1</ele>
        <time>2020-12-13T14:30:00Z</time>
      </trkpt>
      <trkpt lat="47.68218" lon="6.15259">
        <ele>255.5</ele>
        <time>2020-12-13T14:30:02Z</time>
      </trkpt>
      <trkpt lat="47.68216" lon="6.15271">
        <ele>255</ele>
        <time>2020-12-13T14:30:04Z</time>
      </trkpt>
      <trkpt lat="47.68214" lon="6.15278">
        <ele>254.7</ele>
        <time>2020-12-13T14:30:05Z</time>
      </trkpt>
      <trkpt lat="47.68213" lon="6.15286">
        <ele>254.3</ele>
        <time>2020-12-13T14:30:06Z</time>
      </trkpt>
      <trkpt lat="47.68212" lon="6.15294">
        <ele>254</ele>
        <time>2020-12-13T14:30:07Z</time>
      </trkpt>
      <trkpt lat="47.6821" lon="6.15303">
        <ele>253.6</ele>
        <time>2020-12-13T14:30:08Z</time>
      </trkpt>
      <trkpt lat="47.68209" lon="6.15311">
        <ele>253.3</ele>
        <time>2020-12-13T14:30:09Z</time>
      </trkpt>
      <trkpt lat="47.68207" lon="6.15319">
        <ele>253</ele>
        <time>2020-12-13T14:30:10Z</time>
      </trkpt>
      <trkpt lat="47.68205" lon="6.15328">
        <ele>252.6</ele>
        <time>2020-12-13T14:30:11Z</time>
      </trkpt>
      <trkpt lat="47.68204" lon="6.15338">
        <ele>252.2</ele>
        <time>2020-12-13T14:30:12Z</time>
      </trkpt>
      <trkpt lat="47.68202" lon="6.15347">
        <ele>251.8</ele>
        <time>2020-12-13T14:30:13Z</time>
      </trkpt>
      <trkpt lat="47.68201" lon="6.15357">
        <ele>251.3</ele>
        <time>2020-12-13T14:30:14Z</time>
      </trkpt>
      <trkpt lat="47.68199" lon="6.15367">
        <ele>250.9</ele>
        <time>2020-12-13T14:30:15Z</time>
      </trkpt>
      <trkpt lat="47.68197" lon="6.15378">
        <ele>250.4</ele>
        <time>2020-12-13T14:30:16Z</time>
      </trkpt>
      <trkpt lat="47.68194" lon="6.15389">
        <ele>249.9</ele>
        <time>2020-12-13T14:30:17Z</time>
      </trkpt>
      <trkpt lat="47.68192" lon="6.154">
        <ele>249.4</ele>
        <time>2020-12-13T14:30:18Z</time>
      </trkpt>
      <trkpt lat="47.6819" lon="6.15412">
        <ele>248.9</ele>
        <time>2020-12-13T14:30:19Z</time>
      </trkpt>
      <trkpt lat="47.68188" lon="6.15425">
        <ele>248.1</ele>
        <time>2020-12-13T14:30:20Z</time>
      </trkpt>
      <trkpt lat="47.68187" lon="6.15439">
        <ele>247.1</ele>
        <time>2020-12-13T14:30:21Z</time>
      </trkpt>
      <trkpt lat="47.68186" lon="6.15452">
        <ele>246.1</ele>
        <time>2020-12-13T14:30:22Z</time>
      </trkpt>
      <trkpt lat="47.68186" lon="6.15466">
        <ele>245.1</ele>
        <time>2020-12-13T14:30:23Z</time>
      </trkpt>
      <trkpt lat="47.68185" lon="6.1548">
        <ele>244.1</ele>
        <time>2020-12-13T14:30:24Z</time>
      </trkpt>
      <trkpt lat="47.68185" lon="6.15494">
        <ele>243</ele>
        <time>2020-12-13T14:30:25Z</time>
      </trkpt>
      <trkpt lat="47.68185" lon="6.15509">
        <ele>242.1</ele>
        <time>2020-12-13T14:30:26Z</time>
      </trkpt>
      <trkpt lat="47.68185" lon="6.15524">
        <ele>241.3</ele>
        <time>2020-12-13T14:30:27Z</time>
      </trkpt>
      <trkpt lat="47.68184" lon="6.15539">
        <ele>240.5</ele>
        <time>2020-12-13T14:30:28Z</time>
      </trkpt>
      <trkpt lat="47.68184" lon="6.15554">
        <ele>239.6</ele>
        <time>2020-12-13T14:30:29Z</time>
      </trkpt>
      <trkpt lat="47.68183" lon="6.15569">
        <ele>238.8</ele>
        <time>2020-12-13T14:30:30Z</time>
      </trkpt>
      <trkpt lat="47.68183" lon="6.15585">
        <ele>237.9</ele>
        <time>2020-12-13T14:30:31Z</time>
      </trkpt>
      <trkpt lat="47.68182" lon="6.15601">
        <ele>237.5</ele>
        <time>2020-12-13T14:30:32Z</time>
      </trkpt>
      <trkpt lat="47.68181" lon="6.15616">
        <ele>237</ele>
        <time>2020-12-13T14:30:33Z</time>
      </trkpt>
      <trkpt lat="47.6818" lon="6.1563">
        <ele>236.5</ele>
        <time>2020-12-13T14:30:34Z</time>
      </trkpt>
      <trkpt lat="47.6818" lon="6.15645">
        <ele>236</ele>
        <time>2020-12-13T14:30:35Z</time>
      </trkpt>
      <trkpt lat="47.68179" lon="6.15659">
        <ele>235.6</ele>
        <time>2020-12-13T14:30:36Z</time>
      </trkpt>
      <trkpt lat="47.68179" lon="6.15672">
        <ele>235.3</ele>
        <time>2020-12-13T14:30:37Z</time>
      </trkpt>
      <trkpt lat="47.68179" lon="6.15685">
        <ele>235.5</ele>
        <time>2020-12-13T14:30:38Z</time>
      </trkpt>
      <trkpt lat="47.6818" lon="6.15697">
        <ele>235.6</ele>
        <time>2020-12-13T14:30:39Z</time>
      </trkpt>
      <trkpt lat="47.6818" lon="6.15709">
        <ele>235.7</ele>
        <time>2020-12-13T14:30:40Z</time>
      </trkpt>
      <trkpt lat="47.6818" lon="6.1572">
        <ele>235.8</ele>
        <time>2020-12-13T14:30:41Z</time>
      </trkpt>
      <trkpt lat="47.6818" lon="6.1573">
        <ele>235.8</ele>
        <time>2020-12-13T14:30:42Z</time>
      </trkpt>
      <trkpt lat="47.68179" lon="6.15741">
        <ele>235.9</ele>
        <time>2020-12-13T14:30:43Z</time>
      </trkpt>
      <trkpt lat="47.68179" lon="6.15751">
        <ele>236</ele>
        <time>2020-12-13T14:30:44Z</time>
      </trkpt>
      <trkpt lat="47.6818" lon="6.1576">
        <ele>236.1</ele>
        <time>2020-12-13T14:30:45Z</time>
      </trkpt>
      <trkpt lat="47.6818" lon="6.15768">
        <ele>236.1</ele>
        <time>2020-12-13T14:30:46Z</time>
      </trkpt>
      <trkpt lat="47.6818" lon="6.15777">
        <ele>236.2</ele>
        <time>2020-12-13T14:30:47Z</time>
      </trkpt>
      <trkpt lat="47.68181" lon="6.15784">
        <ele>236.2</ele>
        <time>2020-12-13T14:30:48Z</time>
      </trkpt>
      <trkpt lat="47.68181" lon="6.15792">
        <ele>236.2</ele>
        <time>2020-12-13T14:30:49Z</time>
      </trkpt>
      <trkpt lat="47.68181" lon="6.15798">
        <ele>236.3</ele>
        <time>2020-12-13T14:30:50Z</time>
      </trkpt>
      <trkpt lat="47.68182" lon="6.15805">
        <ele>236.3</ele>
        <time>2020-12-13T14:30:51Z</time>
      </trkpt>
      <trkpt lat="47.68182" lon="6.15818">
        <ele>236.4</ele>
        <time>2020-12-13T14:30:53Z</time>
      </trkpt>
      <trkpt lat="47.68182" lon="6.15828">
        <ele>236.4</ele>
        <time>2020-12-13T14:30:55Z</time>
      </trkpt>
      <trkpt lat="47.68184" lon="6.15839">
        <ele>236.5</ele>
        <time>2020-12-13T14:30:57Z</time>
      </trkpt>
      <trkpt lat="47.68187" lon="6.15849">
        <ele>236.5</ele>
        <time>2020-12-13T14:30:59Z</time>
      </trkpt>
      <trkpt lat="47.68188" lon="6.15863">
        <ele>236.7</ele>
        <time>2020-12-13T14:31:01Z</time>
      </trkpt>
      <trkpt lat="47.6819" lon="6.15871">
        <ele>236.7</ele>
        <time>2020-12-13T14:31:03Z</time>
      </trkpt>
      <trkpt lat="47.68194" lon="6.1588">
        <ele>236.6</ele>
        <time>2020-12-13T14:31:05Z</time>
      </trkpt>
      <trkpt lat="47.68197" lon="6.1589">
        <ele>236.5</ele>
        <time>2020-12-13T14:31:06Z</time>
      </trkpt>
      <trkpt lat="47.68199" lon="6.15896">
        <ele>236.4</ele>
        <time>2020-12-13T14:31:08Z</time>
      </trkpt>
      <trkpt lat="47.68203" lon="6.15909">
        <ele>236.3</ele>
        <time>2020-12-13T14:31:10Z</time>
      </trkpt>
      <trkpt lat="47.68205" lon="6.15917">
        <ele>236.2</ele>
        <time>2020-12-13T14:31:11Z</time>
      </trkpt>
      <trkpt lat="47.68207" lon="6.15925">
        <ele>236.2</ele>
        <time>2020-12-13T14:31:12Z</time>
      </trkpt>
      <trkpt lat="47.68209" lon="6.15932">
        <ele>236.1</ele>
        <time>2020-12-13T14:31:13Z</time>
      </trkpt>
      <trkpt lat="47.68211" lon="6.15942">
        <ele>236.1</ele>
        <time>2020-12-13T14:31:15Z</time>
      </trkpt>
      <trkpt lat="47.68213" lon="6.15949">
        <ele>236.1</ele>
        <time>2020-12-13T14:31:16Z</time>
      </trkpt>
      <trkpt lat="47.68214" lon="6.15955">
        <ele>236</ele>
        <time>2020-12-13T14:31:17Z</time>
      </trkpt>
      <trkpt lat="47.68216" lon="6.15962">
        <ele>236</ele>
        <time>2020-12-13T14:31:18Z</time>
      </trkpt>
      <trkpt lat="47.68217" lon="6.15969">
        <ele>236</ele>
        <time>2020-12-13T14:31:19Z</time>
      </trkpt>
      <trkpt lat="47.68218" lon="6.15976">
        <ele>236</ele>
        <time>2020-12-13T14:31:20Z</time>
      </trkpt>
      <trkpt lat="47.68219" lon="6.15983">
        <ele>236</ele>
        <time>2020-12-13T14:31:21Z</time>
      </trkpt>
      <trkpt lat="47.6822" lon="6.1599">
        <ele>236</ele>
        <time>2020-12-13T14:31:22Z</time>
      </trkpt>
      <trkpt lat="47.68222" lon="6.15997">
        <ele>236</ele>
        <time>2020-12-13T14:31:23Z</time>
      </trkpt>
      <trkpt lat="47.68223" lon="6.16005">
        <ele>235.9</ele>
        <time>2020-12-13T14:31:24Z</time>
      </trkpt>
      <trkpt lat="47.68225" lon="6.16013">
        <ele>235.6</ele>
        <time>2020-12-13T14:31:25Z</time>
      </trkpt>
      <trkpt lat="47.68226" lon="6.16021">
        <ele>235.3</ele>
        <time>2020-12-13T14:31:26Z</time>
      </trkpt>
      <trkpt lat="47.68227" lon="6.16028">
        <ele>235.1</ele>
        <time>2020-12-13T14:31:27Z</time>
      </trkpt>
      <trkpt lat="47.68228" lon="6.16036">
        <ele>234.9</ele>
        <time>2020-12-13T14:31:28Z</time>
      </trkpt>
      <trkpt lat="47.68228" lon="6.16043">
        <ele>234.7</ele>
        <time>2020-12-13T14:31:29Z</time>
      </trkpt>
      <trkpt lat="47.68228" lon="6.1605">
        <ele>234.5</ele>
        <time>2020-12-13T14:31:30Z</time>
      </trkpt>
      <trkpt lat="47.68229" lon="6.16058">
        <ele>234.3</ele>
        <time>2020-12-13T14:31:31Z</time>
      </trkpt>
      <trkpt lat="47.68229" lon="6.16065">
        <ele>234.1</ele>
        <time>2020-12-13T14:31:32Z</time>
      </trkpt>
      <trkpt lat="47.68229" lon="6.16072">
        <ele>234</ele>
        <time>2020-12-13T14:31:33Z</time>
      </trkpt>
      <trkpt lat="47.68229" lon="6.16079">
        <ele>233.8</ele>
        <time>2020-12-13T14:31:34Z</time>
      </trkpt>
      <trkpt lat="47.68229" lon="6.16086">
        <ele>233.7</ele>
        <time>2020-12-13T14:31:35Z</time>
      </trkpt>
      <trkpt lat="47.68228" lon="6.16093">
        <ele>233.6</ele>
        <time>2020-12-13T14:31:36Z</time>
      </trkpt>
      <trkpt lat="47.68228" lon="6.161">
        <ele>233.6</ele>
        <time>2020-12-13T14:31:37Z</time>
      </trkpt>
      <trkpt lat="47.68227" lon="6.16107">
        <ele>233.5</ele>
        <time>2020-12-13T14:31:38Z</time>
      </trkpt>
      <trkpt lat="47.68226" lon="6.16115">
        <ele>233.5</ele>
        <time>2020-12-13T14:31:39Z</time>
      </trkpt>
      <trkpt lat="47.68225" lon="6.16122">
        <ele>233.4</ele>
        <time>2020-12-13T14:31:40Z</time>
      </trkpt>
      <trkpt lat="47.68223" lon="6.16129">
        <ele>233.3</ele>
        <time>2020-12-13T14:31:41Z</time>
      </trkpt>
      <trkpt lat="47.68222" lon="6.16136">
        <ele>233.3</ele>
        <time>2020-12-13T14:31:42Z</time>
      </trkpt>
      <trkpt lat="47.68221" lon="6.16143">
        <ele>233.2</ele>
        <time>2020-12-13T14:31:43Z</time>
      </trkpt>
      <trkpt lat="47.68219" lon="6.16151">
        <ele>233.2</ele>
        <time>2020-12-13T14:31:44Z</time>
      </trkpt>
      <trkpt lat="47.68218" lon="6.16158">
        <ele>233.1</ele>
        <time>2020-12-13T14:31:45Z</time>
      </trkpt>
      <trkpt lat="47.68217" lon="6.16165">
        <ele>233</ele>
        <time>2020-12-13T14:31:46Z</time>
      </trkpt>
      <trkpt lat="47.68216" lon="6.16172">
        <ele>232.9</ele>
        <time>2020-12-13T14:31:47Z</time>
      </trkpt>
      <trkpt lat="47.68215" lon="6.1618">
        <ele>232.9</ele>
        <time>2020-12-13T14:31:48Z</time>
      </trkpt>
      <trkpt lat="47.68215" lon="6.16186">
        <ele>232.8</ele>
        <time>2020-12-13T14:31:49Z</time>
      </trkpt>
      <trkpt lat="47.68214" lon="6.16193">
        <ele>232.7</ele>
        <time>2020-12-13T14:31:50Z</time>
      </trkpt>
      <trkpt lat="47.68213" lon="6.162">
        <ele>232.6</ele>
        <time>2020-12-13T14:31:51Z</time>
      </trkpt>
      <trkpt lat="47.68211" lon="6.16213">
        <ele>232.5</ele>
        <time>2020-12-13T14:31:53Z</time>
      </trkpt>
      <trkpt lat="47.68206" lon="6.16223">
        <ele>232.6</ele>
        <time>2020-12-13T14:31:55Z</time>
      </trkpt>
      <trkpt lat="47.68201" lon="6.16233">
        <ele>232.7</ele>
        <time>2020-12-13T14:31:57Z</time>
      </trkpt>
      <trkpt lat="47.68198" lon="6.16245">
        <ele>232.6</ele>
        <time>2020-12-13T14:31:59Z</time>
      </trkpt>
      <trkpt lat="47.682" lon="6.16255">
        <ele>232.4</ele>
        <time>2020-12-13T14:32:01Z</time>
      </trkpt>
      <trkpt lat="47.68206" lon="6.16263">
        <ele>232.1</ele>
        <time>2020-12-13T14:32:03Z</time>
      </trkpt>
      <trkpt lat="47.68212" lon="6.1627">
        <ele>231.8</ele>
        <time>2020-12-13T14:32:05Z</time>
      </trkpt>
      <trkpt lat="47.68223" lon="6.16276">
        <ele>231.4</ele>
        <time>2020-12-13T14:32:06Z</time>
      </trkpt>
      <trkpt lat="47.68228" lon="6.16277">
        <ele>231.2</ele>
        <time>2020-12-13T14:32:08Z</time>
      </trkpt>
      <trkpt lat="47.68233" lon="6.16283">
        <ele>231.1</ele>
        <time>2020-12-13T14:32:10Z</time>
      </trkpt>
      <trkpt lat="47.68237" lon="6.16287">
        <ele>230.9</ele>
        <time>2020-12-13T14:32:12Z</time>
      </trkpt>
      <trkpt lat="47.68241" lon="6.16291">
        <ele>230.8</ele>
        <time>2020-12-13T14:32:13Z</time>
      </trkpt>
      <trkpt lat="47.68247" lon="6.16297">
        <ele>230.7</ele>
        <time>2020-12-13T14:32:16Z</time>
      </trkpt>
      <trkpt lat="47.68251" lon="6.16301">
        <ele>230.7</ele>
        <time>2020-12-13T14:32:18Z</time>
      </trkpt>
      <trkpt lat="47.68256" lon="6.16305">
        <ele>230.9</ele>
        <time>2020-12-13T14:32:19Z</time>
      </trkpt>
      <trkpt lat="47.6826" lon="6.16308">
        <ele>231.1</ele>
        <time>2020-12-13T14:32:21Z</time>
      </trkpt>
      <trkpt lat="47.68265" lon="6.16312">
        <ele>231.3</ele>
        <time>2020-12-13T14:32:22Z</time>
      </trkpt>
      <trkpt lat="47.68272" lon="6.16317">
        <ele>231.7</ele>
        <time>2020-12-13T14:32:25Z</time>
      </trkpt>
      <trkpt lat="47.68278" lon="6.16321">
        <ele>232</ele>
        <time>2020-12-13T14:32:26Z</time>
      </trkpt>
      <trkpt lat="47.68282" lon="6.16324">
        <ele>232.3</ele>
        <time>2020-12-13T14:32:28Z</time>
      </trkpt>
      <trkpt lat="47.68287" lon="6.16327">
        <ele>232.6</ele>
        <time>2020-12-13T14:32:29Z</time>
      </trkpt>
      <trkpt lat="47.68292" lon="6.16331">
        <ele>232.9</ele>
        <time>2020-12-13T14:32:31Z</time>
      </trkpt>
      <trkpt lat="47.68299" lon="6.16336">
        <ele>233.3</ele>
        <time>2020-12-13T14:32:34Z</time>
      </trkpt>
      <trkpt lat="47.68304" lon="6.16336">
        <ele>233.6</ele>
        <time>2020-12-13T14:32:35Z</time>
      </trkpt>
      <trkpt lat="47.68308" lon="6.16332">
        <ele>233.8</ele>
        <time>2020-12-13T14:32:37Z</time>
      </trkpt>
      <trkpt lat="47.68312" lon="6.16325">
        <ele>233.6</ele>
        <time>2020-12-13T14:32:39Z</time>
      </trkpt>
      <trkpt lat="47.68315" lon="6.16317">
        <ele>233.4</ele>
        <time>2020-12-13T14:32:42Z</time>
      </trkpt>
      <trkpt lat="47.68318" lon="6.16309">
        <ele>233.2</ele>
        <time>2020-12-13T14:32:43Z</time>
      </trkpt>
      <trkpt lat="47.68321" lon="6.16302">
        <ele>233.1</ele>
        <time>2020-12-13T14:32:45Z</time>
      </trkpt>
      <trkpt lat="47.68325" lon="6.16294">
        <ele>232.9</ele>
        <time>2020-12-13T14:32:47Z</time>
      </trkpt>
      <trkpt lat="47.6833" lon="6.16286">
        <ele>232.6</ele>
        <time>2020-12-13T14:32:49Z</time>
      </trkpt>
      <trkpt lat="47.68333" lon="6.16279">
        <ele>232.4</ele>
        <time>2020-12-13T14:32:50Z</time>
      </trkpt>
      <trkpt lat="47.68337" lon="6.16272">
        <ele>232.2</ele>
        <time>2020-12-13T14:32:51Z</time>
      </trkpt>
      <trkpt lat="47.6834" lon="6.16267">
        <ele>232</ele>
        <time>2020-12-13T14:32:52Z</time>
      </trkpt>
      <trkpt lat="47.68342" lon="6.16261">
        <ele>231.8</ele>
        <time>2020-12-13T14:32:54Z</time>
      </trkpt>
      <trkpt lat="47.68346" lon="6.16253">
        <ele>231.6</ele>
        <time>2020-12-13T14:32:56Z</time>
      </trkpt>
      <trkpt lat="47.68351" lon="6.16245">
        <ele>231.5</ele>
        <time>2020-12-13T14:32:58Z</time>
      </trkpt>
      <trkpt lat="47.68355" lon="6.16238">
        <ele>231.6</ele>
        <time>2020-12-13T14:33:00Z</time>
      </trkpt>
      <trkpt lat="47.6836" lon="6.16232">
        <ele>231.7</ele>
        <time>2020-12-13T14:33:02Z</time>
      </trkpt>
      <trkpt lat="47.68365" lon="6.16225">
        <ele>231.7</ele>
        <time>2020-12-13T14:33:04Z</time>
      </trkpt>
      <trkpt lat="47.68368" lon="6.16219">
        <ele>231.7</ele>
        <time>2020-12-13T14:33:05Z</time>
      </trkpt>
      <trkpt lat="47.68373" lon="6.16212">
        <ele>231.8</ele>
        <time>2020-12-13T14:33:07Z</time>
      </trkpt>
      <trkpt lat="47.68378" lon="6.16207">
        <ele>231.8</ele>
        <time>2020-12-13T14:33:08Z</time>
      </trkpt>
      <trkpt lat="47.68384" lon="6.162">
        <ele>231.8</ele>
        <time>2020-12-13T14:33:10Z</time>
      </trkpt>
      <trkpt lat="47.68388" lon="6.16194">
        <ele>231.8</ele>
        <time>2020-12-13T14:33:12Z</time>
      </trkpt>
      <trkpt lat="47.68391" lon="6.16189">
        <ele>231.8</ele>
        <time>2020-12-13T14:33:13Z</time>
      </trkpt>
      <trkpt lat="47.68395" lon="6.16182">
        <ele>231.8</ele>
        <time>2020-12-13T14:33:14Z</time>
      </trkpt>
      <trkpt lat="47.684" lon="6.16174">
        <ele>231.7</ele>
        <time>2020-12-13T14:33:16Z</time>
      </trkpt>
      <trkpt lat="47.68406" lon="6.16163">
        <ele>231.7</ele>
        <time>2020-12-13T14:33:19Z</time>
      </trkpt>
      <trkpt lat="47.6841" lon="6.16154">
        <ele>231.6</ele>
        <time>2020-12-13T14:33:21Z</time>
      </trkpt>
      <trkpt lat="47.68414" lon="6.16145">
        <ele>231.4</ele>
        <time>2020-12-13T14:33:23Z</time>
      </trkpt>
      <trkpt lat="47.68417" lon="6.16137">
        <ele>231.3</ele>
        <time>2020-12-13T14:33:25Z</time>
      </trkpt>
      <trkpt lat="47.6842" lon="6.16132">
        <ele>231.2</ele>
        <time>2020-12-13T14:33:26Z</time>
      </trkpt>
      <trkpt lat="47.68423" lon="6.16126">
        <ele>231.1</ele>
        <time>2020-12-13T14:33:28Z</time>
      </trkpt>
      <trkpt lat="47.68426" lon="6.1612">
        <ele>231.1</ele>
        <time>2020-12-13T14:33:30Z</time>
      </trkpt>
      <trkpt lat="47.6843" lon="6.1611">
        <ele>230.9</ele>
        <time>2020-12-13T14:33:33Z</time>
      </trkpt>
      <trkpt lat="47.68433" lon="6.16105">
        <ele>230.9</ele>
        <time>2020-12-13T14:33:35Z</time>
      </trkpt>
      <trkpt lat="47.68437" lon="6.16101">
        <ele>230.9</ele>
        <time>2020-12-13T14:33:36Z</time>
      </trkpt>
      <trkpt lat="47.68444" lon="6.16094">
        <ele>230.9</ele>
        <time>2020-12-13T14:33:39Z</time>
      </trkpt>
      <trkpt lat="47.68449" lon="6.16088">
        <ele>230.9</ele>
        <time>2020-12-13T14:33:41Z</time>
      </trkpt>
      <trkpt lat="47.68454" lon="6.16083">
        <ele>230.9</ele>
        <time>2020-12-13T14:33:43Z</time>
      </trkpt>
      <trkpt lat="47.68459" lon="6.16079">
        <ele>231</ele>
        <time>2020-12-13T14:33:44Z</time>
      </trkpt>
      <trkpt lat="47.68464" lon="6.16074">
        <ele>231.2</ele>
        <time>2020-12-13T14:33:46Z</time>
      </trkpt>
      <trkpt lat="47.6847" lon="6.16068">
        <ele>231.3</ele>
        <time>2020-12-13T14:33:48Z</time>
      </trkpt>
      <trkpt lat="47.68475" lon="6.16063">
        <ele>231.5</ele>
        <time>2020-12-13T14:33:49Z</time>
      </trkpt>
      <trkpt lat="47.68479" lon="6.16059">
        <ele>231.6</ele>
        <time>2020-12-13T14:33:51Z</time>
      </trkpt>
      <trkpt lat="47.68483" lon="6.16055">
        <ele>231.7</ele>
        <time>2020-12-13T14:33:52Z</time>
      </trkpt>
      <trkpt lat="47.68487" lon="6.16051">
        <ele>231.7</ele>
        <time>2020-12-13T14:33:53Z</time>
      </trkpt>
      <trkpt lat="47.68495" lon="6.16044">
        <ele>231.9</ele>
        <time>2020-12-13T14:33:56Z</time>
      </trkpt>
      <trkpt lat="47.685" lon="6.16039">
        <ele>232</ele>
        <time>2020-12-13T14:33:58Z</time>
      </trkpt>
      <trkpt lat="47.68505" lon="6.16034">
        <ele>232</ele>
        <time>2020-12-13T14:34:00Z</time>
      </trkpt>
      <trkpt lat="47.68509" lon="6.16028">
        <ele>232</ele>
        <time>2020-12-13T14:34:02Z</time>
      </trkpt>
      <trkpt lat="47.68514" lon="6.16023">
        <ele>232</ele>
        <time>2020-12-13T14:34:04Z</time>
      </trkpt>
      <trkpt lat="47.6852" lon="6.16017">
        <ele>231.9</ele>
        <time>2020-12-13T14:34:06Z</time>
      </trkpt>
      <trkpt lat="47.68525" lon="6.16012">
        <ele>232</ele>
        <time>2020-12-13T14:34:08Z</time>
      </trkpt>
      <trkpt lat="47.68529" lon="6.16007">
        <ele>232</ele>
        <time>2020-12-13T14:34:10Z</time>
      </trkpt>
      <trkpt lat="47.68534" lon="6.16001">
        <ele>232</ele>
        <time>2020-12-13T14:34:12Z</time>
      </trkpt>
      <trkpt lat="47.68538" lon="6.15998">
        <ele>232</ele>
        <time>2020-12-13T14:34:13Z</time>
      </trkpt>
      <trkpt lat="47.68543" lon="6.15994">
        <ele>232.1</ele>
        <time>2020-12-13T14:34:15Z</time>
      </trkpt>
      <trkpt lat="47.68548" lon="6.1599">
        <ele>232.3</ele>
        <time>2020-12-13T14:34:18Z</time>
      </trkpt>
      <trkpt lat="47.68553" lon="6.15985">
        <ele>232.5</ele>
        <time>2020-12-13T14:34:20Z</time>
      </trkpt>
      <trkpt lat="47.68557" lon="6.15981">
        <ele>232.6</ele>
        <time>2020-12-13T14:34:22Z</time>
      </trkpt>
      <trkpt lat="47.68561" lon="6.15977">
        <ele>232.8</ele>
        <time>2020-12-13T14:34:24Z</time>
      </trkpt>
      <trkpt lat="47.68565" lon="6.15972">
        <ele>233.1</ele>
        <time>2020-12-13T14:34:26Z</time>
      </trkpt>
      <trkpt lat="47.68569" lon="6.15967">
        <ele>233.3</ele>
        <time>2020-12-13T14:34:29Z</time>
      </trkpt>
      <trkpt lat="47.68573" lon="6.15964">
        <ele>233.5</ele>
        <time>2020-12-13T14:34:31Z</time>
      </trkpt>
      <trkpt lat="47.68577" lon="6.15958">
        <ele>233.9</ele>
        <time>2020-12-13T14:34:35Z</time>
      </trkpt>
      <trkpt lat="47.68583" lon="6.15957">
        <ele>234</ele>
        <time>2020-12-13T14:34:38Z</time>
      </trkpt>
      <trkpt lat="47.68589" lon="6.15956">
        <ele>234.3</ele>
        <time>2020-12-13T14:34:42Z</time>
      </trkpt>
      <trkpt lat="47.68594" lon="6.15954">
        <ele>234.5</ele>
        <time>2020-12-13T14:34:45Z</time>
      </trkpt>
      <trkpt lat="47.68599" lon="6.15953">
        <ele>234.8</ele>
        <time>2020-12-13T14:34:48Z</time>
      </trkpt>
      <trkpt lat="47.68605" lon="6.15953">
        <ele>235</ele>
        <time>2020-12-13T14:34:51Z</time>
      </trkpt>
      <trkpt lat="47.6861" lon="6.15952">
        <ele>235.2</ele>
        <time>2020-12-13T14:34:54Z</time>
      </trkpt>
      <trkpt lat="47.68615" lon="6.15951">
        <ele>235.4</ele>
        <time>2020-12-13T14:34:57Z</time>
      </trkpt>
      <trkpt lat="47.68619" lon="6.1595">
        <ele>235.6</ele>
        <time>2020-12-13T14:35:00Z</time>
      </trkpt>
      <trkpt lat="47.68624" lon="6.15949">
        <ele>235.8</ele>
        <time>2020-12-13T14:35:03Z</time>
      </trkpt>
      <trkpt lat="47.6863" lon="6.15948">
        <ele>236.1</ele>
        <time>2020-12-13T14:35:07Z</time>
      </trkpt>
      <trkpt lat="47.68635" lon="6.15947">
        <ele>236.3</ele>
        <time>2020-12-13T14:35:10Z</time>
      </trkpt>
      <trkpt lat="47.6864" lon="6.15947">
        <ele>236.5</ele>
        <time>2020-12-13T14:35:13Z</time>
      </trkpt>
      <trkpt lat="47.68645" lon="6.15946">
        <ele>236.8</ele>
        <time>2020-12-13T14:35:16Z</time>
      </trkpt>
      <trkpt lat="47.68651" lon="6.15945">
        <ele>237.1</ele>
        <time>2020-12-13T14:35:19Z</time>
      </trkpt>
      <trkpt lat="47.68656" lon="6.15942">
        <ele>237.5</ele>
        <time>2020-12-13T14:35:22Z</time>
      </trkpt>
      <trkpt lat="47.68661" lon="6.1594">
        <ele>237.8</ele>
        <time>2020-12-13T14:35:25Z</time>
      </trkpt>
      <trkpt lat="47.68666" lon="6.15938">
        <ele>238.2</ele>
        <time>2020-12-13T14:35:29Z</time>
      </trkpt>
      <trkpt lat="47.68671" lon="6.15937">
        <ele>238.3</ele>
        <time>2020-12-13T14:35:32Z</time>
      </trkpt>
      <trkpt lat="47.68676" lon="6.15935">
        <ele>238.5</ele>
        <time>2020-12-13T14:35:35Z</time>
      </trkpt>
      <trkpt lat="47.6868" lon="6.15933">
        <ele>238.7</ele>
        <time>2020-12-13T14:35:38Z</time>
      </trkpt>
      <trkpt lat="47.68685" lon="6.1593">
        <ele>239</ele>
        <time>2020-12-13T14:35:42Z</time>
      </trkpt>
      <trkpt lat="47.68689" lon="6.15927">
        <ele>239.2</ele>
        <time>2020-12-13T14:35:45Z</time>
      </trkpt>
      <trkpt lat="47.68695" lon="6.15923">
        <ele>239.5</ele>
        <time>2020-12-13T14:35:49Z</time>
      </trkpt>
      <trkpt lat="47.68699" lon="6.15919">
        <ele>239.8</ele>
        <time>2020-12-13T14:35:52Z</time>
      </trkpt>
      <trkpt lat="47.68704" lon="6.15916">
        <ele>240.1</ele>
        <time>2020-12-13T14:35:56Z</time>
      </trkpt>
      <trkpt lat="47.68708" lon="6.15912">
        <ele>240.4</ele>
        <time>2020-12-13T14:35:59Z</time>
      </trkpt>
      <trkpt lat="47.68713" lon="6.15908">
        <ele>240.7</ele>
        <time>2020-12-13T14:36:02Z</time>
      </trkpt>
      <trkpt lat="47.68718" lon="6.15905">
        <ele>241</ele>
        <time>2020-12-13T14:36:05Z</time>
      </trkpt>
      <trkpt lat="47.68723" lon="6.15901">
        <ele>241.4</ele>
        <time>2020-12-13T14:36:08Z</time>
      </trkpt>
      <trkpt lat="47.68728" lon="6.15896">
        <ele>241.8</ele>
        <time>2020-12-13T14:36:11Z</time>
      </trkpt>
      <trkpt lat="47.68732" lon="6.15893">
        <ele>242.2</ele>
        <time>2020-12-13T14:36:14Z</time>
      </trkpt>
      <trkpt lat="47.68736" lon="6.15889">
        <ele>242.5</ele>
        <time>2020-12-13T14:36:17Z</time>
      </trkpt>
      <trkpt lat="47.68741" lon="6.15886">
        <ele>242.9</ele>
        <time>2020-12-13T14:36:20Z</time>
      </trkpt>
      <trkpt lat="47.68746" lon="6.15881">
        <ele>243.4</ele>
        <time>2020-12-13T14:36:23Z</time>
      </trkpt>
      <trkpt lat="47.6875" lon="6.15877">
        <ele>243.8</ele>
        <time>2020-12-13T14:36:26Z</time>
      </trkpt>
      <trkpt lat="47.68754" lon="6.15874">
        <ele>243.9</ele>
        <time>2020-12-13T14:36:29Z</time>
      </trkpt>
      <trkpt lat="47.68759" lon="6.1587">
        <ele>244</ele>
        <time>2020-12-13T14:36:32Z</time>
      </trkpt>
      <trkpt lat="47.68763" lon="6.15866">
        <ele>244.3</ele>
        <time>2020-12-13T14:36:34Z</time>
      </trkpt>
      <trkpt lat="47.68769" lon="6.1586">
        <ele>244.5</ele>
        <time>2020-12-13T14:36:38Z</time>
      </trkpt>
      <trkpt lat="47.68773" lon="6.15857">
        <ele>244.6</ele>
        <time>2020-12-13T14:36:41Z</time>
      </trkpt>
      <trkpt lat="47.68778" lon="6.15852">
        <ele>244.9</ele>
        <time>2020-12-13T14:36:44Z</time>
      </trkpt>
      <trkpt lat="47.68782" lon="6.15847">
        <ele>245.1</ele>
        <time>2020-12-13T14:36:48Z</time>
      </trkpt>
      <trkpt lat="47.68787" lon="6.15844">
        <ele>245.2</ele>
        <time>2020-12-13T14:36:50Z</time>
      </trkpt>
      <trkpt lat="47.68791" lon="6.1584">
        <ele>245.4</ele>
        <time>2020-12-13T14:36:53Z</time>
      </trkpt>
      <trkpt lat="47.68796" lon="6.15835">
        <ele>245.6</ele>
        <time>2020-12-13T14:36:57Z</time>
      </trkpt>
      <trkpt lat="47.688" lon="6.15831">
        <ele>245.8</ele>
        <time>2020-12-13T14:36:59Z</time>
      </trkpt>
      <trkpt lat="47.68805" lon="6.15827">
        <ele>245.8</ele>
        <time>2020-12-13T14:37:02Z</time>
      </trkpt>
      <trkpt lat="47.68808" lon="6.15822">
        <ele>246</ele>
        <time>2020-12-13T14:37:06Z</time>
      </trkpt>
      <trkpt lat="47.68812" lon="6.15818">
        <ele>246.1</ele>
        <time>2020-12-13T14:37:08Z</time>
      </trkpt>
      <trkpt lat="47.68815" lon="6.15812">
        <ele>246.4</ele>
        <time>2020-12-13T14:37:11Z</time>
      </trkpt>
      <trkpt lat="47.68818" lon="6.15806">
        <ele>246.6</ele>
        <time>2020-12-13T14:37:14Z</time>
      </trkpt>
      <trkpt lat="47.68821" lon="6.158">
        <ele>246.9</ele>
        <time>2020-12-13T14:37:17Z</time>
      </trkpt>
      <trkpt lat="47.68824" lon="6.15795">
        <ele>247.1</ele>
        <time>2020-12-13T14:37:20Z</time>
      </trkpt>
      <trkpt lat="47.68827" lon="6.15789">
        <ele>247.5</ele>
        <time>2020-12-13T14:37:23Z</time>
      </trkpt>
      <trkpt lat="47.68829" lon="6.15783">
        <ele>247.8</ele>
        <time>2020-12-13T14:37:26Z</time>
      </trkpt>
      <trkpt lat="47.68833" lon="6.15777">
        <ele>248.1</ele>
        <time>2020-12-13T14:37:30Z</time>
      </trkpt>
      <trkpt lat="47.68835" lon="6.1577">
        <ele>248.4</ele>
        <time>2020-12-13T14:37:32Z</time>
      </trkpt>
      <trkpt lat="47.68838" lon="6.15763">
        <ele>248.6</ele>
        <time>2020-12-13T14:37:35Z</time>
      </trkpt>
      <trkpt lat="47.6884" lon="6.15756">
        <ele>248.9</ele>
        <time>2020-12-13T14:37:38Z</time>
      </trkpt>
      <trkpt lat="47.68843" lon="6.15749">
        <ele>249.1</ele>
        <time>2020-12-13T14:37:41Z</time>
      </trkpt>
      <trkpt lat="47.68845" lon="6.15743">
        <ele>249.1</ele>
        <time>2020-12-13T14:37:44Z</time>
      </trkpt>
      <trkpt lat="47.68847" lon="6.15736">
        <ele>249</ele>
        <time>2020-12-13T14:37:47Z</time>
      </trkpt>
      <trkpt lat="47.6885" lon="6.15728">
        <ele>249</ele>
        <time>2020-12-13T14:37:49Z</time>
      </trkpt>
      <trkpt lat="47.68853" lon="6.15722">
        <ele>249</ele>
        <time>2020-12-13T14:37:52Z</time>
      </trkpt>
      <trkpt lat="47.68856" lon="6.15713">
        <ele>248.9</ele>
        <time>2020-12-13T14:37:55Z</time>
      </trkpt>
      <trkpt lat="47.6886" lon="6.15706">
        <ele>248.9</ele>
        <time>2020-12-13T14:37:58Z</time>
      </trkpt>
      <trkpt lat="47.68862" lon="6.157">
        <ele>248.8</ele>
        <time>2020-12-13T14:38:00Z</time>
      </trkpt>
      <trkpt lat="47.68866" lon="6.15695">
        <ele>248.7</ele>
        <time>2020-12-13T14:38:03Z</time>
      </trkpt>
      <trkpt lat="47.68869" lon="6.15687">
        <ele>248.7</ele>
        <time>2020-12-13T14:38:05Z</time>
      </trkpt>
      <trkpt lat="47.68873" lon="6.15678">
        <ele>248.7</ele>
        <time>2020-12-13T14:38:08Z</time>
      </trkpt>
      <trkpt lat="47.68877" lon="6.15671">
        <ele>248.7</ele>
        <time>2020-12-13T14:38:11Z</time>
      </trkpt>
      <trkpt lat="47.68881" lon="6.15663">
        <ele>248.8</ele>
        <time>2020-12-13T14:38:14Z</time>
      </trkpt>
      <trkpt lat="47.68885" lon="6.15653">
        <ele>249.2</ele>
        <time>2020-12-13T14:38:16Z</time>
      </trkpt>
      <trkpt lat="47.68888" lon="6.15648">
        <ele>249.4</ele>
        <time>2020-12-13T14:38:18Z</time>
      </trkpt>
      <trkpt lat="47.68892" lon="6.15641">
        <ele>249.7</ele>
        <time>2020-12-13T14:38:20Z</time>
      </trkpt>
      <trkpt lat="47.68895" lon="6.15633">
        <ele>250.1</ele>
        <time>2020-12-13T14:38:22Z</time>
      </trkpt>
      <trkpt lat="47.68898" lon="6.15625">
        <ele>250.5</ele>
        <time>2020-12-13T14:38:24Z</time>
      </trkpt>
      <trkpt lat="47.68901" lon="6.15619">
        <ele>250.8</ele>
        <time>2020-12-13T14:38:27Z</time>
      </trkpt>
      <trkpt lat="47.68904" lon="6.15612">
        <ele>251.2</ele>
        <time>2020-12-13T14:38:29Z</time>
      </trkpt>
      <trkpt lat="47.68907" lon="6.15606">
        <ele>251.5</ele>
        <time>2020-12-13T14:38:30Z</time>
      </trkpt>
      <trkpt lat="47.68909" lon="6.156">
        <ele>251.9</ele>
        <time>2020-12-13T14:38:32Z</time>
      </trkpt>
      <trkpt lat="47.68913" lon="6.15592">
        <ele>252.4</ele>
        <time>2020-12-13T14:38:34Z</time>
      </trkpt>
      <trkpt lat="47.68917" lon="6.15583">
        <ele>253</ele>
        <time>2020-12-13T14:38:36Z</time>
      </trkpt>
      <trkpt lat="47.68919" lon="6.15577">
        <ele>253</ele>
        <time>2020-12-13T14:38:39Z</time>
      </trkpt>
      <trkpt lat="47.68922" lon="6.1557">
        <ele>253</ele>
        <time>2020-12-13T14:38:41Z</time>
      </trkpt>
      <trkpt lat="47.68925" lon="6.15563">
        <ele>252.9</ele>
        <time>2020-12-13T14:38:43Z</time>
      </trkpt>
      <trkpt lat="47.68928" lon="6.15555">
        <ele>252.8</ele>
        <time>2020-12-13T14:38:46Z</time>
      </trkpt>
      <trkpt lat="47.68931" lon="6.1555">
        <ele>252.8</ele>
        <time>2020-12-13T14:38:48Z</time>
      </trkpt>
      <trkpt lat="47.68935" lon="6.15542">
        <ele>252.7</ele>
        <time>2020-12-13T14:38:51Z</time>
      </trkpt>
      <trkpt lat="47.68937" lon="6.15535">
        <ele>252.6</ele>
        <time>2020-12-13T14:38:53Z</time>
      </trkpt>
      <trkpt lat="47.6894" lon="6.15527">
        <ele>252.6</ele>
        <time>2020-12-13T14:38:56Z</time>
      </trkpt>
      <trkpt lat="47.68943" lon="6.1552">
        <ele>252.5</ele>
        <time>2020-12-13T14:38:58Z</time>
      </trkpt>
      <trkpt lat="47.68946" lon="6.15512">
        <ele>252.4</ele>
        <time>2020-12-13T14:39:00Z</time>
      </trkpt>
      <trkpt lat="47.68948" lon="6.15505">
        <ele>252.4</ele>
        <time>2020-12-13T14:39:02Z</time>
      </trkpt>
      <trkpt lat="47.68951" lon="6.15496">
        <ele>252.3</ele>
        <time>2020-12-13T14:39:04Z</time>
      </trkpt>
      <trkpt lat="47.68953" lon="6.15487">
        <ele>252</ele>
        <time>2020-12-13T14:39:06Z</time>
      </trkpt>
      <trkpt lat="47.68956" lon="6.15478">
        <ele>251.8</ele>
        <time>2020-12-13T14:39:08Z</time>
      </trkpt>
      <trkpt lat="47.68959" lon="6.15466">
        <ele>251.5</ele>
        <time>2020-12-13T14:39:10Z</time>
      </trkpt>
      <trkpt lat="47.68962" lon="6.15453">
        <ele>251.1</ele>
        <time>2020-12-13T14:39:12Z</time>
      </trkpt>
      <trkpt lat="47.68964" lon="6.15447">
        <ele>250.9</ele>
        <time>2020-12-13T14:39:13Z</time>
      </trkpt>
      <trkpt lat="47.68966" lon="6.15441">
        <ele>250.7</ele>
        <time>2020-12-13T14:39:14Z</time>
      </trkpt>
      <trkpt lat="47.68968" lon="6.15433">
        <ele>250.4</ele>
        <time>2020-12-13T14:39:15Z</time>
      </trkpt>
      <trkpt lat="47.68971" lon="6.15425">
        <ele>250.2</ele>
        <time>2020-12-13T14:39:16Z</time>
      </trkpt>
      <trkpt lat="47.68973" lon="6.15418">
        <ele>249.9</ele>
        <time>2020-12-13T14:39:17Z</time>
      </trkpt>
      <trkpt lat="47.68976" lon="6.1541">
        <ele>249.9</ele>
        <time>2020-12-13T14:39:19Z</time>
      </trkpt>
      <trkpt lat="47.68984" lon="6.15394">
        <ele>249.9</ele>
        <time>2020-12-13T14:39:20Z</time>
      </trkpt>
      <trkpt lat="47.68988" lon="6.15386">
        <ele>249.9</ele>
        <time>2020-12-13T14:39:21Z</time>
      </trkpt>
      <trkpt lat="47.68992" lon="6.15378">
        <ele>249.8</ele>
        <time>2020-12-13T14:39:22Z</time>
      </trkpt>
      <trkpt lat="47.68996" lon="6.15371">
        <ele>249.6</ele>
        <time>2020-12-13T14:39:23Z</time>
      </trkpt>
      <trkpt lat="47.69" lon="6.15366">
        <ele>249.4</ele>
        <time>2020-12-13T14:39:24Z</time>
      </trkpt>
      <trkpt lat="47.69004" lon="6.15361">
        <ele>249.5</ele>
        <time>2020-12-13T14:39:25Z</time>
      </trkpt>
      <trkpt lat="47.69009" lon="6.15353">
        <ele>249.5</ele>
        <time>2020-12-13T14:39:27Z</time>
      </trkpt>
      <trkpt lat="47.69012" lon="6.15349">
        <ele>249.6</ele>
        <time>2020-12-13T14:39:28Z</time>
      </trkpt>
      <trkpt lat="47.69016" lon="6.15342">
        <ele>249.8</ele>
        <time>2020-12-13T14:39:30Z</time>
      </trkpt>
      <trkpt lat="47.69021" lon="6.15334">
        <ele>249.9</ele>
        <time>2020-12-13T14:39:33Z</time>
      </trkpt>
      <trkpt lat="47.69025" lon="6.15328">
        <ele>250.3</ele>
        <time>2020-12-13T14:39:34Z</time>
      </trkpt>
      <trkpt lat="47.6903" lon="6.1532">
        <ele>250.8</ele>
        <time>2020-12-13T14:39:36Z</time>
      </trkpt>
      <trkpt lat="47.69033" lon="6.15315">
        <ele>251.1</ele>
        <time>2020-12-13T14:39:38Z</time>
      </trkpt>
      <trkpt lat="47.69036" lon="6.15309">
        <ele>251.4</ele>
        <time>2020-12-13T14:39:41Z</time>
      </trkpt>
      <trkpt lat="47.6904" lon="6.15303">
        <ele>251.7</ele>
        <time>2020-12-13T14:39:43Z</time>
      </trkpt>
      <trkpt lat="47.69042" lon="6.15297">
        <ele>252</ele>
        <time>2020-12-13T14:39:46Z</time>
      </trkpt>
      <trkpt lat="47.69044" lon="6.15291">
        <ele>252.4</ele>
        <time>2020-12-13T14:39:47Z</time>
      </trkpt>
      <trkpt lat="47.69046" lon="6.15284">
        <ele>252.8</ele>
        <time>2020-12-13T14:39:50Z</time>
      </trkpt>
      <trkpt lat="47.69048" lon="6.15275">
        <ele>253.4</ele>
        <time>2020-12-13T14:39:53Z</time>
      </trkpt>
      <trkpt lat="47.69049" lon="6.15266">
        <ele>254</ele>
        <time>2020-12-13T14:39:55Z</time>
      </trkpt>
      <trkpt lat="47.6905" lon="6.15255">
        <ele>254.7</ele>
        <time>2020-12-13T14:39:58Z</time>
      </trkpt>
      <trkpt lat="47.69051" lon="6.15247">
        <ele>255.3</ele>
        <time>2020-12-13T14:40:02Z</time>
      </trkpt>
      <trkpt lat="47.69052" lon="6.15237">
        <ele>255.8</ele>
        <time>2020-12-13T14:40:05Z</time>
      </trkpt>
      <trkpt lat="47.69052" lon="6.15229">
        <ele>256.2</ele>
        <time>2020-12-13T14:40:07Z</time>
      </trkpt>
      <trkpt lat="47.69053" lon="6.15221">
        <ele>256.6</ele>
        <time>2020-12-13T14:40:09Z</time>
      </trkpt>
      <trkpt lat="47.69053" lon="6.15212">
        <ele>257</ele>
        <time>2020-12-13T14:40:13Z</time>
      </trkpt>
      <trkpt lat="47.69055" lon="6.15203">
        <ele>257.4</ele>
        <time>2020-12-13T14:40:15Z</time>
      </trkpt>
      <trkpt lat="47.69055" lon="6.15195">
        <ele>257.9</ele>
        <time>2020-12-13T14:40:18Z</time>
      </trkpt>
      <trkpt lat="47.69055" lon="6.15188">
        <ele>258.2</ele>
        <time>2020-12-13T14:40:21Z</time>
      </trkpt>
      <trkpt lat="47.69056" lon="6.15179">
        <ele>258.6</ele>
        <time>2020-12-13T14:40:25Z</time>
      </trkpt>
      <trkpt lat="47.69057" lon="6.15171">
        <ele>258.9</ele>
        <time>2020-12-13T14:40:27Z</time>
      </trkpt>
      <trkpt lat="47.69057" lon="6.15164">
        <ele>259.1</ele>
        <time>2020-12-13T14:40:30Z</time>
      </trkpt>
      <trkpt lat="47.69058" lon="6.15154">
        <ele>259.2</ele>
        <time>2020-12-13T14:40:34Z</time>
      </trkpt>
      <trkpt lat="47.69058" lon="6.15146">
        <ele>259.3</ele>
        <time>2020-12-13T14:40:38Z</time>
      </trkpt>
      <trkpt lat="47.69057" lon="6.15139">
        <ele>259.5</ele>
        <time>2020-12-13T14:40:41Z</time>
      </trkpt>
      <trkpt lat="47.69056" lon="6.1513">
        <ele>259.7</ele>
        <time>2020-12-13T14:40:44Z</time>
      </trkpt>
      <trkpt lat="47.69056" lon="6.15121">
        <ele>259.8</ele>
        <time>2020-12-13T14:40:47Z</time>
      </trkpt>
      <trkpt lat="47.69056" lon="6.15112">
        <ele>260</ele>
        <time>2020-12-13T14:40:50Z</time>
      </trkpt>
      <trkpt lat="47.69055" lon="6.15103">
        <ele>260.2</ele>
        <time>2020-12-13T14:40:53Z</time>
      </trkpt>
      <trkpt lat="47.69055" lon="6.15096">
        <ele>260.3</ele>
        <time>2020-12-13T14:40:56Z</time>
      </trkpt>
      <trkpt lat="47.69055" lon="6.15087">
        <ele>260.4</ele>
        <time>2020-12-13T14:40:58Z</time>
      </trkpt>
      <trkpt lat="47.69054" lon="6.15079">
        <ele>260.6</ele>
        <time>2020-12-13T14:41:02Z</time>
      </trkpt>
      <trkpt lat="47.69053" lon="6.15069">
        <ele>260.8</ele>
        <time>2020-12-13T14:41:04Z</time>
      </trkpt>
      <trkpt lat="47.69053" lon="6.15063">
        <ele>260.9</ele>
        <time>2020-12-13T14:41:06Z</time>
      </trkpt>
      <trkpt lat="47.69052" lon="6.15054">
        <ele>261.1</ele>
        <time>2020-12-13T14:41:09Z</time>
      </trkpt>
      <trkpt lat="47.69052" lon="6.15044">
        <ele>261.2</ele>
        <time>2020-12-13T14:41:12Z</time>
      </trkpt>
      <trkpt lat="47.69052" lon="6.15037">
        <ele>261.3</ele>
        <time>2020-12-13T14:41:14Z</time>
      </trkpt>
      <trkpt lat="47.69052" lon="6.15026">
        <ele>261.4</ele>
        <time>2020-12-13T14:41:15Z</time>
      </trkpt>
      <trkpt lat="47.69052" lon="6.15014">
        <ele>261.5</ele>
        <time>2020-12-13T14:41:18Z</time>
      </trkpt>
      <trkpt lat="47.69052" lon="6.15007">
        <ele>261.6</ele>
        <time>2020-12-13T14:41:18Z</time>
      </trkpt>
      <trkpt lat="47.69051" lon="6.14997">
        <ele>261.8</ele>
        <time>2020-12-13T14:41:20Z</time>
      </trkpt>
      <trkpt lat="47.6905" lon="6.14989">
        <ele>262.2</ele>
        <time>2020-12-13T14:41:22Z</time>
      </trkpt>
      <trkpt lat="47.6905" lon="6.14975">
        <ele>262.7</ele>
        <time>2020-12-13T14:41:23Z</time>
      </trkpt>
      <trkpt lat="47.69049" lon="6.14963">
        <ele>263.1</ele>
        <time>2020-12-13T14:41:26Z</time>
      </trkpt>
      <trkpt lat="47.69049" lon="6.14954">
        <ele>263.4</ele>
        <time>2020-12-13T14:41:26Z</time>
      </trkpt>
      <trkpt lat="47.69048" lon="6.14942">
        <ele>263.8</ele>
        <time>2020-12-13T14:41:29Z</time>
      </trkpt>
      <trkpt lat="47.69047" lon="6.14934">
        <ele>264</ele>
        <time>2020-12-13T14:41:30Z</time>
      </trkpt>
      <trkpt lat="47.69046" lon="6.14927">
        <ele>264.3</ele>
        <time>2020-12-13T14:41:31Z</time>
      </trkpt>
      <trkpt lat="47.69046" lon="6.1492">
        <ele>264.5</ele>
        <time>2020-12-13T14:41:33Z</time>
      </trkpt>
      <trkpt lat="47.69045" lon="6.1491">
        <ele>264.9</ele>
        <time>2020-12-13T14:41:35Z</time>
      </trkpt>
      <trkpt lat="47.69044" lon="6.14898">
        <ele>265.6</ele>
        <time>2020-12-13T14:41:38Z</time>
      </trkpt>
      <trkpt lat="47.69043" lon="6.14891">
        <ele>266</ele>
        <time>2020-12-13T14:41:39Z</time>
      </trkpt>
      <trkpt lat="47.69041" lon="6.14885">
        <ele>266.4</ele>
        <time>2020-12-13T14:41:41Z</time>
      </trkpt>
      <trkpt lat="47.6904" lon="6.14875">
        <ele>266.9</ele>
        <time>2020-12-13T14:41:44Z</time>
      </trkpt>
      <trkpt lat="47.69038" lon="6.14868">
        <ele>267.3</ele>
        <time>2020-12-13T14:41:45Z</time>
      </trkpt>
      <trkpt lat="47.69037" lon="6.14859">
        <ele>267.8</ele>
        <time>2020-12-13T14:41:47Z</time>
      </trkpt>
      <trkpt lat="47.69037" lon="6.14851">
        <ele>268.2</ele>
        <time>2020-12-13T14:41:49Z</time>
      </trkpt>
      <trkpt lat="47.69036" lon="6.14842">
        <ele>268.7</ele>
        <time>2020-12-13T14:41:52Z</time>
      </trkpt>
      <trkpt lat="47.69034" lon="6.14834">
        <ele>269</ele>
        <time>2020-12-13T14:41:54Z</time>
      </trkpt>
      <trkpt lat="47.69033" lon="6.14827">
        <ele>269.4</ele>
        <time>2020-12-13T14:41:57Z</time>
      </trkpt>
      <trkpt lat="47.69032" lon="6.14819">
        <ele>269.8</ele>
        <time>2020-12-13T14:41:58Z</time>
      </trkpt>
      <trkpt lat="47.69031" lon="6.14812">
        <ele>270.2</ele>
        <time>2020-12-13T14:42:01Z</time>
      </trkpt>
      <trkpt lat="47.6903" lon="6.14802">
        <ele>270.8</ele>
        <time>2020-12-13T14:42:03Z</time>
      </trkpt>
      <trkpt lat="47.6903" lon="6.14794">
        <ele>271.3</ele>
        <time>2020-12-13T14:42:06Z</time>
      </trkpt>
      <trkpt lat="47.69028" lon="6.14787">
        <ele>271.6</ele>
        <time>2020-12-13T14:42:09Z</time>
      </trkpt>
      <trkpt lat="47.69028" lon="6.14778">
        <ele>272.2</ele>
        <time>2020-12-13T14:42:11Z</time>
      </trkpt>
      <trkpt lat="47.69027" lon="6.1477">
        <ele>272.6</ele>
        <time>2020-12-13T14:42:14Z</time>
      </trkpt>
      <trkpt lat="47.69025" lon="6.14761">
        <ele>273.1</ele>
        <time>2020-12-13T14:42:19Z</time>
      </trkpt>
      <trkpt lat="47.69025" lon="6.14754">
        <ele>273.5</ele>
        <time>2020-12-13T14:42:21Z</time>
      </trkpt>
      <trkpt lat="47.69024" lon="6.14743">
        <ele>273.8</ele>
        <time>2020-12-13T14:42:24Z</time>
      </trkpt>
      <trkpt lat="47.69023" lon="6.14734">
        <ele>273.8</ele>
        <time>2020-12-13T14:42:27Z</time>
      </trkpt>
      <trkpt lat="47.69022" lon="6.14726">
        <ele>273.9</ele>
        <time>2020-12-13T14:42:29Z</time>
      </trkpt>
      <trkpt lat="47.69022" lon="6.14717">
        <ele>274</ele>
        <time>2020-12-13T14:42:32Z</time>
      </trkpt>
      <trkpt lat="47.69022" lon="6.14709">
        <ele>274.1</ele>
        <time>2020-12-13T14:42:35Z</time>
      </trkpt>
      <trkpt lat="47.69021" lon="6.147">
        <ele>274.1</ele>
        <time>2020-12-13T14:42:38Z</time>
      </trkpt>
      <trkpt lat="47.69021" lon="6.14693">
        <ele>274.2</ele>
        <time>2020-12-13T14:42:40Z</time>
      </trkpt>
      <trkpt lat="47.69021" lon="6.14685">
        <ele>274.3</ele>
        <time>2020-12-13T14:42:43Z</time>
      </trkpt>
      <trkpt lat="47.69021" lon="6.14677">
        <ele>274.4</ele>
        <time>2020-12-13T14:42:45Z</time>
      </trkpt>
      <trkpt lat="47.6902" lon="6.14669">
        <ele>274.4</ele>
        <time>2020-12-13T14:42:48Z</time>
      </trkpt>
      <trkpt lat="47.69019" lon="6.14661">
        <ele>274.3</ele>
        <time>2020-12-13T14:42:52Z</time>
      </trkpt>
      <trkpt lat="47.69018" lon="6.14652">
        <ele>274.2</ele>
        <time>2020-12-13T14:42:54Z</time>
      </trkpt>
      <trkpt lat="47.69018" lon="6.14644">
        <ele>274</ele>
        <time>2020-12-13T14:42:57Z</time>
      </trkpt>
      <trkpt lat="47.69017" lon="6.14637">
        <ele>274</ele>
        <time>2020-12-13T14:43:00Z</time>
      </trkpt>
      <trkpt lat="47.69017" lon="6.14628">
        <ele>273.9</ele>
        <time>2020-12-13T14:43:03Z</time>
      </trkpt>
      <trkpt lat="47.69017" lon="6.14621">
        <ele>273.8</ele>
        <time>2020-12-13T14:43:06Z</time>
      </trkpt>
      <trkpt lat="47.69016" lon="6.14613">
        <ele>273.7</ele>
        <time>2020-12-13T14:43:08Z</time>
      </trkpt>
      <trkpt lat="47.69016" lon="6.14605">
        <ele>273.6</ele>
        <time>2020-12-13T14:43:11Z</time>
      </trkpt>
      <trkpt lat="47.69016" lon="6.14597">
        <ele>273.5</ele>
        <time>2020-12-13T14:43:14Z</time>
      </trkpt>
      <trkpt lat="47.69014" lon="6.14589">
        <ele>273.4</ele>
        <time>2020-12-13T14:43:16Z</time>
      </trkpt>
      <trkpt lat="47.69013" lon="6.14581">
        <ele>273.4</ele>
        <time>2020-12-13T14:43:19Z</time>
      </trkpt>
      <trkpt lat="47.69013" lon="6.14574">
        <ele>273.5</ele>
        <time>2020-12-13T14:43:22Z</time>
      </trkpt>
      <trkpt lat="47.69012" lon="6.14566">
        <ele>273.5</ele>
        <time>2020-12-13T14:43:25Z</time>
      </trkpt>
      <trkpt lat="47.69011" lon="6.14559">
        <ele>273.6</ele>
        <time>2020-12-13T14:43:27Z</time>
      </trkpt>
      <trkpt lat="47.6901" lon="6.14551">
        <ele>273.7</ele>
        <time>2020-12-13T14:43:30Z</time>
      </trkpt>
      <trkpt lat="47.6901" lon="6.14544">
        <ele>273.8</ele>
        <time>2020-12-13T14:43:33Z</time>
      </trkpt>
      <trkpt lat="47.69009" lon="6.14537">
        <ele>273.9</ele>
        <time>2020-12-13T14:43:35Z</time>
      </trkpt>
      <trkpt lat="47.69009" lon="6.1453">
        <ele>274</ele>
        <time>2020-12-13T14:43:38Z</time>
      </trkpt>
      <trkpt lat="47.69008" lon="6.14521">
        <ele>274.1</ele>
        <time>2020-12-13T14:43:41Z</time>
      </trkpt>
      <trkpt lat="47.69008" lon="6.14513">
        <ele>274.2</ele>
        <time>2020-12-13T14:43:44Z</time>
      </trkpt>
      <trkpt lat="47.69008" lon="6.14506">
        <ele>274.3</ele>
        <time>2020-12-13T14:43:48Z</time>
      </trkpt>
      <trkpt lat="47.69008" lon="6.14499">
        <ele>274.4</ele>
        <time>2020-12-13T14:43:50Z</time>
      </trkpt>
      <trkpt lat="47.69008" lon="6.1449">
        <ele>274.4</ele>
        <time>2020-12-13T14:43:53Z</time>
      </trkpt>
      <trkpt lat="47.69008" lon="6.14483">
        <ele>274.4</ele>
        <time>2020-12-13T14:43:56Z</time>
      </trkpt>
      <trkpt lat="47.69008" lon="6.14476">
        <ele>274.4</ele>
        <time>2020-12-13T14:44:00Z</time>
      </trkpt>
      <trkpt lat="47.69008" lon="6.14469">
        <ele>274.4</ele>
        <time>2020-12-13T14:44:02Z</time>
      </trkpt>
      <trkpt lat="47.69007" lon="6.14462">
        <ele>274.3</ele>
        <time>2020-12-13T14:44:06Z</time>
      </trkpt>
      <trkpt lat="47.69007" lon="6.14454">
        <ele>274.3</ele>
        <time>2020-12-13T14:44:11Z</time>
      </trkpt>
      <trkpt lat="47.69009" lon="6.14446">
        <ele>274.4</ele>
        <time>2020-12-13T14:44:14Z</time>
      </trkpt>
      <trkpt lat="47.69008" lon="6.14438">
        <ele>274.4</ele>
        <time>2020-12-13T14:44:18Z</time>
      </trkpt>
      <trkpt lat="47.69008" lon="6.14431">
        <ele>274.4</ele>
        <time>2020-12-13T14:44:24Z</time>
      </trkpt>
      <trkpt lat="47.69008" lon="6.14421">
        <ele>274.4</ele>
        <time>2020-12-13T14:44:27Z</time>
      </trkpt>
      <trkpt lat="47.69008" lon="6.14413">
        <ele>274.6</ele>
        <time>2020-12-13T14:44:32Z</time>
      </trkpt>
      <trkpt lat="47.69009" lon="6.14405">
        <ele>275.2</ele>
        <time>2020-12-13T14:44:36Z</time>
      </trkpt>
      <trkpt lat="47.69009" lon="6.14397">
        <ele>275.7</ele>
        <time>2020-12-13T14:44:40Z</time>
      </trkpt>
      <trkpt lat="47.69009" lon="6.1439">
        <ele>276.2</ele>
        <time>2020-12-13T14:44:44Z</time>
      </trkpt>
      <trkpt lat="47.69009" lon="6.14383">
        <ele>276.6</ele>
        <time>2020-12-13T14:44:47Z</time>
      </trkpt>
      <trkpt lat="47.69009" lon="6.14376">
        <ele>277.1</ele>
        <time>2020-12-13T14:44:53Z</time>
      </trkpt>
      <trkpt lat="47.69009" lon="6.14369">
        <ele>277.6</ele>
        <time>2020-12-13T14:44:56Z</time>
      </trkpt>
      <trkpt lat="47.69009" lon="6.14361">
        <ele>278.1</ele>
        <time>2020-12-13T14:45:00Z</time>
      </trkpt>
      <trkpt lat="47.69009" lon="6.14353">
        <ele>278.6</ele>
        <time>2020-12-13T14:45:04Z</time>
      </trkpt>
      <trkpt lat="47.6901" lon="6.14346">
        <ele>279</ele>
        <time>2020-12-13T14:45:07Z</time>
      </trkpt>
      <trkpt lat="47.69008" lon="6.14339">
        <ele>279.5</ele>
        <time>2020-12-13T14:45:11Z</time>
      </trkpt>
      <trkpt lat="47.69009" lon="6.14332">
        <ele>280</ele>
        <time>2020-12-13T14:45:15Z</time>
      </trkpt>
      <trkpt lat="47.6901" lon="6.14325">
        <ele>280.3</ele>
        <time>2020-12-13T14:45:19Z</time>
      </trkpt>
      <trkpt lat="47.69011" lon="6.14318">
        <ele>280.5</ele>
        <time>2020-12-13T14:45:22Z</time>
      </trkpt>
      <trkpt lat="47.69011" lon="6.1431">
        <ele>280.9</ele>
        <time>2020-12-13T14:45:26Z</time>
      </trkpt>
      <trkpt lat="47.69011" lon="6.14302">
        <ele>281.2</ele>
        <time>2020-12-13T14:45:30Z</time>
      </trkpt>
      <trkpt lat="47.69012" lon="6.14295">
        <ele>281.5</ele>
        <time>2020-12-13T14:45:34Z</time>
      </trkpt>
      <trkpt lat="47.69012" lon="6.14287">
        <ele>281.8</ele>
        <time>2020-12-13T14:45:38Z</time>
      </trkpt>
      <trkpt lat="47.69014" lon="6.14278">
        <ele>282.1</ele>
        <time>2020-12-13T14:45:42Z</time>
      </trkpt>
      <trkpt lat="47.69012" lon="6.14271">
        <ele>282.5</ele>
        <time>2020-12-13T14:45:47Z</time>
      </trkpt>
      <trkpt lat="47.69012" lon="6.14264">
        <ele>282.8</ele>
        <time>2020-12-13T14:45:52Z</time>
      </trkpt>
      <trkpt lat="47.69014" lon="6.14258">
        <ele>283</ele>
        <time>2020-12-13T14:45:56Z</time>
      </trkpt>
      <trkpt lat="47.69013" lon="6.14251">
        <ele>283.3</ele>
        <time>2020-12-13T14:45:58Z</time>
      </trkpt>
      <trkpt lat="47.69012" lon="6.14244">
        <ele>283.6</ele>
        <time>2020-12-13T14:46:02Z</time>
      </trkpt>
      <trkpt lat="47.69011" lon="6.14237">
        <ele>283.8</ele>
        <time>2020-12-13T14:46:05Z</time>
      </trkpt>
      <trkpt lat="47.69014" lon="6.14232">
        <ele>283.8</ele>
        <time>2020-12-13T14:46:09Z</time>
      </trkpt>
      <trkpt lat="47.69018" lon="6.14223">
        <ele>283.8</ele>
        <time>2020-12-13T14:46:14Z</time>
      </trkpt>
      <trkpt lat="47.69017" lon="6.14216">
        <ele>284</ele>
        <time>2020-12-13T14:46:18Z</time>
      </trkpt>
      <trkpt lat="47.69018" lon="6.14208">
        <ele>284.2</ele>
        <time>2020-12-13T14:46:21Z</time>
      </trkpt>
      <trkpt lat="47.69018" lon="6.14199">
        <ele>284.4</ele>
        <time>2020-12-13T14:46:25Z</time>
      </trkpt>
      <trkpt lat="47.69018" lon="6.14192">
        <ele>284.5</ele>
        <time>2020-12-13T14:46:28Z</time>
      </trkpt>
      <trkpt lat="47.69019" lon="6.14185">
        <ele>284.7</ele>
        <time>2020-12-13T14:46:31Z</time>
      </trkpt>
      <trkpt lat="47.6902" lon="6.14178">
        <ele>284.8</ele>
        <time>2020-12-13T14:46:34Z</time>
      </trkpt>
      <trkpt lat="47.69021" lon="6.14169">
        <ele>284.9</ele>
        <time>2020-12-13T14:46:38Z</time>
      </trkpt>
      <trkpt lat="47.69022" lon="6.14161">
        <ele>285.1</ele>
        <time>2020-12-13T14:46:41Z</time>
      </trkpt>
      <trkpt lat="47.69022" lon="6.14154">
        <ele>285.2</ele>
        <time>2020-12-13T14:46:42Z</time>
      </trkpt>
      <trkpt lat="47.69023" lon="6.14147">
        <ele>285.4</ele>
        <time>2020-12-13T14:46:46Z</time>
      </trkpt>
      <trkpt lat="47.69024" lon="6.14135">
        <ele>285.6</ele>
        <time>2020-12-13T14:46:48Z</time>
      </trkpt>
      <trkpt lat="47.69024" lon="6.14125">
        <ele>285.8</ele>
        <time>2020-12-13T14:46:52Z</time>
      </trkpt>
      <trkpt lat="47.69025" lon="6.14117">
        <ele>286</ele>
        <time>2020-12-13T14:46:54Z</time>
      </trkpt>
      <trkpt lat="47.69025" lon="6.1411">
        <ele>286.2</ele>
        <time>2020-12-13T14:46:57Z</time>
      </trkpt>
      <trkpt lat="47.69025" lon="6.14103">
        <ele>286.3</ele>
        <time>2020-12-13T14:46:59Z</time>
      </trkpt>
      <trkpt lat="47.69025" lon="6.14095">
        <ele>286.5</ele>
        <time>2020-12-13T14:47:02Z</time>
      </trkpt>
      <trkpt lat="47.69024" lon="6.14086">
        <ele>286.8</ele>
        <time>2020-12-13T14:47:05Z</time>
      </trkpt>
      <trkpt lat="47.69027" lon="6.14078">
        <ele>286.9</ele>
        <time>2020-12-13T14:47:08Z</time>
      </trkpt>
      <trkpt lat="47.69027" lon="6.14068">
        <ele>287.2</ele>
        <time>2020-12-13T14:47:11Z</time>
      </trkpt>
      <trkpt lat="47.69028" lon="6.1406">
        <ele>287.5</ele>
        <time>2020-12-13T14:47:14Z</time>
      </trkpt>
      <trkpt lat="47.69028" lon="6.1405">
        <ele>287.9</ele>
        <time>2020-12-13T14:47:17Z</time>
      </trkpt>
      <trkpt lat="47.69028" lon="6.1404">
        <ele>288.2</ele>
        <time>2020-12-13T14:47:20Z</time>
      </trkpt>
      <trkpt lat="47.69029" lon="6.14031">
        <ele>288.5</ele>
        <time>2020-12-13T14:47:23Z</time>
      </trkpt>
      <trkpt lat="47.69029" lon="6.14022">
        <ele>288.8</ele>
        <time>2020-12-13T14:47:27Z</time>
      </trkpt>
      <trkpt lat="47.69029" lon="6.14015">
        <ele>289.1</ele>
        <time>2020-12-13T14:47:28Z</time>
      </trkpt>
      <trkpt lat="47.6903" lon="6.14007">
        <ele>289.3</ele>
        <time>2020-12-13T14:47:31Z</time>
      </trkpt>
      <trkpt lat="47.6903" lon="6.13999">
        <ele>289.6</ele>
        <time>2020-12-13T14:47:34Z</time>
      </trkpt>
      <trkpt lat="47.6903" lon="6.13991">
        <ele>289.8</ele>
        <time>2020-12-13T14:47:36Z</time>
      </trkpt>
      <trkpt lat="47.6903" lon="6.13982">
        <ele>290</ele>
        <time>2020-12-13T14:47:39Z</time>
      </trkpt>
      <trkpt lat="47.69031" lon="6.13974">
        <ele>290.2</ele>
        <time>2020-12-13T14:47:43Z</time>
      </trkpt>
      <trkpt lat="47.69031" lon="6.13966">
        <ele>290.5</ele>
        <time>2020-12-13T14:47:46Z</time>
      </trkpt>
      <trkpt lat="47.69032" lon="6.13958">
        <ele>290.7</ele>
        <time>2020-12-13T14:47:48Z</time>
      </trkpt>
      <trkpt lat="47.69032" lon="6.13951">
        <ele>290.9</ele>
        <time>2020-12-13T14:47:51Z</time>
      </trkpt>
      <trkpt lat="47.69032" lon="6.13942">
        <ele>291.1</ele>
        <time>2020-12-13T14:47:54Z</time>
      </trkpt>
      <trkpt lat="47.69033" lon="6.13932">
        <ele>291.4</ele>
        <time>2020-12-13T14:47:57Z</time>
      </trkpt>
      <trkpt lat="47.69033" lon="6.13923">
        <ele>291.6</ele>
        <time>2020-12-13T14:48:00Z</time>
      </trkpt>
      <trkpt lat="47.69034" lon="6.13915">
        <ele>291.8</ele>
        <time>2020-12-13T14:48:03Z</time>
      </trkpt>
      <trkpt lat="47.69034" lon="6.13907">
        <ele>292</ele>
        <time>2020-12-13T14:48:06Z</time>
      </trkpt>
      <trkpt lat="47.69033" lon="6.13899">
        <ele>292.2</ele>
        <time>2020-12-13T14:48:09Z</time>
      </trkpt>
      <trkpt lat="47.69035" lon="6.1389">
        <ele>292.3</ele>
        <time>2020-12-13T14:48:12Z</time>
      </trkpt>
      <trkpt lat="47.69035" lon="6.13878">
        <ele>292.5</ele>
        <time>2020-12-13T14:48:16Z</time>
      </trkpt>
      <trkpt lat="47.69035" lon="6.13869">
        <ele>292.6</ele>
        <time>2020-12-13T14:48:19Z</time>
      </trkpt>
      <trkpt lat="47.69035" lon="6.13862">
        <ele>292.8</ele>
        <time>2020-12-13T14:48:21Z</time>
      </trkpt>
      <trkpt lat="47.69035" lon="6.13852">
        <ele>293</ele>
        <time>2020-12-13T14:48:24Z</time>
      </trkpt>
      <trkpt lat="47.69034" lon="6.13845">
        <ele>293.1</ele>
        <time>2020-12-13T14:48:26Z</time>
      </trkpt>
      <trkpt lat="47.69034" lon="6.13836">
        <ele>293.3</ele>
        <time>2020-12-13T14:48:28Z</time>
      </trkpt>
      <trkpt lat="47.69035" lon="6.13829">
        <ele>293.4</ele>
        <time>2020-12-13T14:48:31Z</time>
      </trkpt>
      <trkpt lat="47.69036" lon="6.13821">
        <ele>293.4</ele>
        <time>2020-12-13T14:48:34Z</time>
      </trkpt>
      <trkpt lat="47.69037" lon="6.13812">
        <ele>293.5</ele>
        <time>2020-12-13T14:48:37Z</time>
      </trkpt>
      <trkpt lat="47.69037" lon="6.13803">
        <ele>293.5</ele>
        <time>2020-12-13T14:48:39Z</time>
      </trkpt>
      <trkpt lat="47.69037" lon="6.13796">
        <ele>293.6</ele>
        <time>2020-12-13T14:48:42Z</time>
      </trkpt>
      <trkpt lat="47.69038" lon="6.13789">
        <ele>293.7</ele>
        <time>2020-12-13T14:48:44Z</time>
      </trkpt>
      <trkpt lat="47.69037" lon="6.13781">
        <ele>293.8</ele>
        <time>2020-12-13T14:48:46Z</time>
      </trkpt>
      <trkpt lat="47.69038" lon="6.1377">
        <ele>293.9</ele>
        <time>2020-12-13T14:48:49Z</time>
      </trkpt>
      <trkpt lat="47.69038" lon="6.13757">
        <ele>294</ele>
        <time>2020-12-13T14:48:52Z</time>
      </trkpt>
      <trkpt lat="47.69039" lon="6.13747">
        <ele>294.1</ele>
        <time>2020-12-13T14:48:54Z</time>
      </trkpt>
      <trkpt lat="47.69038" lon="6.13736">
        <ele>294.3</ele>
        <time>2020-12-13T14:48:56Z</time>
      </trkpt>
      <trkpt lat="47.69038" lon="6.13726">
        <ele>294.5</ele>
        <time>2020-12-13T14:48:58Z</time>
      </trkpt>
      <trkpt lat="47.69038" lon="6.13718">
        <ele>294.6</ele>
        <time>2020-12-13T14:49:00Z</time>
      </trkpt>
      <trkpt lat="47.69039" lon="6.13707">
        <ele>294.8</ele>
        <time>2020-12-13T14:49:02Z</time>
      </trkpt>
      <trkpt lat="47.6904" lon="6.13699">
        <ele>294.9</ele>
        <time>2020-12-13T14:49:04Z</time>
      </trkpt>
      <trkpt lat="47.69041" lon="6.13687">
        <ele>295.1</ele>
        <time>2020-12-13T14:49:07Z</time>
      </trkpt>
      <trkpt lat="47.6904" lon="6.13681">
        <ele>295.2</ele>
        <time>2020-12-13T14:49:08Z</time>
      </trkpt>
      <trkpt lat="47.6904" lon="6.1367">
        <ele>295.4</ele>
        <time>2020-12-13T14:49:11Z</time>
      </trkpt>
      <trkpt lat="47.69039" lon="6.13662">
        <ele>295.5</ele>
        <time>2020-12-13T14:49:13Z</time>
      </trkpt>
      <trkpt lat="47.6904" lon="6.13653">
        <ele>295.5</ele>
        <time>2020-12-13T14:49:15Z</time>
      </trkpt>
      <trkpt lat="47.6904" lon="6.13644">
        <ele>295.5</ele>
        <time>2020-12-13T14:49:17Z</time>
      </trkpt>
      <trkpt lat="47.6904" lon="6.13636">
        <ele>295.5</ele>
        <time>2020-12-13T14:49:19Z</time>
      </trkpt>
      <trkpt lat="47.69041" lon="6.13628">
        <ele>295.5</ele>
        <time>2020-12-13T14:49:20Z</time>
      </trkpt>
      <trkpt lat="47.69041" lon="6.13621">
        <ele>295.5</ele>
        <time>2020-12-13T14:49:22Z</time>
      </trkpt>
      <trkpt lat="47.69041" lon="6.13613">
        <ele>295.5</ele>
        <time>2020-12-13T14:49:23Z</time>
      </trkpt>
      <trkpt lat="47.6904" lon="6.13603">
        <ele>295.5</ele>
        <time>2020-12-13T14:49:26Z</time>
      </trkpt>
      <trkpt lat="47.6904" lon="6.13596">
        <ele>295.5</ele>
        <time>2020-12-13T14:49:27Z</time>
      </trkpt>
      <trkpt lat="47.6904" lon="6.13588">
        <ele>295.5</ele>
        <time>2020-12-13T14:49:30Z</time>
      </trkpt>
      <trkpt lat="47.69042" lon="6.13578">
        <ele>295.6</ele>
        <time>2020-12-13T14:49:33Z</time>
      </trkpt>
      <trkpt lat="47.69043" lon="6.13572">
        <ele>295.7</ele>
        <time>2020-12-13T14:49:35Z</time>
      </trkpt>
      <trkpt lat="47.69044" lon="6.13565">
        <ele>295.9</ele>
        <time>2020-12-13T14:49:36Z</time>
      </trkpt>
      <trkpt lat="47.69044" lon="6.13556">
        <ele>296.1</ele>
        <time>2020-12-13T14:49:39Z</time>
      </trkpt>
      <trkpt lat="47.69045" lon="6.13548">
        <ele>296.2</ele>
        <time>2020-12-13T14:49:41Z</time>
      </trkpt>
      <trkpt lat="47.69046" lon="6.13539">
        <ele>296.4</ele>
        <time>2020-12-13T14:49:43Z</time>
      </trkpt>
      <trkpt lat="47.69047" lon="6.13529">
        <ele>296.7</ele>
        <time>2020-12-13T14:49:45Z</time>
      </trkpt>
      <trkpt lat="47.69048" lon="6.13522">
        <ele>296.9</ele>
        <time>2020-12-13T14:49:47Z</time>
      </trkpt>
      <trkpt lat="47.69049" lon="6.13515">
        <ele>297</ele>
        <time>2020-12-13T14:49:49Z</time>
      </trkpt>
      <trkpt lat="47.69049" lon="6.13508">
        <ele>297.2</ele>
        <time>2020-12-13T14:49:51Z</time>
      </trkpt>
      <trkpt lat="47.69051" lon="6.13501">
        <ele>297.4</ele>
        <time>2020-12-13T14:49:53Z</time>
      </trkpt>
      <trkpt lat="47.69052" lon="6.13493">
        <ele>297.5</ele>
        <time>2020-12-13T14:49:56Z</time>
      </trkpt>
      <trkpt lat="47.69054" lon="6.13486">
        <ele>297.6</ele>
        <time>2020-12-13T14:49:58Z</time>
      </trkpt>
      <trkpt lat="47.69054" lon="6.13478">
        <ele>297.6</ele>
        <time>2020-12-13T14:50:00Z</time>
      </trkpt>
      <trkpt lat="47.69055" lon="6.13467">
        <ele>297.7</ele>
        <time>2020-12-13T14:50:04Z</time>
      </trkpt>
      <trkpt lat="47.69057" lon="6.13459">
        <ele>297.7</ele>
        <time>2020-12-13T14:50:07Z</time>
      </trkpt>
      <trkpt lat="47.69058" lon="6.13452">
        <ele>297.7</ele>
        <time>2020-12-13T14:50:09Z</time>
      </trkpt>
      <trkpt lat="47.6906" lon="6.13444">
        <ele>297.8</ele>
        <time>2020-12-13T14:50:11Z</time>
      </trkpt>
      <trkpt lat="47.69061" lon="6.13432">
        <ele>297.8</ele>
        <time>2020-12-13T14:50:14Z</time>
      </trkpt>
      <trkpt lat="47.69062" lon="6.13425">
        <ele>297.8</ele>
        <time>2020-12-13T14:50:16Z</time>
      </trkpt>
      <trkpt lat="47.69063" lon="6.13415">
        <ele>297.8</ele>
        <time>2020-12-13T14:50:19Z</time>
      </trkpt>
      <trkpt lat="47.69065" lon="6.13405">
        <ele>297.9</ele>
        <time>2020-12-13T14:50:22Z</time>
      </trkpt>
      <trkpt lat="47.69066" lon="6.13394">
        <ele>298.1</ele>
        <time>2020-12-13T14:50:25Z</time>
      </trkpt>
      <trkpt lat="47.69067" lon="6.13384">
        <ele>298.2</ele>
        <time>2020-12-13T14:50:28Z</time>
      </trkpt>
      <trkpt lat="47.69069" lon="6.13374">
        <ele>298.3</ele>
        <time>2020-12-13T14:50:31Z</time>
      </trkpt>
      <trkpt lat="47.69069" lon="6.13367">
        <ele>298.4</ele>
        <time>2020-12-13T14:50:33Z</time>
      </trkpt>
      <trkpt lat="47.69071" lon="6.1336">
        <ele>298.5</ele>
        <time>2020-12-13T14:50:35Z</time>
      </trkpt>
      <trkpt lat="47.69072" lon="6.13352">
        <ele>298.6</ele>
        <time>2020-12-13T14:50:37Z</time>
      </trkpt>
      <trkpt lat="47.69073" lon="6.13344">
        <ele>298.7</ele>
        <time>2020-12-13T14:50:39Z</time>
      </trkpt>
      <trkpt lat="47.69075" lon="6.13335">
        <ele>298.9</ele>
        <time>2020-12-13T14:50:41Z</time>
      </trkpt>
      <trkpt lat="47.69078" lon="6.13327">
        <ele>298.8</ele>
        <time>2020-12-13T14:50:43Z</time>
      </trkpt>
      <trkpt lat="47.69083" lon="6.13318">
        <ele>298.6</ele>
        <time>2020-12-13T14:50:45Z</time>
      </trkpt>
      <trkpt lat="47.69089" lon="6.1331">
        <ele>298.2</ele>
        <time>2020-12-13T14:50:47Z</time>
      </trkpt>
      <trkpt lat="47.69096" lon="6.13303">
        <ele>297.7</ele>
        <time>2020-12-13T14:50:49Z</time>
      </trkpt>
      <trkpt lat="47.69103" lon="6.13297">
        <ele>297.3</ele>
        <time>2020-12-13T14:50:51Z</time>
      </trkpt>
      <trkpt lat="47.6911" lon="6.1329">
        <ele>296.9</ele>
        <time>2020-12-13T14:50:53Z</time>
      </trkpt>
      <trkpt lat="47.69114" lon="6.13281">
        <ele>296.5</ele>
        <time>2020-12-13T14:50:55Z</time>
      </trkpt>
      <trkpt lat="47.69115" lon="6.13269">
        <ele>296.2</ele>
        <time>2020-12-13T14:50:57Z</time>
      </trkpt>
      <trkpt lat="47.69114" lon="6.13257">
        <ele>296</ele>
        <time>2020-12-13T14:50:59Z</time>
      </trkpt>
      <trkpt lat="47.69113" lon="6.13245">
        <ele>295.9</ele>
        <time>2020-12-13T14:51:01Z</time>
      </trkpt>
      <trkpt lat="47.69111" lon="6.13235">
        <ele>295.9</ele>
        <time>2020-12-13T14:51:03Z</time>
      </trkpt>
      <trkpt lat="47.69108" lon="6.13224">
        <ele>295.9</ele>
        <time>2020-12-13T14:51:05Z</time>
      </trkpt>
      <trkpt lat="47.69107" lon="6.13217">
        <ele>295.9</ele>
        <time>2020-12-13T14:51:06Z</time>
      </trkpt>
      <trkpt lat="47.69105" lon="6.1321">
        <ele>295.9</ele>
        <time>2020-12-13T14:51:07Z</time>
      </trkpt>
      <trkpt lat="47.69104" lon="6.13197">
        <ele>295.8</ele>
        <time>2020-12-13T14:51:09Z</time>
      </trkpt>
      <trkpt lat="47.69104" lon="6.13189">
        <ele>295.7</ele>
        <time>2020-12-13T14:51:10Z</time>
      </trkpt>
      <trkpt lat="47.69104" lon="6.13181">
        <ele>295.6</ele>
        <time>2020-12-13T14:51:11Z</time>
      </trkpt>
      <trkpt lat="47.69104" lon="6.1317">
        <ele>295.5</ele>
        <time>2020-12-13T14:51:12Z</time>
      </trkpt>
      <trkpt lat="47.69104" lon="6.1316">
        <ele>295.4</ele>
        <time>2020-12-13T14:51:13Z</time>
      </trkpt>
      <trkpt lat="47.69106" lon="6.13148">
        <ele>295.2</ele>
        <time>2020-12-13T14:51:14Z</time>
      </trkpt>
      <trkpt lat="47.69107" lon="6.13136">
        <ele>295.1</ele>
        <time>2020-12-13T14:51:15Z</time>
      </trkpt>
      <trkpt lat="47.6911" lon="6.13125">
        <ele>294.9</ele>
        <time>2020-12-13T14:51:16Z</time>
      </trkpt>
      <trkpt lat="47.69113" lon="6.13115">
        <ele>294.7</ele>
        <time>2020-12-13T14:51:17Z</time>
      </trkpt>
      <trkpt lat="47.69116" lon="6.13105">
        <ele>294.5</ele>
        <time>2020-12-13T14:51:18Z</time>
      </trkpt>
      <trkpt lat="47.69119" lon="6.13096">
        <ele>294.3</ele>
        <time>2020-12-13T14:51:19Z</time>
      </trkpt>
      <trkpt lat="47.69123" lon="6.13087">
        <ele>294.1</ele>
        <time>2020-12-13T14:51:20Z</time>
      </trkpt>
      <trkpt lat="47.69125" lon="6.13077">
        <ele>293.8</ele>
        <time>2020-12-13T14:51:21Z</time>
      </trkpt>
      <trkpt lat="47.69128" lon="6.13068">
        <ele>293.4</ele>
        <time>2020-12-13T14:51:22Z</time>
      </trkpt>
      <trkpt lat="47.69129" lon="6.13059">
        <ele>293</ele>
        <time>2020-12-13T14:51:23Z</time>
      </trkpt>
      <trkpt lat="47.69131" lon="6.1305">
        <ele>292.6</ele>
        <time>2020-12-13T14:51:24Z</time>
      </trkpt>
      <trkpt lat="47.69132" lon="6.1304">
        <ele>292.3</ele>
        <time>2020-12-13T14:51:25Z</time>
      </trkpt>
      <trkpt lat="47.69132" lon="6.1303">
        <ele>291.9</ele>
        <time>2020-12-13T14:51:26Z</time>
      </trkpt>
      <trkpt lat="47.69132" lon="6.1302">
        <ele>291.6</ele>
        <time>2020-12-13T14:51:27Z</time>
      </trkpt>
      <trkpt lat="47.6913" lon="6.1301">
        <ele>291.3</ele>
        <time>2020-12-13T14:51:28Z</time>
      </trkpt>
      <trkpt lat="47.69128" lon="6.13001">
        <ele>291</ele>
        <time>2020-12-13T14:51:29Z</time>
      </trkpt>
      <trkpt lat="47.69125" lon="6.12992">
        <ele>290.7</ele>
        <time>2020-12-13T14:51:30Z</time>
      </trkpt>
      <trkpt lat="47.69122" lon="6.12983">
        <ele>290.5</ele>
        <time>2020-12-13T14:51:31Z</time>
      </trkpt>
      <trkpt lat="47.69119" lon="6.12975">
        <ele>290.2</ele>
        <time>2020-12-13T14:51:32Z</time>
      </trkpt>
      <trkpt lat="47.69117" lon="6.12966">
        <ele>290</ele>
        <time>2020-12-13T14:51:33Z</time>
      </trkpt>
      <trkpt lat="47.69115" lon="6.12957">
        <ele>289.7</ele>
        <time>2020-12-13T14:51:34Z</time>
      </trkpt>
      <trkpt lat="47.69114" lon="6.12947">
        <ele>289.4</ele>
        <time>2020-12-13T14:51:35Z</time>
      </trkpt>
      <trkpt lat="47.69113" lon="6.12937">
        <ele>289</ele>
        <time>2020-12-13T14:51:36Z</time>
      </trkpt>
      <trkpt lat="47.69112" lon="6.12927">
        <ele>288.7</ele>
        <time>2020-12-13T14:51:37Z</time>
      </trkpt>
      <trkpt lat="47.69111" lon="6.12917">
        <ele>288.3</ele>
        <time>2020-12-13T14:51:38Z</time>
      </trkpt>
      <trkpt lat="47.6911" lon="6.12906">
        <ele>288</ele>
        <time>2020-12-13T14:51:39Z</time>
      </trkpt>
      <trkpt lat="47.69109" lon="6.12896">
        <ele>287.7</ele>
        <time>2020-12-13T14:51:40Z</time>
      </trkpt>
      <trkpt lat="47.69108" lon="6.12886">
        <ele>287.4</ele>
        <time>2020-12-13T14:51:41Z</time>
      </trkpt>
      <trkpt lat="47.69106" lon="6.12875">
        <ele>287.1</ele>
        <time>2020-12-13T14:51:42Z</time>
      </trkpt>
      <trkpt lat="47.69105" lon="6.12865">
        <ele>286.8</ele>
        <time>2020-12-13T14:51:43Z</time>
      </trkpt>
      <trkpt lat="47.69104" lon="6.12854">
        <ele>286.4</ele>
        <time>2020-12-13T14:51:44Z</time>
      </trkpt>
      <trkpt lat="47.69102" lon="6.12844">
        <ele>286.1</ele>
        <time>2020-12-13T14:51:45Z</time>
      </trkpt>
      <trkpt lat="47.691" lon="6.12833">
        <ele>285.8</ele>
        <time>2020-12-13T14:51:46Z</time>
      </trkpt>
      <trkpt lat="47.69098" lon="6.12822">
        <ele>285.7</ele>
        <time>2020-12-13T14:51:47Z</time>
      </trkpt>
      <trkpt lat="47.69095" lon="6.12811">
        <ele>285.6</ele>
        <time>2020-12-13T14:51:48Z</time>
      </trkpt>
      <trkpt lat="47.69093" lon="6.12801">
        <ele>285.5</ele>
        <time>2020-12-13T14:51:49Z</time>
      </trkpt>
      <trkpt lat="47.69091" lon="6.1279">
        <ele>285.4</ele>
        <time>2020-12-13T14:51:50Z</time>
      </trkpt>
      <trkpt lat="47.6909" lon="6.1278">
        <ele>285.3</ele>
        <time>2020-12-13T14:51:51Z</time>
      </trkpt>
      <trkpt lat="47.69089" lon="6.1277">
        <ele>285.2</ele>
        <time>2020-12-13T14:51:52Z</time>
      </trkpt>
      <trkpt lat="47.69089" lon="6.1276">
        <ele>285.1</ele>
        <time>2020-12-13T14:51:53Z</time>
      </trkpt>
      <trkpt lat="47.69089" lon="6.1275">
        <ele>285</ele>
        <time>2020-12-13T14:51:54Z</time>
      </trkpt>
      <trkpt lat="47.69089" lon="6.12742">
        <ele>285.2</ele>
        <time>2020-12-13T14:51:55Z</time>
      </trkpt>
      <trkpt lat="47.69089" lon="6.12734">
        <ele>285.4</ele>
        <time>2020-12-13T14:51:56Z</time>
      </trkpt>
      <trkpt lat="47.69089" lon="6.12727">
        <ele>285.6</ele>
        <time>2020-12-13T14:51:57Z</time>
      </trkpt>
      <trkpt lat="47.69089" lon="6.12715">
        <ele>285.8</ele>
        <time>2020-12-13T14:51:59Z</time>
      </trkpt>
      <trkpt lat="47.69088" lon="6.12707">
        <ele>286</ele>
        <time>2020-12-13T14:52:01Z</time>
      </trkpt>
      <trkpt lat="47.69088" lon="6.12696">
        <ele>286.3</ele>
        <time>2020-12-13T14:52:04Z</time>
      </trkpt>
      <trkpt lat="47.69083" lon="6.12684">
        <ele>286.6</ele>
        <time>2020-12-13T14:52:07Z</time>
      </trkpt>
      <trkpt lat="47.69082" lon="6.12677">
        <ele>286.8</ele>
        <time>2020-12-13T14:52:09Z</time>
      </trkpt>
      <trkpt lat="47.69083" lon="6.12668">
        <ele>287</ele>
        <time>2020-12-13T14:52:12Z</time>
      </trkpt>
      <trkpt lat="47.69084" lon="6.1266">
        <ele>287</ele>
        <time>2020-12-13T14:52:13Z</time>
      </trkpt>
      <trkpt lat="47.69084" lon="6.12647">
        <ele>287</ele>
        <time>2020-12-13T14:52:16Z</time>
      </trkpt>
      <trkpt lat="47.69083" lon="6.12639">
        <ele>287</ele>
        <time>2020-12-13T14:52:17Z</time>
      </trkpt>
      <trkpt lat="47.69083" lon="6.12632">
        <ele>287</ele>
        <time>2020-12-13T14:52:18Z</time>
      </trkpt>
      <trkpt lat="47.69083" lon="6.12621">
        <ele>287</ele>
        <time>2020-12-13T14:52:20Z</time>
      </trkpt>
      <trkpt lat="47.69084" lon="6.1261">
        <ele>287</ele>
        <time>2020-12-13T14:52:21Z</time>
      </trkpt>
      <trkpt lat="47.69085" lon="6.12602">
        <ele>287</ele>
        <time>2020-12-13T14:52:22Z</time>
      </trkpt>
      <trkpt lat="47.69086" lon="6.12595">
        <ele>287</ele>
        <time>2020-12-13T14:52:23Z</time>
      </trkpt>
      <trkpt lat="47.69088" lon="6.12587">
        <ele>286.9</ele>
        <time>2020-12-13T14:52:24Z</time>
      </trkpt>
      <trkpt lat="47.6909" lon="6.1258">
        <ele>286.8</ele>
        <time>2020-12-13T14:52:25Z</time>
      </trkpt>
      <trkpt lat="47.69092" lon="6.12573">
        <ele>286.5</ele>
        <time>2020-12-13T14:52:26Z</time>
      </trkpt>
      <trkpt lat="47.69094" lon="6.12566">
        <ele>286.3</ele>
        <time>2020-12-13T14:52:27Z</time>
      </trkpt>
      <trkpt lat="47.69096" lon="6.12559">
        <ele>286</ele>
        <time>2020-12-13T14:52:28Z</time>
      </trkpt>
      <trkpt lat="47.69099" lon="6.12553">
        <ele>285.7</ele>
        <time>2020-12-13T14:52:29Z</time>
      </trkpt>
      <trkpt lat="47.69101" lon="6.12546">
        <ele>285.5</ele>
        <time>2020-12-13T14:52:30Z</time>
      </trkpt>
      <trkpt lat="47.69103" lon="6.1254">
        <ele>285.2</ele>
        <time>2020-12-13T14:52:31Z</time>
      </trkpt>
      <trkpt lat="47.69105" lon="6.12534">
        <ele>285</ele>
        <time>2020-12-13T14:52:32Z</time>
      </trkpt>
      <trkpt lat="47.69109" lon="6.12522">
        <ele>284.5</ele>
        <time>2020-12-13T14:52:34Z</time>
      </trkpt>
      <trkpt lat="47.69111" lon="6.12509">
        <ele>284</ele>
        <time>2020-12-13T14:52:36Z</time>
      </trkpt>
      <trkpt lat="47.69113" lon="6.12496">
        <ele>283.6</ele>
        <time>2020-12-13T14:52:38Z</time>
      </trkpt>
      <trkpt lat="47.69113" lon="6.12489">
        <ele>283.5</ele>
        <time>2020-12-13T14:52:39Z</time>
      </trkpt>
      <trkpt lat="47.69112" lon="6.12482">
        <ele>283.4</ele>
        <time>2020-12-13T14:52:40Z</time>
      </trkpt>
      <trkpt lat="47.69112" lon="6.12475">
        <ele>283.4</ele>
        <time>2020-12-13T14:52:41Z</time>
      </trkpt>
      <trkpt lat="47.69111" lon="6.12468">
        <ele>283.3</ele>
        <time>2020-12-13T14:52:42Z</time>
      </trkpt>
      <trkpt lat="47.6911" lon="6.12461">
        <ele>283.2</ele>
        <time>2020-12-13T14:52:43Z</time>
      </trkpt>
      <trkpt lat="47.69108" lon="6.12448">
        <ele>283.1</ele>
        <time>2020-12-13T14:52:45Z</time>
      </trkpt>
      <trkpt lat="47.69106" lon="6.12437">
        <ele>283</ele>
        <time>2020-12-13T14:52:47Z</time>
      </trkpt>
      <trkpt lat="47.69102" lon="6.12426">
        <ele>282.9</ele>
        <time>2020-12-13T14:52:49Z</time>
      </trkpt>
      <trkpt lat="47.69099" lon="6.1242">
        <ele>282.8</ele>
        <time>2020-12-13T14:52:50Z</time>
      </trkpt>
      <trkpt lat="47.69097" lon="6.12414">
        <ele>282.8</ele>
        <time>2020-12-13T14:52:51Z</time>
      </trkpt>
      <trkpt lat="47.69092" lon="6.12405">
        <ele>282.8</ele>
        <time>2020-12-13T14:52:53Z</time>
      </trkpt>
      <trkpt lat="47.69083" lon="6.12397">
        <ele>282.8</ele>
        <time>2020-12-13T14:52:53Z</time>
      </trkpt>
      <trkpt lat="47.6908" lon="6.1239">
        <ele>282.6</ele>
        <time>2020-12-13T14:52:56Z</time>
      </trkpt>
      <trkpt lat="47.69077" lon="6.12385">
        <ele>282.5</ele>
        <time>2020-12-13T14:52:57Z</time>
      </trkpt>
      <trkpt lat="47.69074" lon="6.1238">
        <ele>282.4</ele>
        <time>2020-12-13T14:52:58Z</time>
      </trkpt>
      <trkpt lat="47.6907" lon="6.12374">
        <ele>282.3</ele>
        <time>2020-12-13T14:52:59Z</time>
      </trkpt>
      <trkpt lat="47.69063" lon="6.12367">
        <ele>282</ele>
        <time>2020-12-13T14:53:01Z</time>
      </trkpt>
      <trkpt lat="47.69056" lon="6.12366">
        <ele>281.9</ele>
        <time>2020-12-13T14:53:03Z</time>
      </trkpt>
      <trkpt lat="47.69052" lon="6.12369">
        <ele>281.8</ele>
        <time>2020-12-13T14:53:04Z</time>
      </trkpt>
      <trkpt lat="47.69048" lon="6.12378">
        <ele>281.9</ele>
        <time>2020-12-13T14:53:05Z</time>
      </trkpt>
      <trkpt lat="47.69045" lon="6.12387">
        <ele>282</ele>
        <time>2020-12-13T14:53:07Z</time>
      </trkpt>
      <trkpt lat="47.69043" lon="6.12395">
        <ele>282.1</ele>
        <time>2020-12-13T14:53:09Z</time>
      </trkpt>
      <trkpt lat="47.6904" lon="6.12404">
        <ele>282.3</ele>
        <time>2020-12-13T14:53:10Z</time>
      </trkpt>
      <trkpt lat="47.69038" lon="6.12412">
        <ele>282.4</ele>
        <time>2020-12-13T14:53:12Z</time>
      </trkpt>
      <trkpt lat="47.69036" lon="6.12419">
        <ele>282.5</ele>
        <time>2020-12-13T14:53:13Z</time>
      </trkpt>
      <trkpt lat="47.69033" lon="6.12429">
        <ele>282.7</ele>
        <time>2020-12-13T14:53:16Z</time>
      </trkpt>
      <trkpt lat="47.6903" lon="6.12438">
        <ele>282.9</ele>
        <time>2020-12-13T14:53:18Z</time>
      </trkpt>
      <trkpt lat="47.69027" lon="6.12444">
        <ele>283.1</ele>
        <time>2020-12-13T14:53:20Z</time>
      </trkpt>
      <trkpt lat="47.69024" lon="6.12452">
        <ele>283.3</ele>
        <time>2020-12-13T14:53:22Z</time>
      </trkpt>
      <trkpt lat="47.69022" lon="6.12458">
        <ele>283.5</ele>
        <time>2020-12-13T14:53:23Z</time>
      </trkpt>
      <trkpt lat="47.69019" lon="6.12466">
        <ele>283.7</ele>
        <time>2020-12-13T14:53:25Z</time>
      </trkpt>
      <trkpt lat="47.69016" lon="6.12473">
        <ele>284</ele>
        <time>2020-12-13T14:53:27Z</time>
      </trkpt>
      <trkpt lat="47.69014" lon="6.12479">
        <ele>284.2</ele>
        <time>2020-12-13T14:53:29Z</time>
      </trkpt>
      <trkpt lat="47.69011" lon="6.12487">
        <ele>284.4</ele>
        <time>2020-12-13T14:53:31Z</time>
      </trkpt>
      <trkpt lat="47.69008" lon="6.12494">
        <ele>284.7</ele>
        <time>2020-12-13T14:53:33Z</time>
      </trkpt>
      <trkpt lat="47.69005" lon="6.125">
        <ele>284.9</ele>
        <time>2020-12-13T14:53:34Z</time>
      </trkpt>
      <trkpt lat="47.69002" lon="6.12508">
        <ele>285.2</ele>
        <time>2020-12-13T14:53:36Z</time>
      </trkpt>
      <trkpt lat="47.68998" lon="6.12517">
        <ele>285.4</ele>
        <time>2020-12-13T14:53:39Z</time>
      </trkpt>
      <trkpt lat="47.68996" lon="6.12522">
        <ele>285.4</ele>
        <time>2020-12-13T14:53:40Z</time>
      </trkpt>
      <trkpt lat="47.68992" lon="6.12532">
        <ele>285.6</ele>
        <time>2020-12-13T14:53:43Z</time>
      </trkpt>
      <trkpt lat="47.6899" lon="6.12538">
        <ele>285.7</ele>
        <time>2020-12-13T14:53:44Z</time>
      </trkpt>
      <trkpt lat="47.68987" lon="6.12546">
        <ele>285.8</ele>
        <time>2020-12-13T14:53:46Z</time>
      </trkpt>
      <trkpt lat="47.68984" lon="6.12554">
        <ele>285.9</ele>
        <time>2020-12-13T14:53:48Z</time>
      </trkpt>
      <trkpt lat="47.68981" lon="6.12562">
        <ele>286</ele>
        <time>2020-12-13T14:53:50Z</time>
      </trkpt>
      <trkpt lat="47.68978" lon="6.12569">
        <ele>286.1</ele>
        <time>2020-12-13T14:53:52Z</time>
      </trkpt>
      <trkpt lat="47.68974" lon="6.12578">
        <ele>286.2</ele>
        <time>2020-12-13T14:53:55Z</time>
      </trkpt>
      <trkpt lat="47.68971" lon="6.12586">
        <ele>286.3</ele>
        <time>2020-12-13T14:53:57Z</time>
      </trkpt>
      <trkpt lat="47.68968" lon="6.12593">
        <ele>286.2</ele>
        <time>2020-12-13T14:53:59Z</time>
      </trkpt>
      <trkpt lat="47.68965" lon="6.12599">
        <ele>286.2</ele>
        <time>2020-12-13T14:54:00Z</time>
      </trkpt>
      <trkpt lat="47.68962" lon="6.12607">
        <ele>286.1</ele>
        <time>2020-12-13T14:54:02Z</time>
      </trkpt>
      <trkpt lat="47.68959" lon="6.12615">
        <ele>286</ele>
        <time>2020-12-13T14:54:05Z</time>
      </trkpt>
      <trkpt lat="47.68955" lon="6.12623">
        <ele>285.9</ele>
        <time>2020-12-13T14:54:07Z</time>
      </trkpt>
      <trkpt lat="47.68952" lon="6.12632">
        <ele>285.8</ele>
        <time>2020-12-13T14:54:09Z</time>
      </trkpt>
      <trkpt lat="47.68949" lon="6.12639">
        <ele>285.8</ele>
        <time>2020-12-13T14:54:10Z</time>
      </trkpt>
      <trkpt lat="47.68946" lon="6.12646">
        <ele>285.7</ele>
        <time>2020-12-13T14:54:11Z</time>
      </trkpt>
      <trkpt lat="47.68943" lon="6.12654">
        <ele>285.6</ele>
        <time>2020-12-13T14:54:13Z</time>
      </trkpt>
      <trkpt lat="47.6894" lon="6.12666">
        <ele>285.6</ele>
        <time>2020-12-13T14:54:15Z</time>
      </trkpt>
      <trkpt lat="47.68937" lon="6.12677">
        <ele>285.3</ele>
        <time>2020-12-13T14:54:17Z</time>
      </trkpt>
      <trkpt lat="47.68935" lon="6.12687">
        <ele>285.1</ele>
        <time>2020-12-13T14:54:18Z</time>
      </trkpt>
      <trkpt lat="47.68934" lon="6.12694">
        <ele>285</ele>
        <time>2020-12-13T14:54:19Z</time>
      </trkpt>
      <trkpt lat="47.68933" lon="6.12701">
        <ele>284.9</ele>
        <time>2020-12-13T14:54:20Z</time>
      </trkpt>
      <trkpt lat="47.68932" lon="6.12709">
        <ele>284.8</ele>
        <time>2020-12-13T14:54:21Z</time>
      </trkpt>
      <trkpt lat="47.68932" lon="6.12716">
        <ele>284.7</ele>
        <time>2020-12-13T14:54:22Z</time>
      </trkpt>
      <trkpt lat="47.68932" lon="6.12724">
        <ele>284.5</ele>
        <time>2020-12-13T14:54:23Z</time>
      </trkpt>
      <trkpt lat="47.68931" lon="6.12732">
        <ele>284.4</ele>
        <time>2020-12-13T14:54:24Z</time>
      </trkpt>
      <trkpt lat="47.68931" lon="6.1274">
        <ele>284.3</ele>
        <time>2020-12-13T14:54:25Z</time>
      </trkpt>
      <trkpt lat="47.6893" lon="6.12747">
        <ele>284.2</ele>
        <time>2020-12-13T14:54:26Z</time>
      </trkpt>
      <trkpt lat="47.6893" lon="6.12754">
        <ele>284.2</ele>
        <time>2020-12-13T14:54:27Z</time>
      </trkpt>
      <trkpt lat="47.68929" lon="6.12761">
        <ele>284.3</ele>
        <time>2020-12-13T14:54:28Z</time>
      </trkpt>
      <trkpt lat="47.68929" lon="6.12767">
        <ele>284.4</ele>
        <time>2020-12-13T14:54:29Z</time>
      </trkpt>
      <trkpt lat="47.68927" lon="6.1278">
        <ele>284.5</ele>
        <time>2020-12-13T14:54:31Z</time>
      </trkpt>
      <trkpt lat="47.68925" lon="6.12792">
        <ele>284.6</ele>
        <time>2020-12-13T14:54:33Z</time>
      </trkpt>
      <trkpt lat="47.68922" lon="6.12802">
        <ele>284.7</ele>
        <time>2020-12-13T14:54:35Z</time>
      </trkpt>
      <trkpt lat="47.68919" lon="6.12813">
        <ele>284.8</ele>
        <time>2020-12-13T14:54:37Z</time>
      </trkpt>
      <trkpt lat="47.68916" lon="6.12823">
        <ele>284.9</ele>
        <time>2020-12-13T14:54:39Z</time>
      </trkpt>
      <trkpt lat="47.68916" lon="6.1284">
        <ele>285.1</ele>
        <time>2020-12-13T14:54:40Z</time>
      </trkpt>
      <trkpt lat="47.68912" lon="6.12845">
        <ele>285</ele>
        <time>2020-12-13T14:54:42Z</time>
      </trkpt>
      <trkpt lat="47.68909" lon="6.12851">
        <ele>285.1</ele>
        <time>2020-12-13T14:54:44Z</time>
      </trkpt>
      <trkpt lat="47.68907" lon="6.12857">
        <ele>285.1</ele>
        <time>2020-12-13T14:54:46Z</time>
      </trkpt>
      <trkpt lat="47.68904" lon="6.12863">
        <ele>285.1</ele>
        <time>2020-12-13T14:54:48Z</time>
      </trkpt>
      <trkpt lat="47.68901" lon="6.12872">
        <ele>285.2</ele>
        <time>2020-12-13T14:54:50Z</time>
      </trkpt>
      <trkpt lat="47.68899" lon="6.12879">
        <ele>285.2</ele>
        <time>2020-12-13T14:54:53Z</time>
      </trkpt>
      <trkpt lat="47.68895" lon="6.12886">
        <ele>285.3</ele>
        <time>2020-12-13T14:54:56Z</time>
      </trkpt>
      <trkpt lat="47.68893" lon="6.12893">
        <ele>285.3</ele>
        <time>2020-12-13T14:54:58Z</time>
      </trkpt>
      <trkpt lat="47.68891" lon="6.129">
        <ele>285.4</ele>
        <time>2020-12-13T14:55:01Z</time>
      </trkpt>
      <trkpt lat="47.68889" lon="6.12907">
        <ele>285.5</ele>
        <time>2020-12-13T14:55:03Z</time>
      </trkpt>
      <trkpt lat="47.68887" lon="6.12914">
        <ele>285.6</ele>
        <time>2020-12-13T14:55:06Z</time>
      </trkpt>
      <trkpt lat="47.68885" lon="6.1292">
        <ele>285.7</ele>
        <time>2020-12-13T14:55:08Z</time>
      </trkpt>
      <trkpt lat="47.68883" lon="6.12928">
        <ele>286</ele>
        <time>2020-12-13T14:55:11Z</time>
      </trkpt>
      <trkpt lat="47.6888" lon="6.12937">
        <ele>286.3</ele>
        <time>2020-12-13T14:55:14Z</time>
      </trkpt>
      <trkpt lat="47.68877" lon="6.12944">
        <ele>286.5</ele>
        <time>2020-12-13T14:55:16Z</time>
      </trkpt>
      <trkpt lat="47.68874" lon="6.12952">
        <ele>286.8</ele>
        <time>2020-12-13T14:55:19Z</time>
      </trkpt>
      <trkpt lat="47.68872" lon="6.12959">
        <ele>287</ele>
        <time>2020-12-13T14:55:22Z</time>
      </trkpt>
      <trkpt lat="47.68869" lon="6.12966">
        <ele>287.2</ele>
        <time>2020-12-13T14:55:24Z</time>
      </trkpt>
      <trkpt lat="47.68865" lon="6.12972">
        <ele>287.4</ele>
        <time>2020-12-13T14:55:27Z</time>
      </trkpt>
      <trkpt lat="47.68862" lon="6.12978">
        <ele>287.6</ele>
        <time>2020-12-13T14:55:29Z</time>
      </trkpt>
      <trkpt lat="47.68858" lon="6.12986">
        <ele>287.8</ele>
        <time>2020-12-13T14:55:31Z</time>
      </trkpt>
      <trkpt lat="47.68853" lon="6.12995">
        <ele>288.1</ele>
        <time>2020-12-13T14:55:34Z</time>
      </trkpt>
      <trkpt lat="47.6885" lon="6.13001">
        <ele>288.2</ele>
        <time>2020-12-13T14:55:35Z</time>
      </trkpt>
      <trkpt lat="47.68847" lon="6.13007">
        <ele>288.3</ele>
        <time>2020-12-13T14:55:37Z</time>
      </trkpt>
      <trkpt lat="47.68843" lon="6.13015">
        <ele>288.5</ele>
        <time>2020-12-13T14:55:39Z</time>
      </trkpt>
      <trkpt lat="47.6884" lon="6.13021">
        <ele>288.6</ele>
        <time>2020-12-13T14:55:40Z</time>
      </trkpt>
      <trkpt lat="47.68835" lon="6.13032">
        <ele>288.8</ele>
        <time>2020-12-13T14:55:42Z</time>
      </trkpt>
      <trkpt lat="47.68831" lon="6.13041">
        <ele>288.9</ele>
        <time>2020-12-13T14:55:43Z</time>
      </trkpt>
      <trkpt lat="47.68827" lon="6.13047">
        <ele>289</ele>
        <time>2020-12-13T14:55:44Z</time>
      </trkpt>
      <trkpt lat="47.68824" lon="6.13053">
        <ele>289.1</ele>
        <time>2020-12-13T14:55:46Z</time>
      </trkpt>
      <trkpt lat="47.6882" lon="6.13061">
        <ele>289.2</ele>
        <time>2020-12-13T14:55:48Z</time>
      </trkpt>
      <trkpt lat="47.68816" lon="6.1307">
        <ele>289.3</ele>
        <time>2020-12-13T14:55:49Z</time>
      </trkpt>
      <trkpt lat="47.68812" lon="6.13075">
        <ele>289.3</ele>
        <time>2020-12-13T14:55:51Z</time>
      </trkpt>
      <trkpt lat="47.68808" lon="6.13084">
        <ele>289.4</ele>
        <time>2020-12-13T14:55:53Z</time>
      </trkpt>
      <trkpt lat="47.68805" lon="6.1309">
        <ele>289.4</ele>
        <time>2020-12-13T14:55:54Z</time>
      </trkpt>
      <trkpt lat="47.68801" lon="6.13097">
        <ele>289.4</ele>
        <time>2020-12-13T14:55:56Z</time>
      </trkpt>
      <trkpt lat="47.68797" lon="6.13103">
        <ele>289.5</ele>
        <time>2020-12-13T14:55:57Z</time>
      </trkpt>
      <trkpt lat="47.68794" lon="6.13108">
        <ele>289.5</ele>
        <time>2020-12-13T14:55:59Z</time>
      </trkpt>
      <trkpt lat="47.6879" lon="6.13115">
        <ele>289.5</ele>
        <time>2020-12-13T14:56:00Z</time>
      </trkpt>
      <trkpt lat="47.68787" lon="6.1312">
        <ele>289.6</ele>
        <time>2020-12-13T14:56:02Z</time>
      </trkpt>
      <trkpt lat="47.68784" lon="6.13125">
        <ele>289.6</ele>
        <time>2020-12-13T14:56:03Z</time>
      </trkpt>
      <trkpt lat="47.68779" lon="6.13132">
        <ele>289.7</ele>
        <time>2020-12-13T14:56:05Z</time>
      </trkpt>
      <trkpt lat="47.68776" lon="6.13137">
        <ele>289.7</ele>
        <time>2020-12-13T14:56:06Z</time>
      </trkpt>
      <trkpt lat="47.68771" lon="6.13144">
        <ele>289.8</ele>
        <time>2020-12-13T14:56:07Z</time>
      </trkpt>
      <trkpt lat="47.68767" lon="6.13149">
        <ele>289.8</ele>
        <time>2020-12-13T14:56:09Z</time>
      </trkpt>
      <trkpt lat="47.68763" lon="6.13154">
        <ele>289.9</ele>
        <time>2020-12-13T14:56:10Z</time>
      </trkpt>
      <trkpt lat="47.6876" lon="6.1316">
        <ele>290</ele>
        <time>2020-12-13T14:56:11Z</time>
      </trkpt>
      <trkpt lat="47.68756" lon="6.13165">
        <ele>290</ele>
        <time>2020-12-13T14:56:12Z</time>
      </trkpt>
      <trkpt lat="47.68753" lon="6.1317">
        <ele>290</ele>
        <time>2020-12-13T14:56:13Z</time>
      </trkpt>
      <trkpt lat="47.68749" lon="6.13175">
        <ele>290</ele>
        <time>2020-12-13T14:56:14Z</time>
      </trkpt>
      <trkpt lat="47.68746" lon="6.13181">
        <ele>289.8</ele>
        <time>2020-12-13T14:56:15Z</time>
      </trkpt>
      <trkpt lat="47.68742" lon="6.13186">
        <ele>289.6</ele>
        <time>2020-12-13T14:56:16Z</time>
      </trkpt>
      <trkpt lat="47.68738" lon="6.13193">
        <ele>289.4</ele>
        <time>2020-12-13T14:56:17Z</time>
      </trkpt>
      <trkpt lat="47.68735" lon="6.13199">
        <ele>289.3</ele>
        <time>2020-12-13T14:56:18Z</time>
      </trkpt>
      <trkpt lat="47.68731" lon="6.13205">
        <ele>289.1</ele>
        <time>2020-12-13T14:56:19Z</time>
      </trkpt>
      <trkpt lat="47.68727" lon="6.13212">
        <ele>288.9</ele>
        <time>2020-12-13T14:56:20Z</time>
      </trkpt>
      <trkpt lat="47.68723" lon="6.13218">
        <ele>288.7</ele>
        <time>2020-12-13T14:56:21Z</time>
      </trkpt>
      <trkpt lat="47.6872" lon="6.13224">
        <ele>288.5</ele>
        <time>2020-12-13T14:56:22Z</time>
      </trkpt>
      <trkpt lat="47.68716" lon="6.13231">
        <ele>288.4</ele>
        <time>2020-12-13T14:56:23Z</time>
      </trkpt>
      <trkpt lat="47.68712" lon="6.13237">
        <ele>288.2</ele>
        <time>2020-12-13T14:56:24Z</time>
      </trkpt>
      <trkpt lat="47.68708" lon="6.13244">
        <ele>288</ele>
        <time>2020-12-13T14:56:25Z</time>
      </trkpt>
      <trkpt lat="47.68703" lon="6.13251">
        <ele>287.8</ele>
        <time>2020-12-13T14:56:26Z</time>
      </trkpt>
      <trkpt lat="47.68699" lon="6.13257">
        <ele>287.8</ele>
        <time>2020-12-13T14:56:27Z</time>
      </trkpt>
      <trkpt lat="47.68696" lon="6.13263">
        <ele>287.9</ele>
        <time>2020-12-13T14:56:28Z</time>
      </trkpt>
      <trkpt lat="47.68692" lon="6.13269">
        <ele>288</ele>
        <time>2020-12-13T14:56:29Z</time>
      </trkpt>
      <trkpt lat="47.68688" lon="6.13276">
        <ele>288.1</ele>
        <time>2020-12-13T14:56:30Z</time>
      </trkpt>
      <trkpt lat="47.68684" lon="6.13282">
        <ele>288.2</ele>
        <time>2020-12-13T14:56:31Z</time>
      </trkpt>
      <trkpt lat="47.6868" lon="6.13288">
        <ele>288.3</ele>
        <time>2020-12-13T14:56:32Z</time>
      </trkpt>
      <trkpt lat="47.68676" lon="6.13295">
        <ele>288.5</ele>
        <time>2020-12-13T14:56:33Z</time>
      </trkpt>
      <trkpt lat="47.68672" lon="6.13301">
        <ele>288.6</ele>
        <time>2020-12-13T14:56:34Z</time>
      </trkpt>
      <trkpt lat="47.68668" lon="6.13308">
        <ele>288.8</ele>
        <time>2020-12-13T14:56:35Z</time>
      </trkpt>
      <trkpt lat="47.68664" lon="6.13315">
        <ele>289</ele>
        <time>2020-12-13T14:56:36Z</time>
      </trkpt>
      <trkpt lat="47.6866" lon="6.13322">
        <ele>289.1</ele>
        <time>2020-12-13T14:56:37Z</time>
      </trkpt>
      <trkpt lat="47.68655" lon="6.13329">
        <ele>289.3</ele>
        <time>2020-12-13T14:56:38Z</time>
      </trkpt>
      <trkpt lat="47.68651" lon="6.13335">
        <ele>289.3</ele>
        <time>2020-12-13T14:56:39Z</time>
      </trkpt>
      <trkpt lat="47.68647" lon="6.13342">
        <ele>289.1</ele>
        <time>2020-12-13T14:56:40Z</time>
      </trkpt>
      <trkpt lat="47.68643" lon="6.13348">
        <ele>288.9</ele>
        <time>2020-12-13T14:56:41Z</time>
      </trkpt>
      <trkpt lat="47.68639" lon="6.13354">
        <ele>288.8</ele>
        <time>2020-12-13T14:56:42Z</time>
      </trkpt>
      <trkpt lat="47.68635" lon="6.1336">
        <ele>288.6</ele>
        <time>2020-12-13T14:56:43Z</time>
      </trkpt>
      <trkpt lat="47.68632" lon="6.13365">
        <ele>288.5</ele>
        <time>2020-12-13T14:56:44Z</time>
      </trkpt>
      <trkpt lat="47.68629" lon="6.1337">
        <ele>288.4</ele>
        <time>2020-12-13T14:56:45Z</time>
      </trkpt>
      <trkpt lat="47.68625" lon="6.13376">
        <ele>288.3</ele>
        <time>2020-12-13T14:56:46Z</time>
      </trkpt>
      <trkpt lat="47.68622" lon="6.13381">
        <ele>288.2</ele>
        <time>2020-12-13T14:56:47Z</time>
      </trkpt>
      <trkpt lat="47.68616" lon="6.13391">
        <ele>288</ele>
        <time>2020-12-13T14:56:49Z</time>
      </trkpt>
      <trkpt lat="47.6861" lon="6.134">
        <ele>287.8</ele>
        <time>2020-12-13T14:56:51Z</time>
      </trkpt>
      <trkpt lat="47.68606" lon="6.13406">
        <ele>287.7</ele>
        <time>2020-12-13T14:56:52Z</time>
      </trkpt>
      <trkpt lat="47.68603" lon="6.13411">
        <ele>287.7</ele>
        <time>2020-12-13T14:56:53Z</time>
      </trkpt>
      <trkpt lat="47.686" lon="6.13417">
        <ele>287.6</ele>
        <time>2020-12-13T14:56:54Z</time>
      </trkpt>
      <trkpt lat="47.68597" lon="6.13424">
        <ele>287.5</ele>
        <time>2020-12-13T14:56:55Z</time>
      </trkpt>
      <trkpt lat="47.68594" lon="6.1343">
        <ele>287.4</ele>
        <time>2020-12-13T14:56:56Z</time>
      </trkpt>
      <trkpt lat="47.68591" lon="6.13436">
        <ele>287.3</ele>
        <time>2020-12-13T14:56:57Z</time>
      </trkpt>
      <trkpt lat="47.68587" lon="6.13441">
        <ele>287.1</ele>
        <time>2020-12-13T14:56:58Z</time>
      </trkpt>
      <trkpt lat="47.68584" lon="6.13447">
        <ele>287</ele>
        <time>2020-12-13T14:56:59Z</time>
      </trkpt>
      <trkpt lat="47.6858" lon="6.13453">
        <ele>286.9</ele>
        <time>2020-12-13T14:57:00Z</time>
      </trkpt>
      <trkpt lat="47.68577" lon="6.1346">
        <ele>286.8</ele>
        <time>2020-12-13T14:57:01Z</time>
      </trkpt>
      <trkpt lat="47.68573" lon="6.13466">
        <ele>286.8</ele>
        <time>2020-12-13T14:57:02Z</time>
      </trkpt>
      <trkpt lat="47.68569" lon="6.13472">
        <ele>286.7</ele>
        <time>2020-12-13T14:57:03Z</time>
      </trkpt>
      <trkpt lat="47.68565" lon="6.13479">
        <ele>286.6</ele>
        <time>2020-12-13T14:57:04Z</time>
      </trkpt>
      <trkpt lat="47.6856" lon="6.13486">
        <ele>286.5</ele>
        <time>2020-12-13T14:57:05Z</time>
      </trkpt>
      <trkpt lat="47.68556" lon="6.13494">
        <ele>286.3</ele>
        <time>2020-12-13T14:57:06Z</time>
      </trkpt>
      <trkpt lat="47.68551" lon="6.13502">
        <ele>286.2</ele>
        <time>2020-12-13T14:57:07Z</time>
      </trkpt>
      <trkpt lat="47.68547" lon="6.13509">
        <ele>286.2</ele>
        <time>2020-12-13T14:57:08Z</time>
      </trkpt>
      <trkpt lat="47.68541" lon="6.13517">
        <ele>286.1</ele>
        <time>2020-12-13T14:57:09Z</time>
      </trkpt>
      <trkpt lat="47.68536" lon="6.13525">
        <ele>286</ele>
        <time>2020-12-13T14:57:10Z</time>
      </trkpt>
      <trkpt lat="47.68531" lon="6.13532">
        <ele>285.9</ele>
        <time>2020-12-13T14:57:11Z</time>
      </trkpt>
      <trkpt lat="47.68526" lon="6.1354">
        <ele>285.8</ele>
        <time>2020-12-13T14:57:12Z</time>
      </trkpt>
      <trkpt lat="47.68522" lon="6.13548">
        <ele>285.7</ele>
        <time>2020-12-13T14:57:13Z</time>
      </trkpt>
      <trkpt lat="47.68517" lon="6.13555">
        <ele>285.5</ele>
        <time>2020-12-13T14:57:14Z</time>
      </trkpt>
      <trkpt lat="47.68513" lon="6.13563">
        <ele>285.4</ele>
        <time>2020-12-13T14:57:15Z</time>
      </trkpt>
      <trkpt lat="47.68509" lon="6.1357">
        <ele>285.3</ele>
        <time>2020-12-13T14:57:16Z</time>
      </trkpt>
      <trkpt lat="47.68505" lon="6.13577">
        <ele>285.2</ele>
        <time>2020-12-13T14:57:17Z</time>
      </trkpt>
      <trkpt lat="47.68501" lon="6.13584">
        <ele>285</ele>
        <time>2020-12-13T14:57:18Z</time>
      </trkpt>
      <trkpt lat="47.68497" lon="6.13591">
        <ele>284.8</ele>
        <time>2020-12-13T14:57:19Z</time>
      </trkpt>
      <trkpt lat="47.68494" lon="6.13598">
        <ele>284.6</ele>
        <time>2020-12-13T14:57:20Z</time>
      </trkpt>
      <trkpt lat="47.6849" lon="6.13605">
        <ele>284.4</ele>
        <time>2020-12-13T14:57:21Z</time>
      </trkpt>
      <trkpt lat="47.68486" lon="6.13612">
        <ele>284.2</ele>
        <time>2020-12-13T14:57:22Z</time>
      </trkpt>
      <trkpt lat="47.68483" lon="6.13618">
        <ele>284.1</ele>
        <time>2020-12-13T14:57:23Z</time>
      </trkpt>
      <trkpt lat="47.68479" lon="6.13625">
        <ele>283.9</ele>
        <time>2020-12-13T14:57:24Z</time>
      </trkpt>
      <trkpt lat="47.68476" lon="6.13631">
        <ele>283.7</ele>
        <time>2020-12-13T14:57:25Z</time>
      </trkpt>
      <trkpt lat="47.68473" lon="6.13637">
        <ele>283.6</ele>
        <time>2020-12-13T14:57:26Z</time>
      </trkpt>
      <trkpt lat="47.6847" lon="6.13644">
        <ele>283.4</ele>
        <time>2020-12-13T14:57:27Z</time>
      </trkpt>
      <trkpt lat="47.68466" lon="6.1365">
        <ele>283.3</ele>
        <time>2020-12-13T14:57:28Z</time>
      </trkpt>
      <trkpt lat="47.68463" lon="6.13656">
        <ele>283.2</ele>
        <time>2020-12-13T14:57:29Z</time>
      </trkpt>
      <trkpt lat="47.6846" lon="6.13663">
        <ele>283.1</ele>
        <time>2020-12-13T14:57:30Z</time>
      </trkpt>
      <trkpt lat="47.68457" lon="6.13669">
        <ele>283</ele>
        <time>2020-12-13T14:57:31Z</time>
      </trkpt>
      <trkpt lat="47.68454" lon="6.13675">
        <ele>283</ele>
        <time>2020-12-13T14:57:32Z</time>
      </trkpt>
      <trkpt lat="47.68451" lon="6.13681">
        <ele>283.1</ele>
        <time>2020-12-13T14:57:33Z</time>
      </trkpt>
      <trkpt lat="47.68447" lon="6.13687">
        <ele>283.1</ele>
        <time>2020-12-13T14:57:34Z</time>
      </trkpt>
      <trkpt lat="47.68444" lon="6.13693">
        <ele>283.2</ele>
        <time>2020-12-13T14:57:35Z</time>
      </trkpt>
      <trkpt lat="47.68441" lon="6.13699">
        <ele>283.2</ele>
        <time>2020-12-13T14:57:36Z</time>
      </trkpt>
      <trkpt lat="47.68438" lon="6.13705">
        <ele>283.3</ele>
        <time>2020-12-13T14:57:37Z</time>
      </trkpt>
      <trkpt lat="47.68435" lon="6.13711">
        <ele>283.4</ele>
        <time>2020-12-13T14:57:38Z</time>
      </trkpt>
      <trkpt lat="47.68432" lon="6.13717">
        <ele>283.4</ele>
        <time>2020-12-13T14:57:39Z</time>
      </trkpt>
      <trkpt lat="47.68429" lon="6.13723">
        <ele>283.5</ele>
        <time>2020-12-13T14:57:40Z</time>
      </trkpt>
      <trkpt lat="47.68426" lon="6.13729">
        <ele>283.6</ele>
        <time>2020-12-13T14:57:41Z</time>
      </trkpt>
      <trkpt lat="47.68423" lon="6.13734">
        <ele>283.7</ele>
        <time>2020-12-13T14:57:42Z</time>
      </trkpt>
      <trkpt lat="47.6842" lon="6.1374">
        <ele>283.8</ele>
        <time>2020-12-13T14:57:43Z</time>
      </trkpt>
      <trkpt lat="47.68417" lon="6.13745">
        <ele>283.8</ele>
        <time>2020-12-13T14:57:44Z</time>
      </trkpt>
      <trkpt lat="47.68414" lon="6.13751">
        <ele>283.9</ele>
        <time>2020-12-13T14:57:45Z</time>
      </trkpt>
      <trkpt lat="47.68411" lon="6.13756">
        <ele>283.9</ele>
        <time>2020-12-13T14:57:46Z</time>
      </trkpt>
      <trkpt lat="47.68408" lon="6.13762">
        <ele>283.9</ele>
        <time>2020-12-13T14:57:47Z</time>
      </trkpt>
      <trkpt lat="47.68406" lon="6.13767">
        <ele>283.9</ele>
        <time>2020-12-13T14:57:48Z</time>
      </trkpt>
      <trkpt lat="47.68403" lon="6.13773">
        <ele>283.8</ele>
        <time>2020-12-13T14:57:49Z</time>
      </trkpt>
      <trkpt lat="47.684" lon="6.13779">
        <ele>283.8</ele>
        <time>2020-12-13T14:57:50Z</time>
      </trkpt>
      <trkpt lat="47.68398" lon="6.13785">
        <ele>283.8</ele>
        <time>2020-12-13T14:57:51Z</time>
      </trkpt>
      <trkpt lat="47.68396" lon="6.1379">
        <ele>283.8</ele>
        <time>2020-12-13T14:57:52Z</time>
      </trkpt>
      <trkpt lat="47.68391" lon="6.13802">
        <ele>283.9</ele>
        <time>2020-12-13T14:57:54Z</time>
      </trkpt>
      <trkpt lat="47.68389" lon="6.13813">
        <ele>283.9</ele>
        <time>2020-12-13T14:57:56Z</time>
      </trkpt>
      <trkpt lat="47.68385" lon="6.13824">
        <ele>283.9</ele>
        <time>2020-12-13T14:57:58Z</time>
      </trkpt>
      <trkpt lat="47.6838" lon="6.13835">
        <ele>283.8</ele>
        <time>2020-12-13T14:58:00Z</time>
      </trkpt>
      <trkpt lat="47.68369" lon="6.13847">
        <ele>283.1</ele>
        <time>2020-12-13T14:58:02Z</time>
      </trkpt>
      <trkpt lat="47.68366" lon="6.13856">
        <ele>283</ele>
        <time>2020-12-13T14:58:04Z</time>
      </trkpt>
      <trkpt lat="47.68363" lon="6.13863">
        <ele>282.9</ele>
        <time>2020-12-13T14:58:06Z</time>
      </trkpt>
      <trkpt lat="47.68361" lon="6.1387">
        <ele>282.8</ele>
        <time>2020-12-13T14:58:07Z</time>
      </trkpt>
      <trkpt lat="47.68357" lon="6.13876">
        <ele>282.7</ele>
        <time>2020-12-13T14:58:08Z</time>
      </trkpt>
      <trkpt lat="47.68354" lon="6.13882">
        <ele>282.5</ele>
        <time>2020-12-13T14:58:09Z</time>
      </trkpt>
      <trkpt lat="47.6835" lon="6.13888">
        <ele>282.4</ele>
        <time>2020-12-13T14:58:10Z</time>
      </trkpt>
      <trkpt lat="47.68346" lon="6.13894">
        <ele>282.3</ele>
        <time>2020-12-13T14:58:11Z</time>
      </trkpt>
      <trkpt lat="47.68342" lon="6.13901">
        <ele>282.1</ele>
        <time>2020-12-13T14:58:12Z</time>
      </trkpt>
      <trkpt lat="47.68337" lon="6.13907">
        <ele>282</ele>
        <time>2020-12-13T14:58:13Z</time>
      </trkpt>
      <trkpt lat="47.68333" lon="6.13913">
        <ele>281.9</ele>
        <time>2020-12-13T14:58:14Z</time>
      </trkpt>
      <trkpt lat="47.68328" lon="6.13919">
        <ele>281.9</ele>
        <time>2020-12-13T14:58:15Z</time>
      </trkpt>
      <trkpt lat="47.68324" lon="6.13926">
        <ele>281.8</ele>
        <time>2020-12-13T14:58:16Z</time>
      </trkpt>
      <trkpt lat="47.68319" lon="6.13932">
        <ele>281.6</ele>
        <time>2020-12-13T14:58:17Z</time>
      </trkpt>
      <trkpt lat="47.68315" lon="6.13939">
        <ele>281.5</ele>
        <time>2020-12-13T14:58:18Z</time>
      </trkpt>
      <trkpt lat="47.6831" lon="6.13945">
        <ele>281.4</ele>
        <time>2020-12-13T14:58:19Z</time>
      </trkpt>
      <trkpt lat="47.68306" lon="6.13952">
        <ele>281.3</ele>
        <time>2020-12-13T14:58:20Z</time>
      </trkpt>
      <trkpt lat="47.68302" lon="6.13958">
        <ele>281.2</ele>
        <time>2020-12-13T14:58:21Z</time>
      </trkpt>
      <trkpt lat="47.68298" lon="6.13964">
        <ele>281.1</ele>
        <time>2020-12-13T14:58:22Z</time>
      </trkpt>
      <trkpt lat="47.68294" lon="6.13971">
        <ele>280.9</ele>
        <time>2020-12-13T14:58:23Z</time>
      </trkpt>
      <trkpt lat="47.6829" lon="6.13977">
        <ele>280.8</ele>
        <time>2020-12-13T14:58:24Z</time>
      </trkpt>
      <trkpt lat="47.68287" lon="6.13985">
        <ele>280.7</ele>
        <time>2020-12-13T14:58:25Z</time>
      </trkpt>
      <trkpt lat="47.68283" lon="6.13993">
        <ele>280.5</ele>
        <time>2020-12-13T14:58:26Z</time>
      </trkpt>
      <trkpt lat="47.68279" lon="6.14001">
        <ele>280.4</ele>
        <time>2020-12-13T14:58:27Z</time>
      </trkpt>
      <trkpt lat="47.68275" lon="6.14008">
        <ele>280.2</ele>
        <time>2020-12-13T14:58:28Z</time>
      </trkpt>
      <trkpt lat="47.68271" lon="6.14016">
        <ele>280</ele>
        <time>2020-12-13T14:58:29Z</time>
      </trkpt>
      <trkpt lat="47.68268" lon="6.14023">
        <ele>279.8</ele>
        <time>2020-12-13T14:58:30Z</time>
      </trkpt>
      <trkpt lat="47.68264" lon="6.14031">
        <ele>279.6</ele>
        <time>2020-12-13T14:58:31Z</time>
      </trkpt>
      <trkpt lat="47.6826" lon="6.14039">
        <ele>279.4</ele>
        <time>2020-12-13T14:58:32Z</time>
      </trkpt>
      <trkpt lat="47.68257" lon="6.14046">
        <ele>279.3</ele>
        <time>2020-12-13T14:58:33Z</time>
      </trkpt>
      <trkpt lat="47.68253" lon="6.14054">
        <ele>279.1</ele>
        <time>2020-12-13T14:58:34Z</time>
      </trkpt>
      <trkpt lat="47.68249" lon="6.14062">
        <ele>279</ele>
        <time>2020-12-13T14:58:35Z</time>
      </trkpt>
      <trkpt lat="47.68245" lon="6.14069">
        <ele>278.8</ele>
        <time>2020-12-13T14:58:36Z</time>
      </trkpt>
      <trkpt lat="47.68241" lon="6.14076">
        <ele>278.7</ele>
        <time>2020-12-13T14:58:37Z</time>
      </trkpt>
      <trkpt lat="47.68237" lon="6.14083">
        <ele>278.5</ele>
        <time>2020-12-13T14:58:38Z</time>
      </trkpt>
      <trkpt lat="47.68233" lon="6.1409">
        <ele>278.2</ele>
        <time>2020-12-13T14:58:39Z</time>
      </trkpt>
      <trkpt lat="47.68229" lon="6.14097">
        <ele>278</ele>
        <time>2020-12-13T14:58:40Z</time>
      </trkpt>
      <trkpt lat="47.68224" lon="6.14104">
        <ele>277.7</ele>
        <time>2020-12-13T14:58:41Z</time>
      </trkpt>
      <trkpt lat="47.6822" lon="6.1411">
        <ele>277.4</ele>
        <time>2020-12-13T14:58:42Z</time>
      </trkpt>
      <trkpt lat="47.68216" lon="6.14117">
        <ele>277.1</ele>
        <time>2020-12-13T14:58:43Z</time>
      </trkpt>
      <trkpt lat="47.68211" lon="6.14123">
        <ele>276.9</ele>
        <time>2020-12-13T14:58:44Z</time>
      </trkpt>
      <trkpt lat="47.68206" lon="6.1413">
        <ele>276.6</ele>
        <time>2020-12-13T14:58:45Z</time>
      </trkpt>
      <trkpt lat="47.68202" lon="6.14137">
        <ele>276.4</ele>
        <time>2020-12-13T14:58:46Z</time>
      </trkpt>
      <trkpt lat="47.68197" lon="6.14144">
        <ele>276.1</ele>
        <time>2020-12-13T14:58:47Z</time>
      </trkpt>
      <trkpt lat="47.68192" lon="6.1415">
        <ele>275.9</ele>
        <time>2020-12-13T14:58:48Z</time>
      </trkpt>
      <trkpt lat="47.68187" lon="6.14157">
        <ele>275.6</ele>
        <time>2020-12-13T14:58:49Z</time>
      </trkpt>
      <trkpt lat="47.68182" lon="6.14164">
        <ele>275.4</ele>
        <time>2020-12-13T14:58:50Z</time>
      </trkpt>
      <trkpt lat="47.68177" lon="6.1417">
        <ele>275.2</ele>
        <time>2020-12-13T14:58:51Z</time>
      </trkpt>
      <trkpt lat="47.68172" lon="6.14177">
        <ele>274.9</ele>
        <time>2020-12-13T14:58:52Z</time>
      </trkpt>
      <trkpt lat="47.68167" lon="6.14184">
        <ele>274.6</ele>
        <time>2020-12-13T14:58:53Z</time>
      </trkpt>
      <trkpt lat="47.68162" lon="6.14191">
        <ele>274.2</ele>
        <time>2020-12-13T14:58:54Z</time>
      </trkpt>
      <trkpt lat="47.68156" lon="6.14199">
        <ele>273.9</ele>
        <time>2020-12-13T14:58:55Z</time>
      </trkpt>
      <trkpt lat="47.68151" lon="6.14206">
        <ele>273.5</ele>
        <time>2020-12-13T14:58:56Z</time>
      </trkpt>
      <trkpt lat="47.68145" lon="6.14214">
        <ele>273.1</ele>
        <time>2020-12-13T14:58:57Z</time>
      </trkpt>
      <trkpt lat="47.68138" lon="6.14221">
        <ele>272.7</ele>
        <time>2020-12-13T14:58:58Z</time>
      </trkpt>
      <trkpt lat="47.68132" lon="6.14229">
        <ele>272.3</ele>
        <time>2020-12-13T14:58:59Z</time>
      </trkpt>
      <trkpt lat="47.68126" lon="6.14237">
        <ele>271.8</ele>
        <time>2020-12-13T14:59:00Z</time>
      </trkpt>
      <trkpt lat="47.68119" lon="6.14246">
        <ele>271.4</ele>
        <time>2020-12-13T14:59:01Z</time>
      </trkpt>
      <trkpt lat="47.68112" lon="6.14253">
        <ele>271</ele>
        <time>2020-12-13T14:59:02Z</time>
      </trkpt>
      <trkpt lat="47.68105" lon="6.14262">
        <ele>270.6</ele>
        <time>2020-12-13T14:59:03Z</time>
      </trkpt>
      <trkpt lat="47.68099" lon="6.1427">
        <ele>270.1</ele>
        <time>2020-12-13T14:59:04Z</time>
      </trkpt>
      <trkpt lat="47.68092" lon="6.14278">
        <ele>269.7</ele>
        <time>2020-12-13T14:59:05Z</time>
      </trkpt>
      <trkpt lat="47.68086" lon="6.14285">
        <ele>269.3</ele>
        <time>2020-12-13T14:59:06Z</time>
      </trkpt>
      <trkpt lat="47.68079" lon="6.14293">
        <ele>268.9</ele>
        <time>2020-12-13T14:59:07Z</time>
      </trkpt>
      <trkpt lat="47.68073" lon="6.143">
        <ele>268.6</ele>
        <time>2020-12-13T14:59:08Z</time>
      </trkpt>
      <trkpt lat="47.68066" lon="6.14308">
        <ele>268.3</ele>
        <time>2020-12-13T14:59:09Z</time>
      </trkpt>
      <trkpt lat="47.6806" lon="6.14316">
        <ele>268</ele>
        <time>2020-12-13T14:59:10Z</time>
      </trkpt>
      <trkpt lat="47.68054" lon="6.14323">
        <ele>267.8</ele>
        <time>2020-12-13T14:59:10Z</time>
      </trkpt>
      <trkpt lat="47.68048" lon="6.1433">
        <ele>267.6</ele>
        <time>2020-12-13T14:59:11Z</time>
      </trkpt>
      <trkpt lat="47.68041" lon="6.14337">
        <ele>267.4</ele>
        <time>2020-12-13T14:59:12Z</time>
      </trkpt>
      <trkpt lat="47.68035" lon="6.14345">
        <ele>267.2</ele>
        <time>2020-12-13T14:59:13Z</time>
      </trkpt>
      <trkpt lat="47.68029" lon="6.14352">
        <ele>267</ele>
        <time>2020-12-13T14:59:14Z</time>
      </trkpt>
      <trkpt lat="47.68024" lon="6.1436">
        <ele>266.7</ele>
        <time>2020-12-13T14:59:15Z</time>
      </trkpt>
      <trkpt lat="47.68018" lon="6.14367">
        <ele>266.5</ele>
        <time>2020-12-13T14:59:16Z</time>
      </trkpt>
      <trkpt lat="47.68012" lon="6.14375">
        <ele>266.2</ele>
        <time>2020-12-13T14:59:17Z</time>
      </trkpt>
      <trkpt lat="47.68007" lon="6.14383">
        <ele>265.9</ele>
        <time>2020-12-13T14:59:18Z</time>
      </trkpt>
      <trkpt lat="47.68001" lon="6.14391">
        <ele>265.6</ele>
        <time>2020-12-13T14:59:19Z</time>
      </trkpt>
      <trkpt lat="47.67996" lon="6.14399">
        <ele>265.4</ele>
        <time>2020-12-13T14:59:20Z</time>
      </trkpt>
      <trkpt lat="47.67991" lon="6.14407">
        <ele>265.2</ele>
        <time>2020-12-13T14:59:21Z</time>
      </trkpt>
      <trkpt lat="47.67985" lon="6.14415">
        <ele>265</ele>
        <time>2020-12-13T14:59:22Z</time>
      </trkpt>
      <trkpt lat="47.6798" lon="6.14422">
        <ele>265</ele>
        <time>2020-12-13T14:59:23Z</time>
      </trkpt>
      <trkpt lat="47.67974" lon="6.1443">
        <ele>265</ele>
        <time>2020-12-13T14:59:24Z</time>
      </trkpt>
      <trkpt lat="47.67969" lon="6.14438">
        <ele>264.9</ele>
        <time>2020-12-13T14:59:25Z</time>
      </trkpt>
      <trkpt lat="47.67964" lon="6.14446">
        <ele>264.8</ele>
        <time>2020-12-13T14:59:26Z</time>
      </trkpt>
      <trkpt lat="47.67958" lon="6.14453">
        <ele>264.8</ele>
        <time>2020-12-13T14:59:27Z</time>
      </trkpt>
      <trkpt lat="47.67953" lon="6.1446">
        <ele>264.7</ele>
        <time>2020-12-13T14:59:28Z</time>
      </trkpt>
      <trkpt lat="47.67948" lon="6.14467">
        <ele>264.6</ele>
        <time>2020-12-13T14:59:29Z</time>
      </trkpt>
      <trkpt lat="47.67942" lon="6.14474">
        <ele>264.5</ele>
        <time>2020-12-13T14:59:30Z</time>
      </trkpt>
      <trkpt lat="47.67937" lon="6.14481">
        <ele>264.4</ele>
        <time>2020-12-13T14:59:31Z</time>
      </trkpt>
      <trkpt lat="47.67932" lon="6.14487">
        <ele>264.3</ele>
        <time>2020-12-13T14:59:32Z</time>
      </trkpt>
      <trkpt lat="47.67927" lon="6.14494">
        <ele>264.2</ele>
        <time>2020-12-13T14:59:33Z</time>
      </trkpt>
      <trkpt lat="47.67922" lon="6.145">
        <ele>264.1</ele>
        <time>2020-12-13T14:59:34Z</time>
      </trkpt>
      <trkpt lat="47.67917" lon="6.14505">
        <ele>263.8</ele>
        <time>2020-12-13T14:59:35Z</time>
      </trkpt>
      <trkpt lat="47.67912" lon="6.14511">
        <ele>263.5</ele>
        <time>2020-12-13T14:59:36Z</time>
      </trkpt>
      <trkpt lat="47.67907" lon="6.14516">
        <ele>263.2</ele>
        <time>2020-12-13T14:59:37Z</time>
      </trkpt>
      <trkpt lat="47.67901" lon="6.14521">
        <ele>263</ele>
        <time>2020-12-13T14:59:38Z</time>
      </trkpt>
      <trkpt lat="47.67897" lon="6.14526">
        <ele>262.7</ele>
        <time>2020-12-13T14:59:39Z</time>
      </trkpt>
      <trkpt lat="47.67892" lon="6.14531">
        <ele>262.5</ele>
        <time>2020-12-13T14:59:40Z</time>
      </trkpt>
      <trkpt lat="47.67887" lon="6.14536">
        <ele>262.3</ele>
        <time>2020-12-13T14:59:41Z</time>
      </trkpt>
      <trkpt lat="47.67882" lon="6.1454">
        <ele>262.1</ele>
        <time>2020-12-13T14:59:42Z</time>
      </trkpt>
      <trkpt lat="47.67876" lon="6.14544">
        <ele>261.9</ele>
        <time>2020-12-13T14:59:43Z</time>
      </trkpt>
      <trkpt lat="47.67871" lon="6.14548">
        <ele>261.8</ele>
        <time>2020-12-13T14:59:44Z</time>
      </trkpt>
      <trkpt lat="47.67865" lon="6.14552">
        <ele>261.7</ele>
        <time>2020-12-13T14:59:45Z</time>
      </trkpt>
      <trkpt lat="47.6786" lon="6.14556">
        <ele>261.5</ele>
        <time>2020-12-13T14:59:46Z</time>
      </trkpt>
      <trkpt lat="47.67854" lon="6.1456">
        <ele>261.4</ele>
        <time>2020-12-13T14:59:47Z</time>
      </trkpt>
      <trkpt lat="47.67849" lon="6.14564">
        <ele>261.3</ele>
        <time>2020-12-13T14:59:48Z</time>
      </trkpt>
      <trkpt lat="47.67843" lon="6.14568">
        <ele>261.2</ele>
        <time>2020-12-13T14:59:49Z</time>
      </trkpt>
      <trkpt lat="47.67838" lon="6.14571">
        <ele>261.2</ele>
        <time>2020-12-13T14:59:50Z</time>
      </trkpt>
      <trkpt lat="47.67832" lon="6.14574">
        <ele>261.1</ele>
        <time>2020-12-13T14:59:51Z</time>
      </trkpt>
      <trkpt lat="47.67826" lon="6.14578">
        <ele>261</ele>
        <time>2020-12-13T14:59:52Z</time>
      </trkpt>
      <trkpt lat="47.67821" lon="6.14581">
        <ele>260.9</ele>
        <time>2020-12-13T14:59:53Z</time>
      </trkpt>
      <trkpt lat="47.67815" lon="6.14585">
        <ele>260.8</ele>
        <time>2020-12-13T14:59:54Z</time>
      </trkpt>
      <trkpt lat="47.6781" lon="6.14588">
        <ele>260.6</ele>
        <time>2020-12-13T14:59:55Z</time>
      </trkpt>
      <trkpt lat="47.67804" lon="6.14592">
        <ele>260.5</ele>
        <time>2020-12-13T14:59:56Z</time>
      </trkpt>
      <trkpt lat="47.67799" lon="6.14595">
        <ele>260.4</ele>
        <time>2020-12-13T14:59:57Z</time>
      </trkpt>
      <trkpt lat="47.67793" lon="6.14598">
        <ele>260.3</ele>
        <time>2020-12-13T14:59:58Z</time>
      </trkpt>
      <trkpt lat="47.67788" lon="6.14601">
        <ele>260.1</ele>
        <time>2020-12-13T14:59:59Z</time>
      </trkpt>
      <trkpt lat="47.67783" lon="6.14604">
        <ele>260</ele>
        <time>2020-12-13T15:00:00Z</time>
      </trkpt>
      <trkpt lat="47.67778" lon="6.14608">
        <ele>259.9</ele>
        <time>2020-12-13T15:00:01Z</time>
      </trkpt>
      <trkpt lat="47.67772" lon="6.14611">
        <ele>259.9</ele>
        <time>2020-12-13T15:00:02Z</time>
      </trkpt>
      <trkpt lat="47.67767" lon="6.14614">
        <ele>259.8</ele>
        <time>2020-12-13T15:00:03Z</time>
      </trkpt>
      <trkpt lat="47.67762" lon="6.14617">
        <ele>259.7</ele>
        <time>2020-12-13T15:00:04Z</time>
      </trkpt>
      <trkpt lat="47.67757" lon="6.1462">
        <ele>259.6</ele>
        <time>2020-12-13T15:00:05Z</time>
      </trkpt>
      <trkpt lat="47.67752" lon="6.14623">
        <ele>259.5</ele>
        <time>2020-12-13T15:00:06Z</time>
      </trkpt>
      <trkpt lat="47.67747" lon="6.14626">
        <ele>259.5</ele>
        <time>2020-12-13T15:00:07Z</time>
      </trkpt>
      <trkpt lat="47.67742" lon="6.14629">
        <ele>259.4</ele>
        <time>2020-12-13T15:00:08Z</time>
      </trkpt>
      <trkpt lat="47.67737" lon="6.14632">
        <ele>259.3</ele>
        <time>2020-12-13T15:00:09Z</time>
      </trkpt>
      <trkpt lat="47.67732" lon="6.14635">
        <ele>259.3</ele>
        <time>2020-12-13T15:00:10Z</time>
      </trkpt>
      <trkpt lat="47.67728" lon="6.14638">
        <ele>259.2</ele>
        <time>2020-12-13T15:00:11Z</time>
      </trkpt>
      <trkpt lat="47.67723" lon="6.14641">
        <ele>259.1</ele>
        <time>2020-12-13T15:00:12Z</time>
      </trkpt>
      <trkpt lat="47.67718" lon="6.14644">
        <ele>259</ele>
        <time>2020-12-13T15:00:13Z</time>
      </trkpt>
      <trkpt lat="47.67714" lon="6.14646">
        <ele>258.9</ele>
        <time>2020-12-13T15:00:14Z</time>
      </trkpt>
      <trkpt lat="47.67709" lon="6.14649">
        <ele>258.8</ele>
        <time>2020-12-13T15:00:15Z</time>
      </trkpt>
      <trkpt lat="47.67705" lon="6.14652">
        <ele>258.7</ele>
        <time>2020-12-13T15:00:16Z</time>
      </trkpt>
      <trkpt lat="47.677" lon="6.14655">
        <ele>258.6</ele>
        <time>2020-12-13T15:00:17Z</time>
      </trkpt>
      <trkpt lat="47.67696" lon="6.14658">
        <ele>258.5</ele>
        <time>2020-12-13T15:00:18Z</time>
      </trkpt>
      <trkpt lat="47.67691" lon="6.14661">
        <ele>258.4</ele>
        <time>2020-12-13T15:00:19Z</time>
      </trkpt>
      <trkpt lat="47.67686" lon="6.14664">
        <ele>258.3</ele>
        <time>2020-12-13T15:00:20Z</time>
      </trkpt>
      <trkpt lat="47.67682" lon="6.14666">
        <ele>258.2</ele>
        <time>2020-12-13T15:00:21Z</time>
      </trkpt>
      <trkpt lat="47.67677" lon="6.14669">
        <ele>258.1</ele>
        <time>2020-12-13T15:00:22Z</time>
      </trkpt>
      <trkpt lat="47.67673" lon="6.14672">
        <ele>258</ele>
        <time>2020-12-13T15:00:23Z</time>
      </trkpt>
      <trkpt lat="47.67668" lon="6.14675">
        <ele>257.9</ele>
        <time>2020-12-13T15:00:24Z</time>
      </trkpt>
      <trkpt lat="47.67664" lon="6.14677">
        <ele>258.3</ele>
        <time>2020-12-13T15:00:25Z</time>
      </trkpt>
      <trkpt lat="47.6766" lon="6.1468">
        <ele>259.1</ele>
        <time>2020-12-13T15:00:26Z</time>
      </trkpt>
      <trkpt lat="47.67655" lon="6.14683">
        <ele>259.8</ele>
        <time>2020-12-13T15:00:27Z</time>
      </trkpt>
      <trkpt lat="47.67651" lon="6.14686">
        <ele>260.4</ele>
        <time>2020-12-13T15:00:28Z</time>
      </trkpt>
      <trkpt lat="47.67647" lon="6.14688">
        <ele>261</ele>
        <time>2020-12-13T15:00:29Z</time>
      </trkpt>
      <trkpt lat="47.67643" lon="6.14691">
        <ele>261.6</ele>
        <time>2020-12-13T15:00:30Z</time>
      </trkpt>
      <trkpt lat="47.67638" lon="6.14694">
        <ele>262.2</ele>
        <time>2020-12-13T15:00:31Z</time>
      </trkpt>
      <trkpt lat="47.67634" lon="6.14696">
        <ele>262.8</ele>
        <time>2020-12-13T15:00:32Z</time>
      </trkpt>
      <trkpt lat="47.67629" lon="6.14699">
        <ele>263.4</ele>
        <time>2020-12-13T15:00:33Z</time>
      </trkpt>
      <trkpt lat="47.67625" lon="6.14702">
        <ele>263.9</ele>
        <time>2020-12-13T15:00:34Z</time>
      </trkpt>
      <trkpt lat="47.6762" lon="6.14705">
        <ele>264.4</ele>
        <time>2020-12-13T15:00:35Z</time>
      </trkpt>
      <trkpt lat="47.67616" lon="6.14708">
        <ele>264.9</ele>
        <time>2020-12-13T15:00:36Z</time>
      </trkpt>
      <trkpt lat="47.67612" lon="6.14711">
        <ele>265.2</ele>
        <time>2020-12-13T15:00:37Z</time>
      </trkpt>
      <trkpt lat="47.67605" lon="6.14715">
        <ele>265.7</ele>
        <time>2020-12-13T15:00:39Z</time>
      </trkpt>
      <trkpt lat="47.67598" lon="6.14721">
        <ele>266.2</ele>
        <time>2020-12-13T15:00:41Z</time>
      </trkpt>
      <trkpt lat="47.67592" lon="6.14727">
        <ele>266.5</ele>
        <time>2020-12-13T15:00:43Z</time>
      </trkpt>
      <trkpt lat="47.67596" lon="6.1473">
        <ele>265.6</ele>
        <time>2020-12-13T15:00:46Z</time>
      </trkpt>
      <trkpt lat="47.67589" lon="6.14734">
        <ele>266</ele>
        <time>2020-12-13T15:00:47Z</time>
      </trkpt>
      <trkpt lat="47.67584" lon="6.14738">
        <ele>266.2</ele>
        <time>2020-12-13T15:00:48Z</time>
      </trkpt>
      <trkpt lat="47.6758" lon="6.14742">
        <ele>266.2</ele>
        <time>2020-12-13T15:00:50Z</time>
      </trkpt>
      <trkpt lat="47.67572" lon="6.14748">
        <ele>266.5</ele>
        <time>2020-12-13T15:00:52Z</time>
      </trkpt>
      <trkpt lat="47.67565" lon="6.14751">
        <ele>267</ele>
        <time>2020-12-13T15:00:54Z</time>
      </trkpt>
      <trkpt lat="47.6756" lon="6.14754">
        <ele>267.4</ele>
        <time>2020-12-13T15:00:55Z</time>
      </trkpt>
      <trkpt lat="47.67554" lon="6.14757">
        <ele>267.7</ele>
        <time>2020-12-13T15:00:58Z</time>
      </trkpt>
      <trkpt lat="47.6755" lon="6.14761">
        <ele>267.8</ele>
        <time>2020-12-13T15:00:59Z</time>
      </trkpt>
      <trkpt lat="47.67544" lon="6.14767">
        <ele>267.8</ele>
        <time>2020-12-13T15:01:01Z</time>
      </trkpt>
      <trkpt lat="47.67539" lon="6.1477">
        <ele>268</ele>
        <time>2020-12-13T15:01:03Z</time>
      </trkpt>
      <trkpt lat="47.67535" lon="6.14774">
        <ele>267.9</ele>
        <time>2020-12-13T15:01:05Z</time>
      </trkpt>
      <trkpt lat="47.6753" lon="6.14779">
        <ele>267.9</ele>
        <time>2020-12-13T15:01:07Z</time>
      </trkpt>
      <trkpt lat="47.67525" lon="6.14783">
        <ele>267.8</ele>
        <time>2020-12-13T15:01:09Z</time>
      </trkpt>
      <trkpt lat="47.67517" lon="6.14789">
        <ele>267.8</ele>
        <time>2020-12-13T15:01:13Z</time>
      </trkpt>
      <trkpt lat="47.67512" lon="6.14794">
        <ele>267.6</ele>
        <time>2020-12-13T15:01:14Z</time>
      </trkpt>
      <trkpt lat="47.67508" lon="6.14798">
        <ele>267.5</ele>
        <time>2020-12-13T15:01:16Z</time>
      </trkpt>
      <trkpt lat="47.67503" lon="6.14802">
        <ele>267.4</ele>
        <time>2020-12-13T15:01:18Z</time>
      </trkpt>
      <trkpt lat="47.67498" lon="6.14806">
        <ele>267.2</ele>
        <time>2020-12-13T15:01:20Z</time>
      </trkpt>
      <trkpt lat="47.67492" lon="6.1481">
        <ele>267.3</ele>
        <time>2020-12-13T15:01:22Z</time>
      </trkpt>
      <trkpt lat="47.67488" lon="6.14814">
        <ele>267.4</ele>
        <time>2020-12-13T15:01:25Z</time>
      </trkpt>
      <trkpt lat="47.67484" lon="6.14817">
        <ele>267.4</ele>
        <time>2020-12-13T15:01:26Z</time>
      </trkpt>
      <trkpt lat="47.67478" lon="6.14821">
        <ele>267.6</ele>
        <time>2020-12-13T15:01:28Z</time>
      </trkpt>
      <trkpt lat="47.67474" lon="6.14827">
        <ele>267.6</ele>
        <time>2020-12-13T15:01:30Z</time>
      </trkpt>
      <trkpt lat="47.67469" lon="6.14831">
        <ele>267.8</ele>
        <time>2020-12-13T15:01:32Z</time>
      </trkpt>
      <trkpt lat="47.67465" lon="6.14834">
        <ele>268</ele>
        <time>2020-12-13T15:01:34Z</time>
      </trkpt>
      <trkpt lat="47.6746" lon="6.14838">
        <ele>268.2</ele>
        <time>2020-12-13T15:01:36Z</time>
      </trkpt>
      <trkpt lat="47.67455" lon="6.14842">
        <ele>268.4</ele>
        <time>2020-12-13T15:01:37Z</time>
      </trkpt>
      <trkpt lat="47.6745" lon="6.14846">
        <ele>268.6</ele>
        <time>2020-12-13T15:01:40Z</time>
      </trkpt>
      <trkpt lat="47.67445" lon="6.14852">
        <ele>268.6</ele>
        <time>2020-12-13T15:01:41Z</time>
      </trkpt>
      <trkpt lat="47.6744" lon="6.14857">
        <ele>268.7</ele>
        <time>2020-12-13T15:01:43Z</time>
      </trkpt>
      <trkpt lat="47.67435" lon="6.14862">
        <ele>268.6</ele>
        <time>2020-12-13T15:01:45Z</time>
      </trkpt>
      <trkpt lat="47.67429" lon="6.14867">
        <ele>268.6</ele>
        <time>2020-12-13T15:01:47Z</time>
      </trkpt>
      <trkpt lat="47.67423" lon="6.14873">
        <ele>268.5</ele>
        <time>2020-12-13T15:01:49Z</time>
      </trkpt>
      <trkpt lat="47.67417" lon="6.14879">
        <ele>268.3</ele>
        <time>2020-12-13T15:01:51Z</time>
      </trkpt>
      <trkpt lat="47.6741" lon="6.14884">
        <ele>268</ele>
        <time>2020-12-13T15:01:53Z</time>
      </trkpt>
      <trkpt lat="47.67405" lon="6.1489">
        <ele>267.4</ele>
        <time>2020-12-13T15:01:56Z</time>
      </trkpt>
      <trkpt lat="47.674" lon="6.14896">
        <ele>266.9</ele>
        <time>2020-12-13T15:01:57Z</time>
      </trkpt>
      <trkpt lat="47.67393" lon="6.14903">
        <ele>266.1</ele>
        <time>2020-12-13T15:02:00Z</time>
      </trkpt>
      <trkpt lat="47.67389" lon="6.14907">
        <ele>265.8</ele>
        <time>2020-12-13T15:02:00Z</time>
      </trkpt>
      <trkpt lat="47.67383" lon="6.14912">
        <ele>265.3</ele>
        <time>2020-12-13T15:02:02Z</time>
      </trkpt>
      <trkpt lat="47.67379" lon="6.14915">
        <ele>265</ele>
        <time>2020-12-13T15:02:04Z</time>
      </trkpt>
      <trkpt lat="47.67376" lon="6.14919">
        <ele>264.8</ele>
        <time>2020-12-13T15:02:05Z</time>
      </trkpt>
      <trkpt lat="47.67368" lon="6.14925">
        <ele>264.7</ele>
        <time>2020-12-13T15:02:07Z</time>
      </trkpt>
      <trkpt lat="47.67364" lon="6.1493">
        <ele>264.6</ele>
        <time>2020-12-13T15:02:07Z</time>
      </trkpt>
      <trkpt lat="47.67358" lon="6.14936">
        <ele>264.4</ele>
        <time>2020-12-13T15:02:10Z</time>
      </trkpt>
      <trkpt lat="47.67352" lon="6.14942">
        <ele>264.3</ele>
        <time>2020-12-13T15:02:11Z</time>
      </trkpt>
      <trkpt lat="47.67347" lon="6.14947">
        <ele>264.2</ele>
        <time>2020-12-13T15:02:12Z</time>
      </trkpt>
      <trkpt lat="47.67341" lon="6.14952">
        <ele>264.1</ele>
        <time>2020-12-13T15:02:13Z</time>
      </trkpt>
      <trkpt lat="47.67336" lon="6.14957">
        <ele>264</ele>
        <time>2020-12-13T15:02:15Z</time>
      </trkpt>
      <trkpt lat="47.6733" lon="6.14962">
        <ele>263.6</ele>
        <time>2020-12-13T15:02:17Z</time>
      </trkpt>
      <trkpt lat="47.67325" lon="6.14967">
        <ele>263.1</ele>
        <time>2020-12-13T15:02:18Z</time>
      </trkpt>
      <trkpt lat="47.67317" lon="6.14974">
        <ele>262.3</ele>
        <time>2020-12-13T15:02:20Z</time>
      </trkpt>
      <trkpt lat="47.67311" lon="6.14979">
        <ele>261.8</ele>
        <time>2020-12-13T15:02:20Z</time>
      </trkpt>
      <trkpt lat="47.67307" lon="6.14983">
        <ele>261.5</ele>
        <time>2020-12-13T15:02:21Z</time>
      </trkpt>
      <trkpt lat="47.67303" lon="6.14987">
        <ele>261.2</ele>
        <time>2020-12-13T15:02:22Z</time>
      </trkpt>
      <trkpt lat="47.67299" lon="6.1499">
        <ele>261</ele>
        <time>2020-12-13T15:02:23Z</time>
      </trkpt>
      <trkpt lat="47.67291" lon="6.14997">
        <ele>260.6</ele>
        <time>2020-12-13T15:02:25Z</time>
      </trkpt>
      <trkpt lat="47.67284" lon="6.15005">
        <ele>260.4</ele>
        <time>2020-12-13T15:02:27Z</time>
      </trkpt>
      <trkpt lat="47.67277" lon="6.15012">
        <ele>260.3</ele>
        <time>2020-12-13T15:02:29Z</time>
      </trkpt>
      <trkpt lat="47.67271" lon="6.15019">
        <ele>260.3</ele>
        <time>2020-12-13T15:02:31Z</time>
      </trkpt>
      <trkpt lat="47.67265" lon="6.15024">
        <ele>260.3</ele>
        <time>2020-12-13T15:02:33Z</time>
      </trkpt>
      <trkpt lat="47.67259" lon="6.15029">
        <ele>260.3</ele>
        <time>2020-12-13T15:02:35Z</time>
      </trkpt>
      <trkpt lat="47.67254" lon="6.15034">
        <ele>260.4</ele>
        <time>2020-12-13T15:02:37Z</time>
      </trkpt>
      <trkpt lat="47.6725" lon="6.15041">
        <ele>260.5</ele>
        <time>2020-12-13T15:02:39Z</time>
      </trkpt>
      <trkpt lat="47.67245" lon="6.15045">
        <ele>260.8</ele>
        <time>2020-12-13T15:02:41Z</time>
      </trkpt>
      <trkpt lat="47.67239" lon="6.15049">
        <ele>261.2</ele>
        <time>2020-12-13T15:02:42Z</time>
      </trkpt>
      <trkpt lat="47.67235" lon="6.15052">
        <ele>261.5</ele>
        <time>2020-12-13T15:02:44Z</time>
      </trkpt>
      <trkpt lat="47.6723" lon="6.15056">
        <ele>261.8</ele>
        <time>2020-12-13T15:02:46Z</time>
      </trkpt>
      <trkpt lat="47.67224" lon="6.15061">
        <ele>262.1</ele>
        <time>2020-12-13T15:02:47Z</time>
      </trkpt>
      <trkpt lat="47.67218" lon="6.15065">
        <ele>262.5</ele>
        <time>2020-12-13T15:02:50Z</time>
      </trkpt>
      <trkpt lat="47.67213" lon="6.15069">
        <ele>262.7</ele>
        <time>2020-12-13T15:02:52Z</time>
      </trkpt>
      <trkpt lat="47.67208" lon="6.15074">
        <ele>263</ele>
        <time>2020-12-13T15:02:54Z</time>
      </trkpt>
      <trkpt lat="47.67203" lon="6.15079">
        <ele>263.3</ele>
        <time>2020-12-13T15:02:55Z</time>
      </trkpt>
      <trkpt lat="47.67195" lon="6.15085">
        <ele>263.5</ele>
        <time>2020-12-13T15:02:58Z</time>
      </trkpt>
      <trkpt lat="47.6719" lon="6.15089">
        <ele>263.6</ele>
        <time>2020-12-13T15:03:00Z</time>
      </trkpt>
      <trkpt lat="47.67185" lon="6.15094">
        <ele>263.5</ele>
        <time>2020-12-13T15:03:02Z</time>
      </trkpt>
      <trkpt lat="47.6718" lon="6.15099">
        <ele>263.5</ele>
        <time>2020-12-13T15:03:05Z</time>
      </trkpt>
      <trkpt lat="47.67176" lon="6.15103">
        <ele>263.4</ele>
        <time>2020-12-13T15:03:06Z</time>
      </trkpt>
      <trkpt lat="47.67172" lon="6.15107">
        <ele>263.4</ele>
        <time>2020-12-13T15:03:07Z</time>
      </trkpt>
      <trkpt lat="47.67167" lon="6.15111">
        <ele>263.4</ele>
        <time>2020-12-13T15:03:10Z</time>
      </trkpt>
      <trkpt lat="47.6716" lon="6.15116">
        <ele>263.1</ele>
        <time>2020-12-13T15:03:11Z</time>
      </trkpt>
      <trkpt lat="47.67154" lon="6.15119">
        <ele>263</ele>
        <time>2020-12-13T15:03:13Z</time>
      </trkpt>
      <trkpt lat="47.67148" lon="6.15121">
        <ele>262.9</ele>
        <time>2020-12-13T15:03:14Z</time>
      </trkpt>
      <trkpt lat="47.6714" lon="6.15125">
        <ele>262.8</ele>
        <time>2020-12-13T15:03:17Z</time>
      </trkpt>
      <trkpt lat="47.67134" lon="6.15127">
        <ele>262.8</ele>
        <time>2020-12-13T15:03:18Z</time>
      </trkpt>
      <trkpt lat="47.67129" lon="6.15129">
        <ele>262.7</ele>
        <time>2020-12-13T15:03:19Z</time>
      </trkpt>
      <trkpt lat="47.67124" lon="6.15131">
        <ele>262.7</ele>
        <time>2020-12-13T15:03:20Z</time>
      </trkpt>
      <trkpt lat="47.67118" lon="6.15132">
        <ele>262.6</ele>
        <time>2020-12-13T15:03:22Z</time>
      </trkpt>
      <trkpt lat="47.67113" lon="6.15133">
        <ele>262.6</ele>
        <time>2020-12-13T15:03:22Z</time>
      </trkpt>
      <trkpt lat="47.67105" lon="6.15136">
        <ele>262.6</ele>
        <time>2020-12-13T15:03:25Z</time>
      </trkpt>
      <trkpt lat="47.67098" lon="6.15138">
        <ele>262.6</ele>
        <time>2020-12-13T15:03:26Z</time>
      </trkpt>
      <trkpt lat="47.67093" lon="6.1514">
        <ele>262.5</ele>
        <time>2020-12-13T15:03:27Z</time>
      </trkpt>
      <trkpt lat="47.67086" lon="6.15142">
        <ele>262.4</ele>
        <time>2020-12-13T15:03:30Z</time>
      </trkpt>
      <trkpt lat="47.67081" lon="6.15144">
        <ele>262.4</ele>
        <time>2020-12-13T15:03:31Z</time>
      </trkpt>
      <trkpt lat="47.67076" lon="6.15146">
        <ele>262.4</ele>
        <time>2020-12-13T15:03:33Z</time>
      </trkpt>
      <trkpt lat="47.6707" lon="6.15148">
        <ele>262.4</ele>
        <time>2020-12-13T15:03:34Z</time>
      </trkpt>
      <trkpt lat="47.67063" lon="6.1515">
        <ele>262.4</ele>
        <time>2020-12-13T15:03:35Z</time>
      </trkpt>
      <trkpt lat="47.67056" lon="6.15153">
        <ele>262.4</ele>
        <time>2020-12-13T15:03:38Z</time>
      </trkpt>
      <trkpt lat="47.67048" lon="6.15156">
        <ele>262.4</ele>
        <time>2020-12-13T15:03:40Z</time>
      </trkpt>
      <trkpt lat="47.67043" lon="6.15156">
        <ele>262.5</ele>
        <time>2020-12-13T15:03:40Z</time>
      </trkpt>
      <trkpt lat="47.67036" lon="6.15158">
        <ele>262.5</ele>
        <time>2020-12-13T15:03:42Z</time>
      </trkpt>
      <trkpt lat="47.67028" lon="6.1516">
        <ele>262.6</ele>
        <time>2020-12-13T15:03:44Z</time>
      </trkpt>
      <trkpt lat="47.67021" lon="6.1516">
        <ele>262.8</ele>
        <time>2020-12-13T15:03:46Z</time>
      </trkpt>
      <trkpt lat="47.67016" lon="6.1516">
        <ele>262.9</ele>
        <time>2020-12-13T15:03:48Z</time>
      </trkpt>
      <trkpt lat="47.67008" lon="6.15159">
        <ele>263.1</ele>
        <time>2020-12-13T15:03:49Z</time>
      </trkpt>
      <trkpt lat="47.67003" lon="6.15157">
        <ele>263.3</ele>
        <time>2020-12-13T15:03:51Z</time>
      </trkpt>
      <trkpt lat="47.66997" lon="6.15156">
        <ele>263.4</ele>
        <time>2020-12-13T15:03:53Z</time>
      </trkpt>
      <trkpt lat="47.6699" lon="6.15151">
        <ele>263.7</ele>
        <time>2020-12-13T15:03:55Z</time>
      </trkpt>
      <trkpt lat="47.66984" lon="6.15148">
        <ele>263.8</ele>
        <time>2020-12-13T15:03:59Z</time>
      </trkpt>
      <trkpt lat="47.66979" lon="6.15145">
        <ele>263.9</ele>
        <time>2020-12-13T15:04:02Z</time>
      </trkpt>
      <trkpt lat="47.66974" lon="6.15142">
        <ele>264</ele>
        <time>2020-12-13T15:04:04Z</time>
      </trkpt>
      <trkpt lat="47.66969" lon="6.1514">
        <ele>264</ele>
        <time>2020-12-13T15:04:08Z</time>
      </trkpt>
      <trkpt lat="47.66964" lon="6.1514">
        <ele>264</ele>
        <time>2020-12-13T15:04:10Z</time>
      </trkpt>
      <trkpt lat="47.66959" lon="6.15141">
        <ele>264</ele>
        <time>2020-12-13T15:04:11Z</time>
      </trkpt>
      <trkpt lat="47.66953" lon="6.15143">
        <ele>264</ele>
        <time>2020-12-13T15:04:14Z</time>
      </trkpt>
      <trkpt lat="47.66948" lon="6.15146">
        <ele>264.1</ele>
        <time>2020-12-13T15:04:16Z</time>
      </trkpt>
      <trkpt lat="47.66944" lon="6.15153">
        <ele>264.2</ele>
        <time>2020-12-13T15:04:17Z</time>
      </trkpt>
      <trkpt lat="47.6694" lon="6.15162">
        <ele>264.4</ele>
        <time>2020-12-13T15:04:20Z</time>
      </trkpt>
      <trkpt lat="47.66937" lon="6.15169">
        <ele>264.5</ele>
        <time>2020-12-13T15:04:21Z</time>
      </trkpt>
      <trkpt lat="47.66935" lon="6.15177">
        <ele>264.4</ele>
        <time>2020-12-13T15:04:23Z</time>
      </trkpt>
      <trkpt lat="47.66932" lon="6.15185">
        <ele>264.3</ele>
        <time>2020-12-13T15:04:25Z</time>
      </trkpt>
      <trkpt lat="47.66929" lon="6.15192">
        <ele>264.3</ele>
        <time>2020-12-13T15:04:27Z</time>
      </trkpt>
      <trkpt lat="47.66926" lon="6.15197">
        <ele>264.3</ele>
        <time>2020-12-13T15:04:28Z</time>
      </trkpt>
      <trkpt lat="47.66922" lon="6.15202">
        <ele>264.4</ele>
        <time>2020-12-13T15:04:30Z</time>
      </trkpt>
      <trkpt lat="47.66918" lon="6.15207">
        <ele>264.4</ele>
        <time>2020-12-13T15:04:32Z</time>
      </trkpt>
      <trkpt lat="47.66913" lon="6.15214">
        <ele>264.3</ele>
        <time>2020-12-13T15:04:35Z</time>
      </trkpt>
      <trkpt lat="47.66908" lon="6.15222">
        <ele>264.1</ele>
        <time>2020-12-13T15:04:37Z</time>
      </trkpt>
      <trkpt lat="47.66901" lon="6.15229">
        <ele>263.7</ele>
        <time>2020-12-13T15:04:38Z</time>
      </trkpt>
      <trkpt lat="47.66895" lon="6.15235">
        <ele>263.4</ele>
        <time>2020-12-13T15:04:40Z</time>
      </trkpt>
      <trkpt lat="47.66889" lon="6.15242">
        <ele>263.1</ele>
        <time>2020-12-13T15:04:42Z</time>
      </trkpt>
      <trkpt lat="47.66884" lon="6.15246">
        <ele>262.9</ele>
        <time>2020-12-13T15:04:43Z</time>
      </trkpt>
      <trkpt lat="47.66874" lon="6.15255">
        <ele>262.3</ele>
        <time>2020-12-13T15:04:43Z</time>
      </trkpt>
      <trkpt lat="47.66868" lon="6.15261">
        <ele>261.8</ele>
        <time>2020-12-13T15:04:44Z</time>
      </trkpt>
      <trkpt lat="47.66861" lon="6.15266">
        <ele>261.3</ele>
        <time>2020-12-13T15:04:45Z</time>
      </trkpt>
      <trkpt lat="47.66854" lon="6.15272">
        <ele>260.9</ele>
        <time>2020-12-13T15:04:46Z</time>
      </trkpt>
      <trkpt lat="47.66848" lon="6.15278">
        <ele>260.5</ele>
        <time>2020-12-13T15:04:47Z</time>
      </trkpt>
      <trkpt lat="47.66842" lon="6.15284">
        <ele>260</ele>
        <time>2020-12-13T15:04:48Z</time>
      </trkpt>
      <trkpt lat="47.66835" lon="6.15289">
        <ele>259.6</ele>
        <time>2020-12-13T15:04:49Z</time>
      </trkpt>
      <trkpt lat="47.66829" lon="6.15296">
        <ele>259.1</ele>
        <time>2020-12-13T15:04:50Z</time>
      </trkpt>
      <trkpt lat="47.66822" lon="6.15302">
        <ele>258.6</ele>
        <time>2020-12-13T15:04:51Z</time>
      </trkpt>
      <trkpt lat="47.66815" lon="6.1531">
        <ele>258.1</ele>
        <time>2020-12-13T15:04:52Z</time>
      </trkpt>
      <trkpt lat="47.66808" lon="6.15317">
        <ele>257.6</ele>
        <time>2020-12-13T15:04:53Z</time>
      </trkpt>
      <trkpt lat="47.66802" lon="6.15326">
        <ele>257.1</ele>
        <time>2020-12-13T15:04:54Z</time>
      </trkpt>
      <trkpt lat="47.66795" lon="6.15335">
        <ele>256.6</ele>
        <time>2020-12-13T15:04:55Z</time>
      </trkpt>
      <trkpt lat="47.66789" lon="6.15343">
        <ele>255.9</ele>
        <time>2020-12-13T15:04:56Z</time>
      </trkpt>
      <trkpt lat="47.66782" lon="6.15352">
        <ele>255.3</ele>
        <time>2020-12-13T15:04:57Z</time>
      </trkpt>
      <trkpt lat="47.66774" lon="6.15361">
        <ele>254.7</ele>
        <time>2020-12-13T15:04:58Z</time>
      </trkpt>
      <trkpt lat="47.66767" lon="6.15369">
        <ele>254.1</ele>
        <time>2020-12-13T15:04:59Z</time>
      </trkpt>
      <trkpt lat="47.66759" lon="6.15378">
        <ele>253.6</ele>
        <time>2020-12-13T15:05:00Z</time>
      </trkpt>
      <trkpt lat="47.66751" lon="6.15386">
        <ele>253.1</ele>
        <time>2020-12-13T15:05:01Z</time>
      </trkpt>
      <trkpt lat="47.66743" lon="6.15394">
        <ele>252.6</ele>
        <time>2020-12-13T15:05:02Z</time>
      </trkpt>
      <trkpt lat="47.66734" lon="6.15402">
        <ele>252</ele>
        <time>2020-12-13T15:05:03Z</time>
      </trkpt>
      <trkpt lat="47.66726" lon="6.1541">
        <ele>251.4</ele>
        <time>2020-12-13T15:05:04Z</time>
      </trkpt>
      <trkpt lat="47.66717" lon="6.15418">
        <ele>250.8</ele>
        <time>2020-12-13T15:05:05Z</time>
      </trkpt>
      <trkpt lat="47.66709" lon="6.15426">
        <ele>250.3</ele>
        <time>2020-12-13T15:05:06Z</time>
      </trkpt>
      <trkpt lat="47.667" lon="6.15434">
        <ele>249.8</ele>
        <time>2020-12-13T15:05:07Z</time>
      </trkpt>
      <trkpt lat="47.66692" lon="6.15442">
        <ele>249.3</ele>
        <time>2020-12-13T15:05:08Z</time>
      </trkpt>
      <trkpt lat="47.66684" lon="6.1545">
        <ele>248.8</ele>
        <time>2020-12-13T15:05:09Z</time>
      </trkpt>
      <trkpt lat="47.66676" lon="6.15457">
        <ele>248.4</ele>
        <time>2020-12-13T15:05:10Z</time>
      </trkpt>
      <trkpt lat="47.66668" lon="6.15464">
        <ele>247.9</ele>
        <time>2020-12-13T15:05:11Z</time>
      </trkpt>
      <trkpt lat="47.6666" lon="6.1547">
        <ele>247.5</ele>
        <time>2020-12-13T15:05:12Z</time>
      </trkpt>
      <trkpt lat="47.66652" lon="6.15475">
        <ele>247.3</ele>
        <time>2020-12-13T15:05:13Z</time>
      </trkpt>
      <trkpt lat="47.66644" lon="6.1548">
        <ele>247</ele>
        <time>2020-12-13T15:05:14Z</time>
      </trkpt>
      <trkpt lat="47.66636" lon="6.15484">
        <ele>246.8</ele>
        <time>2020-12-13T15:05:15Z</time>
      </trkpt>
      <trkpt lat="47.66628" lon="6.15487">
        <ele>246.6</ele>
        <time>2020-12-13T15:05:16Z</time>
      </trkpt>
      <trkpt lat="47.6662" lon="6.1549">
        <ele>246.5</ele>
        <time>2020-12-13T15:05:17Z</time>
      </trkpt>
      <trkpt lat="47.66612" lon="6.15493">
        <ele>246.4</ele>
        <time>2020-12-13T15:05:18Z</time>
      </trkpt>
      <trkpt lat="47.66605" lon="6.15497">
        <ele>246.2</ele>
        <time>2020-12-13T15:05:19Z</time>
      </trkpt>
      <trkpt lat="47.66598" lon="6.155">
        <ele>246.2</ele>
        <time>2020-12-13T15:05:20Z</time>
      </trkpt>
      <trkpt lat="47.66591" lon="6.15503">
        <ele>246.1</ele>
        <time>2020-12-13T15:05:21Z</time>
      </trkpt>
      <trkpt lat="47.66584" lon="6.15506">
        <ele>246.1</ele>
        <time>2020-12-13T15:05:22Z</time>
      </trkpt>
      <trkpt lat="47.66577" lon="6.15509">
        <ele>245.9</ele>
        <time>2020-12-13T15:05:23Z</time>
      </trkpt>
      <trkpt lat="47.6657" lon="6.15512">
        <ele>245.7</ele>
        <time>2020-12-13T15:05:24Z</time>
      </trkpt>
      <trkpt lat="47.66563" lon="6.15515">
        <ele>245.4</ele>
        <time>2020-12-13T15:05:25Z</time>
      </trkpt>
      <trkpt lat="47.66557" lon="6.15517">
        <ele>245.2</ele>
        <time>2020-12-13T15:05:26Z</time>
      </trkpt>
      <trkpt lat="47.6655" lon="6.1552">
        <ele>245</ele>
        <time>2020-12-13T15:05:27Z</time>
      </trkpt>
      <trkpt lat="47.66544" lon="6.15523">
        <ele>244.8</ele>
        <time>2020-12-13T15:05:28Z</time>
      </trkpt>
      <trkpt lat="47.66538" lon="6.15525">
        <ele>244.6</ele>
        <time>2020-12-13T15:05:29Z</time>
      </trkpt>
      <trkpt lat="47.66532" lon="6.15529">
        <ele>244.4</ele>
        <time>2020-12-13T15:05:30Z</time>
      </trkpt>
      <trkpt lat="47.66526" lon="6.15533">
        <ele>244.3</ele>
        <time>2020-12-13T15:05:31Z</time>
      </trkpt>
      <trkpt lat="47.6652" lon="6.15536">
        <ele>244.2</ele>
        <time>2020-12-13T15:05:32Z</time>
      </trkpt>
      <trkpt lat="47.66515" lon="6.15541">
        <ele>244.1</ele>
        <time>2020-12-13T15:05:33Z</time>
      </trkpt>
      <trkpt lat="47.6651" lon="6.15545">
        <ele>244</ele>
        <time>2020-12-13T15:05:34Z</time>
      </trkpt>
      <trkpt lat="47.66504" lon="6.15549">
        <ele>243.9</ele>
        <time>2020-12-13T15:05:35Z</time>
      </trkpt>
      <trkpt lat="47.66499" lon="6.15553">
        <ele>243.8</ele>
        <time>2020-12-13T15:05:36Z</time>
      </trkpt>
      <trkpt lat="47.66494" lon="6.15557">
        <ele>243.7</ele>
        <time>2020-12-13T15:05:37Z</time>
      </trkpt>
      <trkpt lat="47.66489" lon="6.15561">
        <ele>243.5</ele>
        <time>2020-12-13T15:05:38Z</time>
      </trkpt>
      <trkpt lat="47.66484" lon="6.15565">
        <ele>243.4</ele>
        <time>2020-12-13T15:05:39Z</time>
      </trkpt>
      <trkpt lat="47.66479" lon="6.15569">
        <ele>243.2</ele>
        <time>2020-12-13T15:05:40Z</time>
      </trkpt>
      <trkpt lat="47.66474" lon="6.15572">
        <ele>243.1</ele>
        <time>2020-12-13T15:05:41Z</time>
      </trkpt>
      <trkpt lat="47.66469" lon="6.15576">
        <ele>242.9</ele>
        <time>2020-12-13T15:05:42Z</time>
      </trkpt>
      <trkpt lat="47.66464" lon="6.1558">
        <ele>242.7</ele>
        <time>2020-12-13T15:05:43Z</time>
      </trkpt>
      <trkpt lat="47.66459" lon="6.15583">
        <ele>242.5</ele>
        <time>2020-12-13T15:05:44Z</time>
      </trkpt>
      <trkpt lat="47.66453" lon="6.15587">
        <ele>242.3</ele>
        <time>2020-12-13T15:05:45Z</time>
      </trkpt>
      <trkpt lat="47.66448" lon="6.15591">
        <ele>242</ele>
        <time>2020-12-13T15:05:46Z</time>
      </trkpt>
      <trkpt lat="47.66442" lon="6.15594">
        <ele>241.8</ele>
        <time>2020-12-13T15:05:47Z</time>
      </trkpt>
      <trkpt lat="47.66437" lon="6.15597">
        <ele>241.5</ele>
        <time>2020-12-13T15:05:48Z</time>
      </trkpt>
      <trkpt lat="47.66431" lon="6.156">
        <ele>241.2</ele>
        <time>2020-12-13T15:05:49Z</time>
      </trkpt>
      <trkpt lat="47.66425" lon="6.15603">
        <ele>241</ele>
        <time>2020-12-13T15:05:50Z</time>
      </trkpt>
      <trkpt lat="47.6642" lon="6.15606">
        <ele>240.7</ele>
        <time>2020-12-13T15:05:51Z</time>
      </trkpt>
      <trkpt lat="47.66414" lon="6.15608">
        <ele>240.5</ele>
        <time>2020-12-13T15:05:52Z</time>
      </trkpt>
      <trkpt lat="47.66408" lon="6.15611">
        <ele>240.3</ele>
        <time>2020-12-13T15:05:53Z</time>
      </trkpt>
      <trkpt lat="47.66402" lon="6.15613">
        <ele>240.1</ele>
        <time>2020-12-13T15:05:54Z</time>
      </trkpt>
      <trkpt lat="47.66395" lon="6.15615">
        <ele>239.9</ele>
        <time>2020-12-13T15:05:55Z</time>
      </trkpt>
      <trkpt lat="47.66389" lon="6.15617">
        <ele>239.7</ele>
        <time>2020-12-13T15:05:56Z</time>
      </trkpt>
      <trkpt lat="47.66382" lon="6.15619">
        <ele>239.6</ele>
        <time>2020-12-13T15:05:57Z</time>
      </trkpt>
      <trkpt lat="47.66376" lon="6.1562">
        <ele>239.4</ele>
        <time>2020-12-13T15:05:58Z</time>
      </trkpt>
      <trkpt lat="47.66369" lon="6.15622">
        <ele>239.2</ele>
        <time>2020-12-13T15:05:59Z</time>
      </trkpt>
      <trkpt lat="47.66363" lon="6.15624">
        <ele>239</ele>
        <time>2020-12-13T15:06:00Z</time>
      </trkpt>
      <trkpt lat="47.66356" lon="6.15626">
        <ele>238.9</ele>
        <time>2020-12-13T15:06:01Z</time>
      </trkpt>
      <trkpt lat="47.6635" lon="6.15627">
        <ele>238.7</ele>
        <time>2020-12-13T15:06:02Z</time>
      </trkpt>
      <trkpt lat="47.66344" lon="6.15629">
        <ele>238.6</ele>
        <time>2020-12-13T15:06:03Z</time>
      </trkpt>
      <trkpt lat="47.66338" lon="6.1563">
        <ele>238.4</ele>
        <time>2020-12-13T15:06:04Z</time>
      </trkpt>
      <trkpt lat="47.66332" lon="6.15632">
        <ele>238.3</ele>
        <time>2020-12-13T15:06:05Z</time>
      </trkpt>
      <trkpt lat="47.66326" lon="6.15634">
        <ele>238.1</ele>
        <time>2020-12-13T15:06:06Z</time>
      </trkpt>
      <trkpt lat="47.6632" lon="6.15636">
        <ele>237.9</ele>
        <time>2020-12-13T15:06:07Z</time>
      </trkpt>
      <trkpt lat="47.66313" lon="6.15639">
        <ele>237.7</ele>
        <time>2020-12-13T15:06:08Z</time>
      </trkpt>
      <trkpt lat="47.66307" lon="6.15641">
        <ele>237.5</ele>
        <time>2020-12-13T15:06:09Z</time>
      </trkpt>
      <trkpt lat="47.66301" lon="6.15644">
        <ele>237.3</ele>
        <time>2020-12-13T15:06:10Z</time>
      </trkpt>
      <trkpt lat="47.66295" lon="6.15647">
        <ele>237.1</ele>
        <time>2020-12-13T15:06:11Z</time>
      </trkpt>
      <trkpt lat="47.66289" lon="6.1565">
        <ele>236.9</ele>
        <time>2020-12-13T15:06:12Z</time>
      </trkpt>
      <trkpt lat="47.66283" lon="6.15653">
        <ele>236.6</ele>
        <time>2020-12-13T15:06:13Z</time>
      </trkpt>
      <trkpt lat="47.66277" lon="6.15657">
        <ele>236.4</ele>
        <time>2020-12-13T15:06:14Z</time>
      </trkpt>
      <trkpt lat="47.66271" lon="6.1566">
        <ele>236.1</ele>
        <time>2020-12-13T15:06:15Z</time>
      </trkpt>
      <trkpt lat="47.66265" lon="6.15664">
        <ele>235.9</ele>
        <time>2020-12-13T15:06:16Z</time>
      </trkpt>
      <trkpt lat="47.66259" lon="6.15668">
        <ele>235.5</ele>
        <time>2020-12-13T15:06:17Z</time>
      </trkpt>
      <trkpt lat="47.66253" lon="6.15672">
        <ele>235.1</ele>
        <time>2020-12-13T15:06:18Z</time>
      </trkpt>
      <trkpt lat="47.66247" lon="6.15677">
        <ele>234.8</ele>
        <time>2020-12-13T15:06:19Z</time>
      </trkpt>
      <trkpt lat="47.6624" lon="6.15681">
        <ele>234.5</ele>
        <time>2020-12-13T15:06:20Z</time>
      </trkpt>
      <trkpt lat="47.66233" lon="6.15685">
        <ele>234.1</ele>
        <time>2020-12-13T15:06:21Z</time>
      </trkpt>
      <trkpt lat="47.66226" lon="6.1569">
        <ele>233.8</ele>
        <time>2020-12-13T15:06:22Z</time>
      </trkpt>
      <trkpt lat="47.66219" lon="6.15694">
        <ele>233.4</ele>
        <time>2020-12-13T15:06:23Z</time>
      </trkpt>
      <trkpt lat="47.66212" lon="6.15699">
        <ele>233.1</ele>
        <time>2020-12-13T15:06:24Z</time>
      </trkpt>
      <trkpt lat="47.66204" lon="6.15704">
        <ele>232.7</ele>
        <time>2020-12-13T15:06:25Z</time>
      </trkpt>
      <trkpt lat="47.66197" lon="6.15709">
        <ele>232.3</ele>
        <time>2020-12-13T15:06:26Z</time>
      </trkpt>
      <trkpt lat="47.6619" lon="6.15713">
        <ele>231.9</ele>
        <time>2020-12-13T15:06:27Z</time>
      </trkpt>
      <trkpt lat="47.66183" lon="6.15718">
        <ele>231.5</ele>
        <time>2020-12-13T15:06:28Z</time>
      </trkpt>
      <trkpt lat="47.66176" lon="6.15722">
        <ele>231.1</ele>
        <time>2020-12-13T15:06:29Z</time>
      </trkpt>
      <trkpt lat="47.66169" lon="6.15727">
        <ele>230.7</ele>
        <time>2020-12-13T15:06:30Z</time>
      </trkpt>
      <trkpt lat="47.66162" lon="6.15731">
        <ele>230.5</ele>
        <time>2020-12-13T15:06:31Z</time>
      </trkpt>
      <trkpt lat="47.66156" lon="6.15735">
        <ele>230.4</ele>
        <time>2020-12-13T15:06:32Z</time>
      </trkpt>
      <trkpt lat="47.6615" lon="6.15739">
        <ele>230.4</ele>
        <time>2020-12-13T15:06:33Z</time>
      </trkpt>
      <trkpt lat="47.66144" lon="6.15743">
        <ele>230.4</ele>
        <time>2020-12-13T15:06:34Z</time>
      </trkpt>
      <trkpt lat="47.66138" lon="6.15746">
        <ele>230.4</ele>
        <time>2020-12-13T15:06:35Z</time>
      </trkpt>
      <trkpt lat="47.66132" lon="6.1575">
        <ele>230.4</ele>
        <time>2020-12-13T15:06:36Z</time>
      </trkpt>
      <trkpt lat="47.66126" lon="6.15753">
        <ele>230.5</ele>
        <time>2020-12-13T15:06:37Z</time>
      </trkpt>
      <trkpt lat="47.6612" lon="6.15757">
        <ele>230.6</ele>
        <time>2020-12-13T15:06:38Z</time>
      </trkpt>
      <trkpt lat="47.66115" lon="6.1576">
        <ele>230.7</ele>
        <time>2020-12-13T15:06:39Z</time>
      </trkpt>
      <trkpt lat="47.6611" lon="6.15763">
        <ele>230.7</ele>
        <time>2020-12-13T15:06:40Z</time>
      </trkpt>
      <trkpt lat="47.66105" lon="6.15766">
        <ele>230.8</ele>
        <time>2020-12-13T15:06:41Z</time>
      </trkpt>
      <trkpt lat="47.66101" lon="6.15769">
        <ele>230.8</ele>
        <time>2020-12-13T15:06:42Z</time>
      </trkpt>
      <trkpt lat="47.66093" lon="6.15774">
        <ele>230.9</ele>
        <time>2020-12-13T15:06:44Z</time>
      </trkpt>
      <trkpt lat="47.66088" lon="6.15778">
        <ele>231</ele>
        <time>2020-12-13T15:06:46Z</time>
      </trkpt>
      <trkpt lat="47.66083" lon="6.15782">
        <ele>231</ele>
        <time>2020-12-13T15:06:48Z</time>
      </trkpt>
      <trkpt lat="47.66077" lon="6.15786">
        <ele>231</ele>
        <time>2020-12-13T15:06:50Z</time>
      </trkpt>
      <trkpt lat="47.66068" lon="6.15793">
        <ele>231.1</ele>
        <time>2020-12-13T15:06:53Z</time>
      </trkpt>
      <trkpt lat="47.66062" lon="6.15797">
        <ele>231.1</ele>
        <time>2020-12-13T15:06:55Z</time>
      </trkpt>
      <trkpt lat="47.66057" lon="6.15801">
        <ele>231.2</ele>
        <time>2020-12-13T15:06:58Z</time>
      </trkpt>
      <trkpt lat="47.66052" lon="6.15804">
        <ele>231.2</ele>
        <time>2020-12-13T15:07:00Z</time>
      </trkpt>
      <trkpt lat="47.66046" lon="6.15809">
        <ele>231.3</ele>
        <time>2020-12-13T15:07:03Z</time>
      </trkpt>
      <trkpt lat="47.66041" lon="6.15812">
        <ele>231.4</ele>
        <time>2020-12-13T15:07:05Z</time>
      </trkpt>
      <trkpt lat="47.66035" lon="6.15816">
        <ele>231.5</ele>
        <time>2020-12-13T15:07:06Z</time>
      </trkpt>
      <trkpt lat="47.66029" lon="6.15822">
        <ele>231.6</ele>
        <time>2020-12-13T15:07:08Z</time>
      </trkpt>
      <trkpt lat="47.66025" lon="6.15826">
        <ele>231.6</ele>
        <time>2020-12-13T15:07:10Z</time>
      </trkpt>
      <trkpt lat="47.66021" lon="6.1583">
        <ele>231.7</ele>
        <time>2020-12-13T15:07:11Z</time>
      </trkpt>
      <trkpt lat="47.66017" lon="6.15834">
        <ele>231.8</ele>
        <time>2020-12-13T15:07:12Z</time>
      </trkpt>
      <trkpt lat="47.66012" lon="6.15839">
        <ele>231.7</ele>
        <time>2020-12-13T15:07:13Z</time>
      </trkpt>
      <trkpt lat="47.66006" lon="6.15847">
        <ele>231.6</ele>
        <time>2020-12-13T15:07:15Z</time>
      </trkpt>
      <trkpt lat="47.66001" lon="6.15853">
        <ele>231.5</ele>
        <time>2020-12-13T15:07:16Z</time>
      </trkpt>
      <trkpt lat="47.65994" lon="6.15865">
        <ele>231.4</ele>
        <time>2020-12-13T15:07:18Z</time>
      </trkpt>
      <trkpt lat="47.6599" lon="6.15871">
        <ele>231.4</ele>
        <time>2020-12-13T15:07:19Z</time>
      </trkpt>
      <trkpt lat="47.65986" lon="6.15877">
        <ele>231.4</ele>
        <time>2020-12-13T15:07:20Z</time>
      </trkpt>
      <trkpt lat="47.65982" lon="6.15883">
        <ele>231.5</ele>
        <time>2020-12-13T15:07:21Z</time>
      </trkpt>
      <trkpt lat="47.65977" lon="6.15889">
        <ele>231.7</ele>
        <time>2020-12-13T15:07:22Z</time>
      </trkpt>
      <trkpt lat="47.65973" lon="6.15895">
        <ele>231.9</ele>
        <time>2020-12-13T15:07:23Z</time>
      </trkpt>
      <trkpt lat="47.65969" lon="6.15902">
        <ele>232.1</ele>
        <time>2020-12-13T15:07:24Z</time>
      </trkpt>
      <trkpt lat="47.65964" lon="6.15909">
        <ele>232.5</ele>
        <time>2020-12-13T15:07:25Z</time>
      </trkpt>
      <trkpt lat="47.6596" lon="6.15916">
        <ele>232.9</ele>
        <time>2020-12-13T15:07:26Z</time>
      </trkpt>
      <trkpt lat="47.65956" lon="6.15922">
        <ele>233.3</ele>
        <time>2020-12-13T15:07:27Z</time>
      </trkpt>
      <trkpt lat="47.65951" lon="6.15928">
        <ele>233.8</ele>
        <time>2020-12-13T15:07:28Z</time>
      </trkpt>
      <trkpt lat="47.65948" lon="6.15933">
        <ele>234.3</ele>
        <time>2020-12-13T15:07:29Z</time>
      </trkpt>
      <trkpt lat="47.65944" lon="6.15939">
        <ele>234.7</ele>
        <time>2020-12-13T15:07:30Z</time>
      </trkpt>
      <trkpt lat="47.65941" lon="6.15945">
        <ele>235.2</ele>
        <time>2020-12-13T15:07:31Z</time>
      </trkpt>
      <trkpt lat="47.65937" lon="6.1595">
        <ele>235.6</ele>
        <time>2020-12-13T15:07:32Z</time>
      </trkpt>
      <trkpt lat="47.65934" lon="6.15955">
        <ele>236</ele>
        <time>2020-12-13T15:07:33Z</time>
      </trkpt>
      <trkpt lat="47.6593" lon="6.1596">
        <ele>236.5</ele>
        <time>2020-12-13T15:07:34Z</time>
      </trkpt>
      <trkpt lat="47.65927" lon="6.15964">
        <ele>236.9</ele>
        <time>2020-12-13T15:07:35Z</time>
      </trkpt>
      <trkpt lat="47.65922" lon="6.15971">
        <ele>237.5</ele>
        <time>2020-12-13T15:07:37Z</time>
      </trkpt>
      <trkpt lat="47.65916" lon="6.15978">
        <ele>238.2</ele>
        <time>2020-12-13T15:07:39Z</time>
      </trkpt>
      <trkpt lat="47.65912" lon="6.15985">
        <ele>238.7</ele>
        <time>2020-12-13T15:07:41Z</time>
      </trkpt>
      <trkpt lat="47.65908" lon="6.15989">
        <ele>239.1</ele>
        <time>2020-12-13T15:07:43Z</time>
      </trkpt>
      <trkpt lat="47.659" lon="6.15993">
        <ele>239.7</ele>
        <time>2020-12-13T15:07:44Z</time>
      </trkpt>
      <trkpt lat="47.65898" lon="6.16">
        <ele>240.1</ele>
        <time>2020-12-13T15:07:47Z</time>
      </trkpt>
      <trkpt lat="47.65895" lon="6.16005">
        <ele>240.4</ele>
        <time>2020-12-13T15:07:51Z</time>
      </trkpt>
      <trkpt lat="47.65892" lon="6.16011">
        <ele>240.6</ele>
        <time>2020-12-13T15:07:54Z</time>
      </trkpt>
      <trkpt lat="47.65889" lon="6.16017">
        <ele>240.9</ele>
        <time>2020-12-13T15:07:57Z</time>
      </trkpt>
      <trkpt lat="47.65885" lon="6.16023">
        <ele>241.1</ele>
        <time>2020-12-13T15:08:00Z</time>
      </trkpt>
      <trkpt lat="47.65882" lon="6.16029">
        <ele>241.4</ele>
        <time>2020-12-13T15:08:02Z</time>
      </trkpt>
      <trkpt lat="47.65877" lon="6.16035">
        <ele>241.6</ele>
        <time>2020-12-13T15:08:04Z</time>
      </trkpt>
      <trkpt lat="47.65871" lon="6.16041">
        <ele>241.9</ele>
        <time>2020-12-13T15:08:07Z</time>
      </trkpt>
      <trkpt lat="47.65867" lon="6.16048">
        <ele>242.1</ele>
        <time>2020-12-13T15:08:08Z</time>
      </trkpt>
      <trkpt lat="47.65862" lon="6.16057">
        <ele>242.3</ele>
        <time>2020-12-13T15:08:11Z</time>
      </trkpt>
      <trkpt lat="47.65859" lon="6.16062">
        <ele>242.4</ele>
        <time>2020-12-13T15:08:11Z</time>
      </trkpt>
      <trkpt lat="47.65853" lon="6.16072">
        <ele>242.6</ele>
        <time>2020-12-13T15:08:14Z</time>
      </trkpt>
      <trkpt lat="47.65845" lon="6.16089">
        <ele>242.8</ele>
        <time>2020-12-13T15:08:15Z</time>
      </trkpt>
      <trkpt lat="47.6584" lon="6.16095">
        <ele>242.9</ele>
        <time>2020-12-13T15:08:16Z</time>
      </trkpt>
      <trkpt lat="47.65835" lon="6.16102">
        <ele>243</ele>
        <time>2020-12-13T15:08:17Z</time>
      </trkpt>
      <trkpt lat="47.65831" lon="6.16109">
        <ele>242.8</ele>
        <time>2020-12-13T15:08:18Z</time>
      </trkpt>
      <trkpt lat="47.65826" lon="6.16116">
        <ele>242.5</ele>
        <time>2020-12-13T15:08:19Z</time>
      </trkpt>
      <trkpt lat="47.65821" lon="6.16123">
        <ele>242.2</ele>
        <time>2020-12-13T15:08:20Z</time>
      </trkpt>
      <trkpt lat="47.65816" lon="6.1613">
        <ele>241.8</ele>
        <time>2020-12-13T15:08:21Z</time>
      </trkpt>
      <trkpt lat="47.65811" lon="6.16137">
        <ele>241.4</ele>
        <time>2020-12-13T15:08:22Z</time>
      </trkpt>
      <trkpt lat="47.65806" lon="6.16145">
        <ele>241</ele>
        <time>2020-12-13T15:08:23Z</time>
      </trkpt>
      <trkpt lat="47.65801" lon="6.16152">
        <ele>240.5</ele>
        <time>2020-12-13T15:08:24Z</time>
      </trkpt>
      <trkpt lat="47.65795" lon="6.1616">
        <ele>239.9</ele>
        <time>2020-12-13T15:08:25Z</time>
      </trkpt>
      <trkpt lat="47.6579" lon="6.16168">
        <ele>239.3</ele>
        <time>2020-12-13T15:08:26Z</time>
      </trkpt>
      <trkpt lat="47.65784" lon="6.16176">
        <ele>238.8</ele>
        <time>2020-12-13T15:08:27Z</time>
      </trkpt>
      <trkpt lat="47.65778" lon="6.16184">
        <ele>238.3</ele>
        <time>2020-12-13T15:08:28Z</time>
      </trkpt>
      <trkpt lat="47.65772" lon="6.16192">
        <ele>237.8</ele>
        <time>2020-12-13T15:08:29Z</time>
      </trkpt>
      <trkpt lat="47.65767" lon="6.162">
        <ele>237.3</ele>
        <time>2020-12-13T15:08:30Z</time>
      </trkpt>
      <trkpt lat="47.65761" lon="6.16207">
        <ele>236.9</ele>
        <time>2020-12-13T15:08:31Z</time>
      </trkpt>
      <trkpt lat="47.65755" lon="6.16215">
        <ele>236.4</ele>
        <time>2020-12-13T15:08:32Z</time>
      </trkpt>
      <trkpt lat="47.6575" lon="6.16223">
        <ele>236</ele>
        <time>2020-12-13T15:08:33Z</time>
      </trkpt>
      <trkpt lat="47.65745" lon="6.16231">
        <ele>235.4</ele>
        <time>2020-12-13T15:08:34Z</time>
      </trkpt>
      <trkpt lat="47.6574" lon="6.16238">
        <ele>234.8</ele>
        <time>2020-12-13T15:08:35Z</time>
      </trkpt>
      <trkpt lat="47.65735" lon="6.16245">
        <ele>234.1</ele>
        <time>2020-12-13T15:08:36Z</time>
      </trkpt>
      <trkpt lat="47.65731" lon="6.16252">
        <ele>233.5</ele>
        <time>2020-12-13T15:08:37Z</time>
      </trkpt>
      <trkpt lat="47.65726" lon="6.16258">
        <ele>233.2</ele>
        <time>2020-12-13T15:08:38Z</time>
      </trkpt>
      <trkpt lat="47.65722" lon="6.16265">
        <ele>233</ele>
        <time>2020-12-13T15:08:39Z</time>
      </trkpt>
      <trkpt lat="47.65718" lon="6.16271">
        <ele>232.8</ele>
        <time>2020-12-13T15:08:40Z</time>
      </trkpt>
      <trkpt lat="47.65714" lon="6.16276">
        <ele>232.7</ele>
        <time>2020-12-13T15:08:41Z</time>
      </trkpt>
      <trkpt lat="47.6571" lon="6.16282">
        <ele>232.6</ele>
        <time>2020-12-13T15:08:42Z</time>
      </trkpt>
      <trkpt lat="47.65707" lon="6.16286">
        <ele>232.5</ele>
        <time>2020-12-13T15:08:43Z</time>
      </trkpt>
      <trkpt lat="47.65701" lon="6.16295">
        <ele>232.4</ele>
        <time>2020-12-13T15:08:45Z</time>
      </trkpt>
      <trkpt lat="47.65696" lon="6.16303">
        <ele>232.5</ele>
        <time>2020-12-13T15:08:47Z</time>
      </trkpt>
      <trkpt lat="47.65691" lon="6.16312">
        <ele>232.6</ele>
        <time>2020-12-13T15:08:49Z</time>
      </trkpt>
      <trkpt lat="47.65686" lon="6.1632">
        <ele>232.6</ele>
        <time>2020-12-13T15:08:51Z</time>
      </trkpt>
      <trkpt lat="47.65675" lon="6.16327">
        <ele>232.2</ele>
        <time>2020-12-13T15:08:53Z</time>
      </trkpt>
      <trkpt lat="47.6567" lon="6.16335">
        <ele>232.4</ele>
        <time>2020-12-13T15:08:56Z</time>
      </trkpt>
      <trkpt lat="47.65666" lon="6.16344">
        <ele>232.7</ele>
        <time>2020-12-13T15:08:57Z</time>
      </trkpt>
      <trkpt lat="47.65662" lon="6.16353">
        <ele>233.2</ele>
        <time>2020-12-13T15:08:59Z</time>
      </trkpt>
      <trkpt lat="47.65657" lon="6.16362">
        <ele>233.5</ele>
        <time>2020-12-13T15:09:02Z</time>
      </trkpt>
      <trkpt lat="47.65654" lon="6.16367">
        <ele>233.7</ele>
        <time>2020-12-13T15:09:02Z</time>
      </trkpt>
      <trkpt lat="47.6565" lon="6.16373">
        <ele>233.9</ele>
        <time>2020-12-13T15:09:04Z</time>
      </trkpt>
      <trkpt lat="47.65647" lon="6.16379">
        <ele>234.1</ele>
        <time>2020-12-13T15:09:06Z</time>
      </trkpt>
      <trkpt lat="47.65643" lon="6.16384">
        <ele>234.2</ele>
        <time>2020-12-13T15:09:06Z</time>
      </trkpt>
      <trkpt lat="47.6564" lon="6.16389">
        <ele>234.3</ele>
        <time>2020-12-13T15:09:08Z</time>
      </trkpt>
      <trkpt lat="47.65635" lon="6.16394">
        <ele>234.3</ele>
        <time>2020-12-13T15:09:10Z</time>
      </trkpt>
      <trkpt lat="47.6563" lon="6.16401">
        <ele>234.4</ele>
        <time>2020-12-13T15:09:11Z</time>
      </trkpt>
      <trkpt lat="47.65624" lon="6.16409">
        <ele>234.4</ele>
        <time>2020-12-13T15:09:14Z</time>
      </trkpt>
      <trkpt lat="47.65619" lon="6.16417">
        <ele>234.6</ele>
        <time>2020-12-13T15:09:16Z</time>
      </trkpt>
      <trkpt lat="47.65614" lon="6.16424">
        <ele>234.6</ele>
        <time>2020-12-13T15:09:17Z</time>
      </trkpt>
      <trkpt lat="47.65611" lon="6.16429">
        <ele>234.7</ele>
        <time>2020-12-13T15:09:19Z</time>
      </trkpt>
      <trkpt lat="47.65605" lon="6.16437">
        <ele>234.8</ele>
        <time>2020-12-13T15:09:22Z</time>
      </trkpt>
      <trkpt lat="47.65602" lon="6.16442">
        <ele>234.9</ele>
        <time>2020-12-13T15:09:24Z</time>
      </trkpt>
      <trkpt lat="47.65597" lon="6.16449">
        <ele>235.1</ele>
        <time>2020-12-13T15:09:26Z</time>
      </trkpt>
      <trkpt lat="47.65593" lon="6.16455">
        <ele>235.2</ele>
        <time>2020-12-13T15:09:28Z</time>
      </trkpt>
      <trkpt lat="47.65589" lon="6.1646">
        <ele>235.4</ele>
        <time>2020-12-13T15:09:30Z</time>
      </trkpt>
      <trkpt lat="47.65586" lon="6.16466">
        <ele>235.6</ele>
        <time>2020-12-13T15:09:32Z</time>
      </trkpt>
      <trkpt lat="47.65582" lon="6.16471">
        <ele>235.8</ele>
        <time>2020-12-13T15:09:34Z</time>
      </trkpt>
      <trkpt lat="47.65578" lon="6.16476">
        <ele>235.9</ele>
        <time>2020-12-13T15:09:37Z</time>
      </trkpt>
      <trkpt lat="47.65573" lon="6.16484">
        <ele>236.1</ele>
        <time>2020-12-13T15:09:39Z</time>
      </trkpt>
      <trkpt lat="47.65568" lon="6.16491">
        <ele>236.2</ele>
        <time>2020-12-13T15:09:43Z</time>
      </trkpt>
      <trkpt lat="47.65563" lon="6.16497">
        <ele>236.2</ele>
        <time>2020-12-13T15:09:45Z</time>
      </trkpt>
      <trkpt lat="47.65559" lon="6.16502">
        <ele>236</ele>
        <time>2020-12-13T15:09:48Z</time>
      </trkpt>
      <trkpt lat="47.65555" lon="6.16507">
        <ele>235.6</ele>
        <time>2020-12-13T15:09:50Z</time>
      </trkpt>
      <trkpt lat="47.6555" lon="6.16512">
        <ele>235.3</ele>
        <time>2020-12-13T15:09:52Z</time>
      </trkpt>
      <trkpt lat="47.65546" lon="6.16517">
        <ele>235</ele>
        <time>2020-12-13T15:09:54Z</time>
      </trkpt>
      <trkpt lat="47.65543" lon="6.16522">
        <ele>234.9</ele>
        <time>2020-12-13T15:09:56Z</time>
      </trkpt>
      <trkpt lat="47.65539" lon="6.16529">
        <ele>234.7</ele>
        <time>2020-12-13T15:09:58Z</time>
      </trkpt>
      <trkpt lat="47.65535" lon="6.16535">
        <ele>234.6</ele>
        <time>2020-12-13T15:10:01Z</time>
      </trkpt>
      <trkpt lat="47.6553" lon="6.16541">
        <ele>234.4</ele>
        <time>2020-12-13T15:10:04Z</time>
      </trkpt>
      <trkpt lat="47.65526" lon="6.16544">
        <ele>234.3</ele>
        <time>2020-12-13T15:10:06Z</time>
      </trkpt>
      <trkpt lat="47.65521" lon="6.16545">
        <ele>234.1</ele>
        <time>2020-12-13T15:10:07Z</time>
      </trkpt>
      <trkpt lat="47.65516" lon="6.16545">
        <ele>233.9</ele>
        <time>2020-12-13T15:10:09Z</time>
      </trkpt>
      <trkpt lat="47.65511" lon="6.16544">
        <ele>233.6</ele>
        <time>2020-12-13T15:10:12Z</time>
      </trkpt>
      <trkpt lat="47.65505" lon="6.16544">
        <ele>233.3</ele>
        <time>2020-12-13T15:10:14Z</time>
      </trkpt>
      <trkpt lat="47.65499" lon="6.16542">
        <ele>233</ele>
        <time>2020-12-13T15:10:15Z</time>
      </trkpt>
      <trkpt lat="47.6549" lon="6.16541">
        <ele>232.8</ele>
        <time>2020-12-13T15:10:17Z</time>
      </trkpt>
      <trkpt lat="47.65484" lon="6.16539">
        <ele>232.6</ele>
        <time>2020-12-13T15:10:19Z</time>
      </trkpt>
      <trkpt lat="47.65478" lon="6.16538">
        <ele>232.4</ele>
        <time>2020-12-13T15:10:20Z</time>
      </trkpt>
      <trkpt lat="47.65471" lon="6.16537">
        <ele>232.2</ele>
        <time>2020-12-13T15:10:23Z</time>
      </trkpt>
      <trkpt lat="47.65465" lon="6.16536">
        <ele>232</ele>
        <time>2020-12-13T15:10:23Z</time>
      </trkpt>
      <trkpt lat="47.65457" lon="6.16534">
        <ele>231.7</ele>
        <time>2020-12-13T15:10:26Z</time>
      </trkpt>
      <trkpt lat="47.65451" lon="6.16532">
        <ele>231.5</ele>
        <time>2020-12-13T15:10:27Z</time>
      </trkpt>
      <trkpt lat="47.65446" lon="6.16531">
        <ele>231.3</ele>
        <time>2020-12-13T15:10:28Z</time>
      </trkpt>
      <trkpt lat="47.65442" lon="6.1653">
        <ele>231.1</ele>
        <time>2020-12-13T15:10:29Z</time>
      </trkpt>
      <trkpt lat="47.65437" lon="6.16529">
        <ele>230.9</ele>
        <time>2020-12-13T15:10:30Z</time>
      </trkpt>
      <trkpt lat="47.65432" lon="6.16529">
        <ele>230.8</ele>
        <time>2020-12-13T15:10:31Z</time>
      </trkpt>
      <trkpt lat="47.65427" lon="6.16528">
        <ele>230.6</ele>
        <time>2020-12-13T15:10:32Z</time>
      </trkpt>
      <trkpt lat="47.65423" lon="6.16527">
        <ele>230.4</ele>
        <time>2020-12-13T15:10:33Z</time>
      </trkpt>
      <trkpt lat="47.65418" lon="6.16526">
        <ele>230.2</ele>
        <time>2020-12-13T15:10:34Z</time>
      </trkpt>
      <trkpt lat="47.65413" lon="6.16525">
        <ele>230.1</ele>
        <time>2020-12-13T15:10:35Z</time>
      </trkpt>
      <trkpt lat="47.65409" lon="6.16524">
        <ele>230</ele>
        <time>2020-12-13T15:10:36Z</time>
      </trkpt>
      <trkpt lat="47.65404" lon="6.16523">
        <ele>230</ele>
        <time>2020-12-13T15:10:37Z</time>
      </trkpt>
      <trkpt lat="47.654" lon="6.16522">
        <ele>229.9</ele>
        <time>2020-12-13T15:10:38Z</time>
      </trkpt>
      <trkpt lat="47.65395" lon="6.16521">
        <ele>229.8</ele>
        <time>2020-12-13T15:10:39Z</time>
      </trkpt>
      <trkpt lat="47.65391" lon="6.1652">
        <ele>229.8</ele>
        <time>2020-12-13T15:10:40Z</time>
      </trkpt>
      <trkpt lat="47.65383" lon="6.16518">
        <ele>229.7</ele>
        <time>2020-12-13T15:10:42Z</time>
      </trkpt>
      <trkpt lat="47.65379" lon="6.16517">
        <ele>229.6</ele>
        <time>2020-12-13T15:10:43Z</time>
      </trkpt>
      <trkpt lat="47.65374" lon="6.16516">
        <ele>229.6</ele>
        <time>2020-12-13T15:10:44Z</time>
      </trkpt>
      <trkpt lat="47.65364" lon="6.16515">
        <ele>229.5</ele>
        <time>2020-12-13T15:10:46Z</time>
      </trkpt>
      <trkpt lat="47.6536" lon="6.16509">
        <ele>229.2</ele>
        <time>2020-12-13T15:10:48Z</time>
      </trkpt>
      <trkpt lat="47.65352" lon="6.16509">
        <ele>229.3</ele>
        <time>2020-12-13T15:10:50Z</time>
      </trkpt>
      <trkpt lat="47.65347" lon="6.16509">
        <ele>229.3</ele>
        <time>2020-12-13T15:10:51Z</time>
      </trkpt>
      <trkpt lat="47.65342" lon="6.16509">
        <ele>229.3</ele>
        <time>2020-12-13T15:10:52Z</time>
      </trkpt>
      <trkpt lat="47.65337" lon="6.16508">
        <ele>229.4</ele>
        <time>2020-12-13T15:10:53Z</time>
      </trkpt>
      <trkpt lat="47.6533" lon="6.16508">
        <ele>229.5</ele>
        <time>2020-12-13T15:10:54Z</time>
      </trkpt>
      <trkpt lat="47.65325" lon="6.16507">
        <ele>229.5</ele>
        <time>2020-12-13T15:10:55Z</time>
      </trkpt>
      <trkpt lat="47.65315" lon="6.16506">
        <ele>229.7</ele>
        <time>2020-12-13T15:10:58Z</time>
      </trkpt>
      <trkpt lat="47.65309" lon="6.16504">
        <ele>229.8</ele>
        <time>2020-12-13T15:10:59Z</time>
      </trkpt>
      <trkpt lat="47.65303" lon="6.16503">
        <ele>229.9</ele>
        <time>2020-12-13T15:11:01Z</time>
      </trkpt>
      <trkpt lat="47.65294" lon="6.16502">
        <ele>230</ele>
        <time>2020-12-13T15:11:03Z</time>
      </trkpt>
      <trkpt lat="47.65286" lon="6.165">
        <ele>230.1</ele>
        <time>2020-12-13T15:11:05Z</time>
      </trkpt>
      <trkpt lat="47.65278" lon="6.16499">
        <ele>230.3</ele>
        <time>2020-12-13T15:11:07Z</time>
      </trkpt>
      <trkpt lat="47.65271" lon="6.16497">
        <ele>230.4</ele>
        <time>2020-12-13T15:11:08Z</time>
      </trkpt>
      <trkpt lat="47.65265" lon="6.16495">
        <ele>230.5</ele>
        <time>2020-12-13T15:11:10Z</time>
      </trkpt>
      <trkpt lat="47.65258" lon="6.16494">
        <ele>230.6</ele>
        <time>2020-12-13T15:11:11Z</time>
      </trkpt>
      <trkpt lat="47.65253" lon="6.16493">
        <ele>230.7</ele>
        <time>2020-12-13T15:11:13Z</time>
      </trkpt>
      <trkpt lat="47.65246" lon="6.16492">
        <ele>230.9</ele>
        <time>2020-12-13T15:11:14Z</time>
      </trkpt>
      <trkpt lat="47.65241" lon="6.16491">
        <ele>231</ele>
        <time>2020-12-13T15:11:16Z</time>
      </trkpt>
      <trkpt lat="47.65235" lon="6.1649">
        <ele>231.1</ele>
        <time>2020-12-13T15:11:17Z</time>
      </trkpt>
      <trkpt lat="47.65229" lon="6.16489">
        <ele>231.3</ele>
        <time>2020-12-13T15:11:19Z</time>
      </trkpt>
      <trkpt lat="47.65221" lon="6.16487">
        <ele>231.5</ele>
        <time>2020-12-13T15:11:21Z</time>
      </trkpt>
      <trkpt lat="47.65214" lon="6.16486">
        <ele>231.6</ele>
        <time>2020-12-13T15:11:23Z</time>
      </trkpt>
      <trkpt lat="47.65208" lon="6.16485">
        <ele>231.8</ele>
        <time>2020-12-13T15:11:24Z</time>
      </trkpt>
      <trkpt lat="47.65201" lon="6.16483">
        <ele>231.9</ele>
        <time>2020-12-13T15:11:27Z</time>
      </trkpt>
      <trkpt lat="47.65194" lon="6.16481">
        <ele>232</ele>
        <time>2020-12-13T15:11:29Z</time>
      </trkpt>
      <trkpt lat="47.65189" lon="6.1648">
        <ele>232.1</ele>
        <time>2020-12-13T15:11:31Z</time>
      </trkpt>
      <trkpt lat="47.65184" lon="6.16479">
        <ele>232.2</ele>
        <time>2020-12-13T15:11:33Z</time>
      </trkpt>
      <trkpt lat="47.65179" lon="6.16479">
        <ele>232.4</ele>
        <time>2020-12-13T15:11:35Z</time>
      </trkpt>
      <trkpt lat="47.65174" lon="6.16478">
        <ele>232.5</ele>
        <time>2020-12-13T15:11:37Z</time>
      </trkpt>
      <trkpt lat="47.65169" lon="6.16477">
        <ele>232.6</ele>
        <time>2020-12-13T15:11:39Z</time>
      </trkpt>
      <trkpt lat="47.65163" lon="6.16476">
        <ele>232.6</ele>
        <time>2020-12-13T15:11:41Z</time>
      </trkpt>
      <trkpt lat="47.65158" lon="6.16475">
        <ele>232.7</ele>
        <time>2020-12-13T15:11:43Z</time>
      </trkpt>
      <trkpt lat="47.65153" lon="6.16474">
        <ele>232.7</ele>
        <time>2020-12-13T15:11:45Z</time>
      </trkpt>
      <trkpt lat="47.65148" lon="6.16473">
        <ele>232.7</ele>
        <time>2020-12-13T15:11:47Z</time>
      </trkpt>
      <trkpt lat="47.65143" lon="6.16472">
        <ele>232.8</ele>
        <time>2020-12-13T15:11:49Z</time>
      </trkpt>
      <trkpt lat="47.65138" lon="6.16471">
        <ele>232.8</ele>
        <time>2020-12-13T15:11:51Z</time>
      </trkpt>
      <trkpt lat="47.65133" lon="6.16469">
        <ele>232.9</ele>
        <time>2020-12-13T15:11:53Z</time>
      </trkpt>
      <trkpt lat="47.65127" lon="6.16468">
        <ele>232.9</ele>
        <time>2020-12-13T15:11:55Z</time>
      </trkpt>
      <trkpt lat="47.65122" lon="6.16467">
        <ele>233</ele>
        <time>2020-12-13T15:11:57Z</time>
      </trkpt>
      <trkpt lat="47.65116" lon="6.16466">
        <ele>233</ele>
        <time>2020-12-13T15:11:59Z</time>
      </trkpt>
      <trkpt lat="47.65111" lon="6.16465">
        <ele>233.1</ele>
        <time>2020-12-13T15:12:01Z</time>
      </trkpt>
      <trkpt lat="47.65106" lon="6.16464">
        <ele>233.2</ele>
        <time>2020-12-13T15:12:03Z</time>
      </trkpt>
      <trkpt lat="47.65101" lon="6.16463">
        <ele>233.3</ele>
        <time>2020-12-13T15:12:05Z</time>
      </trkpt>
      <trkpt lat="47.65095" lon="6.16462">
        <ele>233.4</ele>
        <time>2020-12-13T15:12:07Z</time>
      </trkpt>
      <trkpt lat="47.65091" lon="6.16461">
        <ele>233.4</ele>
        <time>2020-12-13T15:12:09Z</time>
      </trkpt>
      <trkpt lat="47.65085" lon="6.1646">
        <ele>233.5</ele>
        <time>2020-12-13T15:12:12Z</time>
      </trkpt>
      <trkpt lat="47.65078" lon="6.16459">
        <ele>233.7</ele>
        <time>2020-12-13T15:12:15Z</time>
      </trkpt>
      <trkpt lat="47.65073" lon="6.16458">
        <ele>233.8</ele>
        <time>2020-12-13T15:12:17Z</time>
      </trkpt>
      <trkpt lat="47.65068" lon="6.16457">
        <ele>233.9</ele>
        <time>2020-12-13T15:12:19Z</time>
      </trkpt>
      <trkpt lat="47.65062" lon="6.16456">
        <ele>234.1</ele>
        <time>2020-12-13T15:12:21Z</time>
      </trkpt>
      <trkpt lat="47.65056" lon="6.16454">
        <ele>234.3</ele>
        <time>2020-12-13T15:12:23Z</time>
      </trkpt>
      <trkpt lat="47.65051" lon="6.16453">
        <ele>234.4</ele>
        <time>2020-12-13T15:12:25Z</time>
      </trkpt>
      <trkpt lat="47.65046" lon="6.16453">
        <ele>234.6</ele>
        <time>2020-12-13T15:12:27Z</time>
      </trkpt>
      <trkpt lat="47.65041" lon="6.16452">
        <ele>234.7</ele>
        <time>2020-12-13T15:12:29Z</time>
      </trkpt>
      <trkpt lat="47.65034" lon="6.16451">
        <ele>235</ele>
        <time>2020-12-13T15:12:32Z</time>
      </trkpt>
      <trkpt lat="47.65029" lon="6.1645">
        <ele>235.2</ele>
        <time>2020-12-13T15:12:33Z</time>
      </trkpt>
      <trkpt lat="47.65021" lon="6.16449">
        <ele>235.4</ele>
        <time>2020-12-13T15:12:36Z</time>
      </trkpt>
      <trkpt lat="47.65015" lon="6.16448">
        <ele>235.7</ele>
        <time>2020-12-13T15:12:38Z</time>
      </trkpt>
      <trkpt lat="47.65009" lon="6.16447">
        <ele>235.9</ele>
        <time>2020-12-13T15:12:39Z</time>
      </trkpt>
      <trkpt lat="47.65004" lon="6.16446">
        <ele>236.1</ele>
        <time>2020-12-13T15:12:41Z</time>
      </trkpt>
      <trkpt lat="47.64996" lon="6.16445">
        <ele>236.4</ele>
        <time>2020-12-13T15:12:43Z</time>
      </trkpt>
      <trkpt lat="47.64989" lon="6.16443">
        <ele>236.5</ele>
        <time>2020-12-13T15:12:45Z</time>
      </trkpt>
      <trkpt lat="47.64982" lon="6.16442">
        <ele>236.6</ele>
        <time>2020-12-13T15:12:47Z</time>
      </trkpt>
      <trkpt lat="47.64975" lon="6.16441">
        <ele>236.7</ele>
        <time>2020-12-13T15:12:48Z</time>
      </trkpt>
      <trkpt lat="47.6497" lon="6.1644">
        <ele>236.9</ele>
        <time>2020-12-13T15:12:50Z</time>
      </trkpt>
      <trkpt lat="47.64962" lon="6.16439">
        <ele>237</ele>
        <time>2020-12-13T15:12:52Z</time>
      </trkpt>
      <trkpt lat="47.64954" lon="6.16438">
        <ele>237.2</ele>
        <time>2020-12-13T15:12:54Z</time>
      </trkpt>
      <trkpt lat="47.64946" lon="6.16436">
        <ele>237.4</ele>
        <time>2020-12-13T15:12:56Z</time>
      </trkpt>
      <trkpt lat="47.64938" lon="6.16434">
        <ele>237.6</ele>
        <time>2020-12-13T15:12:58Z</time>
      </trkpt>
      <trkpt lat="47.64931" lon="6.16433">
        <ele>237.8</ele>
        <time>2020-12-13T15:13:00Z</time>
      </trkpt>
      <trkpt lat="47.64926" lon="6.16432">
        <ele>237.9</ele>
        <time>2020-12-13T15:13:01Z</time>
      </trkpt>
      <trkpt lat="47.64919" lon="6.16431">
        <ele>238.1</ele>
        <time>2020-12-13T15:13:03Z</time>
      </trkpt>
      <trkpt lat="47.64912" lon="6.1643">
        <ele>238.3</ele>
        <time>2020-12-13T15:13:05Z</time>
      </trkpt>
      <trkpt lat="47.64905" lon="6.16429">
        <ele>238.5</ele>
        <time>2020-12-13T15:13:07Z</time>
      </trkpt>
      <trkpt lat="47.649" lon="6.16429">
        <ele>238.7</ele>
        <time>2020-12-13T15:13:09Z</time>
      </trkpt>
      <trkpt lat="47.64893" lon="6.16427">
        <ele>239</ele>
        <time>2020-12-13T15:13:11Z</time>
      </trkpt>
      <trkpt lat="47.64886" lon="6.16426">
        <ele>239.2</ele>
        <time>2020-12-13T15:13:13Z</time>
      </trkpt>
      <trkpt lat="47.6488" lon="6.16425">
        <ele>239.4</ele>
        <time>2020-12-13T15:13:15Z</time>
      </trkpt>
      <trkpt lat="47.64875" lon="6.16424">
        <ele>239.6</ele>
        <time>2020-12-13T15:13:17Z</time>
      </trkpt>
      <trkpt lat="47.64868" lon="6.16422">
        <ele>239.9</ele>
        <time>2020-12-13T15:13:19Z</time>
      </trkpt>
      <trkpt lat="47.64862" lon="6.16421">
        <ele>240.1</ele>
        <time>2020-12-13T15:13:21Z</time>
      </trkpt>
      <trkpt lat="47.64856" lon="6.1642">
        <ele>240.3</ele>
        <time>2020-12-13T15:13:23Z</time>
      </trkpt>
      <trkpt lat="47.6485" lon="6.16419">
        <ele>240.5</ele>
        <time>2020-12-13T15:13:25Z</time>
      </trkpt>
      <trkpt lat="47.64845" lon="6.16418">
        <ele>240.6</ele>
        <time>2020-12-13T15:13:26Z</time>
      </trkpt>
      <trkpt lat="47.64838" lon="6.16417">
        <ele>240.9</ele>
        <time>2020-12-13T15:13:29Z</time>
      </trkpt>
      <trkpt lat="47.64833" lon="6.16415">
        <ele>241</ele>
        <time>2020-12-13T15:13:31Z</time>
      </trkpt>
      <trkpt lat="47.64826" lon="6.16414">
        <ele>240.9</ele>
        <time>2020-12-13T15:13:33Z</time>
      </trkpt>
      <trkpt lat="47.64821" lon="6.16413">
        <ele>240.7</ele>
        <time>2020-12-13T15:13:34Z</time>
      </trkpt>
      <trkpt lat="47.64814" lon="6.16412">
        <ele>240.6</ele>
        <time>2020-12-13T15:13:36Z</time>
      </trkpt>
      <trkpt lat="47.64807" lon="6.1641">
        <ele>240.4</ele>
        <time>2020-12-13T15:13:39Z</time>
      </trkpt>
      <trkpt lat="47.64799" lon="6.16408">
        <ele>240.2</ele>
        <time>2020-12-13T15:13:41Z</time>
      </trkpt>
      <trkpt lat="47.64792" lon="6.16407">
        <ele>240.1</ele>
        <time>2020-12-13T15:13:43Z</time>
      </trkpt>
      <trkpt lat="47.64785" lon="6.16406">
        <ele>239.9</ele>
        <time>2020-12-13T15:13:45Z</time>
      </trkpt>
      <trkpt lat="47.64777" lon="6.16405">
        <ele>239.7</ele>
        <time>2020-12-13T15:13:47Z</time>
      </trkpt>
      <trkpt lat="47.64772" lon="6.16404">
        <ele>239.6</ele>
        <time>2020-12-13T15:13:48Z</time>
      </trkpt>
      <trkpt lat="47.64765" lon="6.16403">
        <ele>239.4</ele>
        <time>2020-12-13T15:13:49Z</time>
      </trkpt>
      <trkpt lat="47.64759" lon="6.16403">
        <ele>239.2</ele>
        <time>2020-12-13T15:13:51Z</time>
      </trkpt>
      <trkpt lat="47.64755" lon="6.16402">
        <ele>239.1</ele>
        <time>2020-12-13T15:13:52Z</time>
      </trkpt>
      <trkpt lat="47.6475" lon="6.16401">
        <ele>239</ele>
        <time>2020-12-13T15:13:53Z</time>
      </trkpt>
      <trkpt lat="47.64741" lon="6.164">
        <ele>238.6</ele>
        <time>2020-12-13T15:13:55Z</time>
      </trkpt>
      <trkpt lat="47.64733" lon="6.16399">
        <ele>238.3</ele>
        <time>2020-12-13T15:13:56Z</time>
      </trkpt>
      <trkpt lat="47.64727" lon="6.16398">
        <ele>238</ele>
        <time>2020-12-13T15:13:58Z</time>
      </trkpt>
      <trkpt lat="47.64714" lon="6.16396">
        <ele>237.5</ele>
        <time>2020-12-13T15:14:00Z</time>
      </trkpt>
      <trkpt lat="47.64708" lon="6.16395">
        <ele>237.2</ele>
        <time>2020-12-13T15:14:01Z</time>
      </trkpt>
      <trkpt lat="47.64703" lon="6.16394">
        <ele>237</ele>
        <time>2020-12-13T15:14:02Z</time>
      </trkpt>
      <trkpt lat="47.64697" lon="6.16393">
        <ele>236.7</ele>
        <time>2020-12-13T15:14:03Z</time>
      </trkpt>
      <trkpt lat="47.64691" lon="6.16392">
        <ele>236.4</ele>
        <time>2020-12-13T15:14:04Z</time>
      </trkpt>
      <trkpt lat="47.64684" lon="6.1639">
        <ele>236.1</ele>
        <time>2020-12-13T15:14:05Z</time>
      </trkpt>
      <trkpt lat="47.64677" lon="6.16389">
        <ele>235.8</ele>
        <time>2020-12-13T15:14:06Z</time>
      </trkpt>
      <trkpt lat="47.6467" lon="6.16388">
        <ele>235.5</ele>
        <time>2020-12-13T15:14:07Z</time>
      </trkpt>
      <trkpt lat="47.64664" lon="6.16386">
        <ele>235.2</ele>
        <time>2020-12-13T15:14:08Z</time>
      </trkpt>
      <trkpt lat="47.64657" lon="6.16385">
        <ele>235.1</ele>
        <time>2020-12-13T15:14:09Z</time>
      </trkpt>
      <trkpt lat="47.6465" lon="6.16383">
        <ele>235</ele>
        <time>2020-12-13T15:14:10Z</time>
      </trkpt>
      <trkpt lat="47.64644" lon="6.16382">
        <ele>234.9</ele>
        <time>2020-12-13T15:14:11Z</time>
      </trkpt>
      <trkpt lat="47.64638" lon="6.16381">
        <ele>234.7</ele>
        <time>2020-12-13T15:14:12Z</time>
      </trkpt>
      <trkpt lat="47.64631" lon="6.1638">
        <ele>234.6</ele>
        <time>2020-12-13T15:14:13Z</time>
      </trkpt>
      <trkpt lat="47.64625" lon="6.16378">
        <ele>234.5</ele>
        <time>2020-12-13T15:14:14Z</time>
      </trkpt>
      <trkpt lat="47.6462" lon="6.16377">
        <ele>234.5</ele>
        <time>2020-12-13T15:14:15Z</time>
      </trkpt>
      <trkpt lat="47.64614" lon="6.16376">
        <ele>234.4</ele>
        <time>2020-12-13T15:14:16Z</time>
      </trkpt>
      <trkpt lat="47.64608" lon="6.16375">
        <ele>234.3</ele>
        <time>2020-12-13T15:14:17Z</time>
      </trkpt>
      <trkpt lat="47.64602" lon="6.16374">
        <ele>234.2</ele>
        <time>2020-12-13T15:14:18Z</time>
      </trkpt>
      <trkpt lat="47.64597" lon="6.16373">
        <ele>234.2</ele>
        <time>2020-12-13T15:14:19Z</time>
      </trkpt>
      <trkpt lat="47.64591" lon="6.16372">
        <ele>234.1</ele>
        <time>2020-12-13T15:14:20Z</time>
      </trkpt>
      <trkpt lat="47.64586" lon="6.16371">
        <ele>234</ele>
        <time>2020-12-13T15:14:21Z</time>
      </trkpt>
      <trkpt lat="47.64581" lon="6.1637">
        <ele>234</ele>
        <time>2020-12-13T15:14:22Z</time>
      </trkpt>
      <trkpt lat="47.64576" lon="6.1637">
        <ele>234</ele>
        <time>2020-12-13T15:14:23Z</time>
      </trkpt>
      <trkpt lat="47.64571" lon="6.16369">
        <ele>234</ele>
        <time>2020-12-13T15:14:24Z</time>
      </trkpt>
      <trkpt lat="47.64565" lon="6.16368">
        <ele>234</ele>
        <time>2020-12-13T15:14:25Z</time>
      </trkpt>
      <trkpt lat="47.6456" lon="6.16367">
        <ele>234.1</ele>
        <time>2020-12-13T15:14:26Z</time>
      </trkpt>
      <trkpt lat="47.64555" lon="6.16366">
        <ele>234.1</ele>
        <time>2020-12-13T15:14:27Z</time>
      </trkpt>
      <trkpt lat="47.6455" lon="6.16365">
        <ele>234.1</ele>
        <time>2020-12-13T15:14:28Z</time>
      </trkpt>
      <trkpt lat="47.64545" lon="6.16364">
        <ele>234.1</ele>
        <time>2020-12-13T15:14:29Z</time>
      </trkpt>
      <trkpt lat="47.6454" lon="6.16363">
        <ele>234.2</ele>
        <time>2020-12-13T15:14:30Z</time>
      </trkpt>
      <trkpt lat="47.64535" lon="6.16361">
        <ele>234.2</ele>
        <time>2020-12-13T15:14:31Z</time>
      </trkpt>
      <trkpt lat="47.6453" lon="6.1636">
        <ele>234.2</ele>
        <time>2020-12-13T15:14:32Z</time>
      </trkpt>
      <trkpt lat="47.64526" lon="6.1636">
        <ele>234.3</ele>
        <time>2020-12-13T15:14:33Z</time>
      </trkpt>
      <trkpt lat="47.64521" lon="6.16359">
        <ele>234.3</ele>
        <time>2020-12-13T15:14:34Z</time>
      </trkpt>
      <trkpt lat="47.64516" lon="6.16359">
        <ele>234.3</ele>
        <time>2020-12-13T15:14:35Z</time>
      </trkpt>
      <trkpt lat="47.64511" lon="6.16358">
        <ele>234.3</ele>
        <time>2020-12-13T15:14:36Z</time>
      </trkpt>
      <trkpt lat="47.64502" lon="6.16357">
        <ele>234.4</ele>
        <time>2020-12-13T15:14:38Z</time>
      </trkpt>
      <trkpt lat="47.64494" lon="6.16356">
        <ele>234.4</ele>
        <time>2020-12-13T15:14:40Z</time>
      </trkpt>
      <trkpt lat="47.64486" lon="6.16354">
        <ele>234.4</ele>
        <time>2020-12-13T15:14:42Z</time>
      </trkpt>
      <trkpt lat="47.64477" lon="6.16352">
        <ele>234.4</ele>
        <time>2020-12-13T15:14:44Z</time>
      </trkpt>
      <trkpt lat="47.64469" lon="6.1635">
        <ele>234.4</ele>
        <time>2020-12-13T15:14:46Z</time>
      </trkpt>
      <trkpt lat="47.64464" lon="6.16349">
        <ele>234.4</ele>
        <time>2020-12-13T15:14:47Z</time>
      </trkpt>
      <trkpt lat="47.64459" lon="6.16347">
        <ele>234.3</ele>
        <time>2020-12-13T15:14:48Z</time>
      </trkpt>
      <trkpt lat="47.64455" lon="6.16345">
        <ele>234.3</ele>
        <time>2020-12-13T15:14:49Z</time>
      </trkpt>
      <trkpt lat="47.64447" lon="6.1634">
        <ele>234.3</ele>
        <time>2020-12-13T15:14:51Z</time>
      </trkpt>
      <trkpt lat="47.6444" lon="6.16336">
        <ele>234.3</ele>
        <time>2020-12-13T15:14:53Z</time>
      </trkpt>
      <trkpt lat="47.64434" lon="6.1633">
        <ele>234.1</ele>
        <time>2020-12-13T15:14:55Z</time>
      </trkpt>
      <trkpt lat="47.64431" lon="6.1632">
        <ele>233.8</ele>
        <time>2020-12-13T15:14:57Z</time>
      </trkpt>
      <trkpt lat="47.64428" lon="6.16313">
        <ele>233.6</ele>
        <time>2020-12-13T15:14:58Z</time>
      </trkpt>
      <trkpt lat="47.64425" lon="6.16308">
        <ele>233.4</ele>
        <time>2020-12-13T15:15:00Z</time>
      </trkpt>
      <trkpt lat="47.64419" lon="6.16304">
        <ele>233.3</ele>
        <time>2020-12-13T15:15:02Z</time>
      </trkpt>
      <trkpt lat="47.64414" lon="6.16304">
        <ele>233.4</ele>
        <time>2020-12-13T15:15:03Z</time>
      </trkpt>
      <trkpt lat="47.64408" lon="6.1631">
        <ele>233.6</ele>
        <time>2020-12-13T15:15:06Z</time>
      </trkpt>
      <trkpt lat="47.64404" lon="6.16318">
        <ele>234</ele>
        <time>2020-12-13T15:15:08Z</time>
      </trkpt>
      <trkpt lat="47.64397" lon="6.16327">
        <ele>234.3</ele>
        <time>2020-12-13T15:15:10Z</time>
      </trkpt>
      <trkpt lat="47.64393" lon="6.1633">
        <ele>234.5</ele>
        <time>2020-12-13T15:15:11Z</time>
      </trkpt>
      <trkpt lat="47.64385" lon="6.16334">
        <ele>234.8</ele>
        <time>2020-12-13T15:15:13Z</time>
      </trkpt>
      <trkpt lat="47.64378" lon="6.16339">
        <ele>234.9</ele>
        <time>2020-12-13T15:15:15Z</time>
      </trkpt>
      <trkpt lat="47.64371" lon="6.16344">
        <ele>235</ele>
        <time>2020-12-13T15:15:17Z</time>
      </trkpt>
      <trkpt lat="47.64366" lon="6.16351">
        <ele>235.1</ele>
        <time>2020-12-13T15:15:18Z</time>
      </trkpt>
      <trkpt lat="47.64363" lon="6.1636">
        <ele>235.1</ele>
        <time>2020-12-13T15:15:20Z</time>
      </trkpt>
      <trkpt lat="47.6436" lon="6.16366">
        <ele>235.1</ele>
        <time>2020-12-13T15:15:21Z</time>
      </trkpt>
      <trkpt lat="47.64357" lon="6.16373">
        <ele>235.1</ele>
        <time>2020-12-13T15:15:22Z</time>
      </trkpt>
      <trkpt lat="47.64355" lon="6.16381">
        <ele>235.1</ele>
        <time>2020-12-13T15:15:23Z</time>
      </trkpt>
      <trkpt lat="47.64353" lon="6.16389">
        <ele>235</ele>
        <time>2020-12-13T15:15:24Z</time>
      </trkpt>
      <trkpt lat="47.6435" lon="6.16397">
        <ele>235</ele>
        <time>2020-12-13T15:15:25Z</time>
      </trkpt>
      <trkpt lat="47.64348" lon="6.16405">
        <ele>234.9</ele>
        <time>2020-12-13T15:15:26Z</time>
      </trkpt>
      <trkpt lat="47.64345" lon="6.16414">
        <ele>234.9</ele>
        <time>2020-12-13T15:15:27Z</time>
      </trkpt>
      <trkpt lat="47.64343" lon="6.16422">
        <ele>234.9</ele>
        <time>2020-12-13T15:15:28Z</time>
      </trkpt>
      <trkpt lat="47.64341" lon="6.16431">
        <ele>234.9</ele>
        <time>2020-12-13T15:15:29Z</time>
      </trkpt>
      <trkpt lat="47.64339" lon="6.16439">
        <ele>234.9</ele>
        <time>2020-12-13T15:15:30Z</time>
      </trkpt>
      <trkpt lat="47.64337" lon="6.16447">
        <ele>234.9</ele>
        <time>2020-12-13T15:15:31Z</time>
      </trkpt>
      <trkpt lat="47.64334" lon="6.16455">
        <ele>235</ele>
        <time>2020-12-13T15:15:32Z</time>
      </trkpt>
      <trkpt lat="47.64332" lon="6.16463">
        <ele>235.1</ele>
        <time>2020-12-13T15:15:33Z</time>
      </trkpt>
      <trkpt lat="47.6433" lon="6.16471">
        <ele>235.1</ele>
        <time>2020-12-13T15:15:34Z</time>
      </trkpt>
      <trkpt lat="47.64329" lon="6.16479">
        <ele>235.2</ele>
        <time>2020-12-13T15:15:35Z</time>
      </trkpt>
      <trkpt lat="47.64327" lon="6.16487">
        <ele>235.3</ele>
        <time>2020-12-13T15:15:36Z</time>
      </trkpt>
      <trkpt lat="47.64325" lon="6.16494">
        <ele>235.3</ele>
        <time>2020-12-13T15:15:37Z</time>
      </trkpt>
      <trkpt lat="47.64323" lon="6.16501">
        <ele>235.4</ele>
        <time>2020-12-13T15:15:38Z</time>
      </trkpt>
      <trkpt lat="47.64321" lon="6.16508">
        <ele>235.4</ele>
        <time>2020-12-13T15:15:39Z</time>
      </trkpt>
      <trkpt lat="47.64319" lon="6.16515">
        <ele>235.5</ele>
        <time>2020-12-13T15:15:40Z</time>
      </trkpt>
      <trkpt lat="47.64317" lon="6.16521">
        <ele>235.6</ele>
        <time>2020-12-13T15:15:41Z</time>
      </trkpt>
      <trkpt lat="47.64315" lon="6.16527">
        <ele>235.7</ele>
        <time>2020-12-13T15:15:42Z</time>
      </trkpt>
      <trkpt lat="47.64313" lon="6.16533">
        <ele>235.7</ele>
        <time>2020-12-13T15:15:43Z</time>
      </trkpt>
      <trkpt lat="47.64311" lon="6.16539">
        <ele>235.8</ele>
        <time>2020-12-13T15:15:44Z</time>
      </trkpt>
      <trkpt lat="47.64308" lon="6.1655">
        <ele>235.9</ele>
        <time>2020-12-13T15:15:46Z</time>
      </trkpt>
      <trkpt lat="47.64305" lon="6.1656">
        <ele>236</ele>
        <time>2020-12-13T15:15:48Z</time>
      </trkpt>
      <trkpt lat="47.64302" lon="6.16572">
        <ele>236.1</ele>
        <time>2020-12-13T15:15:50Z</time>
      </trkpt>
      <trkpt lat="47.643" lon="6.16581">
        <ele>236.2</ele>
        <time>2020-12-13T15:15:52Z</time>
      </trkpt>
      <trkpt lat="47.64296" lon="6.16589">
        <ele>236.4</ele>
        <time>2020-12-13T15:15:55Z</time>
      </trkpt>
      <trkpt lat="47.64294" lon="6.16603">
        <ele>236.7</ele>
        <time>2020-12-13T15:15:57Z</time>
      </trkpt>
      <trkpt lat="47.64293" lon="6.16614">
        <ele>236.8</ele>
        <time>2020-12-13T15:15:59Z</time>
      </trkpt>
      <trkpt lat="47.64291" lon="6.16624">
        <ele>237</ele>
        <time>2020-12-13T15:16:01Z</time>
      </trkpt>
      <trkpt lat="47.64287" lon="6.16632">
        <ele>237.3</ele>
        <time>2020-12-13T15:16:03Z</time>
      </trkpt>
      <trkpt lat="47.64284" lon="6.16641">
        <ele>237.5</ele>
        <time>2020-12-13T15:16:05Z</time>
      </trkpt>
      <trkpt lat="47.64283" lon="6.16649">
        <ele>237.6</ele>
        <time>2020-12-13T15:16:07Z</time>
      </trkpt>
      <trkpt lat="47.64281" lon="6.16657">
        <ele>237.8</ele>
        <time>2020-12-13T15:16:09Z</time>
      </trkpt>
      <trkpt lat="47.64278" lon="6.16664">
        <ele>238</ele>
        <time>2020-12-13T15:16:11Z</time>
      </trkpt>
      <trkpt lat="47.64276" lon="6.16671">
        <ele>238</ele>
        <time>2020-12-13T15:16:13Z</time>
      </trkpt>
      <trkpt lat="47.64274" lon="6.16678">
        <ele>238.1</ele>
        <time>2020-12-13T15:16:14Z</time>
      </trkpt>
      <trkpt lat="47.64271" lon="6.16687">
        <ele>238.2</ele>
        <time>2020-12-13T15:16:17Z</time>
      </trkpt>
      <trkpt lat="47.64269" lon="6.16695">
        <ele>238.2</ele>
        <time>2020-12-13T15:16:19Z</time>
      </trkpt>
      <trkpt lat="47.64266" lon="6.16702">
        <ele>238.3</ele>
        <time>2020-12-13T15:16:21Z</time>
      </trkpt>
      <trkpt lat="47.64263" lon="6.16708">
        <ele>238.5</ele>
        <time>2020-12-13T15:16:23Z</time>
      </trkpt>
      <trkpt lat="47.64261" lon="6.16715">
        <ele>238.5</ele>
        <time>2020-12-13T15:16:25Z</time>
      </trkpt>
      <trkpt lat="47.64258" lon="6.16724">
        <ele>238.6</ele>
        <time>2020-12-13T15:16:27Z</time>
      </trkpt>
      <trkpt lat="47.64256" lon="6.16732">
        <ele>238.7</ele>
        <time>2020-12-13T15:16:30Z</time>
      </trkpt>
      <trkpt lat="47.64254" lon="6.1674">
        <ele>238.8</ele>
        <time>2020-12-13T15:16:32Z</time>
      </trkpt>
      <trkpt lat="47.64253" lon="6.16748">
        <ele>238.9</ele>
        <time>2020-12-13T15:16:34Z</time>
      </trkpt>
      <trkpt lat="47.6425" lon="6.16756">
        <ele>238.9</ele>
        <time>2020-12-13T15:16:36Z</time>
      </trkpt>
      <trkpt lat="47.64247" lon="6.16763">
        <ele>238.7</ele>
        <time>2020-12-13T15:16:38Z</time>
      </trkpt>
      <trkpt lat="47.64246" lon="6.16772">
        <ele>238.5</ele>
        <time>2020-12-13T15:16:40Z</time>
      </trkpt>
      <trkpt lat="47.64244" lon="6.16781">
        <ele>238.3</ele>
        <time>2020-12-13T15:16:42Z</time>
      </trkpt>
      <trkpt lat="47.64242" lon="6.16789">
        <ele>238.2</ele>
        <time>2020-12-13T15:16:44Z</time>
      </trkpt>
      <trkpt lat="47.64239" lon="6.16799">
        <ele>238</ele>
        <time>2020-12-13T15:16:46Z</time>
      </trkpt>
      <trkpt lat="47.64238" lon="6.16807">
        <ele>237.9</ele>
        <time>2020-12-13T15:16:48Z</time>
      </trkpt>
      <trkpt lat="47.64236" lon="6.16817">
        <ele>237.8</ele>
        <time>2020-12-13T15:16:50Z</time>
      </trkpt>
      <trkpt lat="47.64233" lon="6.16826">
        <ele>237.7</ele>
        <time>2020-12-13T15:16:52Z</time>
      </trkpt>
      <trkpt lat="47.64231" lon="6.16835">
        <ele>237.6</ele>
        <time>2020-12-13T15:16:54Z</time>
      </trkpt>
      <trkpt lat="47.6423" lon="6.16843">
        <ele>237.5</ele>
        <time>2020-12-13T15:16:55Z</time>
      </trkpt>
      <trkpt lat="47.64228" lon="6.16852">
        <ele>237.3</ele>
        <time>2020-12-13T15:16:58Z</time>
      </trkpt>
      <trkpt lat="47.64226" lon="6.16863">
        <ele>237.1</ele>
        <time>2020-12-13T15:17:00Z</time>
      </trkpt>
      <trkpt lat="47.64224" lon="6.16872">
        <ele>237</ele>
        <time>2020-12-13T15:17:02Z</time>
      </trkpt>
      <trkpt lat="47.64222" lon="6.16881">
        <ele>236.9</ele>
        <time>2020-12-13T15:17:04Z</time>
      </trkpt>
      <trkpt lat="47.6422" lon="6.16891">
        <ele>236.7</ele>
        <time>2020-12-13T15:17:06Z</time>
      </trkpt>
      <trkpt lat="47.64217" lon="6.16901">
        <ele>236.6</ele>
        <time>2020-12-13T15:17:08Z</time>
      </trkpt>
      <trkpt lat="47.64215" lon="6.1691">
        <ele>236.4</ele>
        <time>2020-12-13T15:17:09Z</time>
      </trkpt>
      <trkpt lat="47.64213" lon="6.16918">
        <ele>236.3</ele>
        <time>2020-12-13T15:17:11Z</time>
      </trkpt>
      <trkpt lat="47.6421" lon="6.16927">
        <ele>236.1</ele>
        <time>2020-12-13T15:17:12Z</time>
      </trkpt>
      <trkpt lat="47.64206" lon="6.16943">
        <ele>235.8</ele>
        <time>2020-12-13T15:17:15Z</time>
      </trkpt>
      <trkpt lat="47.64205" lon="6.1695">
        <ele>235.7</ele>
        <time>2020-12-13T15:17:16Z</time>
      </trkpt>
      <trkpt lat="47.64203" lon="6.16957">
        <ele>235.5</ele>
        <time>2020-12-13T15:17:17Z</time>
      </trkpt>
      <trkpt lat="47.64201" lon="6.16965">
        <ele>235.4</ele>
        <time>2020-12-13T15:17:18Z</time>
      </trkpt>
      <trkpt lat="47.64199" lon="6.16972">
        <ele>235.3</ele>
        <time>2020-12-13T15:17:19Z</time>
      </trkpt>
      <trkpt lat="47.64196" lon="6.1698">
        <ele>235.1</ele>
        <time>2020-12-13T15:17:20Z</time>
      </trkpt>
      <trkpt lat="47.64194" lon="6.16989">
        <ele>235</ele>
        <time>2020-12-13T15:17:21Z</time>
      </trkpt>
      <trkpt lat="47.64192" lon="6.16997">
        <ele>234.9</ele>
        <time>2020-12-13T15:17:22Z</time>
      </trkpt>
      <trkpt lat="47.64189" lon="6.17006">
        <ele>234.5</ele>
        <time>2020-12-13T15:17:23Z</time>
      </trkpt>
      <trkpt lat="47.64187" lon="6.17016">
        <ele>233.9</ele>
        <time>2020-12-13T15:17:24Z</time>
      </trkpt>
      <trkpt lat="47.64185" lon="6.17026">
        <ele>233.3</ele>
        <time>2020-12-13T15:17:25Z</time>
      </trkpt>
      <trkpt lat="47.64182" lon="6.17037">
        <ele>232.7</ele>
        <time>2020-12-13T15:17:26Z</time>
      </trkpt>
      <trkpt lat="47.6418" lon="6.17049">
        <ele>232</ele>
        <time>2020-12-13T15:17:27Z</time>
      </trkpt>
      <trkpt lat="47.64177" lon="6.1706">
        <ele>231.3</ele>
        <time>2020-12-13T15:17:28Z</time>
      </trkpt>
      <trkpt lat="47.64174" lon="6.17073">
        <ele>230.5</ele>
        <time>2020-12-13T15:17:29Z</time>
      </trkpt>
      <trkpt lat="47.64171" lon="6.17086">
        <ele>229.6</ele>
        <time>2020-12-13T15:17:30Z</time>
      </trkpt>
      <trkpt lat="47.64168" lon="6.17099">
        <ele>228.7</ele>
        <time>2020-12-13T15:17:31Z</time>
      </trkpt>
      <trkpt lat="47.64164" lon="6.17112">
        <ele>227.6</ele>
        <time>2020-12-13T15:17:32Z</time>
      </trkpt>
      <trkpt lat="47.64161" lon="6.17126">
        <ele>226.6</ele>
        <time>2020-12-13T15:17:33Z</time>
      </trkpt>
      <trkpt lat="47.64158" lon="6.1714">
        <ele>225.5</ele>
        <time>2020-12-13T15:17:34Z</time>
      </trkpt>
      <trkpt lat="47.64155" lon="6.17155">
        <ele>224.5</ele>
        <time>2020-12-13T15:17:35Z</time>
      </trkpt>
      <trkpt lat="47.64152" lon="6.17169">
        <ele>223.7</ele>
        <time>2020-12-13T15:17:36Z</time>
      </trkpt>
      <trkpt lat="47.64148" lon="6.17184">
        <ele>223.6</ele>
        <time>2020-12-13T15:17:37Z</time>
      </trkpt>
      <trkpt lat="47.64145" lon="6.17198">
        <ele>223.5</ele>
        <time>2020-12-13T15:17:38Z</time>
      </trkpt>
      <trkpt lat="47.64141" lon="6.17211">
        <ele>223.4</ele>
        <time>2020-12-13T15:17:39Z</time>
      </trkpt>
      <trkpt lat="47.64137" lon="6.17223">
        <ele>223.3</ele>
        <time>2020-12-13T15:17:40Z</time>
      </trkpt>
      <trkpt lat="47.64133" lon="6.17234">
        <ele>223.2</ele>
        <time>2020-12-13T15:17:41Z</time>
      </trkpt>
      <trkpt lat="47.64129" lon="6.17245">
        <ele>223</ele>
        <time>2020-12-13T15:17:42Z</time>
      </trkpt>
      <trkpt lat="47.64124" lon="6.17254">
        <ele>222.8</ele>
        <time>2020-12-13T15:17:43Z</time>
      </trkpt>
      <trkpt lat="47.6412" lon="6.17264">
        <ele>222.5</ele>
        <time>2020-12-13T15:17:44Z</time>
      </trkpt>
      <trkpt lat="47.64115" lon="6.17273">
        <ele>222.2</ele>
        <time>2020-12-13T15:17:45Z</time>
      </trkpt>
      <trkpt lat="47.64111" lon="6.17282">
        <ele>221.9</ele>
        <time>2020-12-13T15:17:46Z</time>
      </trkpt>
      <trkpt lat="47.64107" lon="6.17291">
        <ele>221.6</ele>
        <time>2020-12-13T15:17:47Z</time>
      </trkpt>
      <trkpt lat="47.64103" lon="6.17299">
        <ele>221.3</ele>
        <time>2020-12-13T15:17:48Z</time>
      </trkpt>
      <trkpt lat="47.64098" lon="6.17306">
        <ele>221.1</ele>
        <time>2020-12-13T15:17:49Z</time>
      </trkpt>
      <trkpt lat="47.64094" lon="6.17313">
        <ele>220.8</ele>
        <time>2020-12-13T15:17:50Z</time>
      </trkpt>
      <trkpt lat="47.64089" lon="6.1732">
        <ele>220.6</ele>
        <time>2020-12-13T15:17:51Z</time>
      </trkpt>
      <trkpt lat="47.64084" lon="6.17326">
        <ele>220.4</ele>
        <time>2020-12-13T15:17:52Z</time>
      </trkpt>
      <trkpt lat="47.64079" lon="6.17332">
        <ele>220.2</ele>
        <time>2020-12-13T15:17:53Z</time>
      </trkpt>
      <trkpt lat="47.64074" lon="6.17338">
        <ele>220.1</ele>
        <time>2020-12-13T15:17:54Z</time>
      </trkpt>
      <trkpt lat="47.6407" lon="6.17343">
        <ele>220</ele>
        <time>2020-12-13T15:17:55Z</time>
      </trkpt>
      <trkpt lat="47.64065" lon="6.17349">
        <ele>219.9</ele>
        <time>2020-12-13T15:17:56Z</time>
      </trkpt>
      <trkpt lat="47.64061" lon="6.17353">
        <ele>219.8</ele>
        <time>2020-12-13T15:17:57Z</time>
      </trkpt>
      <trkpt lat="47.64056" lon="6.17358">
        <ele>219.8</ele>
        <time>2020-12-13T15:17:58Z</time>
      </trkpt>
      <trkpt lat="47.64052" lon="6.17362">
        <ele>219.7</ele>
        <time>2020-12-13T15:17:59Z</time>
      </trkpt>
      <trkpt lat="47.64047" lon="6.17366">
        <ele>219.7</ele>
        <time>2020-12-13T15:18:00Z</time>
      </trkpt>
      <trkpt lat="47.64042" lon="6.1737">
        <ele>219.7</ele>
        <time>2020-12-13T15:18:01Z</time>
      </trkpt>
      <trkpt lat="47.64037" lon="6.17374">
        <ele>219.7</ele>
        <time>2020-12-13T15:18:02Z</time>
      </trkpt>
      <trkpt lat="47.64033" lon="6.17377">
        <ele>219.6</ele>
        <time>2020-12-13T15:18:03Z</time>
      </trkpt>
      <trkpt lat="47.64028" lon="6.17381">
        <ele>219.6</ele>
        <time>2020-12-13T15:18:04Z</time>
      </trkpt>
      <trkpt lat="47.64023" lon="6.17385">
        <ele>219.6</ele>
        <time>2020-12-13T15:18:05Z</time>
      </trkpt>
      <trkpt lat="47.64019" lon="6.17388">
        <ele>219.6</ele>
        <time>2020-12-13T15:18:06Z</time>
      </trkpt>
      <trkpt lat="47.64014" lon="6.17391">
        <ele>219.6</ele>
        <time>2020-12-13T15:18:07Z</time>
      </trkpt>
      <trkpt lat="47.6401" lon="6.17394">
        <ele>219.6</ele>
        <time>2020-12-13T15:18:08Z</time>
      </trkpt>
      <trkpt lat="47.64005" lon="6.17397">
        <ele>219.6</ele>
        <time>2020-12-13T15:18:09Z</time>
      </trkpt>
      <trkpt lat="47.64001" lon="6.17401">
        <ele>219.5</ele>
        <time>2020-12-13T15:18:10Z</time>
      </trkpt>
      <trkpt lat="47.63998" lon="6.17407">
        <ele>219.3</ele>
        <time>2020-12-13T15:18:11Z</time>
      </trkpt>
      <trkpt lat="47.63996" lon="6.17413">
        <ele>219.1</ele>
        <time>2020-12-13T15:18:12Z</time>
      </trkpt>
      <trkpt lat="47.63996" lon="6.17425">
        <ele>218.9</ele>
        <time>2020-12-13T15:18:14Z</time>
      </trkpt>
      <trkpt lat="47.63998" lon="6.17431">
        <ele>219</ele>
        <time>2020-12-13T15:18:15Z</time>
      </trkpt>
      <trkpt lat="47.64002" lon="6.17442">
        <ele>218.9</ele>
        <time>2020-12-13T15:18:17Z</time>
      </trkpt>
      <trkpt lat="47.64006" lon="6.17448">
        <ele>218.9</ele>
        <time>2020-12-13T15:18:18Z</time>
      </trkpt>
      <trkpt lat="47.64009" lon="6.17454">
        <ele>218.8</ele>
        <time>2020-12-13T15:18:19Z</time>
      </trkpt>
      <trkpt lat="47.64013" lon="6.17459">
        <ele>218.7</ele>
        <time>2020-12-13T15:18:20Z</time>
      </trkpt>
      <trkpt lat="47.64019" lon="6.17463">
        <ele>218.6</ele>
        <time>2020-12-13T15:18:22Z</time>
      </trkpt>
      <trkpt lat="47.64024" lon="6.17468">
        <ele>218.4</ele>
        <time>2020-12-13T15:18:24Z</time>
      </trkpt>
      <trkpt lat="47.64028" lon="6.17475">
        <ele>218.3</ele>
        <time>2020-12-13T15:18:25Z</time>
      </trkpt>
      <trkpt lat="47.64033" lon="6.17484">
        <ele>218.2</ele>
        <time>2020-12-13T15:18:26Z</time>
      </trkpt>
      <trkpt lat="47.64037" lon="6.1749">
        <ele>218.1</ele>
        <time>2020-12-13T15:18:27Z</time>
      </trkpt>
      <trkpt lat="47.64041" lon="6.17497">
        <ele>218</ele>
        <time>2020-12-13T15:18:29Z</time>
      </trkpt>
      <trkpt lat="47.64047" lon="6.17505">
        <ele>217.8</ele>
        <time>2020-12-13T15:18:31Z</time>
      </trkpt>
      <trkpt lat="47.64052" lon="6.17513">
        <ele>217.6</ele>
        <time>2020-12-13T15:18:33Z</time>
      </trkpt>
      <trkpt lat="47.64055" lon="6.17518">
        <ele>217.5</ele>
        <time>2020-12-13T15:18:34Z</time>
      </trkpt>
      <trkpt lat="47.64061" lon="6.17527">
        <ele>217.2</ele>
        <time>2020-12-13T15:18:36Z</time>
      </trkpt>
      <trkpt lat="47.64066" lon="6.17533">
        <ele>217</ele>
        <time>2020-12-13T15:18:37Z</time>
      </trkpt>
      <trkpt lat="47.6407" lon="6.17539">
        <ele>216.8</ele>
        <time>2020-12-13T15:18:39Z</time>
      </trkpt>
      <trkpt lat="47.64076" lon="6.17547">
        <ele>216.6</ele>
        <time>2020-12-13T15:18:41Z</time>
      </trkpt>
      <trkpt lat="47.6408" lon="6.17553">
        <ele>216.5</ele>
        <time>2020-12-13T15:18:42Z</time>
      </trkpt>
      <trkpt lat="47.64086" lon="6.17561">
        <ele>216.3</ele>
        <time>2020-12-13T15:18:44Z</time>
      </trkpt>
      <trkpt lat="47.64092" lon="6.17569">
        <ele>216.4</ele>
        <time>2020-12-13T15:18:46Z</time>
      </trkpt>
      <trkpt lat="47.64099" lon="6.17577">
        <ele>216.6</ele>
        <time>2020-12-13T15:18:48Z</time>
      </trkpt>
      <trkpt lat="47.64103" lon="6.17582">
        <ele>216.7</ele>
        <time>2020-12-13T15:18:49Z</time>
      </trkpt>
      <trkpt lat="47.64107" lon="6.17587">
        <ele>216.8</ele>
        <time>2020-12-13T15:18:50Z</time>
      </trkpt>
      <trkpt lat="47.64112" lon="6.17595">
        <ele>217</ele>
        <time>2020-12-13T15:18:53Z</time>
      </trkpt>
      <trkpt lat="47.64117" lon="6.17602">
        <ele>217.1</ele>
        <time>2020-12-13T15:18:54Z</time>
      </trkpt>
      <trkpt lat="47.64124" lon="6.17611">
        <ele>217.3</ele>
        <time>2020-12-13T15:18:57Z</time>
      </trkpt>
      <trkpt lat="47.64128" lon="6.17617">
        <ele>217.4</ele>
        <time>2020-12-13T15:18:58Z</time>
      </trkpt>
      <trkpt lat="47.64133" lon="6.17623">
        <ele>217.5</ele>
        <time>2020-12-13T15:19:00Z</time>
      </trkpt>
      <trkpt lat="47.64136" lon="6.17627">
        <ele>217.6</ele>
        <time>2020-12-13T15:19:01Z</time>
      </trkpt>
      <trkpt lat="47.6414" lon="6.17633">
        <ele>217.6</ele>
        <time>2020-12-13T15:19:02Z</time>
      </trkpt>
      <trkpt lat="47.64145" lon="6.17639">
        <ele>217.7</ele>
        <time>2020-12-13T15:19:04Z</time>
      </trkpt>
      <trkpt lat="47.64148" lon="6.17643">
        <ele>217.8</ele>
        <time>2020-12-13T15:19:05Z</time>
      </trkpt>
      <trkpt lat="47.64151" lon="6.17648">
        <ele>217.8</ele>
        <time>2020-12-13T15:19:06Z</time>
      </trkpt>
      <trkpt lat="47.64156" lon="6.17654">
        <ele>217.9</ele>
        <time>2020-12-13T15:19:07Z</time>
      </trkpt>
      <trkpt lat="47.64161" lon="6.17661">
        <ele>217.9</ele>
        <time>2020-12-13T15:19:09Z</time>
      </trkpt>
      <trkpt lat="47.64166" lon="6.17667">
        <ele>218</ele>
        <time>2020-12-13T15:19:10Z</time>
      </trkpt>
      <trkpt lat="47.64169" lon="6.17672">
        <ele>217.9</ele>
        <time>2020-12-13T15:19:11Z</time>
      </trkpt>
      <trkpt lat="47.64172" lon="6.17676">
        <ele>217.8</ele>
        <time>2020-12-13T15:19:12Z</time>
      </trkpt>
      <trkpt lat="47.64178" lon="6.17686">
        <ele>217.6</ele>
        <time>2020-12-13T15:19:15Z</time>
      </trkpt>
      <trkpt lat="47.64184" lon="6.17694">
        <ele>217.4</ele>
        <time>2020-12-13T15:19:16Z</time>
      </trkpt>
      <trkpt lat="47.6419" lon="6.17701">
        <ele>217.3</ele>
        <time>2020-12-13T15:19:18Z</time>
      </trkpt>
      <trkpt lat="47.64194" lon="6.17707">
        <ele>217.2</ele>
        <time>2020-12-13T15:19:19Z</time>
      </trkpt>
      <trkpt lat="47.64199" lon="6.17713">
        <ele>217.1</ele>
        <time>2020-12-13T15:19:20Z</time>
      </trkpt>
      <trkpt lat="47.64203" lon="6.17719">
        <ele>217</ele>
        <time>2020-12-13T15:19:22Z</time>
      </trkpt>
      <trkpt lat="47.64207" lon="6.17724">
        <ele>216.9</ele>
        <time>2020-12-13T15:19:23Z</time>
      </trkpt>
      <trkpt lat="47.6421" lon="6.1773">
        <ele>216.8</ele>
        <time>2020-12-13T15:19:24Z</time>
      </trkpt>
      <trkpt lat="47.64215" lon="6.17735">
        <ele>216.7</ele>
        <time>2020-12-13T15:19:25Z</time>
      </trkpt>
      <trkpt lat="47.6422" lon="6.17741">
        <ele>216.6</ele>
        <time>2020-12-13T15:19:27Z</time>
      </trkpt>
      <trkpt lat="47.64226" lon="6.17748">
        <ele>216.5</ele>
        <time>2020-12-13T15:19:29Z</time>
      </trkpt>
      <trkpt lat="47.6423" lon="6.17752">
        <ele>216.5</ele>
        <time>2020-12-13T15:19:30Z</time>
      </trkpt>
      <trkpt lat="47.64235" lon="6.17758">
        <ele>216.7</ele>
        <time>2020-12-13T15:19:31Z</time>
      </trkpt>
      <trkpt lat="47.64243" lon="6.17765">
        <ele>217</ele>
        <time>2020-12-13T15:19:34Z</time>
      </trkpt>
      <trkpt lat="47.64248" lon="6.17769">
        <ele>217.2</ele>
        <time>2020-12-13T15:19:35Z</time>
      </trkpt>
      <trkpt lat="47.64253" lon="6.17773">
        <ele>217.4</ele>
        <time>2020-12-13T15:19:37Z</time>
      </trkpt>
      <trkpt lat="47.64257" lon="6.17776">
        <ele>217.6</ele>
        <time>2020-12-13T15:19:38Z</time>
      </trkpt>
      <trkpt lat="47.64262" lon="6.1778">
        <ele>217.8</ele>
        <time>2020-12-13T15:19:39Z</time>
      </trkpt>
      <trkpt lat="47.64267" lon="6.17783">
        <ele>218</ele>
        <time>2020-12-13T15:19:41Z</time>
      </trkpt>
      <trkpt lat="47.64272" lon="6.17786">
        <ele>218.1</ele>
        <time>2020-12-13T15:19:42Z</time>
      </trkpt>
      <trkpt lat="47.64278" lon="6.1779">
        <ele>218.3</ele>
        <time>2020-12-13T15:19:44Z</time>
      </trkpt>
      <trkpt lat="47.64284" lon="6.17793">
        <ele>218.5</ele>
        <time>2020-12-13T15:19:45Z</time>
      </trkpt>
      <trkpt lat="47.64293" lon="6.17799">
        <ele>218.7</ele>
        <time>2020-12-13T15:19:48Z</time>
      </trkpt>
      <trkpt lat="47.64299" lon="6.17803">
        <ele>218.9</ele>
        <time>2020-12-13T15:19:49Z</time>
      </trkpt>
      <trkpt lat="47.64304" lon="6.17806">
        <ele>219</ele>
        <time>2020-12-13T15:19:51Z</time>
      </trkpt>
      <trkpt lat="47.64313" lon="6.17811">
        <ele>219.1</ele>
        <time>2020-12-13T15:19:53Z</time>
      </trkpt>
      <trkpt lat="47.64318" lon="6.17814">
        <ele>219.1</ele>
        <time>2020-12-13T15:19:54Z</time>
      </trkpt>
      <trkpt lat="47.64322" lon="6.17817">
        <ele>219.2</ele>
        <time>2020-12-13T15:19:55Z</time>
      </trkpt>
      <trkpt lat="47.64326" lon="6.1782">
        <ele>219.2</ele>
        <time>2020-12-13T15:19:56Z</time>
      </trkpt>
      <trkpt lat="47.64331" lon="6.17823">
        <ele>219.2</ele>
        <time>2020-12-13T15:19:57Z</time>
      </trkpt>
      <trkpt lat="47.64339" lon="6.17826">
        <ele>219.3</ele>
        <time>2020-12-13T15:19:59Z</time>
      </trkpt>
      <trkpt lat="47.64346" lon="6.1783">
        <ele>219.4</ele>
        <time>2020-12-13T15:20:01Z</time>
      </trkpt>
      <trkpt lat="47.64354" lon="6.17836">
        <ele>219.5</ele>
        <time>2020-12-13T15:20:03Z</time>
      </trkpt>
      <trkpt lat="47.6436" lon="6.17846">
        <ele>219.7</ele>
        <time>2020-12-13T15:20:05Z</time>
      </trkpt>
      <trkpt lat="47.64363" lon="6.17852">
        <ele>219.9</ele>
        <time>2020-12-13T15:20:06Z</time>
      </trkpt>
      <trkpt lat="47.64368" lon="6.17859">
        <ele>220</ele>
        <time>2020-12-13T15:20:07Z</time>
      </trkpt>
      <trkpt lat="47.64373" lon="6.17866">
        <ele>220.2</ele>
        <time>2020-12-13T15:20:09Z</time>
      </trkpt>
      <trkpt lat="47.64377" lon="6.17871">
        <ele>220.3</ele>
        <time>2020-12-13T15:20:10Z</time>
      </trkpt>
      <trkpt lat="47.64381" lon="6.17876">
        <ele>220.4</ele>
        <time>2020-12-13T15:20:11Z</time>
      </trkpt>
      <trkpt lat="47.64386" lon="6.17884">
        <ele>220.5</ele>
        <time>2020-12-13T15:20:13Z</time>
      </trkpt>
      <trkpt lat="47.6439" lon="6.1789">
        <ele>220.6</ele>
        <time>2020-12-13T15:20:14Z</time>
      </trkpt>
      <trkpt lat="47.64395" lon="6.17898">
        <ele>220.7</ele>
        <time>2020-12-13T15:20:16Z</time>
      </trkpt>
      <trkpt lat="47.64399" lon="6.17905">
        <ele>220.8</ele>
        <time>2020-12-13T15:20:17Z</time>
      </trkpt>
      <trkpt lat="47.64404" lon="6.17913">
        <ele>220.8</ele>
        <time>2020-12-13T15:20:19Z</time>
      </trkpt>
      <trkpt lat="47.64408" lon="6.17919">
        <ele>220.9</ele>
        <time>2020-12-13T15:20:21Z</time>
      </trkpt>
      <trkpt lat="47.64413" lon="6.17929">
        <ele>221.1</ele>
        <time>2020-12-13T15:20:23Z</time>
      </trkpt>
      <trkpt lat="47.64418" lon="6.17937">
        <ele>221.3</ele>
        <time>2020-12-13T15:20:25Z</time>
      </trkpt>
      <trkpt lat="47.64421" lon="6.17942">
        <ele>221.4</ele>
        <time>2020-12-13T15:20:26Z</time>
      </trkpt>
      <trkpt lat="47.64424" lon="6.17948">
        <ele>221.5</ele>
        <time>2020-12-13T15:20:27Z</time>
      </trkpt>
      <trkpt lat="47.64427" lon="6.17953">
        <ele>221.6</ele>
        <time>2020-12-13T15:20:28Z</time>
      </trkpt>
      <trkpt lat="47.64431" lon="6.1796">
        <ele>221.7</ele>
        <time>2020-12-13T15:20:30Z</time>
      </trkpt>
      <trkpt lat="47.64434" lon="6.17965">
        <ele>221.8</ele>
        <time>2020-12-13T15:20:31Z</time>
      </trkpt>
      <trkpt lat="47.64439" lon="6.17974">
        <ele>221.9</ele>
        <time>2020-12-13T15:20:33Z</time>
      </trkpt>
      <trkpt lat="47.64444" lon="6.17984">
        <ele>222.1</ele>
        <time>2020-12-13T15:20:35Z</time>
      </trkpt>
      <trkpt lat="47.64447" lon="6.17989">
        <ele>222.2</ele>
        <time>2020-12-13T15:20:36Z</time>
      </trkpt>
      <trkpt lat="47.64451" lon="6.17998">
        <ele>222.4</ele>
        <time>2020-12-13T15:20:37Z</time>
      </trkpt>
      <trkpt lat="47.64454" lon="6.18004">
        <ele>222.5</ele>
        <time>2020-12-13T15:20:38Z</time>
      </trkpt>
      <trkpt lat="47.64457" lon="6.1801">
        <ele>222.5</ele>
        <time>2020-12-13T15:20:40Z</time>
      </trkpt>
      <trkpt lat="47.6446" lon="6.18016">
        <ele>222.6</ele>
        <time>2020-12-13T15:20:41Z</time>
      </trkpt>
      <trkpt lat="47.64466" lon="6.18025">
        <ele>222.7</ele>
        <time>2020-12-13T15:20:43Z</time>
      </trkpt>
      <trkpt lat="47.6447" lon="6.18031">
        <ele>222.8</ele>
        <time>2020-12-13T15:20:44Z</time>
      </trkpt>
      <trkpt lat="47.64474" lon="6.18036">
        <ele>222.8</ele>
        <time>2020-12-13T15:20:46Z</time>
      </trkpt>
      <trkpt lat="47.6448" lon="6.18041">
        <ele>222.9</ele>
        <time>2020-12-13T15:20:48Z</time>
      </trkpt>
      <trkpt lat="47.64486" lon="6.18046">
        <ele>222.9</ele>
        <time>2020-12-13T15:20:50Z</time>
      </trkpt>
      <trkpt lat="47.64493" lon="6.1805">
        <ele>223</ele>
        <time>2020-12-13T15:20:52Z</time>
      </trkpt>
      <trkpt lat="47.64498" lon="6.18053">
        <ele>223</ele>
        <time>2020-12-13T15:20:53Z</time>
      </trkpt>
      <trkpt lat="47.64505" lon="6.18054">
        <ele>223.9</ele>
        <time>2020-12-13T15:20:55Z</time>
      </trkpt>
      <trkpt lat="47.6451" lon="6.18055">
        <ele>224.7</ele>
        <time>2020-12-13T15:20:57Z</time>
      </trkpt>
      <trkpt lat="47.64514" lon="6.1806">
        <ele>225.5</ele>
        <time>2020-12-13T15:20:59Z</time>
      </trkpt>
      <trkpt lat="47.64519" lon="6.18058">
        <ele>226.4</ele>
        <time>2020-12-13T15:21:02Z</time>
      </trkpt>
      <trkpt lat="47.64517" lon="6.18052">
        <ele>225.9</ele>
        <time>2020-12-13T15:21:04Z</time>
      </trkpt>
      <trkpt lat="47.64512" lon="6.18051">
        <ele>225.1</ele>
        <time>2020-12-13T15:21:06Z</time>
      </trkpt>
      <trkpt lat="47.64507" lon="6.18049">
        <ele>224.2</ele>
        <time>2020-12-13T15:21:07Z</time>
      </trkpt>
      <trkpt lat="47.64498" lon="6.18046">
        <ele>223</ele>
        <time>2020-12-13T15:21:09Z</time>
      </trkpt>
      <trkpt lat="47.64492" lon="6.18042">
        <ele>223</ele>
        <time>2020-12-13T15:21:10Z</time>
      </trkpt>
      <trkpt lat="47.64485" lon="6.18037">
        <ele>222.9</ele>
        <time>2020-12-13T15:21:12Z</time>
      </trkpt>
      <trkpt lat="47.6448" lon="6.18032">
        <ele>222.9</ele>
        <time>2020-12-13T15:21:13Z</time>
      </trkpt>
      <trkpt lat="47.64476" lon="6.18029">
        <ele>222.8</ele>
        <time>2020-12-13T15:21:14Z</time>
      </trkpt>
      <trkpt lat="47.64472" lon="6.18024">
        <ele>222.8</ele>
        <time>2020-12-13T15:21:15Z</time>
      </trkpt>
      <trkpt lat="47.64468" lon="6.1802">
        <ele>222.7</ele>
        <time>2020-12-13T15:21:18Z</time>
      </trkpt>
      <trkpt lat="47.6447" lon="6.18026">
        <ele>222.7</ele>
        <time>2020-12-13T15:21:34Z</time>
      </trkpt>
      <trkpt lat="47.64474" lon="6.18031">
        <ele>222.8</ele>
        <time>2020-12-13T15:21:36Z</time>
      </trkpt>
      <trkpt lat="47.6448" lon="6.18037">
        <ele>222.9</ele>
        <time>2020-12-13T15:21:37Z</time>
      </trkpt>
      <trkpt lat="47.64485" lon="6.1804">
        <ele>222.9</ele>
        <time>2020-12-13T15:21:39Z</time>
      </trkpt>
      <trkpt lat="47.64492" lon="6.18043">
        <ele>223</ele>
        <time>2020-12-13T15:21:41Z</time>
      </trkpt>
      <trkpt lat="47.64499" lon="6.18047">
        <ele>223</ele>
        <time>2020-12-13T15:21:43Z</time>
      </trkpt>
      <trkpt lat="47.64504" lon="6.18055">
        <ele>223.8</ele>
        <time>2020-12-13T15:21:45Z</time>
      </trkpt>
      <trkpt lat="47.64507" lon="6.18062">
        <ele>224.3</ele>
        <time>2020-12-13T15:21:46Z</time>
      </trkpt>
      <trkpt lat="47.64506" lon="6.18071">
        <ele>224.1</ele>
        <time>2020-12-13T15:21:48Z</time>
      </trkpt>
      <trkpt lat="47.64504" lon="6.18078">
        <ele>223.9</ele>
        <time>2020-12-13T15:21:50Z</time>
      </trkpt>
      <trkpt lat="47.64503" lon="6.18085">
        <ele>223.6</ele>
        <time>2020-12-13T15:21:52Z</time>
      </trkpt>
      <trkpt lat="47.64502" lon="6.18093">
        <ele>223.5</ele>
        <time>2020-12-13T15:21:52Z</time>
      </trkpt>
      <trkpt lat="47.64499" lon="6.18105">
        <ele>223.5</ele>
        <time>2020-12-13T15:21:54Z</time>
      </trkpt>
      <trkpt lat="47.64496" lon="6.18121">
        <ele>223.8</ele>
        <time>2020-12-13T15:21:56Z</time>
      </trkpt>
      <trkpt lat="47.64494" lon="6.18133">
        <ele>224.1</ele>
        <time>2020-12-13T15:21:58Z</time>
      </trkpt>
      <trkpt lat="47.64493" lon="6.18144">
        <ele>224.3</ele>
        <time>2020-12-13T15:22:00Z</time>
      </trkpt>
      <trkpt lat="47.64493" lon="6.18151">
        <ele>224.5</ele>
        <time>2020-12-13T15:22:01Z</time>
      </trkpt>
      <trkpt lat="47.64494" lon="6.18161">
        <ele>224.7</ele>
        <time>2020-12-13T15:22:03Z</time>
      </trkpt>
      <trkpt lat="47.64497" lon="6.18172">
        <ele>225.3</ele>
        <time>2020-12-13T15:22:05Z</time>
      </trkpt>
      <trkpt lat="47.64501" lon="6.18181">
        <ele>226.1</ele>
        <time>2020-12-13T15:22:07Z</time>
      </trkpt>
      <trkpt lat="47.64501" lon="6.1819">
        <ele>226.9</ele>
        <time>2020-12-13T15:22:09Z</time>
      </trkpt>
      <trkpt lat="47.64499" lon="6.18197">
        <ele>227.2</ele>
        <time>2020-12-13T15:22:11Z</time>
      </trkpt>
      <trkpt lat="47.64497" lon="6.18205">
        <ele>227.6</ele>
        <time>2020-12-13T15:22:13Z</time>
      </trkpt>
      <trkpt lat="47.64496" lon="6.18213">
        <ele>228</ele>
        <time>2020-12-13T15:22:15Z</time>
      </trkpt>
      <trkpt lat="47.64494" lon="6.18219">
        <ele>228.3</ele>
        <time>2020-12-13T15:22:17Z</time>
      </trkpt>
      <trkpt lat="47.64491" lon="6.18225">
        <ele>228.5</ele>
        <time>2020-12-13T15:22:19Z</time>
      </trkpt>
      <trkpt lat="47.64488" lon="6.18231">
        <ele>228.6</ele>
        <time>2020-12-13T15:22:21Z</time>
      </trkpt>
      <trkpt lat="47.64485" lon="6.18237">
        <ele>228.6</ele>
        <time>2020-12-13T15:22:22Z</time>
      </trkpt>
      <trkpt lat="47.64479" lon="6.18248">
        <ele>228.7</ele>
        <time>2020-12-13T15:22:25Z</time>
      </trkpt>
      <trkpt lat="47.64476" lon="6.18254">
        <ele>228.9</ele>
        <time>2020-12-13T15:22:26Z</time>
      </trkpt>
      <trkpt lat="47.64472" lon="6.18261">
        <ele>229.4</ele>
        <time>2020-12-13T15:22:27Z</time>
      </trkpt>
      <trkpt lat="47.64467" lon="6.18268">
        <ele>229.6</ele>
        <time>2020-12-13T15:22:29Z</time>
      </trkpt>
      <trkpt lat="47.64462" lon="6.18275">
        <ele>229.8</ele>
        <time>2020-12-13T15:22:30Z</time>
      </trkpt>
      <trkpt lat="47.64457" lon="6.18282">
        <ele>229.9</ele>
        <time>2020-12-13T15:22:32Z</time>
      </trkpt>
      <trkpt lat="47.64452" lon="6.18287">
        <ele>229.9</ele>
        <time>2020-12-13T15:22:35Z</time>
      </trkpt>
      <trkpt lat="47.64448" lon="6.18292">
        <ele>229.7</ele>
        <time>2020-12-13T15:22:36Z</time>
      </trkpt>
      <trkpt lat="47.64444" lon="6.18297">
        <ele>229.6</ele>
        <time>2020-12-13T15:22:38Z</time>
      </trkpt>
      <trkpt lat="47.6444" lon="6.18302">
        <ele>229.5</ele>
        <time>2020-12-13T15:22:44Z</time>
      </trkpt>
      <trkpt lat="47.64441" lon="6.18308">
        <ele>230.3</ele>
        <time>2020-12-13T15:22:47Z</time>
      </trkpt>
      <trkpt lat="47.64441" lon="6.18315">
        <ele>231</ele>
        <time>2020-12-13T15:22:50Z</time>
      </trkpt>
      <trkpt lat="47.6444" lon="6.18322">
        <ele>231.5</ele>
        <time>2020-12-13T15:22:57Z</time>
      </trkpt>
    </trkseg>
  </trk>
</gpx>